<?xml version='1.0' encoding='UTF-8'?><gpx version="1.1" creator="JPX - https://github.com/jenetics/jpx" xmlns="http://www.topografix.com/GPX/1/1"><trk><trkseg><trkpt lat="44.17304618596807" lon="9.611211130262998"><ele>15.0</ele><time>2026-04-06T13:00:38Z</time></trkpt><trkpt lat="44.17312143979029" lon="9.611328787141547"><ele>15.0</ele><time>2026-04-06T13:00:40Z</time></trkpt><trkpt lat="44.1731999121309" lon="9.611437494641606"><ele>15.0</ele><time>2026-04-06T13:00:41Z</time></trkpt><trkpt lat="44.17325934929307" lon="9.611528642663234"><ele>15.0</ele><time>2026-04-06T13:00:42Z</time></trkpt><trkpt lat="44.17330533168171" lon="9.61163044002741"><ele>15.0</ele><time>2026-04-06T13:00:43Z</time></trkpt><trkpt lat="44.17338120422722" lon="9.611730021010924"><ele>17.0</ele><time>2026-04-06T13:00:44Z</time></trkpt><trkpt lat="44.173461624619705" lon="9.61183480627958"><ele>19.0</ele><time>2026-04-06T13:00:45Z</time></trkpt><trkpt lat="44.17354126660906" lon="9.611932021778106"><ele>21.0</ele><time>2026-04-06T13:00:46Z</time></trkpt><trkpt lat="44.173622346166724" lon="9.612038828885899"><ele>23.0</ele><time>2026-04-06T13:00:47Z</time></trkpt><trkpt lat="44.173703448591404" lon="9.612125108842044"><ele>25.0</ele><time>2026-04-06T13:00:48Z</time></trkpt><trkpt lat="44.17376506847144" lon="9.612175638326224"><ele>25.0</ele><time>2026-04-06T13:00:49Z</time></trkpt><trkpt lat="44.17383142249373" lon="9.612068170266607"><ele>25.0</ele><time>2026-04-06T13:00:51Z</time></trkpt><trkpt lat="44.173798179540356" lon="9.61194366174265"><ele>25.0</ele><time>2026-04-06T13:00:53Z</time></trkpt><trkpt lat="44.17367534886755" lon="9.611823396532829"><ele>25.0</ele><time>2026-04-06T13:00:55Z</time></trkpt><trkpt lat="44.17361485871612" lon="9.611734664101697"><ele>25.0</ele><time>2026-04-06T13:00:56Z</time></trkpt><trkpt lat="44.17354760362548" lon="9.611633362185685"><ele>26.8</ele><time>2026-04-06T13:00:57Z</time></trkpt><trkpt lat="44.17348662927774" lon="9.61152381379591"><ele>28.6</ele><time>2026-04-06T13:00:58Z</time></trkpt><trkpt lat="44.173417456603495" lon="9.611411288419946"><ele>30.4</ele><time>2026-04-06T13:00:59Z</time></trkpt><trkpt lat="44.17335276055839" lon="9.61130513897135"><ele>32.2</ele><time>2026-04-06T13:01:00Z</time></trkpt><trkpt lat="44.17328098148433" lon="9.611179328694114"><ele>34.0</ele><time>2026-04-06T13:01:01Z</time></trkpt><trkpt lat="44.17322440300607" lon="9.611043807946997"><ele>37.0</ele><time>2026-04-06T13:01:02Z</time></trkpt><trkpt lat="44.173186310544835" lon="9.610926842674335"><ele>40.0</ele><time>2026-04-06T13:01:03Z</time></trkpt><trkpt lat="44.173178612277205" lon="9.610801020022077"><ele>43.0</ele><time>2026-04-06T13:01:04Z</time></trkpt><trkpt lat="44.17322737465554" lon="9.610657720467051"><ele>46.0</ele><time>2026-04-06T13:01:05Z</time></trkpt><trkpt lat="44.1732447011951" lon="9.610548241264432"><ele>49.0</ele><time>2026-04-06T13:01:06Z</time></trkpt><trkpt lat="44.17326479123874" lon="9.61041617080313"><ele>50.2</ele><time>2026-04-06T13:01:07Z</time></trkpt><trkpt lat="44.1732650539007" lon="9.610276751926584"><ele>51.400000000000006</ele><time>2026-04-06T13:01:08Z</time></trkpt><trkpt lat="44.17328187003637" lon="9.610152496016557"><ele>52.6</ele><time>2026-04-06T13:01:08.999Z</time></trkpt><trkpt lat="44.173298517820974" lon="9.610006746920885"><ele>53.8</ele><time>2026-04-06T13:01:09.999Z</time></trkpt><trkpt lat="44.17330839201247" lon="9.60985941688597"><ele>55.0</ele><time>2026-04-06T13:01:10.999Z</time></trkpt><trkpt lat="44.173281417776906" lon="9.609722300299032"><ele>55.0</ele><time>2026-04-06T13:01:11.999Z</time></trkpt><trkpt lat="44.17326705081612" lon="9.609561234320402"><ele>55.0</ele><time>2026-04-06T13:01:12.999Z</time></trkpt><trkpt lat="44.17323110632924" lon="9.609414336440285"><ele>55.0</ele><time>2026-04-06T13:01:13.999Z</time></trkpt><trkpt lat="44.173186092911884" lon="9.609286881537603"><ele>55.0</ele><time>2026-04-06T13:01:14.999Z</time></trkpt><trkpt lat="44.17315931681411" lon="9.609177927907814"><ele>55.0</ele><time>2026-04-06T13:01:15.999Z</time></trkpt><trkpt lat="44.173131854837564" lon="9.609082364969426"><ele>50.49999999999999</ele><time>2026-04-06T13:01:16.999Z</time></trkpt><trkpt lat="44.17310518676912" lon="9.60898910846737"><ele>46.0</ele><time>2026-04-06T13:01:17.999Z</time></trkpt><trkpt lat="44.173083919010224" lon="9.608905438134999"><ele>41.5</ele><time>2026-04-06T13:01:18.999Z</time></trkpt><trkpt lat="44.17303900093174" lon="9.608760651124019"><ele>37.0</ele><time>2026-04-06T13:01:20.999Z</time></trkpt><trkpt lat="44.17301388086881" lon="9.608679866526492"><ele>32.5</ele><time>2026-04-06T13:01:21.999Z</time></trkpt><trkpt lat="44.17296156446559" lon="9.608528264877542"><ele>28.0</ele><time>2026-04-06T13:01:23.999Z</time></trkpt><trkpt lat="44.17292187849601" lon="9.608375557440311"><ele>28.0</ele><time>2026-04-06T13:01:25.999Z</time></trkpt><trkpt lat="44.17288160680232" lon="9.608225873532861"><ele>27.999999999999996</ele><time>2026-04-06T13:01:27.999Z</time></trkpt><trkpt lat="44.17286275092775" lon="9.608066875274888"><ele>27.999999999999996</ele><time>2026-04-06T13:01:29.999Z</time></trkpt><trkpt lat="44.17286328158342" lon="9.607971085514881"><ele>28.0</ele><time>2026-04-06T13:01:30.999Z</time></trkpt><trkpt lat="44.17285203679068" lon="9.607823898662007"><ele>28.0</ele><time>2026-04-06T13:01:32.999Z</time></trkpt><trkpt lat="44.17286465361656" lon="9.607678651668445"><ele>29.0</ele><time>2026-04-06T13:01:34.999Z</time></trkpt><trkpt lat="44.17285235777562" lon="9.607552825246891"><ele>29.999999999999996</ele><time>2026-04-06T13:01:36.999Z</time></trkpt><trkpt lat="44.17285212844905" lon="9.607441180690921"><ele>30.999999999999996</ele><time>2026-04-06T13:01:38.999Z</time></trkpt><trkpt lat="44.17285035697623" lon="9.607336318579003"><ele>32.0</ele><time>2026-04-06T13:01:39.999Z</time></trkpt><trkpt lat="44.17284631665724" lon="9.607177343396305"><ele>33.0</ele><time>2026-04-06T13:01:41.999Z</time></trkpt><trkpt lat="44.1728455207683" lon="9.60701758382683"><ele>32.4</ele><time>2026-04-06T13:01:43.999Z</time></trkpt><trkpt lat="44.172860930134526" lon="9.606856098731633"><ele>31.799999999999997</ele><time>2026-04-06T13:01:45.999Z</time></trkpt><trkpt lat="44.172908115456636" lon="9.606720121089632"><ele>31.2</ele><time>2026-04-06T13:01:47.999Z</time></trkpt><trkpt lat="44.172924822702434" lon="9.606630156735"><ele>30.6</ele><time>2026-04-06T13:01:48.999Z</time></trkpt><trkpt lat="44.17297325324855" lon="9.606544426405412"><ele>30.0</ele><time>2026-04-06T13:01:50.999Z</time></trkpt><trkpt lat="44.173011791384674" lon="9.606438052213454"><ele>30.0</ele><time>2026-04-06T13:01:52.999Z</time></trkpt><trkpt lat="44.173090754793456" lon="9.606301812426508"><ele>30.0</ele><time>2026-04-06T13:01:54.999Z</time></trkpt><trkpt lat="44.17313171380637" lon="9.606215239051645"><ele>30.0</ele><time>2026-04-06T13:01:55.999Z</time></trkpt><trkpt lat="44.17316545367138" lon="9.60609307875668"><ele>30.0</ele><time>2026-04-06T13:01:56.999Z</time></trkpt><trkpt lat="44.17320320545664" lon="9.605964351369453"><ele>30.0</ele><time>2026-04-06T13:01:57.999Z</time></trkpt><trkpt lat="44.173248858515315" lon="9.605839945343513"><ele>36.4</ele><time>2026-04-06T13:01:58.999Z</time></trkpt><trkpt lat="44.17331808029509" lon="9.60575346105858"><ele>42.8</ele><time>2026-04-06T13:01:59.999Z</time></trkpt><trkpt lat="44.17338709035225" lon="9.60566960353877"><ele>49.2</ele><time>2026-04-06T13:02:00.999Z</time></trkpt><trkpt lat="44.173506149245874" lon="9.605639239123263"><ele>55.6</ele><time>2026-04-06T13:02:01.999Z</time></trkpt><trkpt lat="44.17359722786933" lon="9.605578866665986"><ele>62.0</ele><time>2026-04-06T13:02:02.999Z</time></trkpt><trkpt lat="44.17372439562233" lon="9.605578454174177"><ele>62.0</ele><time>2026-04-06T13:02:03.999Z</time></trkpt><trkpt lat="44.173830435229725" lon="9.605561472647661"><ele>62.0</ele><time>2026-04-06T13:02:04.999Z</time></trkpt><trkpt lat="44.1739488423842" lon="9.605550455243291"><ele>62.0</ele><time>2026-04-06T13:02:05.999Z</time></trkpt><trkpt lat="44.174062804811925" lon="9.60555310599473"><ele>62.0</ele><time>2026-04-06T13:02:06.999Z</time></trkpt><trkpt lat="44.17418660239002" lon="9.605561118962125"><ele>67.25</ele><time>2026-04-06T13:02:07.999Z</time></trkpt><trkpt lat="44.17432397715164" lon="9.605561685225886"><ele>72.5</ele><time>2026-04-06T13:02:08.999Z</time></trkpt><trkpt lat="44.17444602850515" lon="9.60553201212852"><ele>77.75</ele><time>2026-04-06T13:02:09.999Z</time></trkpt><trkpt lat="44.17457436454667" lon="9.60548772292338"><ele>83.0</ele><time>2026-04-06T13:02:10.999Z</time></trkpt><trkpt lat="44.17469646682469" lon="9.605436882121985"><ele>83.0</ele><time>2026-04-06T13:02:11.999Z</time></trkpt><trkpt lat="44.17482901733059" lon="9.605380819004418"><ele>83.0</ele><time>2026-04-06T13:02:12.999Z</time></trkpt><trkpt lat="44.174953670581786" lon="9.605288978256528"><ele>83.0</ele><time>2026-04-06T13:02:13.999Z</time></trkpt><trkpt lat="44.175076409628836" lon="9.605201763060784"><ele>83.0</ele><time>2026-04-06T13:02:14.999Z</time></trkpt><trkpt lat="44.175203379184026" lon="9.605120785465767"><ele>81.25</ele><time>2026-04-06T13:02:15.998Z</time></trkpt><trkpt lat="44.175335149230726" lon="9.605052337103697"><ele>79.5</ele><time>2026-04-06T13:02:16.998Z</time></trkpt><trkpt lat="44.17547377187324" lon="9.605002692160202"><ele>77.75</ele><time>2026-04-06T13:02:17.998Z</time></trkpt><trkpt lat="44.1756200721211" lon="9.604962560484616"><ele>76.0</ele><time>2026-04-06T13:02:18.998Z</time></trkpt><trkpt lat="44.175762084648184" lon="9.604924489142759"><ele>79.5</ele><time>2026-04-06T13:02:19.998Z</time></trkpt><trkpt lat="44.17590337981308" lon="9.60488266229313"><ele>83.0</ele><time>2026-04-06T13:02:20.998Z</time></trkpt><trkpt lat="44.17604978712363" lon="9.60484693412668"><ele>86.5</ele><time>2026-04-06T13:02:21.998Z</time></trkpt><trkpt lat="44.17619767113854" lon="9.604821809362862"><ele>90.0</ele><time>2026-04-06T13:02:22.998Z</time></trkpt><trkpt lat="44.176346578632504" lon="9.604804513533693"><ele>90.0</ele><time>2026-04-06T13:02:23.998Z</time></trkpt><trkpt lat="44.17648897000712" lon="9.60480727756522"><ele>90.0</ele><time>2026-04-06T13:02:24.998Z</time></trkpt><trkpt lat="44.17664763151651" lon="9.604838886812452"><ele>90.0</ele><time>2026-04-06T13:02:25.998Z</time></trkpt><trkpt lat="44.17678661097818" lon="9.604871121721358"><ele>90.0</ele><time>2026-04-06T13:02:26.998Z</time></trkpt><trkpt lat="44.17693568818492" lon="9.60491046120065"><ele>93.66666666666666</ele><time>2026-04-06T13:02:27.998Z</time></trkpt><trkpt lat="44.177078505352455" lon="9.604964695979604"><ele>97.33333333333333</ele><time>2026-04-06T13:02:28.998Z</time></trkpt><trkpt lat="44.17721994064115" lon="9.605048415745555"><ele>101.0</ele><time>2026-04-06T13:02:29.998Z</time></trkpt><trkpt lat="44.17734123777095" lon="9.605166730113114"><ele>101.0</ele><time>2026-04-06T13:02:30.998Z</time></trkpt><trkpt lat="44.17746480943385" lon="9.605299156316937"><ele>101.0</ele><time>2026-04-06T13:02:31.998Z</time></trkpt><trkpt lat="44.177582275445666" lon="9.605417121668756"><ele>101.0</ele><time>2026-04-06T13:02:33Z</time></trkpt><trkpt lat="44.177712393647404" lon="9.605521553109282"><ele>107.25</ele><time>2026-04-06T13:02:34Z</time></trkpt><trkpt lat="44.17784888241864" lon="9.605603842769058"><ele>113.5</ele><time>2026-04-06T13:02:35Z</time></trkpt><trkpt lat="44.17798894516673" lon="9.60566757892018"><ele>119.75</ele><time>2026-04-06T13:02:36Z</time></trkpt><trkpt lat="44.178120397749474" lon="9.605701332073115"><ele>126.0</ele><time>2026-04-06T13:02:37Z</time></trkpt><trkpt lat="44.17823901608663" lon="9.605719805968308"><ele>126.0</ele><time>2026-04-06T13:02:38Z</time></trkpt><trkpt lat="44.17835347006271" lon="9.605707513534982"><ele>126.0</ele><time>2026-04-06T13:02:39Z</time></trkpt><trkpt lat="44.178457205260415" lon="9.605664141013511"><ele>126.0</ele><time>2026-04-06T13:02:40Z</time></trkpt><trkpt lat="44.17854196234927" lon="9.605610330658207"><ele>126.0</ele><time>2026-04-06T13:02:41Z</time></trkpt><trkpt lat="44.178585210688475" lon="9.605516998280237"><ele>126.0</ele><time>2026-04-06T13:02:42Z</time></trkpt><trkpt lat="44.17859273543588" lon="9.605407092671008"><ele>125.0</ele><time>2026-04-06T13:02:43Z</time></trkpt><trkpt lat="44.17854680235233" lon="9.605295165752018"><ele>124.0</ele><time>2026-04-06T13:02:44Z</time></trkpt><trkpt lat="44.17847087842873" lon="9.605230665213204"><ele>123.0</ele><time>2026-04-06T13:02:45Z</time></trkpt><trkpt lat="44.17839051048757" lon="9.605183178507197"><ele>122.0</ele><time>2026-04-06T13:02:46Z</time></trkpt><trkpt lat="44.17832401477573" lon="9.605121765599845"><ele>121.0</ele><time>2026-04-06T13:02:47Z</time></trkpt><trkpt lat="44.17826536709825" lon="9.605043907630476"><ele>120.0</ele><time>2026-04-06T13:02:48Z</time></trkpt><trkpt lat="44.17820771788784" lon="9.604958456067285"><ele>120.0</ele><time>2026-04-06T13:02:49Z</time></trkpt><trkpt lat="44.178168518047386" lon="9.604852184896144"><ele>120.0</ele><time>2026-04-06T13:02:50Z</time></trkpt><trkpt lat="44.17814804073215" lon="9.60472479315098"><ele>120.0</ele><time>2026-04-06T13:02:51Z</time></trkpt><trkpt lat="44.17821535918464" lon="9.604558254032746"><ele>120.0</ele><time>2026-04-06T13:02:52Z</time></trkpt><trkpt lat="44.17819901674903" lon="9.60443455812765"><ele>120.0</ele><time>2026-04-06T13:02:53Z</time></trkpt><trkpt lat="44.17818853870161" lon="9.604301753404584"><ele>122.2</ele><time>2026-04-06T13:02:54Z</time></trkpt><trkpt lat="44.17815884934437" lon="9.604178448786445"><ele>124.4</ele><time>2026-04-06T13:02:55Z</time></trkpt><trkpt lat="44.17815645821523" lon="9.604021511956274"><ele>126.6</ele><time>2026-04-06T13:02:56Z</time></trkpt><trkpt lat="44.17815698054689" lon="9.60387406110277"><ele>128.8</ele><time>2026-04-06T13:02:57Z</time></trkpt><trkpt lat="44.17817013709381" lon="9.603735737915324"><ele>131.0</ele><time>2026-04-06T13:02:58Z</time></trkpt><trkpt lat="44.178186132162374" lon="9.60359614966641"><ele>131.0</ele><time>2026-04-06T13:02:59Z</time></trkpt><trkpt lat="44.17819585739695" lon="9.603457078588997"><ele>131.0</ele><time>2026-04-06T13:03:00Z</time></trkpt><trkpt lat="44.178240662238174" lon="9.603309990637888"><ele>131.0</ele><time>2026-04-06T13:03:01Z</time></trkpt><trkpt lat="44.17827139500172" lon="9.603184798516242"><ele>131.0</ele><time>2026-04-06T13:03:02Z</time></trkpt><trkpt lat="44.178290171463026" lon="9.603053138143261"><ele>131.0</ele><time>2026-04-06T13:03:03Z</time></trkpt><trkpt lat="44.17831898596146" lon="9.602915350151935"><ele>131.6</ele><time>2026-04-06T13:03:04Z</time></trkpt><trkpt lat="44.178325119736925" lon="9.602772891881637"><ele>132.2</ele><time>2026-04-06T13:03:05Z</time></trkpt><trkpt lat="44.17832647729531" lon="9.602597537467355"><ele>132.8</ele><time>2026-04-06T13:03:06Z</time></trkpt><trkpt lat="44.178353132777744" lon="9.602471508713652"><ele>133.4</ele><time>2026-04-06T13:03:07Z</time></trkpt><trkpt lat="44.17839551615159" lon="9.602347320868224"><ele>134.0</ele><time>2026-04-06T13:03:08Z</time></trkpt><trkpt lat="44.17844605643175" lon="9.602217337923086"><ele>134.0</ele><time>2026-04-06T13:03:09Z</time></trkpt><trkpt lat="44.1784699965246" lon="9.60209960159304"><ele>134.0</ele><time>2026-04-06T13:03:10Z</time></trkpt><trkpt lat="44.178444390739045" lon="9.601980554859338"><ele>134.0</ele><time>2026-04-06T13:03:11Z</time></trkpt><trkpt lat="44.17841380536771" lon="9.601863803026264"><ele>134.0</ele><time>2026-04-06T13:03:12Z</time></trkpt><trkpt lat="44.178371038246034" lon="9.60173846686325"><ele>134.0</ele><time>2026-04-06T13:03:13Z</time></trkpt><trkpt lat="44.178366435584536" lon="9.601634748653549"><ele>134.0</ele><time>2026-04-06T13:03:14Z</time></trkpt><trkpt lat="44.178395399754585" lon="9.601531996827942"><ele>134.0</ele><time>2026-04-06T13:03:15Z</time></trkpt><trkpt lat="44.17844918955826" lon="9.601430168402361"><ele>134.0</ele><time>2026-04-06T13:03:15.999Z</time></trkpt><trkpt lat="44.17849408386875" lon="9.60133316075386"><ele>134.0</ele><time>2026-04-06T13:03:16.999Z</time></trkpt><trkpt lat="44.17851953870145" lon="9.601224528251775"><ele>134.0</ele><time>2026-04-06T13:03:17.999Z</time></trkpt><trkpt lat="44.17850270764034" lon="9.601098338425937"><ele>134.0</ele><time>2026-04-06T13:03:18.999Z</time></trkpt><trkpt lat="44.17845217381007" lon="9.6009902789868"><ele>134.0</ele><time>2026-04-06T13:03:19.999Z</time></trkpt><trkpt lat="44.178393949542034" lon="9.600868809135214"><ele>134.0</ele><time>2026-04-06T13:03:20.999Z</time></trkpt><trkpt lat="44.178367268295204" lon="9.600742355551482"><ele>134.0</ele><time>2026-04-06T13:03:21.999Z</time></trkpt><trkpt lat="44.17840846393676" lon="9.600608613669104"><ele>134.0</ele><time>2026-04-06T13:03:22.999Z</time></trkpt><trkpt lat="44.17842969492195" lon="9.600471061903157"><ele>134.0</ele><time>2026-04-06T13:03:23.999Z</time></trkpt><trkpt lat="44.17846757673701" lon="9.600341427493285"><ele>134.0</ele><time>2026-04-06T13:03:24.999Z</time></trkpt><trkpt lat="44.178521081950436" lon="9.600224649112732"><ele>133.8</ele><time>2026-04-06T13:03:25.999Z</time></trkpt><trkpt lat="44.17860074804525" lon="9.600125757818015"><ele>133.60000000000002</ele><time>2026-04-06T13:03:26.999Z</time></trkpt><trkpt lat="44.17866871870747" lon="9.60003481974623"><ele>133.4</ele><time>2026-04-06T13:03:27.999Z</time></trkpt><trkpt lat="44.17874437207528" lon="9.599952025497913"><ele>133.20000000000002</ele><time>2026-04-06T13:03:28.999Z</time></trkpt><trkpt lat="44.178837119654254" lon="9.599867321722243"><ele>133.0</ele><time>2026-04-06T13:03:29.999Z</time></trkpt><trkpt lat="44.17891440995953" lon="9.59980980709823"><ele>133.0</ele><time>2026-04-06T13:03:30.999Z</time></trkpt><trkpt lat="44.178995649714835" lon="9.599701072614913"><ele>133.0</ele><time>2026-04-06T13:03:31.999Z</time></trkpt><trkpt lat="44.17907070142791" lon="9.599618451234704"><ele>133.0</ele><time>2026-04-06T13:03:32.999Z</time></trkpt><trkpt lat="44.179109767249365" lon="9.599525756095732"><ele>133.0</ele><time>2026-04-06T13:03:33.999Z</time></trkpt><trkpt lat="44.17912865048179" lon="9.599405308475456"><ele>133.0</ele><time>2026-04-06T13:03:34.999Z</time></trkpt><trkpt lat="44.179096198132235" lon="9.599295104880667"><ele>136.0</ele><time>2026-04-06T13:03:35.999Z</time></trkpt><trkpt lat="44.179041000381886" lon="9.599181035018935"><ele>139.0</ele><time>2026-04-06T13:03:36.999Z</time></trkpt><trkpt lat="44.17900903247544" lon="9.599070464158334"><ele>142.0</ele><time>2026-04-06T13:03:37.999Z</time></trkpt><trkpt lat="44.178974955044275" lon="9.598950836900473"><ele>145.0</ele><time>2026-04-06T13:03:38.999Z</time></trkpt><trkpt lat="44.17891413681058" lon="9.598850688588634"><ele>148.0</ele><time>2026-04-06T13:03:39.999Z</time></trkpt><trkpt lat="44.178828532434984" lon="9.598776659301937"><ele>148.0</ele><time>2026-04-06T13:03:40.999Z</time></trkpt><trkpt lat="44.178728125892256" lon="9.598724839624303"><ele>148.0</ele><time>2026-04-06T13:03:41.999Z</time></trkpt><trkpt lat="44.17863015147687" lon="9.598693982277089"><ele>148.0</ele><time>2026-04-06T13:03:42.999Z</time></trkpt><trkpt lat="44.178529632378286" lon="9.598680233747634"><ele>148.0</ele><time>2026-04-06T13:03:43.999Z</time></trkpt><trkpt lat="44.178424687722604" lon="9.598719281379864"><ele>148.0</ele><time>2026-04-06T13:03:44.999Z</time></trkpt><trkpt lat="44.17829711441732" lon="9.598772829116363"><ele>148.0</ele><time>2026-04-06T13:03:45.999Z</time></trkpt><trkpt lat="44.178203845270474" lon="9.598802648087062"><ele>148.0</ele><time>2026-04-06T13:03:46.999Z</time></trkpt><trkpt lat="44.17809564825743" lon="9.598827966801931"><ele>148.0</ele><time>2026-04-06T13:03:47.999Z</time></trkpt><trkpt lat="44.17798441004505" lon="9.598843211092408"><ele>148.0</ele><time>2026-04-06T13:03:48.999Z</time></trkpt><trkpt lat="44.177870928355766" lon="9.598866512961445"><ele>148.0</ele><time>2026-04-06T13:03:49.999Z</time></trkpt><trkpt lat="44.17775386837844" lon="9.598863569948735"><ele>148.4</ele><time>2026-04-06T13:03:50.999Z</time></trkpt><trkpt lat="44.17764158969583" lon="9.598873577319605"><ele>148.8</ele><time>2026-04-06T13:03:51.999Z</time></trkpt><trkpt lat="44.177526951018336" lon="9.598860019717387"><ele>149.2</ele><time>2026-04-06T13:03:52.999Z</time></trkpt><trkpt lat="44.177432827674224" lon="9.598791785880607"><ele>149.6</ele><time>2026-04-06T13:03:53.999Z</time></trkpt><trkpt lat="44.177346399664884" lon="9.598710599764194"><ele>150.0</ele><time>2026-04-06T13:03:54.999Z</time></trkpt><trkpt lat="44.17726974418629" lon="9.598618662112424"><ele>148.83333333333334</ele><time>2026-04-06T13:03:55.999Z</time></trkpt><trkpt lat="44.17721439832638" lon="9.59853229780582"><ele>147.66666666666666</ele><time>2026-04-06T13:03:56.999Z</time></trkpt><trkpt lat="44.17721464597065" lon="9.59843357884689"><ele>146.5</ele><time>2026-04-06T13:03:57.999Z</time></trkpt><trkpt lat="44.1772664396835" lon="9.598339349898053"><ele>145.33333333333331</ele><time>2026-04-06T13:03:58.999Z</time></trkpt><trkpt lat="44.17733353365472" lon="9.598291030265907"><ele>144.16666666666666</ele><time>2026-04-06T13:03:59.999Z</time></trkpt><trkpt lat="44.177405004031485" lon="9.598246934677652"><ele>143.0</ele><time>2026-04-06T13:04:00.999Z</time></trkpt><trkpt lat="44.177472169808944" lon="9.598180574530359"><ele>147.0</ele><time>2026-04-06T13:04:01.999Z</time></trkpt><trkpt lat="44.177541660275764" lon="9.598117286465726"><ele>151.0</ele><time>2026-04-06T13:04:02.999Z</time></trkpt><trkpt lat="44.177616164223004" lon="9.598060798122402"><ele>155.0</ele><time>2026-04-06T13:04:03.999Z</time></trkpt><trkpt lat="44.17769761340631" lon="9.598012732085543"><ele>159.0</ele><time>2026-04-06T13:04:04.999Z</time></trkpt><trkpt lat="44.17778069733975" lon="9.597970160925755"><ele>163.0</ele><time>2026-04-06T13:04:05.999Z</time></trkpt><trkpt lat="44.17787259878105" lon="9.59793451935988"><ele>167.0</ele><time>2026-04-06T13:04:06.999Z</time></trkpt><trkpt lat="44.17796357351595" lon="9.59789022985654"><ele>167.0</ele><time>2026-04-06T13:04:07.999Z</time></trkpt><trkpt lat="44.1780602191752" lon="9.597870149091747"><ele>167.0</ele><time>2026-04-06T13:04:08.999Z</time></trkpt><trkpt lat="44.178160763401934" lon="9.597862727630273"><ele>167.0</ele><time>2026-04-06T13:04:09.999Z</time></trkpt><trkpt lat="44.178262412711774" lon="9.597850897785174"><ele>167.0</ele><time>2026-04-06T13:04:10.999Z</time></trkpt><trkpt lat="44.17836316362639" lon="9.597826010143661"><ele>167.0</ele><time>2026-04-06T13:04:11.999Z</time></trkpt><trkpt lat="44.178459374345465" lon="9.59777893034499"><ele>169.0</ele><time>2026-04-06T13:04:12.999Z</time></trkpt><trkpt lat="44.17855401116894" lon="9.597705989576598"><ele>171.0</ele><time>2026-04-06T13:04:13.999Z</time></trkpt><trkpt lat="44.17863966256281" lon="9.597609629143259"><ele>173.0</ele><time>2026-04-06T13:04:14.999Z</time></trkpt><trkpt lat="44.17871232380058" lon="9.597487649350384"><ele>175.0</ele><time>2026-04-06T13:04:15.999Z</time></trkpt><trkpt lat="44.178774965593895" lon="9.597346035270498"><ele>175.0</ele><time>2026-04-06T13:04:16.999Z</time></trkpt><trkpt lat="44.178804542285064" lon="9.597181671274225"><ele>175.0</ele><time>2026-04-06T13:04:17.999Z</time></trkpt><trkpt lat="44.178835238827936" lon="9.597029584250503"><ele>175.0</ele><time>2026-04-06T13:04:18.999Z</time></trkpt><trkpt lat="44.178879085941865" lon="9.596894333096607"><ele>175.0</ele><time>2026-04-06T13:04:19.999Z</time></trkpt><trkpt lat="44.1789544922173" lon="9.596786132429498"><ele>175.0</ele><time>2026-04-06T13:04:20.999Z</time></trkpt><trkpt lat="44.17903950081513" lon="9.596705113622361"><ele>177.8</ele><time>2026-04-06T13:04:21.999Z</time></trkpt><trkpt lat="44.1791222309868" lon="9.596626851678865"><ele>180.6</ele><time>2026-04-06T13:04:22.999Z</time></trkpt><trkpt lat="44.17920136370123" lon="9.596537736787697"><ele>183.39999999999998</ele><time>2026-04-06T13:04:23.998Z</time></trkpt><trkpt lat="44.17928447521742" lon="9.596460148127148"><ele>186.2</ele><time>2026-04-06T13:04:24.998Z</time></trkpt><trkpt lat="44.179377807952775" lon="9.596407635289117"><ele>189.0</ele><time>2026-04-06T13:04:25.998Z</time></trkpt><trkpt lat="44.17947576883099" lon="9.59639656056003"><ele>189.0</ele><time>2026-04-06T13:04:26.998Z</time></trkpt><trkpt lat="44.179556490756035" lon="9.596317232592824"><ele>189.0</ele><time>2026-04-06T13:04:27.998Z</time></trkpt><trkpt lat="44.17962671083187" lon="9.596229035673678"><ele>189.0</ele><time>2026-04-06T13:04:28.998Z</time></trkpt><trkpt lat="44.17968885684035" lon="9.59612227865597"><ele>189.0</ele><time>2026-04-06T13:04:29.998Z</time></trkpt><trkpt lat="44.17968103873633" lon="9.595981623861768"><ele>189.0</ele><time>2026-04-06T13:04:30.998Z</time></trkpt><trkpt lat="44.17968251784955" lon="9.59584073395921"><ele>188.2</ele><time>2026-04-06T13:04:31.998Z</time></trkpt><trkpt lat="44.179668800993596" lon="9.595706821305063"><ele>187.39999999999998</ele><time>2026-04-06T13:04:32.998Z</time></trkpt><trkpt lat="44.17966144489481" lon="9.59557692451133"><ele>186.6</ele><time>2026-04-06T13:04:33.998Z</time></trkpt><trkpt lat="44.17965730050946" lon="9.59544551560219"><ele>185.8</ele><time>2026-04-06T13:04:34.998Z</time></trkpt><trkpt lat="44.179694437761135" lon="9.595291131722064"><ele>185.0</ele><time>2026-04-06T13:04:35.998Z</time></trkpt><trkpt lat="44.17969430139638" lon="9.59514659100474"><ele>185.0</ele><time>2026-04-06T13:04:36.998Z</time></trkpt><trkpt lat="44.179698322693845" lon="9.59500452011922"><ele>185.0</ele><time>2026-04-06T13:04:37.998Z</time></trkpt><trkpt lat="44.17971947337337" lon="9.59485864500657"><ele>185.0</ele><time>2026-04-06T13:04:39Z</time></trkpt><trkpt lat="44.1797287659718" lon="9.594721581903457"><ele>185.0</ele><time>2026-04-06T13:04:40Z</time></trkpt><trkpt lat="44.179746769083366" lon="9.594624991599177"><ele>185.0</ele><time>2026-04-06T13:04:41Z</time></trkpt><trkpt lat="44.17980115479988" lon="9.594548341749542"><ele>188.5</ele><time>2026-04-06T13:04:42Z</time></trkpt><trkpt lat="44.179870044551194" lon="9.594497779719532"><ele>192.0</ele><time>2026-04-06T13:04:43Z</time></trkpt><trkpt lat="44.17994584948367" lon="9.594455264750097"><ele>195.5</ele><time>2026-04-06T13:04:44Z</time></trkpt><trkpt lat="44.18001982171258" lon="9.594402865301092"><ele>199.0</ele><time>2026-04-06T13:04:45Z</time></trkpt><trkpt lat="44.18009567566042" lon="9.59434807288388"><ele>202.50000000000003</ele><time>2026-04-06T13:04:46Z</time></trkpt><trkpt lat="44.18017188310539" lon="9.594283635654092"><ele>206.0</ele><time>2026-04-06T13:04:47Z</time></trkpt><trkpt lat="44.18024294316504" lon="9.594213075810902"><ele>206.0</ele><time>2026-04-06T13:04:48Z</time></trkpt><trkpt lat="44.180315781977356" lon="9.594138736051415"><ele>206.0</ele><time>2026-04-06T13:04:49Z</time></trkpt><trkpt lat="44.18039409255624" lon="9.594058531671934"><ele>206.0</ele><time>2026-04-06T13:04:50Z</time></trkpt><trkpt lat="44.18047126253544" lon="9.59397949541838"><ele>206.0</ele><time>2026-04-06T13:04:51Z</time></trkpt><trkpt lat="44.180546547021294" lon="9.593895117072192"><ele>206.0</ele><time>2026-04-06T13:04:52Z</time></trkpt><trkpt lat="44.1806084854067" lon="9.593773856082244"><ele>204.8</ele><time>2026-04-06T13:04:53Z</time></trkpt><trkpt lat="44.180666638806656" lon="9.593666176092121"><ele>203.60000000000002</ele><time>2026-04-06T13:04:54Z</time></trkpt><trkpt lat="44.18072837651688" lon="9.59355185947597"><ele>202.4</ele><time>2026-04-06T13:04:55Z</time></trkpt><trkpt lat="44.18077990065891" lon="9.593422477670806"><ele>201.2</ele><time>2026-04-06T13:04:56Z</time></trkpt><trkpt lat="44.180837481133416" lon="9.59331583774607"><ele>200.0</ele><time>2026-04-06T13:04:57Z</time></trkpt><trkpt lat="44.180900565890674" lon="9.593202488559667"><ele>199.4</ele><time>2026-04-06T13:04:58Z</time></trkpt><trkpt lat="44.18095977907183" lon="9.593085729313886"><ele>198.8</ele><time>2026-04-06T13:04:59Z</time></trkpt><trkpt lat="44.18103533770828" lon="9.592976915393255"><ele>198.2</ele><time>2026-04-06T13:05:00Z</time></trkpt><trkpt lat="44.1810985454102" lon="9.59285604591893"><ele>197.6</ele><time>2026-04-06T13:05:01Z</time></trkpt><trkpt lat="44.18116578431606" lon="9.59275130247438"><ele>197.0</ele><time>2026-04-06T13:05:02Z</time></trkpt><trkpt lat="44.1812320800328" lon="9.59267469892646"><ele>197.00000000000003</ele><time>2026-04-06T13:05:03Z</time></trkpt><trkpt lat="44.18132647897692" lon="9.592688957211093"><ele>197.0</ele><time>2026-04-06T13:05:04Z</time></trkpt><trkpt lat="44.18141456731027" lon="9.592687734465496"><ele>197.0</ele><time>2026-04-06T13:05:05Z</time></trkpt><trkpt lat="44.1815013417211" lon="9.592695561192537"><ele>197.0</ele><time>2026-04-06T13:05:06Z</time></trkpt><trkpt lat="44.18158922876603" lon="9.592708351886923"><ele>197.00000000000003</ele><time>2026-04-06T13:05:07Z</time></trkpt><trkpt lat="44.18167204433206" lon="9.59272990984976"><ele>197.0</ele><time>2026-04-06T13:05:08Z</time></trkpt><trkpt lat="44.18175886014675" lon="9.592753688175627"><ele>201.00000000000003</ele><time>2026-04-06T13:05:09Z</time></trkpt><trkpt lat="44.1818399493297" lon="9.592763730682496"><ele>205.0</ele><time>2026-04-06T13:05:10Z</time></trkpt><trkpt lat="44.181916295532275" lon="9.5927455852629"><ele>209.0</ele><time>2026-04-06T13:05:11Z</time></trkpt><trkpt lat="44.18198713263536" lon="9.592647605657245"><ele>213.0</ele><time>2026-04-06T13:05:12Z</time></trkpt><trkpt lat="44.18202431165167" lon="9.592530357570148"><ele>217.00000000000003</ele><time>2026-04-06T13:05:13Z</time></trkpt><trkpt lat="44.18206788623674" lon="9.592422060195569"><ele>221.0</ele><time>2026-04-06T13:05:14Z</time></trkpt><trkpt lat="44.18211452709595" lon="9.592306142184"><ele>221.00000000000003</ele><time>2026-04-06T13:05:15Z</time></trkpt><trkpt lat="44.1821591478927" lon="9.592195245217995"><ele>221.0</ele><time>2026-04-06T13:05:16Z</time></trkpt><trkpt lat="44.18221242308313" lon="9.592088566022676"><ele>221.0</ele><time>2026-04-06T13:05:17Z</time></trkpt><trkpt lat="44.182275028679534" lon="9.592007786201892"><ele>221.0</ele><time>2026-04-06T13:05:17.999Z</time></trkpt><trkpt lat="44.18235134744195" lon="9.591958464120678"><ele>221.00000000000003</ele><time>2026-04-06T13:05:18.999Z</time></trkpt><trkpt lat="44.18243434853668" lon="9.591928342183428"><ele>221.0</ele><time>2026-04-06T13:05:19.999Z</time></trkpt><trkpt lat="44.18251885751464" lon="9.591905120773422"><ele>221.4</ele><time>2026-04-06T13:05:20.999Z</time></trkpt><trkpt lat="44.18260738856765" lon="9.591890486762159"><ele>221.8</ele><time>2026-04-06T13:05:21.999Z</time></trkpt><trkpt lat="44.18270037633372" lon="9.591876445404838"><ele>222.20000000000002</ele><time>2026-04-06T13:05:22.999Z</time></trkpt><trkpt lat="44.182793681008434" lon="9.591866177682165"><ele>222.60000000000002</ele><time>2026-04-06T13:05:23.999Z</time></trkpt><trkpt lat="44.182891093813915" lon="9.591821197579156"><ele>223.0</ele><time>2026-04-06T13:05:24.999Z</time></trkpt><trkpt lat="44.18297739214323" lon="9.591731700936968"><ele>223.0</ele><time>2026-04-06T13:05:25.999Z</time></trkpt><trkpt lat="44.18304746130524" lon="9.591630408880492"><ele>223.0</ele><time>2026-04-06T13:05:26.999Z</time></trkpt><trkpt lat="44.18310933042805" lon="9.591519275738792"><ele>223.0</ele><time>2026-04-06T13:05:27.999Z</time></trkpt><trkpt lat="44.183165956573674" lon="9.59139528951762"><ele>223.0</ele><time>2026-04-06T13:05:28.999Z</time></trkpt><trkpt lat="44.18321455670316" lon="9.59127837210512"><ele>223.0</ele><time>2026-04-06T13:05:29.999Z</time></trkpt><trkpt lat="44.183260040711254" lon="9.591153663226622"><ele>224.60000000000002</ele><time>2026-04-06T13:05:30.999Z</time></trkpt><trkpt lat="44.18330274671697" lon="9.59102872039376"><ele>226.20000000000002</ele><time>2026-04-06T13:05:31.999Z</time></trkpt><trkpt lat="44.18334608540111" lon="9.590900767022799"><ele>227.8</ele><time>2026-04-06T13:05:32.999Z</time></trkpt><trkpt lat="44.1833946212262" lon="9.590785089653913"><ele>229.4</ele><time>2026-04-06T13:05:33.999Z</time></trkpt><trkpt lat="44.183465129185294" lon="9.59069431629598"><ele>231.0</ele><time>2026-04-06T13:05:34.999Z</time></trkpt><trkpt lat="44.18356963525697" lon="9.590662400394203"><ele>231.0</ele><time>2026-04-06T13:05:35.999Z</time></trkpt><trkpt lat="44.18366720361429" lon="9.590673875467955"><ele>231.00000000000003</ele><time>2026-04-06T13:05:36.999Z</time></trkpt><trkpt lat="44.18375738538989" lon="9.590737409251405"><ele>231.00000000000003</ele><time>2026-04-06T13:05:37.999Z</time></trkpt><trkpt lat="44.183835577069225" lon="9.590836233688742"><ele>231.0</ele><time>2026-04-06T13:05:38.999Z</time></trkpt><trkpt lat="44.18390356999722" lon="9.590953739904908"><ele>231.0</ele><time>2026-04-06T13:05:39.999Z</time></trkpt><trkpt lat="44.18396687127715" lon="9.591072070014366"><ele>237.4</ele><time>2026-04-06T13:05:40.999Z</time></trkpt><trkpt lat="44.18403203721584" lon="9.591189006249682"><ele>243.8</ele><time>2026-04-06T13:05:41.999Z</time></trkpt><trkpt lat="44.18409208514072" lon="9.591325501281654"><ele>250.20000000000002</ele><time>2026-04-06T13:05:42.999Z</time></trkpt><trkpt lat="44.1841326522172" lon="9.591473729417734"><ele>256.6</ele><time>2026-04-06T13:05:43.999Z</time></trkpt><trkpt lat="44.18416040831904" lon="9.591628557834186"><ele>263.0</ele><time>2026-04-06T13:05:44.999Z</time></trkpt><trkpt lat="44.18418738506081" lon="9.591772322073275"><ele>263.0</ele><time>2026-04-06T13:05:45.999Z</time></trkpt><trkpt lat="44.18425291287247" lon="9.591892917651942"><ele>263.0</ele><time>2026-04-06T13:05:46.999Z</time></trkpt><trkpt lat="44.18431703993537" lon="9.592008667622679"><ele>263.0</ele><time>2026-04-06T13:05:47.999Z</time></trkpt><trkpt lat="44.18437705131574" lon="9.5921308339261"><ele>263.0</ele><time>2026-04-06T13:05:48.999Z</time></trkpt><trkpt lat="44.18444809641199" lon="9.592239555976136"><ele>263.0</ele><time>2026-04-06T13:05:49.999Z</time></trkpt><trkpt lat="44.18452097094511" lon="9.592333791483604"><ele>265.6</ele><time>2026-04-06T13:05:50.999Z</time></trkpt><trkpt lat="44.18458926389112" lon="9.592442104553719"><ele>268.20000000000005</ele><time>2026-04-06T13:05:51.999Z</time></trkpt><trkpt lat="44.18465628269608" lon="9.592558685844836"><ele>270.8</ele><time>2026-04-06T13:05:52.999Z</time></trkpt><trkpt lat="44.18472366001182" lon="9.592671783957408"><ele>273.40000000000003</ele><time>2026-04-06T13:05:53.999Z</time></trkpt><trkpt lat="44.18478475841897" lon="9.592758930313153"><ele>276.0</ele><time>2026-04-06T13:05:54.999Z</time></trkpt><trkpt lat="44.18485079053354" lon="9.592869663110061"><ele>276.0</ele><time>2026-04-06T13:05:55.999Z</time></trkpt><trkpt lat="44.18491801462885" lon="9.592990270755019"><ele>276.0</ele><time>2026-04-06T13:05:56.999Z</time></trkpt><trkpt lat="44.184977993817455" lon="9.593118065147715"><ele>276.0</ele><time>2026-04-06T13:05:57.999Z</time></trkpt><trkpt lat="44.185043445942384" lon="9.593221914756846"><ele>276.0</ele><time>2026-04-06T13:05:58.999Z</time></trkpt><trkpt lat="44.18512165174814" lon="9.593289972708678"><ele>276.0</ele><time>2026-04-06T13:05:59.999Z</time></trkpt><trkpt lat="44.18521547148183" lon="9.593318582333694"><ele>276.0</ele><time>2026-04-06T13:06:00.999Z</time></trkpt><trkpt lat="44.18531815272132" lon="9.593281831296805"><ele>276.0</ele><time>2026-04-06T13:06:01.999Z</time></trkpt><trkpt lat="44.18539799981855" lon="9.593213968863813"><ele>276.0</ele><time>2026-04-06T13:06:02.999Z</time></trkpt><trkpt lat="44.18546742400746" lon="9.59318588814191"><ele>276.0</ele><time>2026-04-06T13:06:03.999Z</time></trkpt><trkpt lat="44.18558715618743" lon="9.593229583183215"><ele>276.0</ele><time>2026-04-06T13:06:05.999Z</time></trkpt><trkpt lat="44.18562071789178" lon="9.593323719137913"><ele>276.0</ele><time>2026-04-06T13:06:06.999Z</time></trkpt><trkpt lat="44.18563541630642" lon="9.593424702843677"><ele>276.0</ele><time>2026-04-06T13:06:07.999Z</time></trkpt><trkpt lat="44.185676605047114" lon="9.593507206829731"><ele>276.0</ele><time>2026-04-06T13:06:08.999Z</time></trkpt><trkpt lat="44.185743754572485" lon="9.593564256159963"><ele>276.0</ele><time>2026-04-06T13:06:09.999Z</time></trkpt><trkpt lat="44.18580192968678" lon="9.593640993151482"><ele>276.0</ele><time>2026-04-06T13:06:10.999Z</time></trkpt><trkpt lat="44.185867003958634" lon="9.593707431190088"><ele>276.0</ele><time>2026-04-06T13:06:11.999Z</time></trkpt><trkpt lat="44.18593227797061" lon="9.59378187601659"><ele>274.0</ele><time>2026-04-06T13:06:12.999Z</time></trkpt><trkpt lat="44.18599611009165" lon="9.593845168976772"><ele>272.0</ele><time>2026-04-06T13:06:13.999Z</time></trkpt><trkpt lat="44.18607506013467" lon="9.593874914768106"><ele>270.0</ele><time>2026-04-06T13:06:14.999Z</time></trkpt><trkpt lat="44.186171407663544" lon="9.593819143575832"><ele>268.0</ele><time>2026-04-06T13:06:15.999Z</time></trkpt><trkpt lat="44.18624356862335" lon="9.593750025120647"><ele>266.0</ele><time>2026-04-06T13:06:16.999Z</time></trkpt><trkpt lat="44.18631201095231" lon="9.593683892104231"><ele>264.0</ele><time>2026-04-06T13:06:17.999Z</time></trkpt><trkpt lat="44.18638172361826" lon="9.59361653185683"><ele>264.0</ele><time>2026-04-06T13:06:18.999Z</time></trkpt><trkpt lat="44.18645701275421" lon="9.59354620714105"><ele>264.0</ele><time>2026-04-06T13:06:19.999Z</time></trkpt><trkpt lat="44.18652365457079" lon="9.593485996638762"><ele>264.0</ele><time>2026-04-06T13:06:20.999Z</time></trkpt><trkpt lat="44.18660778647774" lon="9.593419273172438"><ele>264.0</ele><time>2026-04-06T13:06:21.999Z</time></trkpt><trkpt lat="44.18668822617544" lon="9.593391842493373"><ele>264.0</ele><time>2026-04-06T13:06:22.999Z</time></trkpt><trkpt lat="44.18677150052921" lon="9.593406581786251"><ele>264.0</ele><time>2026-04-06T13:06:23.999Z</time></trkpt><trkpt lat="44.18685379272322" lon="9.593439883837538"><ele>264.5</ele><time>2026-04-06T13:06:24.999Z</time></trkpt><trkpt lat="44.18691859489887" lon="9.59352093121932"><ele>265.0</ele><time>2026-04-06T13:06:25.999Z</time></trkpt><trkpt lat="44.18697253443454" lon="9.593609173339193"><ele>265.5</ele><time>2026-04-06T13:06:26.999Z</time></trkpt><trkpt lat="44.187010296861935" lon="9.593717413976607"><ele>266.0</ele><time>2026-04-06T13:06:27.999Z</time></trkpt><trkpt lat="44.1870596596459" lon="9.593818547211052"><ele>266.5</ele><time>2026-04-06T13:06:28.998Z</time></trkpt><trkpt lat="44.187115247240506" lon="9.59392279869714"><ele>267.0</ele><time>2026-04-06T13:06:29.998Z</time></trkpt><trkpt lat="44.18718425903104" lon="9.59401766452756"><ele>270.8</ele><time>2026-04-06T13:06:30.998Z</time></trkpt><trkpt lat="44.18727410592976" lon="9.594089569457198"><ele>274.6</ele><time>2026-04-06T13:06:31.998Z</time></trkpt><trkpt lat="44.18735193380639" lon="9.594155883498049"><ele>278.40000000000003</ele><time>2026-04-06T13:06:32.998Z</time></trkpt><trkpt lat="44.18742868926453" lon="9.594232886838235"><ele>282.2</ele><time>2026-04-06T13:06:33.998Z</time></trkpt><trkpt lat="44.18750614040311" lon="9.594312798380157"><ele>286.0</ele><time>2026-04-06T13:06:34.998Z</time></trkpt><trkpt lat="44.187583911596306" lon="9.594398250587487"><ele>286.0</ele><time>2026-04-06T13:06:35.998Z</time></trkpt><trkpt lat="44.18766255472559" lon="9.594495425023027"><ele>286.0</ele><time>2026-04-06T13:06:36.998Z</time></trkpt><trkpt lat="44.18772401863876" lon="9.594602033095947"><ele>286.0</ele><time>2026-04-06T13:06:37.998Z</time></trkpt><trkpt lat="44.18777786931059" lon="9.594724749741045"><ele>286.0</ele><time>2026-04-06T13:06:38.998Z</time></trkpt><trkpt lat="44.18783735226756" lon="9.59484644481085"><ele>286.0</ele><time>2026-04-06T13:06:39.998Z</time></trkpt><trkpt lat="44.187867778201245" lon="9.594981489076677"><ele>288.8333333333333</ele><time>2026-04-06T13:06:40.998Z</time></trkpt><trkpt lat="44.18788467627074" lon="9.59511511122038"><ele>291.66666666666663</ele><time>2026-04-06T13:06:41.998Z</time></trkpt><trkpt lat="44.187887564945136" lon="9.595251668669947"><ele>294.5</ele><time>2026-04-06T13:06:42.998Z</time></trkpt><trkpt lat="44.187882333290155" lon="9.59537619946877"><ele>297.3333333333333</ele><time>2026-04-06T13:06:43.998Z</time></trkpt><trkpt lat="44.187905408442155" lon="9.595477701217987"><ele>300.1666666666667</ele><time>2026-04-06T13:06:45Z</time></trkpt><trkpt lat="44.18795635276281" lon="9.59557292937654"><ele>303.0</ele><time>2026-04-06T13:06:46Z</time></trkpt><trkpt lat="44.18805330510312" lon="9.595571845631767"><ele>302.3333333333333</ele><time>2026-04-06T13:06:47Z</time></trkpt><trkpt lat="44.18812214325791" lon="9.595593706847714"><ele>301.6666666666667</ele><time>2026-04-06T13:06:48Z</time></trkpt><trkpt lat="44.1881894693358" lon="9.595622019305871"><ele>301.0</ele><time>2026-04-06T13:06:49Z</time></trkpt><trkpt lat="44.188249078189735" lon="9.595684381273722"><ele>300.33333333333337</ele><time>2026-04-06T13:06:50Z</time></trkpt><trkpt lat="44.18830207726727" lon="9.595765875223773"><ele>299.6666666666667</ele><time>2026-04-06T13:06:51Z</time></trkpt><trkpt lat="44.18834861140175" lon="9.59586743128555"><ele>299.0</ele><time>2026-04-06T13:06:52Z</time></trkpt><trkpt lat="44.18838340589362" lon="9.59597591668251"><ele>299.0</ele><time>2026-04-06T13:06:53Z</time></trkpt><trkpt lat="44.188425721555596" lon="9.59608455002726"><ele>299.0</ele><time>2026-04-06T13:06:54Z</time></trkpt><trkpt lat="44.188445886741896" lon="9.59620376787795"><ele>299.0</ele><time>2026-04-06T13:06:55Z</time></trkpt><trkpt lat="44.18844182227793" lon="9.596328152847098"><ele>299.0</ele><time>2026-04-06T13:06:56Z</time></trkpt><trkpt lat="44.18846224516244" lon="9.596448931712768"><ele>299.0</ele><time>2026-04-06T13:06:57Z</time></trkpt><trkpt lat="44.188485188412535" lon="9.596571976845231"><ele>299.0</ele><time>2026-04-06T13:06:58Z</time></trkpt><trkpt lat="44.188509803591145" lon="9.596692258698601"><ele>301.5</ele><time>2026-04-06T13:06:59Z</time></trkpt><trkpt lat="44.188534130515876" lon="9.596802948065179"><ele>304.0</ele><time>2026-04-06T13:07:00Z</time></trkpt><trkpt lat="44.18856143295264" lon="9.596896075504517"><ele>306.5</ele><time>2026-04-06T13:07:01Z</time></trkpt><trkpt lat="44.188613731892424" lon="9.59695989141728"><ele>309.0</ele><time>2026-04-06T13:07:02Z</time></trkpt><trkpt lat="44.18868669187177" lon="9.596967420697979"><ele>311.5</ele><time>2026-04-06T13:07:03Z</time></trkpt><trkpt lat="44.18876414145598" lon="9.59693630995145"><ele>314.0</ele><time>2026-04-06T13:07:04Z</time></trkpt><trkpt lat="44.18882600259786" lon="9.596846801982982"><ele>314.0</ele><time>2026-04-06T13:07:05Z</time></trkpt><trkpt lat="44.188874942964" lon="9.596759296280736"><ele>314.0</ele><time>2026-04-06T13:07:06Z</time></trkpt><trkpt lat="44.18892378353472" lon="9.596668280527467"><ele>314.0</ele><time>2026-04-06T13:07:07Z</time></trkpt><trkpt lat="44.18897394743876" lon="9.596575899478944"><ele>314.0</ele><time>2026-04-06T13:07:08Z</time></trkpt><trkpt lat="44.18902495445121" lon="9.596498098916552"><ele>314.0</ele><time>2026-04-06T13:07:09Z</time></trkpt><trkpt lat="44.18908191340617" lon="9.596426318397596"><ele>314.0</ele><time>2026-04-06T13:07:10Z</time></trkpt><trkpt lat="44.189141120973375" lon="9.596364690971539"><ele>314.0</ele><time>2026-04-06T13:07:11Z</time></trkpt><trkpt lat="44.18920737249259" lon="9.59632002870542"><ele>314.0</ele><time>2026-04-06T13:07:12Z</time></trkpt><trkpt lat="44.18928308831692" lon="9.596285535029455"><ele>314.0</ele><time>2026-04-06T13:07:13Z</time></trkpt><trkpt lat="44.18936015453646" lon="9.596267956075556"><ele>314.0</ele><time>2026-04-06T13:07:14Z</time></trkpt><trkpt lat="44.18944556028967" lon="9.596246928892688"><ele>314.0</ele><time>2026-04-06T13:07:15Z</time></trkpt><trkpt lat="44.18952849055668" lon="9.59622834257509"><ele>314.0</ele><time>2026-04-06T13:07:16Z</time></trkpt><trkpt lat="44.18961390048915" lon="9.596193546842052"><ele>312.59999999999997</ele><time>2026-04-06T13:07:17Z</time></trkpt><trkpt lat="44.18969553393839" lon="9.596156818379471"><ele>311.2</ele><time>2026-04-06T13:07:18Z</time></trkpt><trkpt lat="44.189779117159645" lon="9.596118830736836"><ele>309.79999999999995</ele><time>2026-04-06T13:07:19Z</time></trkpt><trkpt lat="44.18986085265241" lon="9.596080206032143"><ele>308.4</ele><time>2026-04-06T13:07:20Z</time></trkpt><trkpt lat="44.189940749718296" lon="9.596001201236728"><ele>307.0</ele><time>2026-04-06T13:07:21Z</time></trkpt><trkpt lat="44.1900351040943" lon="9.596005339436184"><ele>307.0</ele><time>2026-04-06T13:07:22Z</time></trkpt><trkpt lat="44.190131772500735" lon="9.596024266690232"><ele>307.0</ele><time>2026-04-06T13:07:23Z</time></trkpt><trkpt lat="44.1902222484285" lon="9.596081969118528"><ele>307.0</ele><time>2026-04-06T13:07:24Z</time></trkpt><trkpt lat="44.19029486454501" lon="9.596181848902491"><ele>307.0</ele><time>2026-04-06T13:07:25Z</time></trkpt><trkpt lat="44.190353742247844" lon="9.596302253318148"><ele>307.0</ele><time>2026-04-06T13:07:26Z</time></trkpt><trkpt lat="44.19040614273707" lon="9.59642965011236"><ele>311.6</ele><time>2026-04-06T13:07:27Z</time></trkpt><trkpt lat="44.190449642616336" lon="9.596572927403754"><ele>316.2</ele><time>2026-04-06T13:07:28Z</time></trkpt><trkpt lat="44.19049849489501" lon="9.59670454922195"><ele>320.8</ele><time>2026-04-06T13:07:29Z</time></trkpt><trkpt lat="44.19055648572033" lon="9.596830984764535"><ele>325.4</ele><time>2026-04-06T13:07:30Z</time></trkpt><trkpt lat="44.19061428676168" lon="9.596954631266039"><ele>330.0</ele><time>2026-04-06T13:07:31Z</time></trkpt><trkpt lat="44.190692958833424" lon="9.597060636556304"><ele>333.0</ele><time>2026-04-06T13:07:32Z</time></trkpt><trkpt lat="44.19078361414731" lon="9.597143633667297"><ele>336.0</ele><time>2026-04-06T13:07:33Z</time></trkpt><trkpt lat="44.1908886209482" lon="9.597187012203037"><ele>339.0</ele><time>2026-04-06T13:07:34Z</time></trkpt><trkpt lat="44.1910027144575" lon="9.597201453887134"><ele>342.0</ele><time>2026-04-06T13:07:34.999Z</time></trkpt><trkpt lat="44.191117761583676" lon="9.59722427011877"><ele>345.0</ele><time>2026-04-06T13:07:35.999Z</time></trkpt><trkpt lat="44.19123362921178" lon="9.597293013291456"><ele>345.0</ele><time>2026-04-06T13:07:36.999Z</time></trkpt><trkpt lat="44.191345652545145" lon="9.597334308953505"><ele>345.0</ele><time>2026-04-06T13:07:37.999Z</time></trkpt><trkpt lat="44.191457470967" lon="9.597389720698235"><ele>345.0</ele><time>2026-04-06T13:07:38.999Z</time></trkpt><trkpt lat="44.19155525753988" lon="9.597432625721998"><ele>345.0</ele><time>2026-04-06T13:07:39.999Z</time></trkpt><trkpt lat="44.19164742879809" lon="9.597481799643589"><ele>345.0</ele><time>2026-04-06T13:07:40.999Z</time></trkpt><trkpt lat="44.19174348616116" lon="9.597441652949692"><ele>344.0</ele><time>2026-04-06T13:07:41.999Z</time></trkpt><trkpt lat="44.1918168682523" lon="9.597365419397333"><ele>343.0</ele><time>2026-04-06T13:07:42.999Z</time></trkpt><trkpt lat="44.19184709176625" lon="9.597243201178633"><ele>342.0</ele><time>2026-04-06T13:07:43.999Z</time></trkpt><trkpt lat="44.19178649570172" lon="9.59711644780348"><ele>341.0</ele><time>2026-04-06T13:07:44.999Z</time></trkpt><trkpt lat="44.191718950208674" lon="9.59702240273467"><ele>340.0</ele><time>2026-04-06T13:07:45.999Z</time></trkpt><trkpt lat="44.191652747338026" lon="9.596927274717839"><ele>339.3333333333333</ele><time>2026-04-06T13:07:46.999Z</time></trkpt><trkpt lat="44.1915904665655" lon="9.596839550339213"><ele>338.66666666666663</ele><time>2026-04-06T13:07:47.999Z</time></trkpt><trkpt lat="44.19152438260366" lon="9.596740588618589"><ele>338.0</ele><time>2026-04-06T13:07:48.999Z</time></trkpt><trkpt lat="44.191466750251195" lon="9.596652690883841"><ele>337.3333333333333</ele><time>2026-04-06T13:07:49.999Z</time></trkpt><trkpt lat="44.19143368653389" lon="9.596561476516658"><ele>336.6666666666667</ele><time>2026-04-06T13:07:50.999Z</time></trkpt><trkpt lat="44.19144822296363" lon="9.596455834497654"><ele>336.0</ele><time>2026-04-06T13:07:51.999Z</time></trkpt><trkpt lat="44.19153000533794" lon="9.596387501481592"><ele>336.0</ele><time>2026-04-06T13:07:52.999Z</time></trkpt><trkpt lat="44.19160654910297" lon="9.596361491566082"><ele>336.0</ele><time>2026-04-06T13:07:53.999Z</time></trkpt><trkpt lat="44.191675853703934" lon="9.5963437200328"><ele>336.0</ele><time>2026-04-06T13:07:54.999Z</time></trkpt><trkpt lat="44.19176411628652" lon="9.596317773575434"><ele>336.0</ele><time>2026-04-06T13:07:55.999Z</time></trkpt><trkpt lat="44.19184331345474" lon="9.596288123343056"><ele>336.0</ele><time>2026-04-06T13:07:56.999Z</time></trkpt><trkpt lat="44.19191387279088" lon="9.596264324359359"><ele>336.0</ele><time>2026-04-06T13:07:57.999Z</time></trkpt><trkpt lat="44.19199222354705" lon="9.596236987494564"><ele>336.0</ele><time>2026-04-06T13:07:58.999Z</time></trkpt><trkpt lat="44.19208231006813" lon="9.596206343142029"><ele>336.0</ele><time>2026-04-06T13:07:59.999Z</time></trkpt><trkpt lat="44.19217585795288" lon="9.596175338348765"><ele>336.0</ele><time>2026-04-06T13:08:00.999Z</time></trkpt><trkpt lat="44.19226818562837" lon="9.596138260718678"><ele>336.0</ele><time>2026-04-06T13:08:01.999Z</time></trkpt><trkpt lat="44.1923480375669" lon="9.596079439804793"><ele>336.0</ele><time>2026-04-06T13:08:02.999Z</time></trkpt><trkpt lat="44.19240724361701" lon="9.595978561603804"><ele>336.0</ele><time>2026-04-06T13:08:03.999Z</time></trkpt><trkpt lat="44.192470632505206" lon="9.595922207569542"><ele>336.0</ele><time>2026-04-06T13:08:05.999Z</time></trkpt><trkpt lat="44.192502224208" lon="9.596041722600646"><ele>336.0</ele><time>2026-04-06T13:08:07.999Z</time></trkpt><trkpt lat="44.19242997546708" lon="9.596131651817796"><ele>336.0</ele><time>2026-04-06T13:08:09.999Z</time></trkpt><trkpt lat="44.19233907600978" lon="9.596235922047114"><ele>336.0</ele><time>2026-04-06T13:08:11.999Z</time></trkpt><trkpt lat="44.19229034308573" lon="9.596308088403052"><ele>336.0</ele><time>2026-04-06T13:08:12.999Z</time></trkpt><trkpt lat="44.19223514867103" lon="9.596371718300608"><ele>336.0</ele><time>2026-04-06T13:08:13.999Z</time></trkpt><trkpt lat="44.1921623212736" lon="9.596436483347686"><ele>336.0</ele><time>2026-04-06T13:08:14.999Z</time></trkpt><trkpt lat="44.192114570412855" lon="9.596528970508839"><ele>336.0</ele><time>2026-04-06T13:08:15.999Z</time></trkpt><trkpt lat="44.19211111896134" lon="9.596674324974112"><ele>336.0</ele><time>2026-04-06T13:08:17.999Z</time></trkpt><trkpt lat="44.19227567698572" lon="9.596638164237852"><ele>336.0</ele><time>2026-04-06T13:08:20.999Z</time></trkpt><trkpt lat="44.19227098500834" lon="9.596545858045053"><ele>336.0</ele><time>2026-04-06T13:08:21.999Z</time></trkpt><trkpt lat="44.192349785206424" lon="9.596456759224239"><ele>336.0</ele><time>2026-04-06T13:08:22.999Z</time></trkpt><trkpt lat="44.19241869378125" lon="9.596382379551303"><ele>336.0</ele><time>2026-04-06T13:08:23.999Z</time></trkpt><trkpt lat="44.192497649739195" lon="9.596309171969597"><ele>336.0</ele><time>2026-04-06T13:08:24.999Z</time></trkpt><trkpt lat="44.192562203602236" lon="9.596215549960204"><ele>336.0</ele><time>2026-04-06T13:08:25.999Z</time></trkpt><trkpt lat="44.19263045337345" lon="9.596129040011808"><ele>337.6</ele><time>2026-04-06T13:08:26.999Z</time></trkpt><trkpt lat="44.19270540867848" lon="9.596057249749613"><ele>339.20000000000005</ele><time>2026-04-06T13:08:27.999Z</time></trkpt><trkpt lat="44.192810198630696" lon="9.596054108549659"><ele>340.79999999999995</ele><time>2026-04-06T13:08:28.999Z</time></trkpt><trkpt lat="44.19290341756631" lon="9.596026553343261"><ele>342.4</ele><time>2026-04-06T13:08:29.999Z</time></trkpt><trkpt lat="44.192997325871545" lon="9.595996582295806"><ele>344.0</ele><time>2026-04-06T13:08:30.999Z</time></trkpt><trkpt lat="44.19308463286634" lon="9.595953039197063"><ele>344.0</ele><time>2026-04-06T13:08:31.999Z</time></trkpt><trkpt lat="44.19315896333821" lon="9.595853239618739"><ele>344.0</ele><time>2026-04-06T13:08:32.999Z</time></trkpt><trkpt lat="44.19321003475555" lon="9.595724928090105"><ele>344.0</ele><time>2026-04-06T13:08:33.999Z</time></trkpt><trkpt lat="44.19326837357014" lon="9.595599055916106"><ele>344.0</ele><time>2026-04-06T13:08:34.999Z</time></trkpt><trkpt lat="44.1933508160247" lon="9.5955112588193"><ele>344.0</ele><time>2026-04-06T13:08:35.999Z</time></trkpt><trkpt lat="44.193433081516346" lon="9.59542460384817"><ele>349.1666666666667</ele><time>2026-04-06T13:08:36.999Z</time></trkpt><trkpt lat="44.1935036572582" lon="9.59533308976867"><ele>354.33333333333337</ele><time>2026-04-06T13:08:37.999Z</time></trkpt><trkpt lat="44.193548409293896" lon="9.595246049697746"><ele>359.5</ele><time>2026-04-06T13:08:38.999Z</time></trkpt><trkpt lat="44.193555625043196" lon="9.595147825459717"><ele>364.6666666666667</ele><time>2026-04-06T13:08:39.999Z</time></trkpt><trkpt lat="44.193483432328186" lon="9.595056795153617"><ele>369.8333333333333</ele><time>2026-04-06T13:08:40.999Z</time></trkpt><trkpt lat="44.19340724768991" lon="9.595010448241016"><ele>375.0</ele><time>2026-04-06T13:08:41.999Z</time></trkpt><trkpt lat="44.19332321483356" lon="9.595018687032077"><ele>375.0</ele><time>2026-04-06T13:08:42.999Z</time></trkpt><trkpt lat="44.19324428493722" lon="9.595019742689686"><ele>375.0</ele><time>2026-04-06T13:08:43.999Z</time></trkpt><trkpt lat="44.1931646351233" lon="9.59502745338731"><ele>375.0</ele><time>2026-04-06T13:08:44.999Z</time></trkpt><trkpt lat="44.19308163749307" lon="9.594997865561282"><ele>375.0</ele><time>2026-04-06T13:08:45.998Z</time></trkpt><trkpt lat="44.19298878897894" lon="9.59499654126769"><ele>375.0</ele><time>2026-04-06T13:08:46.998Z</time></trkpt><trkpt lat="44.1929308830186" lon="9.594894363751582"><ele>375.0</ele><time>2026-04-06T13:08:47.998Z</time></trkpt><trkpt lat="44.192846502859474" lon="9.594808477095118"><ele>371.5</ele><time>2026-04-06T13:08:48.998Z</time></trkpt><trkpt lat="44.19277669259228" lon="9.594747943703155"><ele>368.0</ele><time>2026-04-06T13:08:49.998Z</time></trkpt><trkpt lat="44.19269084374934" lon="9.594701659839233"><ele>364.5</ele><time>2026-04-06T13:08:51Z</time></trkpt><trkpt lat="44.19260664983715" lon="9.594658263728514"><ele>361.0</ele><time>2026-04-06T13:08:52Z</time></trkpt><trkpt lat="44.192519315255375" lon="9.594615409413878"><ele>357.5</ele><time>2026-04-06T13:08:53Z</time></trkpt><trkpt lat="44.192438809632606" lon="9.594577722101231"><ele>354.0</ele><time>2026-04-06T13:08:54Z</time></trkpt><trkpt lat="44.1923522243482" lon="9.594541046039282"><ele>355.2</ele><time>2026-04-06T13:08:55Z</time></trkpt><trkpt lat="44.192256221653444" lon="9.594512820979427"><ele>356.4</ele><time>2026-04-06T13:08:56Z</time></trkpt><trkpt lat="44.19216924954446" lon="9.594479175631138"><ele>357.6</ele><time>2026-04-06T13:08:57Z</time></trkpt><trkpt lat="44.19208668978503" lon="9.594421736485115"><ele>358.8</ele><time>2026-04-06T13:08:58Z</time></trkpt><trkpt lat="44.192007495582075" lon="9.594346553067464"><ele>360.0</ele><time>2026-04-06T13:08:59Z</time></trkpt><trkpt lat="44.19193174032974" lon="9.594263605083302"><ele>360.0</ele><time>2026-04-06T13:09:00Z</time></trkpt><trkpt lat="44.191881411064635" lon="9.594194823527962"><ele>360.0</ele><time>2026-04-06T13:09:01Z</time></trkpt><trkpt lat="44.19181839681313" lon="9.594080565945015"><ele>360.0</ele><time>2026-04-06T13:09:02Z</time></trkpt><trkpt lat="44.1918273740639" lon="9.59394813246641"><ele>360.0</ele><time>2026-04-06T13:09:03Z</time></trkpt><trkpt lat="44.19182684828039" lon="9.593811914617236"><ele>360.0</ele><time>2026-04-06T13:09:04Z</time></trkpt><trkpt lat="44.19180940982496" lon="9.593706364072412"><ele>360.0</ele><time>2026-04-06T13:09:05Z</time></trkpt><trkpt lat="44.19179954584438" lon="9.593585192669188"><ele>362.8</ele><time>2026-04-06T13:09:06Z</time></trkpt><trkpt lat="44.191773115891046" lon="9.593463211791526"><ele>365.6</ele><time>2026-04-06T13:09:07Z</time></trkpt><trkpt lat="44.1917608430866" lon="9.593339613829478"><ele>368.4</ele><time>2026-04-06T13:09:08Z</time></trkpt><trkpt lat="44.19171339720555" lon="9.593205077881963"><ele>371.2</ele><time>2026-04-06T13:09:09Z</time></trkpt><trkpt lat="44.191697350721" lon="9.593073441238273"><ele>374.0</ele><time>2026-04-06T13:09:10Z</time></trkpt><trkpt lat="44.191665225332684" lon="9.592945179807282"><ele>374.0</ele><time>2026-04-06T13:09:11Z</time></trkpt><trkpt lat="44.191636681632275" lon="9.592843748418629"><ele>374.0</ele><time>2026-04-06T13:09:12Z</time></trkpt><trkpt lat="44.191651629293936" lon="9.592744401697509"><ele>374.0</ele><time>2026-04-06T13:09:13Z</time></trkpt><trkpt lat="44.19170955007248" lon="9.592646932999479"><ele>374.0</ele><time>2026-04-06T13:09:14Z</time></trkpt><trkpt lat="44.19179235386484" lon="9.592639115202344"><ele>374.0</ele><time>2026-04-06T13:09:15Z</time></trkpt><trkpt lat="44.19187063867776" lon="9.592591502835035"><ele>374.0</ele><time>2026-04-06T13:09:16Z</time></trkpt><trkpt lat="44.19194901682846" lon="9.592544423474887"><ele>373.5</ele><time>2026-04-06T13:09:17Z</time></trkpt><trkpt lat="44.19202230607313" lon="9.592485543402283"><ele>373.0</ele><time>2026-04-06T13:09:18Z</time></trkpt><trkpt lat="44.19209292020042" lon="9.592418771609152"><ele>372.5</ele><time>2026-04-06T13:09:19Z</time></trkpt><trkpt lat="44.19215546138459" lon="9.592333141872942"><ele>372.0</ele><time>2026-04-06T13:09:20Z</time></trkpt><trkpt lat="44.19221795828009" lon="9.592236961517637"><ele>371.5</ele><time>2026-04-06T13:09:21Z</time></trkpt><trkpt lat="44.19227949365768" lon="9.592139984135232"><ele>371.0</ele><time>2026-04-06T13:09:22Z</time></trkpt><trkpt lat="44.192339600586756" lon="9.592042509047127"><ele>373.4</ele><time>2026-04-06T13:09:23Z</time></trkpt><trkpt lat="44.19240790816139" lon="9.591945331497659"><ele>375.8</ele><time>2026-04-06T13:09:24Z</time></trkpt><trkpt lat="44.19247452200055" lon="9.591852935349632"><ele>378.2</ele><time>2026-04-06T13:09:25Z</time></trkpt><trkpt lat="44.19254065119019" lon="9.591754423471466"><ele>380.59999999999997</ele><time>2026-04-06T13:09:26Z</time></trkpt><trkpt lat="44.19261554588251" lon="9.591664064299668"><ele>383.0</ele><time>2026-04-06T13:09:27Z</time></trkpt><trkpt lat="44.19270309409963" lon="9.591594660692108"><ele>383.0</ele><time>2026-04-06T13:09:28Z</time></trkpt><trkpt lat="44.19279648646408" lon="9.59154942308931"><ele>383.0</ele><time>2026-04-06T13:09:29Z</time></trkpt><trkpt lat="44.19289328571674" lon="9.591505385547507"><ele>383.0</ele><time>2026-04-06T13:09:30Z</time></trkpt><trkpt lat="44.19297030576389" lon="9.591424761362676"><ele>383.0</ele><time>2026-04-06T13:09:31Z</time></trkpt><trkpt lat="44.1930473809928" lon="9.591336953607248"><ele>383.0</ele><time>2026-04-06T13:09:32Z</time></trkpt><trkpt lat="44.19312968609576" lon="9.59125724776053"><ele>383.83333333333337</ele><time>2026-04-06T13:09:33Z</time></trkpt><trkpt lat="44.19320424244541" lon="9.591186243231919"><ele>384.6666666666667</ele><time>2026-04-06T13:09:34Z</time></trkpt><trkpt lat="44.193273654298594" lon="9.591118175481546"><ele>385.5</ele><time>2026-04-06T13:09:35Z</time></trkpt><trkpt lat="44.19335712443999" lon="9.591120354989636"><ele>386.33333333333337</ele><time>2026-04-06T13:09:36Z</time></trkpt><trkpt lat="44.193429532876195" lon="9.59121220583942"><ele>387.1666666666667</ele><time>2026-04-06T13:09:37Z</time></trkpt><trkpt lat="44.1934977449159" lon="9.591294574904373"><ele>388.0</ele><time>2026-04-06T13:09:38Z</time></trkpt><trkpt lat="44.19357492225803" lon="9.591349969120666"><ele>392.79999999999995</ele><time>2026-04-06T13:09:39Z</time></trkpt><trkpt lat="44.193653729579225" lon="9.591379271415995"><ele>397.6</ele><time>2026-04-06T13:09:40Z</time></trkpt><trkpt lat="44.19374683929009" lon="9.591377685424039"><ele>402.4</ele><time>2026-04-06T13:09:41Z</time></trkpt><trkpt lat="44.193842038032315" lon="9.591381593315198"><ele>407.20000000000005</ele><time>2026-04-06T13:09:42Z</time></trkpt><trkpt lat="44.19393690242954" lon="9.591388624163363"><ele>412.0</ele><time>2026-04-06T13:09:42.999Z</time></trkpt><trkpt lat="44.19402575713833" lon="9.591403953843232"><ele>413.8</ele><time>2026-04-06T13:09:43.999Z</time></trkpt><trkpt lat="44.19411718081309" lon="9.591424422298468"><ele>415.6</ele><time>2026-04-06T13:09:44.999Z</time></trkpt><trkpt lat="44.194211195479475" lon="9.591454129424768"><ele>417.40000000000003</ele><time>2026-04-06T13:09:45.999Z</time></trkpt><trkpt lat="44.194291722094164" lon="9.591510661641898"><ele>419.20000000000005</ele><time>2026-04-06T13:09:46.999Z</time></trkpt><trkpt lat="44.19437424167042" lon="9.591545720805838"><ele>421.0</ele><time>2026-04-06T13:09:47.999Z</time></trkpt><trkpt lat="44.19447316778939" lon="9.591582608034594"><ele>421.0</ele><time>2026-04-06T13:09:48.999Z</time></trkpt><trkpt lat="44.194569513158335" lon="9.591601485736168"><ele>421.0</ele><time>2026-04-06T13:09:49.999Z</time></trkpt><trkpt lat="44.19465809812919" lon="9.591617917054766"><ele>421.0</ele><time>2026-04-06T13:09:50.999Z</time></trkpt><trkpt lat="44.19474364150794" lon="9.59164636748535"><ele>421.0</ele><time>2026-04-06T13:09:51.999Z</time></trkpt><trkpt lat="44.19485964749634" lon="9.591711672574899"><ele>421.0</ele><time>2026-04-06T13:09:52.999Z</time></trkpt><trkpt lat="44.19493255964408" lon="9.591761517394168"><ele>419.6</ele><time>2026-04-06T13:09:53.999Z</time></trkpt><trkpt lat="44.19501723466279" lon="9.591808336521291"><ele>418.20000000000005</ele><time>2026-04-06T13:09:54.999Z</time></trkpt><trkpt lat="44.1951258309497" lon="9.591831630347949"><ele>416.79999999999995</ele><time>2026-04-06T13:09:55.999Z</time></trkpt><trkpt lat="44.195212289426486" lon="9.591826730699047"><ele>415.4</ele><time>2026-04-06T13:09:56.999Z</time></trkpt><trkpt lat="44.19529090573511" lon="9.591857787199288"><ele>414.0</ele><time>2026-04-06T13:09:57.999Z</time></trkpt><trkpt lat="44.19535694237029" lon="9.591926101069523"><ele>419.6</ele><time>2026-04-06T13:09:58.999Z</time></trkpt><trkpt lat="44.19539387210419" lon="9.59209471316683"><ele>425.2</ele><time>2026-04-06T13:10:00.999Z</time></trkpt><trkpt lat="44.195411424804334" lon="9.592184800552577"><ele>430.80000000000007</ele><time>2026-04-06T13:10:01.999Z</time></trkpt><trkpt lat="44.19544016755116" lon="9.592275763611292"><ele>436.40000000000003</ele><time>2026-04-06T13:10:02.999Z</time></trkpt><trkpt lat="44.195515511653035" lon="9.592369835309265"><ele>442.0</ele><time>2026-04-06T13:10:04.999Z</time></trkpt><trkpt lat="44.19561575265022" lon="9.59238712496601"><ele>441.33333333333337</ele><time>2026-04-06T13:10:06.999Z</time></trkpt><trkpt lat="44.19569761955476" lon="9.592337399323876"><ele>440.6666666666667</ele><time>2026-04-06T13:10:08.999Z</time></trkpt><trkpt lat="44.19575152626503" lon="9.592217882812632"><ele>440.0</ele><time>2026-04-06T13:10:10.999Z</time></trkpt><trkpt lat="44.19583522048879" lon="9.592130245831802"><ele>439.33333333333337</ele><time>2026-04-06T13:10:12.999Z</time></trkpt><trkpt lat="44.195874320132454" lon="9.59205995051246"><ele>438.6666666666667</ele><time>2026-04-06T13:10:13.999Z</time></trkpt><trkpt lat="44.195915577530634" lon="9.591961587476911"><ele>438.0</ele><time>2026-04-06T13:10:14.999Z</time></trkpt><trkpt lat="44.195955218015044" lon="9.591889219795473"><ele>434.6666666666667</ele><time>2026-04-06T13:10:15.999Z</time></trkpt><trkpt lat="44.19600559728357" lon="9.59180884345976"><ele>431.33333333333337</ele><time>2026-04-06T13:10:16.999Z</time></trkpt><trkpt lat="44.19607402961327" lon="9.591736607969576"><ele>428.0</ele><time>2026-04-06T13:10:17.999Z</time></trkpt><trkpt lat="44.19613990258608" lon="9.59166964186381"><ele>424.6666666666667</ele><time>2026-04-06T13:10:18.999Z</time></trkpt><trkpt lat="44.196217607991436" lon="9.591620475061488"><ele>421.33333333333337</ele><time>2026-04-06T13:10:19.999Z</time></trkpt><trkpt lat="44.19630228036827" lon="9.59158072438647"><ele>418.0</ele><time>2026-04-06T13:10:20.999Z</time></trkpt><trkpt lat="44.19638778912242" lon="9.59154949320473"><ele>418.00000000000006</ele><time>2026-04-06T13:10:21.999Z</time></trkpt><trkpt lat="44.1964786962441" lon="9.591607315657727"><ele>418.0</ele><time>2026-04-06T13:10:22.999Z</time></trkpt><trkpt lat="44.196564974685224" lon="9.591615470096306"><ele>418.0</ele><time>2026-04-06T13:10:23.999Z</time></trkpt><trkpt lat="44.19665260340597" lon="9.591631108807915"><ele>418.0</ele><time>2026-04-06T13:10:24.999Z</time></trkpt><trkpt lat="44.196739494585536" lon="9.591642686728315"><ele>418.00000000000006</ele><time>2026-04-06T13:10:25.999Z</time></trkpt><trkpt lat="44.19682487559751" lon="9.591639434988867"><ele>418.0</ele><time>2026-04-06T13:10:26.999Z</time></trkpt><trkpt lat="44.19690956587395" lon="9.591621495805256"><ele>421.4</ele><time>2026-04-06T13:10:27.999Z</time></trkpt><trkpt lat="44.19700865416504" lon="9.591585922672214"><ele>424.79999999999995</ele><time>2026-04-06T13:10:28.999Z</time></trkpt><trkpt lat="44.197091598066805" lon="9.591538620815701"><ele>428.2</ele><time>2026-04-06T13:10:29.999Z</time></trkpt><trkpt lat="44.19716615501764" lon="9.59146926197963"><ele>431.6</ele><time>2026-04-06T13:10:30.999Z</time></trkpt><trkpt lat="44.19722336561332" lon="9.59134968427632"><ele>435.0</ele><time>2026-04-06T13:10:31.999Z</time></trkpt><trkpt lat="44.197265160488605" lon="9.591250185644009"><ele>434.8333333333333</ele><time>2026-04-06T13:10:32.999Z</time></trkpt><trkpt lat="44.1973093309436" lon="9.59115920830928"><ele>434.66666666666663</ele><time>2026-04-06T13:10:33.999Z</time></trkpt><trkpt lat="44.1973652373788" lon="9.591085037742838"><ele>434.5</ele><time>2026-04-06T13:10:34.999Z</time></trkpt><trkpt lat="44.19743135550831" lon="9.591046960177044"><ele>434.3333333333333</ele><time>2026-04-06T13:10:35.999Z</time></trkpt><trkpt lat="44.19751136635253" lon="9.590995489709883"><ele>434.16666666666663</ele><time>2026-04-06T13:10:36.999Z</time></trkpt><trkpt lat="44.19759193407504" lon="9.590946488657606"><ele>434.0</ele><time>2026-04-06T13:10:37.999Z</time></trkpt><trkpt lat="44.19767709282848" lon="9.590911097872691"><ele>434.0</ele><time>2026-04-06T13:10:38.999Z</time></trkpt><trkpt lat="44.197765471061274" lon="9.590880290343618"><ele>434.0</ele><time>2026-04-06T13:10:39.999Z</time></trkpt><trkpt lat="44.197859319896494" lon="9.590890072997597"><ele>434.0</ele><time>2026-04-06T13:10:40.999Z</time></trkpt><trkpt lat="44.19794891459262" lon="9.590947694743457"><ele>434.0</ele><time>2026-04-06T13:10:41.999Z</time></trkpt><trkpt lat="44.19803497886528" lon="9.590981334340384"><ele>434.0</ele><time>2026-04-06T13:10:42.999Z</time></trkpt><trkpt lat="44.19810893127285" lon="9.59101023973817"><ele>442.0</ele><time>2026-04-06T13:10:43.999Z</time></trkpt><trkpt lat="44.198293370099314" lon="9.590640428894051"><ele>450.0</ele><time>2026-04-06T13:10:46.999Z</time></trkpt><trkpt lat="44.19835202577922" lon="9.590549563230011"><ele>458.0</ele><time>2026-04-06T13:10:47.999Z</time></trkpt><trkpt lat="44.198402037099775" lon="9.590446417686472"><ele>458.0</ele><time>2026-04-06T13:10:48.999Z</time></trkpt><trkpt lat="44.19846383449279" lon="9.590346975745806"><ele>457.99999999999994</ele><time>2026-04-06T13:10:49.999Z</time></trkpt><trkpt lat="44.198526506307154" lon="9.59024999661942"><ele>457.99999999999994</ele><time>2026-04-06T13:10:50.999Z</time></trkpt><trkpt lat="44.19858995145345" lon="9.590145311444081"><ele>458.0</ele><time>2026-04-06T13:10:51.999Z</time></trkpt><trkpt lat="44.19865854903786" lon="9.59004692977119"><ele>458.0</ele><time>2026-04-06T13:10:52.998Z</time></trkpt><trkpt lat="44.19873030916149" lon="9.589957553384426"><ele>456.4</ele><time>2026-04-06T13:10:53.998Z</time></trkpt><trkpt lat="44.198809872438076" lon="9.589876310043952"><ele>454.79999999999995</ele><time>2026-04-06T13:10:54.998Z</time></trkpt><trkpt lat="44.19889870794589" lon="9.589797567869537"><ele>453.2</ele><time>2026-04-06T13:10:55.998Z</time></trkpt><trkpt lat="44.19897837217992" lon="9.589748037978847"><ele>451.6</ele><time>2026-04-06T13:10:57Z</time></trkpt><trkpt lat="44.19906513008844" lon="9.589741536978329"><ele>450.0</ele><time>2026-04-06T13:10:58Z</time></trkpt><trkpt lat="44.1991496797743" lon="9.589781497216135"><ele>450.0</ele><time>2026-04-06T13:10:59Z</time></trkpt><trkpt lat="44.19921234603399" lon="9.58986663605619"><ele>450.0</ele><time>2026-04-06T13:11:00Z</time></trkpt><trkpt lat="44.1992533041161" lon="9.58997465221939"><ele>450.0</ele><time>2026-04-06T13:11:01Z</time></trkpt><trkpt lat="44.19929092869662" lon="9.590077498650992"><ele>450.0</ele><time>2026-04-06T13:11:02Z</time></trkpt><trkpt lat="44.199330699794295" lon="9.590174219517719"><ele>450.0</ele><time>2026-04-06T13:11:03Z</time></trkpt><trkpt lat="44.199377858917025" lon="9.590266518783295"><ele>450.0</ele><time>2026-04-06T13:11:04Z</time></trkpt><trkpt lat="44.19941566834313" lon="9.590368025467303"><ele>454.3333333333333</ele><time>2026-04-06T13:11:05Z</time></trkpt><trkpt lat="44.19946065740822" lon="9.590466109252317"><ele>458.66666666666663</ele><time>2026-04-06T13:11:06Z</time></trkpt><trkpt lat="44.199513164820694" lon="9.59056057014709"><ele>463.0</ele><time>2026-04-06T13:11:07Z</time></trkpt><trkpt lat="44.19955807959566" lon="9.590657526662481"><ele>467.3333333333333</ele><time>2026-04-06T13:11:08Z</time></trkpt><trkpt lat="44.199606679121075" lon="9.590758619878164"><ele>471.66666666666663</ele><time>2026-04-06T13:11:09Z</time></trkpt><trkpt lat="44.19966812641976" lon="9.5908390576678"><ele>476.0</ele><time>2026-04-06T13:11:10Z</time></trkpt><trkpt lat="44.19972290411115" lon="9.590923442098122"><ele>475.99999999999994</ele><time>2026-04-06T13:11:11Z</time></trkpt><trkpt lat="44.19977807814166" lon="9.591011241543464"><ele>476.0</ele><time>2026-04-06T13:11:12Z</time></trkpt><trkpt lat="44.19983442236849" lon="9.59109712800885"><ele>476.0</ele><time>2026-04-06T13:11:13Z</time></trkpt><trkpt lat="44.19988910993435" lon="9.59119066515484"><ele>476.0</ele><time>2026-04-06T13:11:14Z</time></trkpt><trkpt lat="44.19994148450008" lon="9.591290608068652"><ele>475.99999999999994</ele><time>2026-04-06T13:11:15Z</time></trkpt><trkpt lat="44.19998656782909" lon="9.59139868350991"><ele>476.0</ele><time>2026-04-06T13:11:16Z</time></trkpt><trkpt lat="44.200032745357646" lon="9.591507561361471"><ele>477.0</ele><time>2026-04-06T13:11:17Z</time></trkpt><trkpt lat="44.20008101009464" lon="9.591615686049101"><ele>478.0</ele><time>2026-04-06T13:11:18Z</time></trkpt><trkpt lat="44.20014383680078" lon="9.591708392096843"><ele>479.0</ele><time>2026-04-06T13:11:19Z</time></trkpt><trkpt lat="44.20022410697119" lon="9.59177956636546"><ele>480.0</ele><time>2026-04-06T13:11:20Z</time></trkpt><trkpt lat="44.20031370122518" lon="9.59182503941048"><ele>481.0</ele><time>2026-04-06T13:11:21Z</time></trkpt><trkpt lat="44.20039479254943" lon="9.591879262270064"><ele>481.0</ele><time>2026-04-06T13:11:22Z</time></trkpt><trkpt lat="44.20046717510383" lon="9.591961996408328"><ele>481.0</ele><time>2026-04-06T13:11:23Z</time></trkpt><trkpt lat="44.200546528500595" lon="9.592039357034256"><ele>481.0</ele><time>2026-04-06T13:11:24Z</time></trkpt><trkpt lat="44.20064029814275" lon="9.592078001567863"><ele>481.0</ele><time>2026-04-06T13:11:25Z</time></trkpt><trkpt lat="44.20073811813138" lon="9.592087075124292"><ele>481.0</ele><time>2026-04-06T13:11:26Z</time></trkpt><trkpt lat="44.20082322176889" lon="9.592069839530748"><ele>480.0</ele><time>2026-04-06T13:11:27Z</time></trkpt><trkpt lat="44.20090951338918" lon="9.59205371154906"><ele>479.0</ele><time>2026-04-06T13:11:28Z</time></trkpt><trkpt lat="44.20099797184616" lon="9.592011681926996"><ele>478.0</ele><time>2026-04-06T13:11:29Z</time></trkpt><trkpt lat="44.20108356482284" lon="9.591959709427478"><ele>477.0</ele><time>2026-04-06T13:11:30Z</time></trkpt><trkpt lat="44.20117235973734" lon="9.59191472210279"><ele>476.0</ele><time>2026-04-06T13:11:31Z</time></trkpt><trkpt lat="44.20126659751327" lon="9.591924499554498"><ele>476.0</ele><time>2026-04-06T13:11:32Z</time></trkpt><trkpt lat="44.20134672644996" lon="9.591992656884493"><ele>476.0</ele><time>2026-04-06T13:11:33Z</time></trkpt><trkpt lat="44.20140460455642" lon="9.592108723336027"><ele>476.0</ele><time>2026-04-06T13:11:34Z</time></trkpt><trkpt lat="44.20144770336773" lon="9.59222254654723"><ele>476.0</ele><time>2026-04-06T13:11:35Z</time></trkpt><trkpt lat="44.20149030636263" lon="9.59233030991099"><ele>476.0</ele><time>2026-04-06T13:11:36Z</time></trkpt><trkpt lat="44.20153613461397" lon="9.59243654208953"><ele>478.6</ele><time>2026-04-06T13:11:37Z</time></trkpt><trkpt lat="44.20158492708548" lon="9.592537036262312"><ele>481.20000000000005</ele><time>2026-04-06T13:11:38Z</time></trkpt><trkpt lat="44.20163598056136" lon="9.592644972963518"><ele>483.79999999999995</ele><time>2026-04-06T13:11:39Z</time></trkpt><trkpt lat="44.201686209835145" lon="9.592757836659143"><ele>486.4</ele><time>2026-04-06T13:11:40Z</time></trkpt><trkpt lat="44.201740289654296" lon="9.59287098584594"><ele>489.0</ele><time>2026-04-06T13:11:41Z</time></trkpt><trkpt lat="44.20180529490757" lon="9.592974003593879"><ele>491.6666666666667</ele><time>2026-04-06T13:11:42Z</time></trkpt><trkpt lat="44.20185172796934" lon="9.59307993363494"><ele>494.33333333333337</ele><time>2026-04-06T13:11:43Z</time></trkpt><trkpt lat="44.20186627115974" lon="9.593202901370802"><ele>497.0</ele><time>2026-04-06T13:11:44Z</time></trkpt><trkpt lat="44.20186188116647" lon="9.593328068482949"><ele>499.6666666666667</ele><time>2026-04-06T13:11:45Z</time></trkpt><trkpt lat="44.201852059699455" lon="9.593449878790066"><ele>502.33333333333337</ele><time>2026-04-06T13:11:46Z</time></trkpt><trkpt lat="44.20185670761454" lon="9.593559962186257"><ele>505.0</ele><time>2026-04-06T13:11:47Z</time></trkpt><trkpt lat="44.20186013334469" lon="9.59366973969714"><ele>507.1666666666667</ele><time>2026-04-06T13:11:48Z</time></trkpt><trkpt lat="44.20188169470795" lon="9.593763381011067"><ele>509.33333333333337</ele><time>2026-04-06T13:11:48.999Z</time></trkpt><trkpt lat="44.201913883873566" lon="9.59387488910431"><ele>511.5</ele><time>2026-04-06T13:11:50.999Z</time></trkpt><trkpt lat="44.20197804856758" lon="9.593880958636875"><ele>513.6666666666666</ele><time>2026-04-06T13:11:51.999Z</time></trkpt><trkpt lat="44.20206942335632" lon="9.593838255143819"><ele>515.8333333333333</ele><time>2026-04-06T13:11:53.999Z</time></trkpt><trkpt lat="44.202175250686935" lon="9.593878171888319"><ele>518.0</ele><time>2026-04-06T13:11:55.999Z</time></trkpt><trkpt lat="44.20222753894616" lon="9.594036337446092"><ele>518.0</ele><time>2026-04-06T13:11:57.999Z</time></trkpt><trkpt lat="44.20224162316525" lon="9.594129242945195"><ele>518.0</ele><time>2026-04-06T13:11:58.999Z</time></trkpt><trkpt lat="44.2022632178994" lon="9.594222794547317"><ele>518.0</ele><time>2026-04-06T13:11:59.999Z</time></trkpt><trkpt lat="44.20227951637073" lon="9.594324402806429"><ele>518.0</ele><time>2026-04-06T13:12:00.999Z</time></trkpt><trkpt lat="44.20231173591876" lon="9.594432490404115"><ele>518.0</ele><time>2026-04-06T13:12:01.999Z</time></trkpt><trkpt lat="44.20236149970192" lon="9.594549391002978"><ele>518.0</ele><time>2026-04-06T13:12:02.999Z</time></trkpt><trkpt lat="44.20240463107602" lon="9.59463076348192"><ele>519.6666666666666</ele><time>2026-04-06T13:12:03.999Z</time></trkpt><trkpt lat="44.20242288468844" lon="9.594722725200954"><ele>521.3333333333333</ele><time>2026-04-06T13:12:04.999Z</time></trkpt><trkpt lat="44.20245133742076" lon="9.594857592577906"><ele>523.0</ele><time>2026-04-06T13:12:06.999Z</time></trkpt><trkpt lat="44.20251450109113" lon="9.594898613755442"><ele>524.6666666666666</ele><time>2026-04-06T13:12:08.999Z</time></trkpt><trkpt lat="44.20257734017925" lon="9.59481711884662"><ele>526.3333333333334</ele><time>2026-04-06T13:12:10.999Z</time></trkpt><trkpt lat="44.20258909690327" lon="9.59472874373344"><ele>528.0</ele><time>2026-04-06T13:12:11.999Z</time></trkpt><trkpt lat="44.20259184585678" lon="9.594620315120808"><ele>528.0</ele><time>2026-04-06T13:12:12.999Z</time></trkpt><trkpt lat="44.202637891529704" lon="9.594529505252192"><ele>528.0</ele><time>2026-04-06T13:12:13.999Z</time></trkpt><trkpt lat="44.202695602031575" lon="9.59449100542122"><ele>528.0</ele><time>2026-04-06T13:12:14.999Z</time></trkpt><trkpt lat="44.20277639042102" lon="9.594474258224878"><ele>528.0</ele><time>2026-04-06T13:12:15.999Z</time></trkpt><trkpt lat="44.202852105768734" lon="9.59450937050746"><ele>528.0</ele><time>2026-04-06T13:12:16.999Z</time></trkpt><trkpt lat="44.2029269749709" lon="9.594546026628493"><ele>528.0</ele><time>2026-04-06T13:12:17.999Z</time></trkpt><trkpt lat="44.203006633015036" lon="9.594555983092858"><ele>528.0</ele><time>2026-04-06T13:12:18.999Z</time></trkpt><trkpt lat="44.203091696015086" lon="9.5945686172569"><ele>528.0</ele><time>2026-04-06T13:12:19.999Z</time></trkpt><trkpt lat="44.20317327588676" lon="9.594561565511507"><ele>528.0</ele><time>2026-04-06T13:12:20.999Z</time></trkpt><trkpt lat="44.203265883251476" lon="9.594580168101404"><ele>528.0</ele><time>2026-04-06T13:12:21.999Z</time></trkpt><trkpt lat="44.20334726444844" lon="9.594624369278044"><ele>528.0</ele><time>2026-04-06T13:12:22.999Z</time></trkpt><trkpt lat="44.20342068866678" lon="9.594690013787533"><ele>528.0</ele><time>2026-04-06T13:12:23.999Z</time></trkpt><trkpt lat="44.20348886638476" lon="9.594759936260665"><ele>529.6</ele><time>2026-04-06T13:12:24.999Z</time></trkpt><trkpt lat="44.20355567641608" lon="9.594815704023619"><ele>531.1999999999999</ele><time>2026-04-06T13:12:25.999Z</time></trkpt><trkpt lat="44.20365961078063" lon="9.594767486969648"><ele>532.8</ele><time>2026-04-06T13:12:27.999Z</time></trkpt><trkpt lat="44.203668830586686" lon="9.594612663850786"><ele>534.4</ele><time>2026-04-06T13:12:29.999Z</time></trkpt><trkpt lat="44.2036120698786" lon="9.594491715847"><ele>536.0</ele><time>2026-04-06T13:12:30.999Z</time></trkpt><trkpt lat="44.20353133062683" lon="9.594421826464837"><ele>533.1666666666666</ele><time>2026-04-06T13:12:31.999Z</time></trkpt><trkpt lat="44.203475768340674" lon="9.59434826278823"><ele>530.3333333333333</ele><time>2026-04-06T13:12:32.999Z</time></trkpt><trkpt lat="44.203426322854455" lon="9.594258782292766"><ele>527.5</ele><time>2026-04-06T13:12:33.999Z</time></trkpt><trkpt lat="44.20336817950155" lon="9.594168910679642"><ele>524.6666666666666</ele><time>2026-04-06T13:12:34.999Z</time></trkpt><trkpt lat="44.20332026823294" lon="9.594068035214361"><ele>521.8333333333334</ele><time>2026-04-06T13:12:35.999Z</time></trkpt><trkpt lat="44.2032867315992" lon="9.593969531657438"><ele>519.0</ele><time>2026-04-06T13:12:36.999Z</time></trkpt><trkpt lat="44.203363386051436" lon="9.593823992504051"><ele>519.0</ele><time>2026-04-06T13:12:38.999Z</time></trkpt><trkpt lat="44.203435998483364" lon="9.5938122483144"><ele>519.0</ele><time>2026-04-06T13:12:39.999Z</time></trkpt><trkpt lat="44.203502357536514" lon="9.593799751592552"><ele>519.0</ele><time>2026-04-06T13:12:40.999Z</time></trkpt><trkpt lat="44.20356521697481" lon="9.59376803079973"><ele>519.0</ele><time>2026-04-06T13:12:41.999Z</time></trkpt><trkpt lat="44.20363034075526" lon="9.593732678501205"><ele>519.0</ele><time>2026-04-06T13:12:42.999Z</time></trkpt><trkpt lat="44.203708736414974" lon="9.593710178940105"><ele>519.0</ele><time>2026-04-06T13:12:43.999Z</time></trkpt><trkpt lat="44.20378826278666" lon="9.593677293542049"><ele>519.0</ele><time>2026-04-06T13:12:44.999Z</time></trkpt><trkpt lat="44.20386587994063" lon="9.593639350483715"><ele>519.4</ele><time>2026-04-06T13:12:45.999Z</time></trkpt><trkpt lat="44.203954506749966" lon="9.593618164716805"><ele>519.8</ele><time>2026-04-06T13:12:46.999Z</time></trkpt><trkpt lat="44.20402200289693" lon="9.593601066264226"><ele>520.2</ele><time>2026-04-06T13:12:47.999Z</time></trkpt><trkpt lat="44.20411087471668" lon="9.593516451129899"><ele>520.6</ele><time>2026-04-06T13:12:49.999Z</time></trkpt><trkpt lat="44.20412070838582" lon="9.593426415300627"><ele>521.0</ele><time>2026-04-06T13:12:50.999Z</time></trkpt><trkpt lat="44.20403776364102" lon="9.593281611811689"><ele>521.0</ele><time>2026-04-06T13:12:52.999Z</time></trkpt><trkpt lat="44.20397088085243" lon="9.593227131120424"><ele>521.0</ele><time>2026-04-06T13:12:53.999Z</time></trkpt><trkpt lat="44.20390467393905" lon="9.593172467724013"><ele>521.0</ele><time>2026-04-06T13:12:54.999Z</time></trkpt><trkpt lat="44.20382689027355" lon="9.593128988459226"><ele>521.0</ele><time>2026-04-06T13:12:55.999Z</time></trkpt><trkpt lat="44.203762843543124" lon="9.59307253073685"><ele>521.0</ele><time>2026-04-06T13:12:56.999Z</time></trkpt><trkpt lat="44.203697329540816" lon="9.592985936728484"><ele>521.0</ele><time>2026-04-06T13:12:57.999Z</time></trkpt><trkpt lat="44.20365536529963" lon="9.592890528503391"><ele>521.3333333333333</ele><time>2026-04-06T13:12:58.998Z</time></trkpt><trkpt lat="44.20364847862602" lon="9.592780132229949"><ele>521.6666666666666</ele><time>2026-04-06T13:12:59.998Z</time></trkpt><trkpt lat="44.20368761567101" lon="9.592663596659072"><ele>522.0</ele><time>2026-04-06T13:13:00.998Z</time></trkpt><trkpt lat="44.203736877169135" lon="9.59257825955876"><ele>522.3333333333334</ele><time>2026-04-06T13:13:01.998Z</time></trkpt><trkpt lat="44.20380578803314" lon="9.59250682257706"><ele>522.6666666666667</ele><time>2026-04-06T13:13:03Z</time></trkpt><trkpt lat="44.203877825583284" lon="9.592449269134596"><ele>523.0</ele><time>2026-04-06T13:13:04Z</time></trkpt><trkpt lat="44.20395655222051" lon="9.592400655064038"><ele>526.6666666666667</ele><time>2026-04-06T13:13:05Z</time></trkpt><trkpt lat="44.204009172216736" lon="9.592324901729695"><ele>530.3333333333334</ele><time>2026-04-06T13:13:06Z</time></trkpt><trkpt lat="44.20408911199525" lon="9.592253768974011"><ele>534.0</ele><time>2026-04-06T13:13:07Z</time></trkpt><trkpt lat="44.20416763963733" lon="9.592209800686406"><ele>537.6666666666666</ele><time>2026-04-06T13:13:08Z</time></trkpt><trkpt lat="44.204257312737006" lon="9.592190072954057"><ele>541.3333333333333</ele><time>2026-04-06T13:13:09Z</time></trkpt><trkpt lat="44.204337130445005" lon="9.592186536409685"><ele>545.0</ele><time>2026-04-06T13:13:10Z</time></trkpt><trkpt lat="44.204495430187755" lon="9.592282592447088"><ele>545.0</ele><time>2026-04-06T13:13:12Z</time></trkpt><trkpt lat="44.20456416317611" lon="9.59231343662343"><ele>545.0</ele><time>2026-04-06T13:13:13Z</time></trkpt><trkpt lat="44.2046307325112" lon="9.592274099218121"><ele>545.0</ele><time>2026-04-06T13:13:14Z</time></trkpt><trkpt lat="44.204692858989254" lon="9.592220953545537"><ele>545.0</ele><time>2026-04-06T13:13:15Z</time></trkpt><trkpt lat="44.204717771070484" lon="9.592122892040422"><ele>545.0</ele><time>2026-04-06T13:13:16Z</time></trkpt><trkpt lat="44.204682766949766" lon="9.591983075323315"><ele>545.0</ele><time>2026-04-06T13:13:17Z</time></trkpt><trkpt lat="44.20461020614511" lon="9.591865211360846"><ele>543.3333333333333</ele><time>2026-04-06T13:13:18Z</time></trkpt><trkpt lat="44.20457080519422" lon="9.591756893363426"><ele>541.6666666666666</ele><time>2026-04-06T13:13:19Z</time></trkpt><trkpt lat="44.204578198322196" lon="9.59163411820061"><ele>540.0</ele><time>2026-04-06T13:13:20Z</time></trkpt><trkpt lat="44.20462273210115" lon="9.59151961558026"><ele>538.3333333333334</ele><time>2026-04-06T13:13:21Z</time></trkpt><trkpt lat="44.204681879229575" lon="9.591420470132515"><ele>536.6666666666667</ele><time>2026-04-06T13:13:22Z</time></trkpt><trkpt lat="44.204746048149346" lon="9.591347372265185"><ele>535.0</ele><time>2026-04-06T13:13:23Z</time></trkpt><trkpt lat="44.20482100113119" lon="9.591282467356201"><ele>538.4</ele><time>2026-04-06T13:13:24Z</time></trkpt><trkpt lat="44.20490808885188" lon="9.591249423202491"><ele>541.8</ele><time>2026-04-06T13:13:25Z</time></trkpt><trkpt lat="44.204997515824736" lon="9.591248802336754"><ele>545.2</ele><time>2026-04-06T13:13:26Z</time></trkpt><trkpt lat="44.20509013279089" lon="9.591266266674394"><ele>548.6</ele><time>2026-04-06T13:13:27Z</time></trkpt><trkpt lat="44.20517840116554" lon="9.591245301310638"><ele>552.0</ele><time>2026-04-06T13:13:28Z</time></trkpt><trkpt lat="44.20525855113556" lon="9.591182932231915"><ele>552.0</ele><time>2026-04-06T13:13:29Z</time></trkpt><trkpt lat="44.20532590700057" lon="9.591085324744418"><ele>552.0</ele><time>2026-04-06T13:13:30Z</time></trkpt><trkpt lat="44.20537428000512" lon="9.590976672151253"><ele>552.0</ele><time>2026-04-06T13:13:31Z</time></trkpt><trkpt lat="44.20542069680997" lon="9.590895991173115"><ele>552.0</ele><time>2026-04-06T13:13:32Z</time></trkpt><trkpt lat="44.20549779763525" lon="9.590944269720575"><ele>552.0</ele><time>2026-04-06T13:13:34Z</time></trkpt><trkpt lat="44.20549173386221" lon="9.591075684043943"><ele>552.0</ele><time>2026-04-06T13:13:36Z</time></trkpt><trkpt lat="44.20545779176346" lon="9.59118583459861"><ele>552.0</ele><time>2026-04-06T13:13:38Z</time></trkpt><trkpt lat="44.205429308039584" lon="9.591346455903869"><ele>552.0</ele><time>2026-04-06T13:13:40Z</time></trkpt><trkpt lat="44.20542729508118" lon="9.59144344078694"><ele>552.0</ele><time>2026-04-06T13:13:41Z</time></trkpt><trkpt lat="44.20542135472569" lon="9.591551100505354"><ele>552.0</ele><time>2026-04-06T13:13:42Z</time></trkpt><trkpt lat="44.205428880517736" lon="9.591658209638883"><ele>552.0</ele><time>2026-04-06T13:13:43Z</time></trkpt><trkpt lat="44.205436236245035" lon="9.591760729426326"><ele>552.0</ele><time>2026-04-06T13:13:44Z</time></trkpt><trkpt lat="44.20546680167229" lon="9.591913172505379"><ele>552.0</ele><time>2026-04-06T13:13:46Z</time></trkpt><trkpt lat="44.205476299771505" lon="9.592042911519462"><ele>552.0</ele><time>2026-04-06T13:13:48Z</time></trkpt><trkpt lat="44.20548840799205" lon="9.59216983266021"><ele>552.0</ele><time>2026-04-06T13:13:50Z</time></trkpt><trkpt lat="44.20556598245554" lon="9.592210974190216"><ele>552.0</ele><time>2026-04-06T13:13:52Z</time></trkpt><trkpt lat="44.20564651526104" lon="9.59215549607858"><ele>552.0</ele><time>2026-04-06T13:13:53Z</time></trkpt><trkpt lat="44.20567219377731" lon="9.59205723046535"><ele>552.0</ele><time>2026-04-06T13:13:54Z</time></trkpt><trkpt lat="44.20565677363123" lon="9.591923131722393"><ele>552.0</ele><time>2026-04-06T13:13:55Z</time></trkpt><trkpt lat="44.20563555707587" lon="9.591796230711124"><ele>552.0</ele><time>2026-04-06T13:13:56Z</time></trkpt><trkpt lat="44.205640187383324" lon="9.591688650628342"><ele>552.0</ele><time>2026-04-06T13:13:56.999Z</time></trkpt><trkpt lat="44.20567232112384" lon="9.59157998097424"><ele>552.0</ele><time>2026-04-06T13:13:57.999Z</time></trkpt><trkpt lat="44.20571715931684" lon="9.591475474225986"><ele>552.0</ele><time>2026-04-06T13:13:58.999Z</time></trkpt><trkpt lat="44.205758114251616" lon="9.591369990795938"><ele>552.0</ele><time>2026-04-06T13:13:59.999Z</time></trkpt><trkpt lat="44.20580993478926" lon="9.59126741524153"><ele>553.5</ele><time>2026-04-06T13:14:00.999Z</time></trkpt><trkpt lat="44.20587552158141" lon="9.59118382206461"><ele>555.0</ele><time>2026-04-06T13:14:01.999Z</time></trkpt><trkpt lat="44.205943385068565" lon="9.591099657578711"><ele>556.5</ele><time>2026-04-06T13:14:02.999Z</time></trkpt><trkpt lat="44.20601296995224" lon="9.59102057807057"><ele>558.0</ele><time>2026-04-06T13:14:03.999Z</time></trkpt><trkpt lat="44.20609128166944" lon="9.590962444994597"><ele>559.5</ele><time>2026-04-06T13:14:04.999Z</time></trkpt><trkpt lat="44.206175963240234" lon="9.59091854794595"><ele>561.0</ele><time>2026-04-06T13:14:05.999Z</time></trkpt><trkpt lat="44.206263815581245" lon="9.590894531795172"><ele>561.0</ele><time>2026-04-06T13:14:06.999Z</time></trkpt><trkpt lat="44.20635836306691" lon="9.590885539340917"><ele>561.0</ele><time>2026-04-06T13:14:07.999Z</time></trkpt><trkpt lat="44.206449903235516" lon="9.590898029434667"><ele>561.0</ele><time>2026-04-06T13:14:08.999Z</time></trkpt><trkpt lat="44.20654331329738" lon="9.59090997724255"><ele>561.0</ele><time>2026-04-06T13:14:09.999Z</time></trkpt><trkpt lat="44.20663352483775" lon="9.590950056558878"><ele>561.0</ele><time>2026-04-06T13:14:10.999Z</time></trkpt><trkpt lat="44.20672237048083" lon="9.59098530992143"><ele>563.4</ele><time>2026-04-06T13:14:11.999Z</time></trkpt><trkpt lat="44.20681312040991" lon="9.591014169403023"><ele>565.8</ele><time>2026-04-06T13:14:12.999Z</time></trkpt><trkpt lat="44.20690885044646" lon="9.5910487148799"><ele>568.1999999999999</ele><time>2026-04-06T13:14:13.999Z</time></trkpt><trkpt lat="44.20700013642651" lon="9.591080886142693"><ele>570.6</ele><time>2026-04-06T13:14:14.999Z</time></trkpt><trkpt lat="44.207090314774874" lon="9.59110268502921"><ele>573.0</ele><time>2026-04-06T13:14:15.999Z</time></trkpt><trkpt lat="44.20718591346586" lon="9.591107446788556"><ele>573.0</ele><time>2026-04-06T13:14:16.999Z</time></trkpt><trkpt lat="44.207280628049986" lon="9.59109690944032"><ele>573.0</ele><time>2026-04-06T13:14:17.999Z</time></trkpt><trkpt lat="44.207375366529924" lon="9.591077274074149"><ele>573.0</ele><time>2026-04-06T13:14:18.999Z</time></trkpt><trkpt lat="44.207462516034965" lon="9.59104777867391"><ele>573.0</ele><time>2026-04-06T13:14:19.999Z</time></trkpt><trkpt lat="44.207554267036336" lon="9.591022061726143"><ele>573.0</ele><time>2026-04-06T13:14:20.999Z</time></trkpt><trkpt lat="44.207643731040406" lon="9.591009289840196"><ele>574.1999999999999</ele><time>2026-04-06T13:14:21.999Z</time></trkpt><trkpt lat="44.20773518932628" lon="9.591006755440892"><ele>575.4</ele><time>2026-04-06T13:14:22.999Z</time></trkpt><trkpt lat="44.20782445160936" lon="9.591022142120767"><ele>576.5999999999999</ele><time>2026-04-06T13:14:23.999Z</time></trkpt><trkpt lat="44.20791294467583" lon="9.591057006330137"><ele>577.8</ele><time>2026-04-06T13:14:24.999Z</time></trkpt><trkpt lat="44.20800193012149" lon="9.591095191323957"><ele>579.0</ele><time>2026-04-06T13:14:25.999Z</time></trkpt><trkpt lat="44.20809206636505" lon="9.591143881968804"><ele>581.0</ele><time>2026-04-06T13:14:26.999Z</time></trkpt><trkpt lat="44.20817809328841" lon="9.591204641907497"><ele>583.0</ele><time>2026-04-06T13:14:27.999Z</time></trkpt><trkpt lat="44.20826318413436" lon="9.591276456651235"><ele>585.0</ele><time>2026-04-06T13:14:28.999Z</time></trkpt><trkpt lat="44.208338883856975" lon="9.591354633699975"><ele>587.0</ele><time>2026-04-06T13:14:29.999Z</time></trkpt><trkpt lat="44.20840814028755" lon="9.591449740616584"><ele>589.0</ele><time>2026-04-06T13:14:30.999Z</time></trkpt><trkpt lat="44.20846005155053" lon="9.591563710144628"><ele>589.0</ele><time>2026-04-06T13:14:31.999Z</time></trkpt><trkpt lat="44.20849059392766" lon="9.591688692954794"><ele>589.0</ele><time>2026-04-06T13:14:32.999Z</time></trkpt><trkpt lat="44.208516453837305" lon="9.591803030881836"><ele>589.0</ele><time>2026-04-06T13:14:33.999Z</time></trkpt><trkpt lat="44.208555776255466" lon="9.591903890963668"><ele>589.0</ele><time>2026-04-06T13:14:34.999Z</time></trkpt><trkpt lat="44.20862136608106" lon="9.591986114622356"><ele>589.0</ele><time>2026-04-06T13:14:35.999Z</time></trkpt><trkpt lat="44.208697819689526" lon="9.592039425730254"><ele>589.0</ele><time>2026-04-06T13:14:36.999Z</time></trkpt><trkpt lat="44.20879111706997" lon="9.592061175004257"><ele>589.5</ele><time>2026-04-06T13:14:37.999Z</time></trkpt><trkpt lat="44.20888366485362" lon="9.592067581571925"><ele>590.0</ele><time>2026-04-06T13:14:38.999Z</time></trkpt><trkpt lat="44.20896443661085" lon="9.592049573269772"><ele>590.5</ele><time>2026-04-06T13:14:39.999Z</time></trkpt><trkpt lat="44.20903226731914" lon="9.592003085595337"><ele>591.0</ele><time>2026-04-06T13:14:40.999Z</time></trkpt><trkpt lat="44.209072676976454" lon="9.591917142061044"><ele>591.5</ele><time>2026-04-06T13:14:41.999Z</time></trkpt><trkpt lat="44.20906657587786" lon="9.591807151131672"><ele>592.0</ele><time>2026-04-06T13:14:42.999Z</time></trkpt><trkpt lat="44.20902125770127" lon="9.591712462624086"><ele>592.0</ele><time>2026-04-06T13:14:43.999Z</time></trkpt><trkpt lat="44.208977377928385" lon="9.591625963119865"><ele>592.0</ele><time>2026-04-06T13:14:44.999Z</time></trkpt><trkpt lat="44.208965269573596" lon="9.591521952592423"><ele>592.0</ele><time>2026-04-06T13:14:45.999Z</time></trkpt><trkpt lat="44.208996523453486" lon="9.591420132250574"><ele>592.0</ele><time>2026-04-06T13:14:46.999Z</time></trkpt><trkpt lat="44.209058353400515" lon="9.591341139605342"><ele>592.0</ele><time>2026-04-06T13:14:47.999Z</time></trkpt><trkpt lat="44.20914300341137" lon="9.591286826905616"><ele>592.0</ele><time>2026-04-06T13:14:48.999Z</time></trkpt><trkpt lat="44.209231577995304" lon="9.591283466051197"><ele>592.0</ele><time>2026-04-06T13:14:49.999Z</time></trkpt><trkpt lat="44.20931688744689" lon="9.591264643119876"><ele>592.0</ele><time>2026-04-06T13:14:50.999Z</time></trkpt><trkpt lat="44.20938066587044" lon="9.591188472251984"><ele>592.0</ele><time>2026-04-06T13:14:51.999Z</time></trkpt><trkpt lat="44.2094183878035" lon="9.591060248701972"><ele>592.0</ele><time>2026-04-06T13:14:52.999Z</time></trkpt><trkpt lat="44.20942224181876" lon="9.590915447269625"><ele>592.0</ele><time>2026-04-06T13:14:53.999Z</time></trkpt><trkpt lat="44.20942344990839" lon="9.590796853801843"><ele>590.8333333333334</ele><time>2026-04-06T13:14:54.999Z</time></trkpt><trkpt lat="44.2094714991367" lon="9.590724927864954"><ele>589.6666666666667</ele><time>2026-04-06T13:14:55.999Z</time></trkpt><trkpt lat="44.209549548127335" lon="9.590701211342605"><ele>588.5</ele><time>2026-04-06T13:14:56.999Z</time></trkpt><trkpt lat="44.20963135666852" lon="9.590744672330857"><ele>587.3333333333334</ele><time>2026-04-06T13:14:57.999Z</time></trkpt><trkpt lat="44.209695599886906" lon="9.590824196453124"><ele>586.1666666666666</ele><time>2026-04-06T13:14:58.999Z</time></trkpt><trkpt lat="44.20976405504782" lon="9.590910507536952"><ele>585.0</ele><time>2026-04-06T13:14:59.999Z</time></trkpt><trkpt lat="44.209838668335536" lon="9.59095621032147"><ele>585.0</ele><time>2026-04-06T13:15:00.999Z</time></trkpt><trkpt lat="44.20994228074617" lon="9.590936567855046"><ele>585.0</ele><time>2026-04-06T13:15:02.999Z</time></trkpt><trkpt lat="44.209968868038196" lon="9.590842680095188"><ele>585.0</ele><time>2026-04-06T13:15:03.999Z</time></trkpt><trkpt lat="44.20995938609698" lon="9.590737702645518"><ele>585.0</ele><time>2026-04-06T13:15:04.999Z</time></trkpt><trkpt lat="44.20991747417033" lon="9.590654099064343"><ele>585.0</ele><time>2026-04-06T13:15:05.998Z</time></trkpt><trkpt lat="44.209864697595876" lon="9.590596322853797"><ele>585.0</ele><time>2026-04-06T13:15:06.998Z</time></trkpt><trkpt lat="44.2098130062037" lon="9.590520703547348"><ele>585.0</ele><time>2026-04-06T13:15:07.998Z</time></trkpt><trkpt lat="44.20975532971295" lon="9.590440294580684"><ele>585.0</ele><time>2026-04-06T13:15:09Z</time></trkpt><trkpt lat="44.209707216694454" lon="9.590354384172851"><ele>585.0</ele><time>2026-04-06T13:15:10Z</time></trkpt><trkpt lat="44.209631889136105" lon="9.590283643233578"><ele>585.0</ele><time>2026-04-06T13:15:11Z</time></trkpt><trkpt lat="44.209572810946966" lon="9.59019118417085"><ele>585.0</ele><time>2026-04-06T13:15:12Z</time></trkpt><trkpt lat="44.209531863310616" lon="9.590084607006151"><ele>585.0</ele><time>2026-04-06T13:15:13Z</time></trkpt><trkpt lat="44.20949556570574" lon="9.589972612208228"><ele>585.3333333333334</ele><time>2026-04-06T13:15:14Z</time></trkpt><trkpt lat="44.20946282651862" lon="9.58985392614966"><ele>585.6666666666666</ele><time>2026-04-06T13:15:15Z</time></trkpt><trkpt lat="44.20943735908904" lon="9.589730352825704"><ele>586.0</ele><time>2026-04-06T13:15:16Z</time></trkpt><trkpt lat="44.20941565099143" lon="9.58961958116305"><ele>586.3333333333333</ele><time>2026-04-06T13:15:17Z</time></trkpt><trkpt lat="44.209385782939336" lon="9.589508415973087"><ele>586.6666666666666</ele><time>2026-04-06T13:15:18Z</time></trkpt><trkpt lat="44.20935491087744" lon="9.589400555212524"><ele>587.0</ele><time>2026-04-06T13:15:19Z</time></trkpt><trkpt lat="44.20930756514136" lon="9.589312372630003"><ele>588.8333333333333</ele><time>2026-04-06T13:15:20Z</time></trkpt><trkpt lat="44.20924067752212" lon="9.589233043116915"><ele>590.6666666666666</ele><time>2026-04-06T13:15:21Z</time></trkpt><trkpt lat="44.20916969533107" lon="9.589166079854294"><ele>592.5</ele><time>2026-04-06T13:15:22Z</time></trkpt><trkpt lat="44.2090961338624" lon="9.589103340200428"><ele>594.3333333333334</ele><time>2026-04-06T13:15:23Z</time></trkpt><trkpt lat="44.209040479957345" lon="9.589021560858495"><ele>596.1666666666667</ele><time>2026-04-06T13:15:24Z</time></trkpt><trkpt lat="44.209008650491576" lon="9.588911478171134"><ele>598.0</ele><time>2026-04-06T13:15:25Z</time></trkpt><trkpt lat="44.209008207509186" lon="9.588784888437335"><ele>598.5</ele><time>2026-04-06T13:15:26Z</time></trkpt><trkpt lat="44.20902235344172" lon="9.588660385456455"><ele>599.0</ele><time>2026-04-06T13:15:27Z</time></trkpt><trkpt lat="44.209047457695185" lon="9.588543959806124"><ele>599.5</ele><time>2026-04-06T13:15:28Z</time></trkpt><trkpt lat="44.209092225717576" lon="9.58844510956505"><ele>600.0</ele><time>2026-04-06T13:15:29Z</time></trkpt><trkpt lat="44.209159742549154" lon="9.588399927499951"><ele>600.5</ele><time>2026-04-06T13:15:30Z</time></trkpt><trkpt lat="44.209240419167145" lon="9.588407389070083"><ele>601.0</ele><time>2026-04-06T13:15:31Z</time></trkpt><trkpt lat="44.209316318688074" lon="9.58844607206671"><ele>601.0</ele><time>2026-04-06T13:15:32Z</time></trkpt><trkpt lat="44.20939059642546" lon="9.588508331806677"><ele>601.0</ele><time>2026-04-06T13:15:33Z</time></trkpt><trkpt lat="44.209468973815945" lon="9.588566579053694"><ele>601.0</ele><time>2026-04-06T13:15:34Z</time></trkpt><trkpt lat="44.209552567698324" lon="9.588606600687074"><ele>601.0</ele><time>2026-04-06T13:15:35Z</time></trkpt><trkpt lat="44.20963627689497" lon="9.58861548737585"><ele>601.0</ele><time>2026-04-06T13:15:36Z</time></trkpt><trkpt lat="44.20971834736335" lon="9.588543536295704"><ele>601.0</ele><time>2026-04-06T13:15:37Z</time></trkpt><trkpt lat="44.20976695266157" lon="9.58843632259107"><ele>601.0</ele><time>2026-04-06T13:15:38Z</time></trkpt><trkpt lat="44.209776275276965" lon="9.588296524812558"><ele>601.0</ele><time>2026-04-06T13:15:39Z</time></trkpt><trkpt lat="44.20979712686773" lon="9.588186106270648"><ele>601.0</ele><time>2026-04-06T13:15:40Z</time></trkpt><trkpt lat="44.209825519965996" lon="9.588081564513319"><ele>601.0</ele><time>2026-04-06T13:15:41Z</time></trkpt><trkpt lat="44.20984766089532" lon="9.587976405716063"><ele>601.0</ele><time>2026-04-06T13:15:42Z</time></trkpt><trkpt lat="44.20988725606938" lon="9.587876209518921"><ele>601.0</ele><time>2026-04-06T13:15:43Z</time></trkpt><trkpt lat="44.2099368819928" lon="9.587787804340348"><ele>602.6666666666667</ele><time>2026-04-06T13:15:44Z</time></trkpt><trkpt lat="44.20999869694881" lon="9.587710470890075"><ele>604.3333333333334</ele><time>2026-04-06T13:15:45Z</time></trkpt><trkpt lat="44.210066540578275" lon="9.587643339166645"><ele>606.0</ele><time>2026-04-06T13:15:46Z</time></trkpt><trkpt lat="44.210145632987924" lon="9.587592290248436"><ele>607.6666666666666</ele><time>2026-04-06T13:15:47Z</time></trkpt><trkpt lat="44.210220513766565" lon="9.587541940700845"><ele>609.3333333333333</ele><time>2026-04-06T13:15:48Z</time></trkpt><trkpt lat="44.21029817342368" lon="9.587491133908031"><ele>611.0</ele><time>2026-04-06T13:15:49Z</time></trkpt><trkpt lat="44.210372443545744" lon="9.587447009028104"><ele>611.0</ele><time>2026-04-06T13:15:50Z</time></trkpt><trkpt lat="44.210442548804174" lon="9.587433317280178"><ele>611.0</ele><time>2026-04-06T13:15:51Z</time></trkpt><trkpt lat="44.21050533371517" lon="9.5874610215388"><ele>611.0</ele><time>2026-04-06T13:15:52Z</time></trkpt><trkpt lat="44.2105549784321" lon="9.587524278464398"><ele>611.0</ele><time>2026-04-06T13:15:53Z</time></trkpt><trkpt lat="44.21058225347874" lon="9.587609487122691"><ele>611.0</ele><time>2026-04-06T13:15:54Z</time></trkpt><trkpt lat="44.210629651392345" lon="9.587739204093177"><ele>611.0</ele><time>2026-04-06T13:15:56Z</time></trkpt><trkpt lat="44.210695017011965" lon="9.587847369901448"><ele>613.5</ele><time>2026-04-06T13:15:58Z</time></trkpt><trkpt lat="44.21081398815866" lon="9.587922162577621"><ele>616.0</ele><time>2026-04-06T13:16:00Z</time></trkpt><trkpt lat="44.21092522495046" lon="9.587950685532727"><ele>618.5</ele><time>2026-04-06T13:16:01Z</time></trkpt><trkpt lat="44.21108670327627" lon="9.587990360296244"><ele>621.0</ele><time>2026-04-06T13:16:03Z</time></trkpt><trkpt lat="44.2111718285213" lon="9.587985267265282"><ele>621.0</ele><time>2026-04-06T13:16:03.999Z</time></trkpt><trkpt lat="44.211260265586866" lon="9.587964504897185"><ele>621.0</ele><time>2026-04-06T13:16:04.999Z</time></trkpt><trkpt lat="44.21135286614831" lon="9.587953569956767"><ele>621.0</ele><time>2026-04-06T13:16:05.999Z</time></trkpt><trkpt lat="44.21144439920766" lon="9.587933572796539"><ele>621.0</ele><time>2026-04-06T13:16:06.999Z</time></trkpt><trkpt lat="44.21153655143869" lon="9.587917135436037"><ele>621.0</ele><time>2026-04-06T13:16:07.999Z</time></trkpt><trkpt lat="44.21162189867286" lon="9.587882727492383"><ele>620.3333333333334</ele><time>2026-04-06T13:16:08.999Z</time></trkpt><trkpt lat="44.21167851900195" lon="9.58780460803501"><ele>619.6666666666666</ele><time>2026-04-06T13:16:09.999Z</time></trkpt><trkpt lat="44.21173671976283" lon="9.58770973089594"><ele>619.0</ele><time>2026-04-06T13:16:10.999Z</time></trkpt><trkpt lat="44.21177064339475" lon="9.587588831996264"><ele>618.3333333333333</ele><time>2026-04-06T13:16:11.999Z</time></trkpt><trkpt lat="44.211820637082496" lon="9.587511275060434"><ele>617.6666666666666</ele><time>2026-04-06T13:16:12.999Z</time></trkpt><trkpt lat="44.21190114095246" lon="9.587492227786209"><ele>617.0</ele><time>2026-04-06T13:16:13.999Z</time></trkpt><trkpt lat="44.21197661393128" lon="9.587486499075302"><ele>617.0</ele><time>2026-04-06T13:16:14.999Z</time></trkpt><trkpt lat="44.212048805081096" lon="9.587492067702778"><ele>617.0</ele><time>2026-04-06T13:16:15.999Z</time></trkpt><trkpt lat="44.212114030655606" lon="9.58748060434124"><ele>617.0</ele><time>2026-04-06T13:16:16.999Z</time></trkpt><trkpt lat="44.21217675111124" lon="9.587322815499173"><ele>617.0</ele><time>2026-04-06T13:16:18.999Z</time></trkpt><trkpt lat="44.21213798766914" lon="9.587130666765312"><ele>617.0</ele><time>2026-04-06T13:16:20.999Z</time></trkpt><trkpt lat="44.212083508000944" lon="9.587037361905818"><ele>616.8333333333333</ele><time>2026-04-06T13:16:21.999Z</time></trkpt><trkpt lat="44.21203898545803" lon="9.586950191581327"><ele>616.6666666666666</ele><time>2026-04-06T13:16:22.999Z</time></trkpt><trkpt lat="44.21199317809857" lon="9.58686018509868"><ele>616.5</ele><time>2026-04-06T13:16:23.999Z</time></trkpt><trkpt lat="44.21195106360036" lon="9.58675929854145"><ele>616.3333333333334</ele><time>2026-04-06T13:16:24.999Z</time></trkpt><trkpt lat="44.2118990152877" lon="9.586670242437064"><ele>616.1666666666667</ele><time>2026-04-06T13:16:25.999Z</time></trkpt><trkpt lat="44.21185873965381" lon="9.58656154443356"><ele>616.0</ele><time>2026-04-06T13:16:26.999Z</time></trkpt><trkpt lat="44.21181680361951" lon="9.58646022097805"><ele>616.0</ele><time>2026-04-06T13:16:27.999Z</time></trkpt><trkpt lat="44.21177490622603" lon="9.58636602590148"><ele>616.0</ele><time>2026-04-06T13:16:28.999Z</time></trkpt><trkpt lat="44.21177460611734" lon="9.586262057746024"><ele>616.0</ele><time>2026-04-06T13:16:29.999Z</time></trkpt><trkpt lat="44.21183038725027" lon="9.586094681885033"><ele>616.0</ele><time>2026-04-06T13:16:31.999Z</time></trkpt><trkpt lat="44.2118736764716" lon="9.58601492905891"><ele>616.0</ele><time>2026-04-06T13:16:32.999Z</time></trkpt><trkpt lat="44.21191408384304" lon="9.585935923526115"><ele>616.0</ele><time>2026-04-06T13:16:33.999Z</time></trkpt><trkpt lat="44.21195395254538" lon="9.585832911335343"><ele>616.2</ele><time>2026-04-06T13:16:34.999Z</time></trkpt><trkpt lat="44.211994452008724" lon="9.585730518473268"><ele>616.4000000000001</ele><time>2026-04-06T13:16:35.999Z</time></trkpt><trkpt lat="44.2120340370315" lon="9.585625675740646"><ele>616.6</ele><time>2026-04-06T13:16:36.999Z</time></trkpt><trkpt lat="44.21208886389132" lon="9.585525960424075"><ele>616.8000000000001</ele><time>2026-04-06T13:16:37.999Z</time></trkpt><trkpt lat="44.21214428244795" lon="9.585415165487207"><ele>617.0</ele><time>2026-04-06T13:16:38.999Z</time></trkpt><trkpt lat="44.21220129756206" lon="9.585299589814936"><ele>618.4</ele><time>2026-04-06T13:16:39.999Z</time></trkpt><trkpt lat="44.21225462728971" lon="9.585184143153695"><ele>619.8000000000001</ele><time>2026-04-06T13:16:40.999Z</time></trkpt><trkpt lat="44.21230523491268" lon="9.585061368149809"><ele>621.2</ele><time>2026-04-06T13:16:41.999Z</time></trkpt><trkpt lat="44.212358615521744" lon="9.584940832829123"><ele>622.6</ele><time>2026-04-06T13:16:42.999Z</time></trkpt><trkpt lat="44.21240977612004" lon="9.584831638359846"><ele>624.0</ele><time>2026-04-06T13:16:43.999Z</time></trkpt><trkpt lat="44.21246591066337" lon="9.584722832546746"><ele>624.0</ele><time>2026-04-06T13:16:44.999Z</time></trkpt><trkpt lat="44.21252356316112" lon="9.584620794949243"><ele>624.0</ele><time>2026-04-06T13:16:45.999Z</time></trkpt><trkpt lat="44.21257698358109" lon="9.584524855531829"><ele>624.0</ele><time>2026-04-06T13:16:46.999Z</time></trkpt><trkpt lat="44.212641101549146" lon="9.584449257237987"><ele>624.0</ele><time>2026-04-06T13:16:47.999Z</time></trkpt><trkpt lat="44.21269775149691" lon="9.584367927984204"><ele>624.0</ele><time>2026-04-06T13:16:48.999Z</time></trkpt><trkpt lat="44.212779622583476" lon="9.584260609969501"><ele>607.0</ele><time>2026-04-06T13:16:50.999Z</time></trkpt><trkpt lat="44.2128543288964" lon="9.584234529456582"><ele>607.0</ele><time>2026-04-06T13:16:52.999Z</time></trkpt><trkpt lat="44.21289553627066" lon="9.584159441974425"><ele>607.0</ele><time>2026-04-06T13:16:58.999Z</time></trkpt></trkseg><trkseg><trkpt lat="44.2155865487123" lon="9.585110284396992"><ele>635.0</ele><time>2026-04-06T13:29:16.995Z</time></trkpt><trkpt lat="44.21564756896739" lon="9.585235677668438"><ele>635.0</ele><time>2026-04-06T13:29:18.995Z</time></trkpt><trkpt lat="44.21568180754094" lon="9.58534210161971"><ele>635.0</ele><time>2026-04-06T13:29:20.001Z</time></trkpt><trkpt lat="44.21574199110662" lon="9.58543902263938"><ele>635.0</ele><time>2026-04-06T13:29:21.001Z</time></trkpt><trkpt lat="44.215808208141674" lon="9.585534157240376"><ele>635.0</ele><time>2026-04-06T13:29:23.001Z</time></trkpt><trkpt lat="44.21585925393199" lon="9.585592243829355"><ele>635.0</ele><time>2026-04-06T13:29:25.001Z</time></trkpt><trkpt lat="44.21592953436614" lon="9.585568354959097"><ele>633.8333333333333</ele><time>2026-04-06T13:29:27.001Z</time></trkpt><trkpt lat="44.216031628184815" lon="9.585508243703584"><ele>632.6666666666666</ele><time>2026-04-06T13:29:30.001Z</time></trkpt><trkpt lat="44.21610193838134" lon="9.585478073106737"><ele>631.5</ele><time>2026-04-06T13:29:32.001Z</time></trkpt><trkpt lat="44.216165565334045" lon="9.585434005349962"><ele>630.3333333333334</ele><time>2026-04-06T13:29:36Z</time></trkpt><trkpt lat="44.21624775364493" lon="9.585398386052756"><ele>629.1666666666667</ele><time>2026-04-06T13:29:39Z</time></trkpt><trkpt lat="44.21631419023369" lon="9.585376797660116"><ele>628.0</ele><time>2026-04-06T13:29:41Z</time></trkpt><trkpt lat="44.216386758232154" lon="9.585356211416023"><ele>623.0</ele><time>2026-04-06T13:29:43Z</time></trkpt><trkpt lat="44.21643287375982" lon="9.585279601483116"><ele>618.0</ele><time>2026-04-06T13:29:54Z</time></trkpt><trkpt lat="44.2165022432301" lon="9.58529732610966"><ele>613.0</ele><time>2026-04-06T13:30:00Z</time></trkpt><trkpt lat="44.21659911925306" lon="9.58529851529828"><ele>608.0</ele><time>2026-04-06T13:30:03Z</time></trkpt><trkpt lat="44.2166992015157" lon="9.585290447175113"><ele>603.0</ele><time>2026-04-06T13:30:05Z</time></trkpt><trkpt lat="44.21682850854917" lon="9.585320414717073"><ele>606.6666666666666</ele><time>2026-04-06T13:30:07Z</time></trkpt><trkpt lat="44.21690277513093" lon="9.585384402330252"><ele>610.3333333333334</ele><time>2026-04-06T13:30:08Z</time></trkpt><trkpt lat="44.21697248450223" lon="9.585425650215901"><ele>614.0</ele><time>2026-04-06T13:30:09Z</time></trkpt><trkpt lat="44.21704679073325" lon="9.585456000739724"><ele>617.6666666666667</ele><time>2026-04-06T13:30:10Z</time></trkpt><trkpt lat="44.21712619312073" lon="9.58548872134737"><ele>621.3333333333334</ele><time>2026-04-06T13:30:11Z</time></trkpt><trkpt lat="44.21721195412216" lon="9.585495137119386"><ele>625.0</ele><time>2026-04-06T13:30:12Z</time></trkpt><trkpt lat="44.21729684193891" lon="9.58550077754047"><ele>621.1666666666667</ele><time>2026-04-06T13:30:13Z</time></trkpt><trkpt lat="44.217371311571" lon="9.585522987238718"><ele>617.3333333333334</ele><time>2026-04-06T13:30:14Z</time></trkpt><trkpt lat="44.217435282683084" lon="9.585575446932571"><ele>613.5</ele><time>2026-04-06T13:30:15Z</time></trkpt><trkpt lat="44.21748089327226" lon="9.58565890149678"><ele>609.6666666666666</ele><time>2026-04-06T13:30:16Z</time></trkpt><trkpt lat="44.21749106324654" lon="9.585776249275183"><ele>605.8333333333333</ele><time>2026-04-06T13:30:17Z</time></trkpt><trkpt lat="44.21753116685174" lon="9.585871296953256"><ele>602.0</ele><time>2026-04-06T13:30:18Z</time></trkpt><trkpt lat="44.217557044460285" lon="9.585985612123654"><ele>602.0</ele><time>2026-04-06T13:30:18.999Z</time></trkpt><trkpt lat="44.21758955173717" lon="9.58609398999064"><ele>602.0</ele><time>2026-04-06T13:30:19.999Z</time></trkpt><trkpt lat="44.21762535440102" lon="9.586211062549488"><ele>602.0</ele><time>2026-04-06T13:30:20.999Z</time></trkpt><trkpt lat="44.217662312692966" lon="9.586326444368122"><ele>602.0</ele><time>2026-04-06T13:30:21.999Z</time></trkpt><trkpt lat="44.217706374700484" lon="9.58645076639332"><ele>602.0</ele><time>2026-04-06T13:30:22.999Z</time></trkpt><trkpt lat="44.21774751860422" lon="9.586577265009849"><ele>605.4</ele><time>2026-04-06T13:30:23.999Z</time></trkpt><trkpt lat="44.217794813998424" lon="9.58670533560807"><ele>608.8000000000001</ele><time>2026-04-06T13:30:24.999Z</time></trkpt><trkpt lat="44.217838276683274" lon="9.586833385686072"><ele>612.2</ele><time>2026-04-06T13:30:25.999Z</time></trkpt><trkpt lat="44.217855356545144" lon="9.586959420053129"><ele>615.6</ele><time>2026-04-06T13:30:26.999Z</time></trkpt><trkpt lat="44.21784640579379" lon="9.58708470657383"><ele>619.0</ele><time>2026-04-06T13:30:27.999Z</time></trkpt><trkpt lat="44.21782323977464" lon="9.587209268893996"><ele>620.1666666666667</ele><time>2026-04-06T13:30:28.999Z</time></trkpt><trkpt lat="44.21780162525845" lon="9.587324179232098"><ele>621.3333333333334</ele><time>2026-04-06T13:30:29.999Z</time></trkpt><trkpt lat="44.21777769666659" lon="9.587440241901573"><ele>622.5</ele><time>2026-04-06T13:30:30.999Z</time></trkpt><trkpt lat="44.21775184181608" lon="9.587541750782872"><ele>623.6666666666666</ele><time>2026-04-06T13:30:31.999Z</time></trkpt><trkpt lat="44.217726594729555" lon="9.587640901083343"><ele>624.8333333333333</ele><time>2026-04-06T13:30:32.999Z</time></trkpt><trkpt lat="44.21770092419984" lon="9.587743007715376"><ele>626.0</ele><time>2026-04-06T13:30:33.999Z</time></trkpt><trkpt lat="44.217673316833526" lon="9.587842916957602"><ele>626.1666666666666</ele><time>2026-04-06T13:30:34.999Z</time></trkpt><trkpt lat="44.21766015108606" lon="9.587929127039349"><ele>626.3333333333333</ele><time>2026-04-06T13:30:35.999Z</time></trkpt><trkpt lat="44.217638200924846" lon="9.588056106385062"><ele>626.5</ele><time>2026-04-06T13:30:37.999Z</time></trkpt><trkpt lat="44.217682514346244" lon="9.588123192394908"><ele>626.6666666666666</ele><time>2026-04-06T13:30:39.999Z</time></trkpt><trkpt lat="44.21776347330264" lon="9.58816653502109"><ele>626.8333333333334</ele><time>2026-04-06T13:30:41.999Z</time></trkpt><trkpt lat="44.21784682466273" lon="9.588190041391314"><ele>627.0</ele><time>2026-04-06T13:30:43.999Z</time></trkpt><trkpt lat="44.217911798012906" lon="9.588186915309723"><ele>627.0</ele><time>2026-04-06T13:30:44.999Z</time></trkpt><trkpt lat="44.21797487073167" lon="9.588169113998514"><ele>627.0</ele><time>2026-04-06T13:30:45.999Z</time></trkpt><trkpt lat="44.218047467270836" lon="9.588156835992123"><ele>627.0</ele><time>2026-04-06T13:30:46.999Z</time></trkpt><trkpt lat="44.21811969507656" lon="9.588150599870279"><ele>627.0</ele><time>2026-04-06T13:30:47.999Z</time></trkpt><trkpt lat="44.218192501951165" lon="9.588133026432857"><ele>627.0</ele><time>2026-04-06T13:30:48.999Z</time></trkpt><trkpt lat="44.21827040210855" lon="9.588110309092148"><ele>627.0</ele><time>2026-04-06T13:30:49.999Z</time></trkpt><trkpt lat="44.21834414044154" lon="9.588077676078525"><ele>627.0</ele><time>2026-04-06T13:30:50.999Z</time></trkpt><trkpt lat="44.218419501710066" lon="9.588028623911777"><ele>624.2</ele><time>2026-04-06T13:30:51.999Z</time></trkpt><trkpt lat="44.21850100285138" lon="9.587973268592217"><ele>621.4000000000001</ele><time>2026-04-06T13:30:52.999Z</time></trkpt><trkpt lat="44.218576415153166" lon="9.587912519761979"><ele>618.5999999999999</ele><time>2026-04-06T13:30:53.999Z</time></trkpt><trkpt lat="44.21867622248783" lon="9.587847464729197"><ele>615.8</ele><time>2026-04-06T13:30:54.999Z</time></trkpt><trkpt lat="44.218749368173214" lon="9.58779263656634"><ele>613.0</ele><time>2026-04-06T13:30:55.999Z</time></trkpt><trkpt lat="44.218824373040285" lon="9.587745476528788"><ele>608.6666666666667</ele><time>2026-04-06T13:30:56.999Z</time></trkpt><trkpt lat="44.218908547165356" lon="9.587722352296725"><ele>604.3333333333334</ele><time>2026-04-06T13:30:57.999Z</time></trkpt><trkpt lat="44.21899688471243" lon="9.587719126702728"><ele>600.0</ele><time>2026-04-06T13:30:58.999Z</time></trkpt><trkpt lat="44.219092762041484" lon="9.587714788883574"><ele>595.6666666666666</ele><time>2026-04-06T13:30:59.999Z</time></trkpt><trkpt lat="44.219172384120725" lon="9.58774592966999"><ele>591.3333333333333</ele><time>2026-04-06T13:31:00.999Z</time></trkpt><trkpt lat="44.219254428719275" lon="9.58777058686693"><ele>587.0</ele><time>2026-04-06T13:31:01.999Z</time></trkpt><trkpt lat="44.21932110788329" lon="9.587814678813695"><ele>591.8333333333333</ele><time>2026-04-06T13:31:02.999Z</time></trkpt><trkpt lat="44.21938642905741" lon="9.587900965374079"><ele>596.6666666666666</ele><time>2026-04-06T13:31:03.999Z</time></trkpt><trkpt lat="44.21944528297877" lon="9.58799499437335"><ele>601.5</ele><time>2026-04-06T13:31:04.999Z</time></trkpt><trkpt lat="44.219524431097085" lon="9.588089425506464"><ele>606.3333333333334</ele><time>2026-04-06T13:31:06.999Z</time></trkpt><trkpt lat="44.21956824736299" lon="9.588154298033452"><ele>611.1666666666667</ele><time>2026-04-06T13:31:07.999Z</time></trkpt><trkpt lat="44.21965227882547" lon="9.588227407459971"><ele>616.0</ele><time>2026-04-06T13:31:09.999Z</time></trkpt><trkpt lat="44.21975109366463" lon="9.588229325547712"><ele>613.8</ele><time>2026-04-06T13:31:11.999Z</time></trkpt><trkpt lat="44.219898730423" lon="9.588250817326788"><ele>611.6</ele><time>2026-04-06T13:31:13.999Z</time></trkpt><trkpt lat="44.21996165673889" lon="9.588261073537511"><ele>609.4</ele><time>2026-04-06T13:31:14.999Z</time></trkpt><trkpt lat="44.22007298803968" lon="9.58825704497283"><ele>607.2</ele><time>2026-04-06T13:31:16.999Z</time></trkpt><trkpt lat="44.22014220662997" lon="9.588279263970685"><ele>605.0</ele><time>2026-04-06T13:31:17.999Z</time></trkpt><trkpt lat="44.22021235916323" lon="9.58828938925372"><ele>605.0</ele><time>2026-04-06T13:31:18.999Z</time></trkpt><trkpt lat="44.22028461426977" lon="9.588284628596753"><ele>605.0</ele><time>2026-04-06T13:31:19.999Z</time></trkpt><trkpt lat="44.22036294243313" lon="9.588300947210387"><ele>605.0</ele><time>2026-04-06T13:31:20.999Z</time></trkpt><trkpt lat="44.22047257056239" lon="9.588317583011559"><ele>605.0</ele><time>2026-04-06T13:31:21.999Z</time></trkpt><trkpt lat="44.22056902059056" lon="9.588341084180653"><ele>605.0</ele><time>2026-04-06T13:31:22.999Z</time></trkpt><trkpt lat="44.22065739410105" lon="9.58835784093551"><ele>605.0</ele><time>2026-04-06T13:31:23.999Z</time></trkpt><trkpt lat="44.220741128746454" lon="9.588376151176218"><ele>603.6666666666666</ele><time>2026-04-06T13:31:25Z</time></trkpt><trkpt lat="44.22082698494786" lon="9.588386516626837"><ele>602.3333333333333</ele><time>2026-04-06T13:31:26Z</time></trkpt><trkpt lat="44.220911816090094" lon="9.588397198270942"><ele>601.0</ele><time>2026-04-06T13:31:27Z</time></trkpt><trkpt lat="44.22098016997642" lon="9.588432875904845"><ele>599.6666666666666</ele><time>2026-04-06T13:31:28Z</time></trkpt><trkpt lat="44.221043669792444" lon="9.588470684591993"><ele>598.3333333333334</ele><time>2026-04-06T13:31:29Z</time></trkpt><trkpt lat="44.221090689396064" lon="9.588537632405613"><ele>597.0</ele><time>2026-04-06T13:31:30Z</time></trkpt><trkpt lat="44.221174612657435" lon="9.588680935058035"><ele>600.6666666666666</ele><time>2026-04-06T13:31:32Z</time></trkpt><trkpt lat="44.2212007829565" lon="9.58877954313507"><ele>604.3333333333334</ele><time>2026-04-06T13:31:33Z</time></trkpt><trkpt lat="44.22124539137148" lon="9.588864150134134"><ele>608.0</ele><time>2026-04-06T13:31:34Z</time></trkpt><trkpt lat="44.22127405148586" lon="9.58896518301895"><ele>611.6666666666667</ele><time>2026-04-06T13:31:35Z</time></trkpt><trkpt lat="44.221309274634315" lon="9.589065585154708"><ele>615.3333333333334</ele><time>2026-04-06T13:31:36Z</time></trkpt><trkpt lat="44.22135157081411" lon="9.58916638438117"><ele>619.0</ele><time>2026-04-06T13:31:37Z</time></trkpt><trkpt lat="44.2214026731529" lon="9.589262874223826"><ele>619.0</ele><time>2026-04-06T13:31:38Z</time></trkpt><trkpt lat="44.22145619033385" lon="9.589362580567254"><ele>619.0</ele><time>2026-04-06T13:31:39Z</time></trkpt><trkpt lat="44.22151614162486" lon="9.589455216737298"><ele>619.0</ele><time>2026-04-06T13:31:40Z</time></trkpt><trkpt lat="44.22158962379645" lon="9.589539263269641"><ele>619.0</ele><time>2026-04-06T13:31:41Z</time></trkpt><trkpt lat="44.221662179956624" lon="9.589627186588338"><ele>619.0</ele><time>2026-04-06T13:31:42Z</time></trkpt><trkpt lat="44.22173355258158" lon="9.589716183347939"><ele>616.6</ele><time>2026-04-06T13:31:43Z</time></trkpt><trkpt lat="44.22180233793242" lon="9.589812610443376"><ele>614.2</ele><time>2026-04-06T13:31:44Z</time></trkpt><trkpt lat="44.22186995182663" lon="9.589913756945288"><ele>611.8000000000001</ele><time>2026-04-06T13:31:45Z</time></trkpt><trkpt lat="44.221939721737975" lon="9.590012668958117"><ele>609.4</ele><time>2026-04-06T13:31:46Z</time></trkpt><trkpt lat="44.22200516252145" lon="9.590120910703144"><ele>607.0</ele><time>2026-04-06T13:31:47Z</time></trkpt><trkpt lat="44.222074416513" lon="9.590221508161278"><ele>607.0</ele><time>2026-04-06T13:31:48Z</time></trkpt><trkpt lat="44.222137970228694" lon="9.590318790304078"><ele>607.0</ele><time>2026-04-06T13:31:49Z</time></trkpt><trkpt lat="44.22219119570864" lon="9.590419664234574"><ele>607.0</ele><time>2026-04-06T13:31:50Z</time></trkpt><trkpt lat="44.222231638693856" lon="9.5905291081879"><ele>607.0</ele><time>2026-04-06T13:31:51Z</time></trkpt><trkpt lat="44.22224938595427" lon="9.590654972947844"><ele>607.0</ele><time>2026-04-06T13:31:52Z</time></trkpt><trkpt lat="44.222258014494344" lon="9.590785805013526"><ele>608.0</ele><time>2026-04-06T13:31:53Z</time></trkpt><trkpt lat="44.222257304438976" lon="9.590909356061099"><ele>609.0</ele><time>2026-04-06T13:31:54Z</time></trkpt><trkpt lat="44.22226262353414" lon="9.591023025120665"><ele>610.0</ele><time>2026-04-06T13:31:55Z</time></trkpt><trkpt lat="44.22228475189758" lon="9.591131512523306"><ele>611.0</ele><time>2026-04-06T13:31:56Z</time></trkpt><trkpt lat="44.22233952915473" lon="9.591218418655872"><ele>612.0</ele><time>2026-04-06T13:31:57Z</time></trkpt><trkpt lat="44.222428527318506" lon="9.591267550320985"><ele>613.0</ele><time>2026-04-06T13:31:58Z</time></trkpt><trkpt lat="44.222527938484745" lon="9.591273997138083"><ele>610.3333333333334</ele><time>2026-04-06T13:31:59Z</time></trkpt><trkpt lat="44.222625623342864" lon="9.59122364465562"><ele>607.6666666666667</ele><time>2026-04-06T13:32:00Z</time></trkpt><trkpt lat="44.22271867620793" lon="9.591220400198374"><ele>605.0</ele><time>2026-04-06T13:32:01Z</time></trkpt><trkpt lat="44.22280046643189" lon="9.591235329165002"><ele>602.3333333333334</ele><time>2026-04-06T13:32:02Z</time></trkpt><trkpt lat="44.222868060273875" lon="9.591270668162272"><ele>599.6666666666666</ele><time>2026-04-06T13:32:03Z</time></trkpt><trkpt lat="44.22295298595301" lon="9.591287406185012"><ele>597.0</ele><time>2026-04-06T13:32:04Z</time></trkpt><trkpt lat="44.22302836765223" lon="9.591333104891978"><ele>597.0</ele><time>2026-04-06T13:32:05Z</time></trkpt><trkpt lat="44.22310346741116" lon="9.591361762387638"><ele>597.0</ele><time>2026-04-06T13:32:06Z</time></trkpt><trkpt lat="44.223174807000696" lon="9.591385399795517"><ele>597.0</ele><time>2026-04-06T13:32:07Z</time></trkpt><trkpt lat="44.2232501194947" lon="9.591395129572877"><ele>597.0</ele><time>2026-04-06T13:32:08Z</time></trkpt><trkpt lat="44.223353944575166" lon="9.591383432389138"><ele>597.0</ele><time>2026-04-06T13:32:10Z</time></trkpt><trkpt lat="44.22342151628111" lon="9.591420763444686"><ele>597.0</ele><time>2026-04-06T13:32:12Z</time></trkpt><trkpt lat="44.2233654073978" lon="9.591354385476285"><ele>597.0</ele><time>2026-04-06T13:32:17.999Z</time></trkpt><trkpt lat="44.223286409423736" lon="9.591405469255843"><ele>597.0</ele><time>2026-04-06T13:32:19.999Z</time></trkpt><trkpt lat="44.22320524633772" lon="9.591459542577493"><ele>597.0</ele><time>2026-04-06T13:32:21.999Z</time></trkpt><trkpt lat="44.22315267833732" lon="9.591520383289145"><ele>597.0</ele><time>2026-04-06T13:32:23.999Z</time></trkpt><trkpt lat="44.22311066207626" lon="9.591611992015999"><ele>597.0</ele><time>2026-04-06T13:32:26.999Z</time></trkpt><trkpt lat="44.22314667469972" lon="9.591535015317163"><ele>597.0</ele><time>2026-04-06T13:33:14.999Z</time></trkpt><trkpt lat="44.22318664850588" lon="9.591452757222642"><ele>596.6</ele><time>2026-04-06T13:33:17.999Z</time></trkpt><trkpt lat="44.22325080412183" lon="9.591384032980265"><ele>596.2</ele><time>2026-04-06T13:33:19.999Z</time></trkpt><trkpt lat="44.22336199871879" lon="9.591378411523388"><ele>595.8</ele><time>2026-04-06T13:33:21.999Z</time></trkpt><trkpt lat="44.22348279328207" lon="9.591378127412476"><ele>595.4</ele><time>2026-04-06T13:33:23.999Z</time></trkpt><trkpt lat="44.22354820577309" lon="9.591353134398558"><ele>595.0</ele><time>2026-04-06T13:33:24.999Z</time></trkpt><trkpt lat="44.22361721275051" lon="9.591313552729199"><ele>595.0</ele><time>2026-04-06T13:33:25.999Z</time></trkpt><trkpt lat="44.2236899377131" lon="9.591268566034486"><ele>595.0</ele><time>2026-04-06T13:33:26.999Z</time></trkpt><trkpt lat="44.22376088931116" lon="9.59122620923905"><ele>595.0</ele><time>2026-04-06T13:33:27.998Z</time></trkpt><trkpt lat="44.2238379443116" lon="9.591171575051613"><ele>595.0</ele><time>2026-04-06T13:33:28.998Z</time></trkpt><trkpt lat="44.2238998976402" lon="9.591121018598933"><ele>595.0</ele><time>2026-04-06T13:33:29.998Z</time></trkpt><trkpt lat="44.22397836305435" lon="9.591063687817954"><ele>595.0</ele><time>2026-04-06T13:33:31Z</time></trkpt><trkpt lat="44.224063425461836" lon="9.59100579821978"><ele>594.8</ele><time>2026-04-06T13:33:32Z</time></trkpt><trkpt lat="44.22414703922581" lon="9.590959408379414"><ele>594.6</ele><time>2026-04-06T13:33:33Z</time></trkpt><trkpt lat="44.22423752019724" lon="9.590910425241358"><ele>594.4</ele><time>2026-04-06T13:33:34Z</time></trkpt><trkpt lat="44.224324745775064" lon="9.59086816250397"><ele>594.2</ele><time>2026-04-06T13:33:35Z</time></trkpt><trkpt lat="44.22442269242862" lon="9.590824623948665"><ele>594.0</ele><time>2026-04-06T13:33:36Z</time></trkpt><trkpt lat="44.22451890613749" lon="9.590781322729635"><ele>594.0</ele><time>2026-04-06T13:33:37Z</time></trkpt><trkpt lat="44.22461580153902" lon="9.590741823805264"><ele>594.0</ele><time>2026-04-06T13:33:38Z</time></trkpt><trkpt lat="44.2246900399367" lon="9.590625746048374"><ele>594.0</ele><time>2026-04-06T13:33:39Z</time></trkpt><trkpt lat="44.22475685036386" lon="9.590506367049569"><ele>594.0</ele><time>2026-04-06T13:33:40Z</time></trkpt><trkpt lat="44.22483603620651" lon="9.590401190198094"><ele>594.0</ele><time>2026-04-06T13:33:41Z</time></trkpt><trkpt lat="44.22492125487976" lon="9.590340236098257"><ele>593.25</ele><time>2026-04-06T13:33:42Z</time></trkpt><trkpt lat="44.22501157551391" lon="9.590260510348521"><ele>592.5</ele><time>2026-04-06T13:33:43Z</time></trkpt><trkpt lat="44.225087752650026" lon="9.590220871155049"><ele>591.75</ele><time>2026-04-06T13:33:44Z</time></trkpt><trkpt lat="44.22525804217933" lon="9.590181638527014"><ele>591.0</ele><time>2026-04-06T13:33:46Z</time></trkpt><trkpt lat="44.225350205432775" lon="9.59016753410649"><ele>591.0</ele><time>2026-04-06T13:33:47Z</time></trkpt><trkpt lat="44.2254380257032" lon="9.590169211840402"><ele>591.0</ele><time>2026-04-06T13:33:48Z</time></trkpt><trkpt lat="44.22553760172391" lon="9.59015941967173"><ele>591.0</ele><time>2026-04-06T13:33:49Z</time></trkpt><trkpt lat="44.22563935428174" lon="9.590170147210252"><ele>591.0</ele><time>2026-04-06T13:33:50Z</time></trkpt><trkpt lat="44.22574379631634" lon="9.590163533872754"><ele>591.0</ele><time>2026-04-06T13:33:51Z</time></trkpt><trkpt lat="44.22584547805603" lon="9.590150677009234"><ele>591.2</ele><time>2026-04-06T13:33:52Z</time></trkpt><trkpt lat="44.2259506632392" lon="9.590118663601116"><ele>591.4000000000001</ele><time>2026-04-06T13:33:53Z</time></trkpt><trkpt lat="44.22605163996825" lon="9.590080511047608"><ele>591.6</ele><time>2026-04-06T13:33:54Z</time></trkpt><trkpt lat="44.22614819456098" lon="9.590065688944923"><ele>591.8000000000001</ele><time>2026-04-06T13:33:55Z</time></trkpt><trkpt lat="44.22624353348878" lon="9.59010507194084"><ele>592.0</ele><time>2026-04-06T13:33:56Z</time></trkpt><trkpt lat="44.22634505238629" lon="9.59014428794504"><ele>592.0</ele><time>2026-04-06T13:33:57Z</time></trkpt><trkpt lat="44.22644949215984" lon="9.590152174813142"><ele>592.0</ele><time>2026-04-06T13:33:58Z</time></trkpt><trkpt lat="44.22654331001382" lon="9.590165197967806"><ele>592.0</ele><time>2026-04-06T13:33:59Z</time></trkpt><trkpt lat="44.22663718236473" lon="9.590166666752518"><ele>592.0</ele><time>2026-04-06T13:34:00Z</time></trkpt><trkpt lat="44.226739114159045" lon="9.590127959476153"><ele>592.0</ele><time>2026-04-06T13:34:01Z</time></trkpt><trkpt lat="44.22684061938842" lon="9.590083544952238"><ele>592.6</ele><time>2026-04-06T13:34:02Z</time></trkpt><trkpt lat="44.226941730441375" lon="9.590042120016935"><ele>593.2</ele><time>2026-04-06T13:34:03Z</time></trkpt><trkpt lat="44.22704658600197" lon="9.589996331962883"><ele>593.8</ele><time>2026-04-06T13:34:04Z</time></trkpt><trkpt lat="44.227145012879596" lon="9.589960659606799"><ele>594.4</ele><time>2026-04-06T13:34:05Z</time></trkpt><trkpt lat="44.2272195450669" lon="9.58989380710024"><ele>595.0</ele><time>2026-04-06T13:34:06Z</time></trkpt><trkpt lat="44.22726252269631" lon="9.58978534035861"><ele>595.0</ele><time>2026-04-06T13:34:07Z</time></trkpt><trkpt lat="44.22728892858989" lon="9.589641972063061"><ele>595.0</ele><time>2026-04-06T13:34:08Z</time></trkpt><trkpt lat="44.22731112089687" lon="9.589503021227653"><ele>595.0</ele><time>2026-04-06T13:34:09Z</time></trkpt><trkpt lat="44.22735754338341" lon="9.589359643380934"><ele>595.0</ele><time>2026-04-06T13:34:10Z</time></trkpt><trkpt lat="44.227399937128006" lon="9.58924147927634"><ele>595.0</ele><time>2026-04-06T13:34:11Z</time></trkpt><trkpt lat="44.22745852431534" lon="9.589137573175883"><ele>594.8</ele><time>2026-04-06T13:34:12Z</time></trkpt><trkpt lat="44.227497617512135" lon="9.58898926763888"><ele>594.6</ele><time>2026-04-06T13:34:13Z</time></trkpt><trkpt lat="44.227504545568046" lon="9.588861194607228"><ele>594.4</ele><time>2026-04-06T13:34:14Z</time></trkpt><trkpt lat="44.22751232322853" lon="9.588723276236383"><ele>594.2</ele><time>2026-04-06T13:34:15Z</time></trkpt><trkpt lat="44.22753340505097" lon="9.58859068130983"><ele>594.0</ele><time>2026-04-06T13:34:16Z</time></trkpt><trkpt lat="44.22757945517276" lon="9.588486614392908"><ele>594.0</ele><time>2026-04-06T13:34:17Z</time></trkpt><trkpt lat="44.22765857526752" lon="9.588448404003662"><ele>594.0</ele><time>2026-04-06T13:34:18Z</time></trkpt><trkpt lat="44.22773008264242" lon="9.588432196723033"><ele>594.0</ele><time>2026-04-06T13:34:19Z</time></trkpt><trkpt lat="44.22787904080821" lon="9.588498732699142"><ele>594.0</ele><time>2026-04-06T13:34:21Z</time></trkpt><trkpt lat="44.2279179782735" lon="9.588573993307042"><ele>594.0</ele><time>2026-04-06T13:34:22Z</time></trkpt><trkpt lat="44.227900646163896" lon="9.588664443039082"><ele>594.0</ele><time>2026-04-06T13:34:23Z</time></trkpt><trkpt lat="44.22792700166777" lon="9.58877583209937"><ele>594.0</ele><time>2026-04-06T13:34:23.999Z</time></trkpt><trkpt lat="44.22797059458518" lon="9.588887394676203"><ele>594.0</ele><time>2026-04-06T13:34:24.999Z</time></trkpt><trkpt lat="44.22800342357454" lon="9.58898429953962"><ele>594.0</ele><time>2026-04-06T13:34:25.999Z</time></trkpt><trkpt lat="44.228026192879476" lon="9.589100208743272"><ele>594.0</ele><time>2026-04-06T13:34:26.999Z</time></trkpt><trkpt lat="44.228080399421565" lon="9.589175942817496"><ele>594.0</ele><time>2026-04-06T13:34:27.999Z</time></trkpt><trkpt lat="44.22813988392456" lon="9.589243906845637"><ele>594.0</ele><time>2026-04-06T13:34:28.999Z</time></trkpt><trkpt lat="44.22822018253091" lon="9.589288789937916"><ele>593.2</ele><time>2026-04-06T13:34:29.999Z</time></trkpt><trkpt lat="44.228300487293644" lon="9.58934278795937"><ele>592.4</ele><time>2026-04-06T13:34:30.999Z</time></trkpt><trkpt lat="44.22837006689901" lon="9.589421993588424"><ele>591.6</ele><time>2026-04-06T13:34:31.999Z</time></trkpt><trkpt lat="44.228457122605334" lon="9.589470693311963"><ele>590.8</ele><time>2026-04-06T13:34:32.999Z</time></trkpt><trkpt lat="44.22853723623998" lon="9.589553809551452"><ele>590.0</ele><time>2026-04-06T13:34:33.999Z</time></trkpt><trkpt lat="44.228613151547684" lon="9.589635234839976"><ele>593.0</ele><time>2026-04-06T13:34:34.999Z</time></trkpt><trkpt lat="44.22869256682853" lon="9.589710685425418"><ele>596.0</ele><time>2026-04-06T13:34:35.999Z</time></trkpt><trkpt lat="44.228772023603206" lon="9.589764130547536"><ele>599.0</ele><time>2026-04-06T13:34:36.999Z</time></trkpt><trkpt lat="44.22885434214572" lon="9.589820274958619"><ele>602.0</ele><time>2026-04-06T13:34:37.999Z</time></trkpt><trkpt lat="44.22893129188579" lon="9.589853616628737"><ele>605.0</ele><time>2026-04-06T13:34:38.999Z</time></trkpt><trkpt lat="44.22900222535459" lon="9.589859913148077"><ele>608.0</ele><time>2026-04-06T13:34:39.999Z</time></trkpt><trkpt lat="44.229073248975936" lon="9.589842011317163"><ele>608.0</ele><time>2026-04-06T13:34:40.999Z</time></trkpt><trkpt lat="44.229137510010446" lon="9.58981028119252"><ele>608.0</ele><time>2026-04-06T13:34:41.999Z</time></trkpt><trkpt lat="44.22920387482672" lon="9.5897592105418"><ele>608.0</ele><time>2026-04-06T13:34:42.999Z</time></trkpt><trkpt lat="44.22927690889703" lon="9.589712356892147"><ele>608.0</ele><time>2026-04-06T13:34:43.999Z</time></trkpt><trkpt lat="44.22933923251239" lon="9.589634790487109"><ele>608.0</ele><time>2026-04-06T13:34:44.999Z</time></trkpt><trkpt lat="44.2293977497266" lon="9.589540209738358"><ele>608.0</ele><time>2026-04-06T13:34:45.999Z</time></trkpt><trkpt lat="44.22945743577729" lon="9.589427613188874"><ele>602.4</ele><time>2026-04-06T13:34:46.999Z</time></trkpt><trkpt lat="44.229514842265296" lon="9.589309891885433"><ele>596.8</ele><time>2026-04-06T13:34:47.999Z</time></trkpt><trkpt lat="44.22957191532714" lon="9.589196067006469"><ele>591.2</ele><time>2026-04-06T13:34:48.999Z</time></trkpt><trkpt lat="44.22961489832327" lon="9.589077940590235"><ele>585.6</ele><time>2026-04-06T13:34:49.999Z</time></trkpt><trkpt lat="44.22967343040107" lon="9.588989125415631"><ele>580.0</ele><time>2026-04-06T13:34:50.999Z</time></trkpt><trkpt lat="44.2297463039032" lon="9.588893960850681"><ele>580.8333333333334</ele><time>2026-04-06T13:34:51.999Z</time></trkpt><trkpt lat="44.22981423533499" lon="9.588823034998422"><ele>581.6666666666667</ele><time>2026-04-06T13:34:52.999Z</time></trkpt><trkpt lat="44.22988357793503" lon="9.5887544899023"><ele>582.5</ele><time>2026-04-06T13:34:53.999Z</time></trkpt><trkpt lat="44.22994783433887" lon="9.588686771286918"><ele>583.3333333333334</ele><time>2026-04-06T13:34:54.999Z</time></trkpt><trkpt lat="44.23000167954544" lon="9.588610101701255"><ele>584.1666666666666</ele><time>2026-04-06T13:34:55.999Z</time></trkpt><trkpt lat="44.23006104049875" lon="9.588546773929696"><ele>585.0</ele><time>2026-04-06T13:34:56.999Z</time></trkpt><trkpt lat="44.23012127697152" lon="9.588480187774758"><ele>585.0</ele><time>2026-04-06T13:34:57.999Z</time></trkpt><trkpt lat="44.230177438330756" lon="9.58839979985932"><ele>585.0</ele><time>2026-04-06T13:34:58.999Z</time></trkpt><trkpt lat="44.230225110128245" lon="9.588328977915577"><ele>585.0</ele><time>2026-04-06T13:34:59.999Z</time></trkpt><trkpt lat="44.23028844584805" lon="9.58827838819058"><ele>585.0</ele><time>2026-04-06T13:35:00.999Z</time></trkpt><trkpt lat="44.230350230792006" lon="9.588162439422463"><ele>585.0</ele><time>2026-04-06T13:35:02.999Z</time></trkpt><trkpt lat="44.230406957476234" lon="9.588046641841393"><ele>585.0</ele><time>2026-04-06T13:35:04.999Z</time></trkpt><trkpt lat="44.230469509223255" lon="9.587961670013707"><ele>585.0</ele><time>2026-04-06T13:35:06.999Z</time></trkpt><trkpt lat="44.23051446021057" lon="9.58786616502791"><ele>585.0</ele><time>2026-04-06T13:35:08.999Z</time></trkpt><trkpt lat="44.23057965806848" lon="9.58774405423407"><ele>585.0</ele><time>2026-04-06T13:35:10.999Z</time></trkpt><trkpt lat="44.230616892896634" lon="9.587662922767437"><ele>585.0</ele><time>2026-04-06T13:35:11.999Z</time></trkpt><trkpt lat="44.23065698201785" lon="9.5875866436438"><ele>585.0</ele><time>2026-04-06T13:35:12.999Z</time></trkpt><trkpt lat="44.23069740026939" lon="9.587512202505792"><ele>585.0</ele><time>2026-04-06T13:35:13.999Z</time></trkpt><trkpt lat="44.230739051146415" lon="9.587430179425736"><ele>586.3333333333334</ele><time>2026-04-06T13:35:14.999Z</time></trkpt><trkpt lat="44.23079681589418" lon="9.587348237151799"><ele>587.6666666666666</ele><time>2026-04-06T13:35:15.999Z</time></trkpt><trkpt lat="44.23084298600091" lon="9.587262901851044"><ele>589.0</ele><time>2026-04-06T13:35:16.999Z</time></trkpt><trkpt lat="44.23087492912743" lon="9.587175582984933"><ele>590.3333333333333</ele><time>2026-04-06T13:35:17.999Z</time></trkpt><trkpt lat="44.23092081521111" lon="9.587097168066798"><ele>591.6666666666666</ele><time>2026-04-06T13:35:18.999Z</time></trkpt><trkpt lat="44.230961152808476" lon="9.587028234982373"><ele>593.0</ele><time>2026-04-06T13:35:19.999Z</time></trkpt><trkpt lat="44.23103523056018" lon="9.586898158606884"><ele>589.8333333333333</ele><time>2026-04-06T13:35:21.999Z</time></trkpt><trkpt lat="44.231074307386955" lon="9.58682440753083"><ele>586.6666666666666</ele><time>2026-04-06T13:35:22.999Z</time></trkpt><trkpt lat="44.231118265176754" lon="9.586754613285764"><ele>583.5</ele><time>2026-04-06T13:35:23.999Z</time></trkpt><trkpt lat="44.23119782927788" lon="9.586646125973436"><ele>580.3333333333334</ele><time>2026-04-06T13:35:25.999Z</time></trkpt><trkpt lat="44.231288826475726" lon="9.586563374686008"><ele>577.1666666666667</ele><time>2026-04-06T13:35:27.999Z</time></trkpt><trkpt lat="44.23137023595795" lon="9.586526292545615"><ele>574.0</ele><time>2026-04-06T13:35:29.999Z</time></trkpt><trkpt lat="44.231435505909005" lon="9.586511503454549"><ele>576.6666666666667</ele><time>2026-04-06T13:35:30.999Z</time></trkpt><trkpt lat="44.23155336758985" lon="9.58653851225211"><ele>579.3333333333334</ele><time>2026-04-06T13:35:32.998Z</time></trkpt><trkpt lat="44.231624039583785" lon="9.586564338880255"><ele>582.0</ele><time>2026-04-06T13:35:33.998Z</time></trkpt><trkpt lat="44.23169883169044" lon="9.586578344561147"><ele>584.6666666666666</ele><time>2026-04-06T13:35:34.998Z</time></trkpt><trkpt lat="44.2317738356972" lon="9.586562677374927"><ele>587.3333333333333</ele><time>2026-04-06T13:35:35.998Z</time></trkpt><trkpt lat="44.231864220106" lon="9.58651944287611"><ele>590.0</ele><time>2026-04-06T13:35:37Z</time></trkpt><trkpt lat="44.23195094212865" lon="9.586473374078382"><ele>590.0</ele><time>2026-04-06T13:35:38Z</time></trkpt><trkpt lat="44.23204404654188" lon="9.586431437756291"><ele>590.0</ele><time>2026-04-06T13:35:39Z</time></trkpt><trkpt lat="44.232132653275954" lon="9.586369587398682"><ele>590.0</ele><time>2026-04-06T13:35:40Z</time></trkpt><trkpt lat="44.23222925294212" lon="9.586292241240125"><ele>590.0</ele><time>2026-04-06T13:35:41Z</time></trkpt><trkpt lat="44.232326953026124" lon="9.586208511268001"><ele>590.0</ele><time>2026-04-06T13:35:42Z</time></trkpt><trkpt lat="44.23240506880039" lon="9.586120699675002"><ele>592.8</ele><time>2026-04-06T13:35:43Z</time></trkpt><trkpt lat="44.232472078273815" lon="9.586058520640723"><ele>595.6</ele><time>2026-04-06T13:35:44Z</time></trkpt><trkpt lat="44.23255296059192" lon="9.58602250318142"><ele>598.4</ele><time>2026-04-06T13:35:45Z</time></trkpt><trkpt lat="44.232638774466075" lon="9.58601284781051"><ele>601.2</ele><time>2026-04-06T13:35:46Z</time></trkpt><trkpt lat="44.232723169420034" lon="9.586082162393387"><ele>604.0</ele><time>2026-04-06T13:35:47Z</time></trkpt><trkpt lat="44.23282551790242" lon="9.58610782731456"><ele>604.0</ele><time>2026-04-06T13:35:48Z</time></trkpt><trkpt lat="44.23292798539108" lon="9.586126885822141"><ele>604.0</ele><time>2026-04-06T13:35:49Z</time></trkpt><trkpt lat="44.23301920264245" lon="9.586149707205525"><ele>604.0</ele><time>2026-04-06T13:35:50Z</time></trkpt><trkpt lat="44.233108684505495" lon="9.586177752495528"><ele>604.0</ele><time>2026-04-06T13:35:51Z</time></trkpt><trkpt lat="44.23317886038708" lon="9.586213425582306"><ele>604.0</ele><time>2026-04-06T13:35:52Z</time></trkpt><trkpt lat="44.23326665464127" lon="9.586257484844465"><ele>598.8333333333334</ele><time>2026-04-06T13:35:53Z</time></trkpt><trkpt lat="44.23334693194813" lon="9.586318626798517"><ele>593.6666666666667</ele><time>2026-04-06T13:35:54Z</time></trkpt><trkpt lat="44.23342798751779" lon="9.58636627136988"><ele>588.5</ele><time>2026-04-06T13:35:55Z</time></trkpt><trkpt lat="44.233508351097356" lon="9.586391977302965"><ele>583.3333333333334</ele><time>2026-04-06T13:35:56Z</time></trkpt><trkpt lat="44.233597777179455" lon="9.58637440933776"><ele>578.1666666666666</ele><time>2026-04-06T13:35:57Z</time></trkpt><trkpt lat="44.233678655921075" lon="9.5863260949334"><ele>573.0</ele><time>2026-04-06T13:35:58Z</time></trkpt><trkpt lat="44.233754152657056" lon="9.586248114489718"><ele>573.7142857142858</ele><time>2026-04-06T13:35:59Z</time></trkpt><trkpt lat="44.23381113741554" lon="9.58616623505739"><ele>574.4285714285714</ele><time>2026-04-06T13:36:00Z</time></trkpt><trkpt lat="44.23386288440863" lon="9.58609207270522"><ele>575.1428571428571</ele><time>2026-04-06T13:36:01Z</time></trkpt><trkpt lat="44.233913356182846" lon="9.586019091108604"><ele>575.8571428571429</ele><time>2026-04-06T13:36:02Z</time></trkpt><trkpt lat="44.233974297053244" lon="9.585964892748148"><ele>576.5714285714286</ele><time>2026-04-06T13:36:03Z</time></trkpt><trkpt lat="44.234034451777994" lon="9.585917888285696"><ele>577.2857142857143</ele><time>2026-04-06T13:36:04Z</time></trkpt><trkpt lat="44.23410186173717" lon="9.585863281059503"><ele>578.0</ele><time>2026-04-06T13:36:05Z</time></trkpt><trkpt lat="44.23416397477376" lon="9.58581405838041"><ele>578.0</ele><time>2026-04-06T13:36:06Z</time></trkpt><trkpt lat="44.23422390360003" lon="9.585762690199054"><ele>578.0</ele><time>2026-04-06T13:36:07Z</time></trkpt><trkpt lat="44.234285195439206" lon="9.585706517686573"><ele>578.0</ele><time>2026-04-06T13:36:08Z</time></trkpt><trkpt lat="44.234371051905526" lon="9.585660840930105"><ele>578.0</ele><time>2026-04-06T13:36:09Z</time></trkpt><trkpt lat="44.23443770289149" lon="9.585605079832522"><ele>578.0</ele><time>2026-04-06T13:36:10Z</time></trkpt><trkpt lat="44.23448739183193" lon="9.585521691505372"><ele>578.0</ele><time>2026-04-06T13:36:11Z</time></trkpt><trkpt lat="44.234497086357464" lon="9.585412339620344"><ele>580.8</ele><time>2026-04-06T13:36:12Z</time></trkpt><trkpt lat="44.23446346150468" lon="9.58529755884865"><ele>583.5999999999999</ele><time>2026-04-06T13:36:13Z</time></trkpt><trkpt lat="44.23441304412571" lon="9.585185109737909"><ele>586.4000000000001</ele><time>2026-04-06T13:36:14Z</time></trkpt><trkpt lat="44.23435798250976" lon="9.585078098346225"><ele>589.2</ele><time>2026-04-06T13:36:15Z</time></trkpt><trkpt lat="44.23430435440811" lon="9.58496976646986"><ele>592.0</ele><time>2026-04-06T13:36:16Z</time></trkpt><trkpt lat="44.234258413297184" lon="9.584862904033198"><ele>592.0</ele><time>2026-04-06T13:36:17Z</time></trkpt><trkpt lat="44.23420471291162" lon="9.584724948975918"><ele>592.0</ele><time>2026-04-06T13:36:18Z</time></trkpt><trkpt lat="44.23418610495814" lon="9.584615202181624"><ele>592.0</ele><time>2026-04-06T13:36:19Z</time></trkpt><trkpt lat="44.234183977023974" lon="9.584506328539867"><ele>592.0</ele><time>2026-04-06T13:36:20Z</time></trkpt><trkpt lat="44.234201868214164" lon="9.584395356287219"><ele>592.0</ele><time>2026-04-06T13:36:21Z</time></trkpt><trkpt lat="44.2342566594929" lon="9.58429548838115"><ele>592.0</ele><time>2026-04-06T13:36:22Z</time></trkpt><trkpt lat="44.234316054226866" lon="9.584199901689393"><ele>591.4</ele><time>2026-04-06T13:36:23Z</time></trkpt><trkpt lat="44.2343812430023" lon="9.584093219641824"><ele>590.8000000000001</ele><time>2026-04-06T13:36:24Z</time></trkpt><trkpt lat="44.23444182281582" lon="9.583993421686982"><ele>590.2</ele><time>2026-04-06T13:36:24.999Z</time></trkpt><trkpt lat="44.234497076547285" lon="9.583881851416642"><ele>589.6</ele><time>2026-04-06T13:36:25.999Z</time></trkpt><trkpt lat="44.23455203176147" lon="9.583785646211426"><ele>589.0</ele><time>2026-04-06T13:36:26.999Z</time></trkpt><trkpt lat="44.23461399992721" lon="9.583717081691871"><ele>586.8333333333334</ele><time>2026-04-06T13:36:27.999Z</time></trkpt><trkpt lat="44.23465703977057" lon="9.583635191963323"><ele>584.6666666666667</ele><time>2026-04-06T13:36:28.999Z</time></trkpt><trkpt lat="44.23471309354553" lon="9.583585503220693"><ele>582.5</ele><time>2026-04-06T13:36:29.999Z</time></trkpt><trkpt lat="44.23480282501893" lon="9.58352123048973"><ele>580.3333333333334</ele><time>2026-04-06T13:36:31.999Z</time></trkpt><trkpt lat="44.23487527869438" lon="9.583483104085952"><ele>578.1666666666666</ele><time>2026-04-06T13:36:34.999Z</time></trkpt><trkpt lat="44.23494128057379" lon="9.583381409322007"><ele>576.0</ele><time>2026-04-06T13:37:17.999Z</time></trkpt><trkpt lat="44.23502400392784" lon="9.583306103089422"><ele>574.4</ele><time>2026-04-06T13:37:19.999Z</time></trkpt><trkpt lat="44.23514048007692" lon="9.583200840039106"><ele>572.8</ele><time>2026-04-06T13:37:21.999Z</time></trkpt><trkpt lat="44.23520858916065" lon="9.583154036644165"><ele>571.1999999999999</ele><time>2026-04-06T13:37:22.999Z</time></trkpt><trkpt lat="44.23528533864148" lon="9.58313049494044"><ele>569.6</ele><time>2026-04-06T13:37:23.999Z</time></trkpt><trkpt lat="44.23537303069927" lon="9.583124490892155"><ele>568.0</ele><time>2026-04-06T13:37:24.999Z</time></trkpt><trkpt lat="44.2354647095352" lon="9.5831351309156"><ele>568.0</ele><time>2026-04-06T13:37:25.999Z</time></trkpt><trkpt lat="44.23555392490742" lon="9.58318234504608"><ele>568.0</ele><time>2026-04-06T13:37:26.999Z</time></trkpt><trkpt lat="44.23564657774848" lon="9.58317947302438"><ele>568.0</ele><time>2026-04-06T13:37:27.999Z</time></trkpt><trkpt lat="44.235738699631156" lon="9.583236244841387"><ele>568.0</ele><time>2026-04-06T13:37:28.999Z</time></trkpt><trkpt lat="44.235835466005526" lon="9.583289242198646"><ele>568.0</ele><time>2026-04-06T13:37:29.999Z</time></trkpt><trkpt lat="44.235916749187304" lon="9.583361986750464"><ele>568.4</ele><time>2026-04-06T13:37:30.999Z</time></trkpt><trkpt lat="44.2360207663795" lon="9.583423114831321"><ele>568.8</ele><time>2026-04-06T13:37:31.999Z</time></trkpt><trkpt lat="44.23611310878194" lon="9.583491256330907"><ele>569.2</ele><time>2026-04-06T13:37:32.998Z</time></trkpt><trkpt lat="44.236210209559914" lon="9.583522677092356"><ele>569.6</ele><time>2026-04-06T13:37:33.998Z</time></trkpt><trkpt lat="44.23632434195097" lon="9.583526034896927"><ele>570.0</ele><time>2026-04-06T13:37:34.998Z</time></trkpt><trkpt lat="44.236440574127826" lon="9.583513181819733"><ele>570.8</ele><time>2026-04-06T13:37:35.998Z</time></trkpt><trkpt lat="44.23654614805512" lon="9.583516626655294"><ele>571.6</ele><time>2026-04-06T13:37:36.998Z</time></trkpt><trkpt lat="44.23664096427454" lon="9.583483715159371"><ele>572.4</ele><time>2026-04-06T13:37:37.998Z</time></trkpt><trkpt lat="44.236736057700455" lon="9.58336607001218"><ele>573.2</ele><time>2026-04-06T13:37:38.998Z</time></trkpt><trkpt lat="44.23680582587325" lon="9.58331868808807"><ele>574.0</ele><time>2026-04-06T13:37:39.998Z</time></trkpt><trkpt lat="44.23689063535276" lon="9.583237537128873"><ele>574.0</ele><time>2026-04-06T13:37:40.998Z</time></trkpt><trkpt lat="44.23696008213718" lon="9.583155589555144"><ele>574.0</ele><time>2026-04-06T13:37:41.998Z</time></trkpt><trkpt lat="44.23702198706505" lon="9.583065455260188"><ele>574.0</ele><time>2026-04-06T13:37:43Z</time></trkpt><trkpt lat="44.23709127820677" lon="9.582996885759306"><ele>574.0</ele><time>2026-04-06T13:37:44Z</time></trkpt><trkpt lat="44.237159387975076" lon="9.582949544596678"><ele>574.0</ele><time>2026-04-06T13:37:45Z</time></trkpt><trkpt lat="44.23723360472454" lon="9.582937026823725"><ele>574.0</ele><time>2026-04-06T13:37:46Z</time></trkpt><trkpt lat="44.237296042075826" lon="9.583000391935208"><ele>573.0</ele><time>2026-04-06T13:37:47Z</time></trkpt><trkpt lat="44.237353661936844" lon="9.583050879965134"><ele>572.0</ele><time>2026-04-06T13:37:48Z</time></trkpt><trkpt lat="44.237393610674275" lon="9.583138991150342"><ele>571.0</ele><time>2026-04-06T13:37:49Z</time></trkpt><trkpt lat="44.23743996750686" lon="9.583224968297989"><ele>570.0</ele><time>2026-04-06T13:37:50Z</time></trkpt><trkpt lat="44.23749479232567" lon="9.583295299414274"><ele>569.0</ele><time>2026-04-06T13:37:51Z</time></trkpt><trkpt lat="44.237566949461275" lon="9.583332065261907"><ele>568.0</ele><time>2026-04-06T13:37:52Z</time></trkpt><trkpt lat="44.23764196063522" lon="9.583326045620122"><ele>567.0</ele><time>2026-04-06T13:37:53Z</time></trkpt><trkpt lat="44.237712751058424" lon="9.58328619184097"><ele>567.0</ele><time>2026-04-06T13:37:54Z</time></trkpt><trkpt lat="44.23777347227343" lon="9.583218142483371"><ele>567.0</ele><time>2026-04-06T13:37:55Z</time></trkpt><trkpt lat="44.23783455768991" lon="9.583137230852914"><ele>567.0</ele><time>2026-04-06T13:37:56Z</time></trkpt><trkpt lat="44.23789169321387" lon="9.583047490190697"><ele>567.0</ele><time>2026-04-06T13:37:57Z</time></trkpt><trkpt lat="44.237936604053864" lon="9.582947919248387"><ele>567.0</ele><time>2026-04-06T13:37:58Z</time></trkpt><trkpt lat="44.23796863615642" lon="9.582830792206328"><ele>567.0</ele><time>2026-04-06T13:37:59Z</time></trkpt><trkpt lat="44.237992179855674" lon="9.582713192494595"><ele>567.8333333333334</ele><time>2026-04-06T13:38:00Z</time></trkpt><trkpt lat="44.238018891264346" lon="9.582598364072757"><ele>568.6666666666666</ele><time>2026-04-06T13:38:01Z</time></trkpt><trkpt lat="44.23805453716909" lon="9.582470823054743"><ele>569.5</ele><time>2026-04-06T13:38:02Z</time></trkpt><trkpt lat="44.23808311458393" lon="9.582342629311173"><ele>570.3333333333333</ele><time>2026-04-06T13:38:03Z</time></trkpt><trkpt lat="44.238111309731615" lon="9.582261190197109"><ele>571.1666666666666</ele><time>2026-04-06T13:38:04Z</time></trkpt><trkpt lat="44.23813164878276" lon="9.58214703459943"><ele>572.0</ele><time>2026-04-06T13:38:05Z</time></trkpt><trkpt lat="44.238165982390356" lon="9.582064458229228"><ele>574.2</ele><time>2026-04-06T13:38:06Z</time></trkpt><trkpt lat="44.238213581098584" lon="9.581962372396497"><ele>576.4000000000001</ele><time>2026-04-06T13:38:07Z</time></trkpt><trkpt lat="44.23829306384484" lon="9.581813850718657"><ele>578.5999999999999</ele><time>2026-04-06T13:38:09Z</time></trkpt><trkpt lat="44.23831656636511" lon="9.581730207774903"><ele>580.8</ele><time>2026-04-06T13:38:10Z</time></trkpt><trkpt lat="44.23838371596662" lon="9.581620723363326"><ele>583.0</ele><time>2026-04-06T13:38:12Z</time></trkpt><trkpt lat="44.23844814591395" lon="9.581587869500934"><ele>583.0</ele><time>2026-04-06T13:38:13Z</time></trkpt><trkpt lat="44.23855901208654" lon="9.581592189217009"><ele>583.0</ele><time>2026-04-06T13:38:15Z</time></trkpt><trkpt lat="44.23868195455713" lon="9.581596162425773"><ele>583.0</ele><time>2026-04-06T13:38:17Z</time></trkpt><trkpt lat="44.2387510199204" lon="9.581587357577297"><ele>583.0</ele><time>2026-04-06T13:38:18Z</time></trkpt><trkpt lat="44.23888104057873" lon="9.581565328944333"><ele>583.0</ele><time>2026-04-06T13:38:20Z</time></trkpt><trkpt lat="44.23895090094073" lon="9.581515473726071"><ele>582.8333333333334</ele><time>2026-04-06T13:38:21Z</time></trkpt><trkpt lat="44.23900994600779" lon="9.581449030608528"><ele>582.6666666666667</ele><time>2026-04-06T13:38:22Z</time></trkpt><trkpt lat="44.23906161277014" lon="9.581383457815294"><ele>582.5</ele><time>2026-04-06T13:38:23Z</time></trkpt><trkpt lat="44.239116750384795" lon="9.581315758427058"><ele>582.3333333333334</ele><time>2026-04-06T13:38:24Z</time></trkpt><trkpt lat="44.23918823803684" lon="9.58126134075438"><ele>582.1666666666666</ele><time>2026-04-06T13:38:25Z</time></trkpt><trkpt lat="44.23928660628414" lon="9.581253342965695"><ele>582.0</ele><time>2026-04-06T13:38:27Z</time></trkpt><trkpt lat="44.23933756289557" lon="9.581315790240684"><ele>582.0</ele><time>2026-04-06T13:38:28Z</time></trkpt><trkpt lat="44.23944695436223" lon="9.581434334416544"><ele>582.0</ele><time>2026-04-06T13:38:30Z</time></trkpt><trkpt lat="44.239504548656114" lon="9.581505992682866"><ele>582.0</ele><time>2026-04-06T13:38:31Z</time></trkpt><trkpt lat="44.239561423569015" lon="9.58158009842796"><ele>582.0</ele><time>2026-04-06T13:38:32Z</time></trkpt><trkpt lat="44.239616132086645" lon="9.58166144363333"><ele>582.0</ele><time>2026-04-06T13:38:33Z</time></trkpt><trkpt lat="44.23966302793206" lon="9.581753001130686"><ele>582.0</ele><time>2026-04-06T13:38:33.999Z</time></trkpt><trkpt lat="44.23973097350297" lon="9.581819694185988"><ele>582.0</ele><time>2026-04-06T13:38:34.999Z</time></trkpt><trkpt lat="44.2397863220849" lon="9.581902340295347"><ele>582.0</ele><time>2026-04-06T13:38:35.999Z</time></trkpt><trkpt lat="44.23981604625166" lon="9.582001632726884"><ele>582.0</ele><time>2026-04-06T13:38:36.999Z</time></trkpt><trkpt lat="44.239831990960376" lon="9.582115136911142"><ele>582.0</ele><time>2026-04-06T13:38:37.999Z</time></trkpt><trkpt lat="44.2398367876901" lon="9.58222744365938"><ele>582.0</ele><time>2026-04-06T13:38:38.999Z</time></trkpt><trkpt lat="44.239834266307454" lon="9.582323973698124"><ele>582.6666666666666</ele><time>2026-04-06T13:38:39.999Z</time></trkpt><trkpt lat="44.23983578592833" lon="9.582447391060803"><ele>583.3333333333334</ele><time>2026-04-06T13:38:40.999Z</time></trkpt><trkpt lat="44.239851770207856" lon="9.582554306738485"><ele>584.0</ele><time>2026-04-06T13:38:41.999Z</time></trkpt><trkpt lat="44.23988461972033" lon="9.582654330072463"><ele>584.6666666666667</ele><time>2026-04-06T13:38:42.999Z</time></trkpt><trkpt lat="44.23993422152353" lon="9.582748531140904"><ele>585.3333333333334</ele><time>2026-04-06T13:38:43.999Z</time></trkpt><trkpt lat="44.23999496866458" lon="9.582821856275563"><ele>586.0</ele><time>2026-04-06T13:38:44.999Z</time></trkpt><trkpt lat="44.24006410212814" lon="9.58288080671468"><ele>586.0</ele><time>2026-04-06T13:38:45.999Z</time></trkpt><trkpt lat="44.24014096120705" lon="9.582923315125827"><ele>586.0</ele><time>2026-04-06T13:38:46.999Z</time></trkpt><trkpt lat="44.24022048935259" lon="9.58293122138131"><ele>586.0</ele><time>2026-04-06T13:38:47.999Z</time></trkpt><trkpt lat="44.24030801949292" lon="9.582902358433547"><ele>586.0</ele><time>2026-04-06T13:38:48.999Z</time></trkpt><trkpt lat="44.240381672962855" lon="9.582854149341689"><ele>586.0</ele><time>2026-04-06T13:38:49.999Z</time></trkpt><trkpt lat="44.24045545253588" lon="9.582792127523739"><ele>586.0</ele><time>2026-04-06T13:38:50.999Z</time></trkpt><trkpt lat="44.2405281421074" lon="9.582728261267587"><ele>586.0</ele><time>2026-04-06T13:38:51.999Z</time></trkpt><trkpt lat="44.24061360348412" lon="9.58269002145035"><ele>586.0</ele><time>2026-04-06T13:38:52.999Z</time></trkpt><trkpt lat="44.24070586324649" lon="9.58270714661931"><ele>586.0</ele><time>2026-04-06T13:38:53.999Z</time></trkpt><trkpt lat="44.240798305870634" lon="9.582696993200619"><ele>586.0</ele><time>2026-04-06T13:38:54.999Z</time></trkpt><trkpt lat="44.24087813835276" lon="9.582750918265795"><ele>586.0</ele><time>2026-04-06T13:38:55.999Z</time></trkpt><trkpt lat="44.240958722906754" lon="9.582797391118353"><ele>586.3333333333334</ele><time>2026-04-06T13:38:56.999Z</time></trkpt><trkpt lat="44.24104328403067" lon="9.582841219174801"><ele>586.6666666666667</ele><time>2026-04-06T13:38:57.999Z</time></trkpt><trkpt lat="44.24110470926637" lon="9.582936659437022"><ele>587.0</ele><time>2026-04-06T13:38:58.999Z</time></trkpt><trkpt lat="44.24118592648932" lon="9.582986011111702"><ele>587.3333333333334</ele><time>2026-04-06T13:38:59.999Z</time></trkpt><trkpt lat="44.24125954176151" lon="9.583050945616575"><ele>587.6666666666666</ele><time>2026-04-06T13:39:00.999Z</time></trkpt><trkpt lat="44.241340845076564" lon="9.58309655929903"><ele>588.0</ele><time>2026-04-06T13:39:01.999Z</time></trkpt><trkpt lat="44.24142766262162" lon="9.58313462266716"><ele>585.4</ele><time>2026-04-06T13:39:02.999Z</time></trkpt><trkpt lat="44.24151651920687" lon="9.583168317724866"><ele>582.8</ele><time>2026-04-06T13:39:03.999Z</time></trkpt><trkpt lat="44.24160584814709" lon="9.583186518326908"><ele>580.2</ele><time>2026-04-06T13:39:04.999Z</time></trkpt><trkpt lat="44.24169848974261" lon="9.583174258909972"><ele>577.6</ele><time>2026-04-06T13:39:05.999Z</time></trkpt><trkpt lat="44.241787080564194" lon="9.583148955707342"><ele>575.0</ele><time>2026-04-06T13:39:06.999Z</time></trkpt><trkpt lat="44.24187192089684" lon="9.583097517821317"><ele>575.0</ele><time>2026-04-06T13:39:07.999Z</time></trkpt><trkpt lat="44.24195428329114" lon="9.58303351931843"><ele>575.0</ele><time>2026-04-06T13:39:08.999Z</time></trkpt><trkpt lat="44.24203194113462" lon="9.582962366802086"><ele>575.0</ele><time>2026-04-06T13:39:09.999Z</time></trkpt><trkpt lat="44.24211615578945" lon="9.582902691359692"><ele>575.0</ele><time>2026-04-06T13:39:10.999Z</time></trkpt><trkpt lat="44.2422072707368" lon="9.582864533642741"><ele>575.0</ele><time>2026-04-06T13:39:11.999Z</time></trkpt><trkpt lat="44.24229682555561" lon="9.582846727423918"><ele>579.0</ele><time>2026-04-06T13:39:12.999Z</time></trkpt><trkpt lat="44.242394051996236" lon="9.582838851705601"><ele>583.0</ele><time>2026-04-06T13:39:13.999Z</time></trkpt><trkpt lat="44.24248393456612" lon="9.582797275805472"><ele>587.0</ele><time>2026-04-06T13:39:14.999Z</time></trkpt><trkpt lat="44.2425728868746" lon="9.582791387638412"><ele>591.0</ele><time>2026-04-06T13:39:15.999Z</time></trkpt><trkpt lat="44.242659579047235" lon="9.58277388687251"><ele>595.0</ele><time>2026-04-06T13:39:16.999Z</time></trkpt><trkpt lat="44.24273955002119" lon="9.582747143799903"><ele>595.0</ele><time>2026-04-06T13:39:17.999Z</time></trkpt><trkpt lat="44.24284714170588" lon="9.582740399348104"><ele>595.0</ele><time>2026-04-06T13:39:19.999Z</time></trkpt><trkpt lat="44.24292498740863" lon="9.582743814587245"><ele>595.0</ele><time>2026-04-06T13:39:22.999Z</time></trkpt><trkpt lat="44.2429194341018" lon="9.582626452701483"><ele>595.0</ele><time>2026-04-06T13:41:17.999Z</time></trkpt><trkpt lat="44.24279580250731" lon="9.582681771803955"><ele>595.0</ele><time>2026-04-06T13:41:19.999Z</time></trkpt><trkpt lat="44.24272929302234" lon="9.582688866615095"><ele>595.0</ele><time>2026-04-06T13:41:20.999Z</time></trkpt><trkpt lat="44.24264400381967" lon="9.582715680353255"><ele>595.0</ele><time>2026-04-06T13:41:21.999Z</time></trkpt><trkpt lat="44.24252520014862" lon="9.582762863144902"><ele>595.0</ele><time>2026-04-06T13:41:22.999Z</time></trkpt><trkpt lat="44.242405851357674" lon="9.582790584628436"><ele>595.0</ele><time>2026-04-06T13:41:23.999Z</time></trkpt><trkpt lat="44.24228914662004" lon="9.582819036971156"><ele>590.0</ele><time>2026-04-06T13:41:24.999Z</time></trkpt><trkpt lat="44.24217277077292" lon="9.582858656292967"><ele>585.0</ele><time>2026-04-06T13:41:25.999Z</time></trkpt><trkpt lat="44.24203938648863" lon="9.582913714059062"><ele>580.0</ele><time>2026-04-06T13:41:26.999Z</time></trkpt><trkpt lat="44.241913558562544" lon="9.583010783379045"><ele>575.0</ele><time>2026-04-06T13:41:27.999Z</time></trkpt><trkpt lat="44.24181984250825" lon="9.583085678598158"><ele>575.0</ele><time>2026-04-06T13:41:28.999Z</time></trkpt><trkpt lat="44.2417173855745" lon="9.583135824681369"><ele>575.0</ele><time>2026-04-06T13:41:29.999Z</time></trkpt><trkpt lat="44.2415968094604" lon="9.583149578175624"><ele>575.0</ele><time>2026-04-06T13:41:30.999Z</time></trkpt><trkpt lat="44.24146101564297" lon="9.58312750712368"><ele>575.0</ele><time>2026-04-06T13:41:31.999Z</time></trkpt><trkpt lat="44.241330838732324" lon="9.583062599059014"><ele>575.75</ele><time>2026-04-06T13:41:32.999Z</time></trkpt><trkpt lat="44.24119445434181" lon="9.58295154051828"><ele>576.5</ele><time>2026-04-06T13:41:33.999Z</time></trkpt><trkpt lat="44.24107654003986" lon="9.582838855839517"><ele>577.25</ele><time>2026-04-06T13:41:34.999Z</time></trkpt><trkpt lat="44.24096848853533" lon="9.582728854662497"><ele>578.0</ele><time>2026-04-06T13:41:35.999Z</time></trkpt><trkpt lat="44.240849156340445" lon="9.582660371258907"><ele>580.0</ele><time>2026-04-06T13:41:36.999Z</time></trkpt><trkpt lat="44.24072158230913" lon="9.582629719653594"><ele>582.0</ele><time>2026-04-06T13:41:37.998Z</time></trkpt><trkpt lat="44.24059221831037" lon="9.582640373335751"><ele>584.0</ele><time>2026-04-06T13:41:38.998Z</time></trkpt><trkpt lat="44.24046839766857" lon="9.582704263621755"><ele>586.0</ele><time>2026-04-06T13:41:39.998Z</time></trkpt><trkpt lat="44.24036258064642" lon="9.582806279927395"><ele>586.0</ele><time>2026-04-06T13:41:40.998Z</time></trkpt><trkpt lat="44.240275635593534" lon="9.58288568920267"><ele>586.0</ele><time>2026-04-06T13:41:41.998Z</time></trkpt><trkpt lat="44.240182138953934" lon="9.582912550012994"><ele>586.0</ele><time>2026-04-06T13:41:42.998Z</time></trkpt><trkpt lat="44.240079396501685" lon="9.582865501690353"><ele>586.0</ele><time>2026-04-06T13:41:43.998Z</time></trkpt><trkpt lat="44.23997975439294" lon="9.582775749058966"><ele>586.0</ele><time>2026-04-06T13:41:44.998Z</time></trkpt><trkpt lat="44.239899624380506" lon="9.582635596145423"><ele>586.0</ele><time>2026-04-06T13:41:45.998Z</time></trkpt><trkpt lat="44.23985641404209" lon="9.582470602515576"><ele>586.0</ele><time>2026-04-06T13:41:46.998Z</time></trkpt><trkpt lat="44.239856192137445" lon="9.582283332851421"><ele>586.0</ele><time>2026-04-06T13:41:47.998Z</time></trkpt><trkpt lat="44.23987217234539" lon="9.582093870125727"><ele>586.0</ele><time>2026-04-06T13:41:48.998Z</time></trkpt><trkpt lat="44.239835821485684" lon="9.58191421376475"><ele>585.0</ele><time>2026-04-06T13:41:49.998Z</time></trkpt><trkpt lat="44.23976312753579" lon="9.58176887620693"><ele>584.0</ele><time>2026-04-06T13:41:50.998Z</time></trkpt><trkpt lat="44.23966512083268" lon="9.581629891905537"><ele>583.0</ele><time>2026-04-06T13:41:51.998Z</time></trkpt><trkpt lat="44.239564136188285" lon="9.581483467197836"><ele>582.0</ele><time>2026-04-06T13:41:52.998Z</time></trkpt><trkpt lat="44.239440866875526" lon="9.581360240091163"><ele>582.0</ele><time>2026-04-06T13:41:54Z</time></trkpt><trkpt lat="44.23933684825289" lon="9.581261576222715"><ele>582.0</ele><time>2026-04-06T13:41:55Z</time></trkpt><trkpt lat="44.23924675045433" lon="9.581199699223397"><ele>582.0</ele><time>2026-04-06T13:41:56Z</time></trkpt><trkpt lat="44.23915752154704" lon="9.581191257428614"><ele>582.0</ele><time>2026-04-06T13:41:57Z</time></trkpt><trkpt lat="44.23907453069631" lon="9.581249235006222"><ele>582.0</ele><time>2026-04-06T13:41:58Z</time></trkpt><trkpt lat="44.23901337585875" lon="9.58136552727714"><ele>582.2</ele><time>2026-04-06T13:41:59Z</time></trkpt><trkpt lat="44.238942297213825" lon="9.581485584327304"><ele>582.4000000000001</ele><time>2026-04-06T13:42:00Z</time></trkpt><trkpt lat="44.238841620536874" lon="9.581543964535092"><ele>582.5999999999999</ele><time>2026-04-06T13:42:01Z</time></trkpt><trkpt lat="44.2387395334382" lon="9.58155831251107"><ele>582.8</ele><time>2026-04-06T13:42:02Z</time></trkpt><trkpt lat="44.23861561838914" lon="9.581570463776327"><ele>583.0</ele><time>2026-04-06T13:42:03Z</time></trkpt><trkpt lat="44.238492632613344" lon="9.581538866450588"><ele>583.0</ele><time>2026-04-06T13:42:04Z</time></trkpt><trkpt lat="44.23839123402567" lon="9.58156266925313"><ele>583.0</ele><time>2026-04-06T13:42:05Z</time></trkpt><trkpt lat="44.23829074024962" lon="9.581678564221766"><ele>583.0</ele><time>2026-04-06T13:42:06Z</time></trkpt><trkpt lat="44.23822259237133" lon="9.581831575482022"><ele>583.0</ele><time>2026-04-06T13:42:07Z</time></trkpt><trkpt lat="44.23817406060327" lon="9.581979357348011"><ele>583.0</ele><time>2026-04-06T13:42:08Z</time></trkpt><trkpt lat="44.23811874083195" lon="9.582133258501146"><ele>583.0</ele><time>2026-04-06T13:42:09Z</time></trkpt><trkpt lat="44.23806543717207" lon="9.582299883293722"><ele>583.0</ele><time>2026-04-06T13:42:10Z</time></trkpt><trkpt lat="44.23801820424174" lon="9.582480330744625"><ele>583.0</ele><time>2026-04-06T13:42:11Z</time></trkpt><trkpt lat="44.23797395201551" lon="9.582666150001637"><ele>583.0</ele><time>2026-04-06T13:42:12Z</time></trkpt><trkpt lat="44.237921967608344" lon="9.58284635597141"><ele>583.0</ele><time>2026-04-06T13:42:13Z</time></trkpt><trkpt lat="44.23786673092968" lon="9.583021856506363"><ele>583.0</ele><time>2026-04-06T13:42:14Z</time></trkpt><trkpt lat="44.237786724428744" lon="9.583132074140238"><ele>583.0</ele><time>2026-04-06T13:42:15Z</time></trkpt><trkpt lat="44.237705478596936" lon="9.583247397108973"><ele>579.8</ele><time>2026-04-06T13:42:16Z</time></trkpt><trkpt lat="44.23761132767071" lon="9.583310893016058"><ele>576.5999999999999</ele><time>2026-04-06T13:42:17Z</time></trkpt><trkpt lat="44.237528689268245" lon="9.583323939208302"><ele>573.4000000000001</ele><time>2026-04-06T13:42:18Z</time></trkpt><trkpt lat="44.23744981128138" lon="9.583241030629559"><ele>570.2</ele><time>2026-04-06T13:42:19Z</time></trkpt><trkpt lat="44.23739299925048" lon="9.58310835210259"><ele>567.0</ele><time>2026-04-06T13:42:20Z</time></trkpt><trkpt lat="44.23734080562709" lon="9.582976367897414"><ele>568.4</ele><time>2026-04-06T13:42:21Z</time></trkpt><trkpt lat="44.237256229241204" lon="9.582889678765872"><ele>569.8000000000001</ele><time>2026-04-06T13:42:22Z</time></trkpt><trkpt lat="44.23716175412385" lon="9.582879997022697"><ele>571.2</ele><time>2026-04-06T13:42:23Z</time></trkpt><trkpt lat="44.2370547249105" lon="9.582942397596268"><ele>572.6</ele><time>2026-04-06T13:42:24Z</time></trkpt><trkpt lat="44.23696429424965" lon="9.583049067787282"><ele>574.0</ele><time>2026-04-06T13:42:25Z</time></trkpt><trkpt lat="44.23687921032212" lon="9.583172438967258"><ele>574.0</ele><time>2026-04-06T13:42:26Z</time></trkpt><trkpt lat="44.236794675044045" lon="9.583292297503755"><ele>574.0</ele><time>2026-04-06T13:42:27Z</time></trkpt><trkpt lat="44.23669270834358" lon="9.583402153668734"><ele>574.0</ele><time>2026-04-06T13:42:28Z</time></trkpt><trkpt lat="44.236590840337406" lon="9.583465926794418"><ele>574.0</ele><time>2026-04-06T13:42:29Z</time></trkpt><trkpt lat="44.23648609939927" lon="9.583470427257783"><ele>573.0</ele><time>2026-04-06T13:42:30Z</time></trkpt><trkpt lat="44.236373112629266" lon="9.583473947338476"><ele>572.0</ele><time>2026-04-06T13:42:31Z</time></trkpt><trkpt lat="44.236233250702156" lon="9.583467471888646"><ele>571.0</ele><time>2026-04-06T13:42:32Z</time></trkpt><trkpt lat="44.236099243276975" lon="9.583440472604044"><ele>570.0</ele><time>2026-04-06T13:42:32.999Z</time></trkpt><trkpt lat="44.235973589836014" lon="9.583363867568252"><ele>570.0</ele><time>2026-04-06T13:42:33.999Z</time></trkpt><trkpt lat="44.235849902614476" lon="9.58326678206917"><ele>570.0</ele><time>2026-04-06T13:42:34.999Z</time></trkpt><trkpt lat="44.23572455672246" lon="9.583172269917393"><ele>570.0</ele><time>2026-04-06T13:42:35.999Z</time></trkpt><trkpt lat="44.23558771937395" lon="9.583116049497866"><ele>570.0</ele><time>2026-04-06T13:42:36.999Z</time></trkpt><trkpt lat="44.23544517169977" lon="9.583096771089258"><ele>569.5</ele><time>2026-04-06T13:42:37.999Z</time></trkpt><trkpt lat="44.23531969803567" lon="9.583092513259587"><ele>569.0</ele><time>2026-04-06T13:42:38.999Z</time></trkpt><trkpt lat="44.235181860773515" lon="9.583106655894905"><ele>568.5</ele><time>2026-04-06T13:42:39.999Z</time></trkpt><trkpt lat="44.235071245673495" lon="9.583182179419513"><ele>568.0</ele><time>2026-04-06T13:42:40.999Z</time></trkpt><trkpt lat="44.23497041276407" lon="9.583284482737499"><ele>568.0</ele><time>2026-04-06T13:42:41.999Z</time></trkpt><trkpt lat="44.23486761513058" lon="9.583404290488437"><ele>568.0</ele><time>2026-04-06T13:42:42.999Z</time></trkpt><trkpt lat="44.234765406021246" lon="9.583518987174136"><ele>568.0</ele><time>2026-04-06T13:42:43.999Z</time></trkpt><trkpt lat="44.23466183985055" lon="9.583612167285947"><ele>568.0</ele><time>2026-04-06T13:42:44.999Z</time></trkpt><trkpt lat="44.23456159584059" lon="9.58373484360836"><ele>573.25</ele><time>2026-04-06T13:42:45.999Z</time></trkpt><trkpt lat="44.23447682431952" lon="9.583880835448532"><ele>578.5</ele><time>2026-04-06T13:42:46.999Z</time></trkpt><trkpt lat="44.23439208336626" lon="9.584019890759874"><ele>583.75</ele><time>2026-04-06T13:42:47.999Z</time></trkpt><trkpt lat="44.234305019017015" lon="9.584155744718768"><ele>589.0</ele><time>2026-04-06T13:42:48.999Z</time></trkpt><trkpt lat="44.234230171406345" lon="9.584275147320012"><ele>589.0</ele><time>2026-04-06T13:42:49.999Z</time></trkpt><trkpt lat="44.23417609562064" lon="9.584409462393134"><ele>589.0</ele><time>2026-04-06T13:42:50.999Z</time></trkpt><trkpt lat="44.23415179298274" lon="9.584569302488651"><ele>589.0</ele><time>2026-04-06T13:42:51.999Z</time></trkpt><trkpt lat="44.23417118530451" lon="9.58472467788838"><ele>589.0</ele><time>2026-04-06T13:42:52.999Z</time></trkpt><trkpt lat="44.234226380652764" lon="9.584875899510228"><ele>589.75</ele><time>2026-04-06T13:42:53.999Z</time></trkpt><trkpt lat="44.23429325248256" lon="9.58500921925139"><ele>590.5</ele><time>2026-04-06T13:42:54.999Z</time></trkpt><trkpt lat="44.23436348333339" lon="9.585140880132709"><ele>591.25</ele><time>2026-04-06T13:42:55.999Z</time></trkpt><trkpt lat="44.23440642770301" lon="9.585293077418385"><ele>592.0</ele><time>2026-04-06T13:42:56.999Z</time></trkpt><trkpt lat="44.23444939518638" lon="9.585419240442304"><ele>589.6666666666667</ele><time>2026-04-06T13:42:57.999Z</time></trkpt><trkpt lat="44.23444839771023" lon="9.58552500528202"><ele>587.3333333333334</ele><time>2026-04-06T13:42:58.999Z</time></trkpt><trkpt lat="44.23440979660559" lon="9.585628439503044"><ele>585.0</ele><time>2026-04-06T13:42:59.999Z</time></trkpt><trkpt lat="44.23431372960488" lon="9.585671503434245"><ele>582.6666666666666</ele><time>2026-04-06T13:43:00.999Z</time></trkpt><trkpt lat="44.23424101542662" lon="9.58572488505986"><ele>580.3333333333333</ele><time>2026-04-06T13:43:01.999Z</time></trkpt><trkpt lat="44.234175626822676" lon="9.585767740978868"><ele>578.0</ele><time>2026-04-06T13:43:02.999Z</time></trkpt><trkpt lat="44.23407198372366" lon="9.585845470275988"><ele>578.0</ele><time>2026-04-06T13:43:03.999Z</time></trkpt><trkpt lat="44.233987990975656" lon="9.585923957295476"><ele>578.0</ele><time>2026-04-06T13:43:04.999Z</time></trkpt><trkpt lat="44.23390219640217" lon="9.586003154829065"><ele>578.0</ele><time>2026-04-06T13:43:05.999Z</time></trkpt><trkpt lat="44.233818728739934" lon="9.586094645074484"><ele>578.0</ele><time>2026-04-06T13:43:06.999Z</time></trkpt><trkpt lat="44.233758977425694" lon="9.586193493560907"><ele>578.0</ele><time>2026-04-06T13:43:07.999Z</time></trkpt><trkpt lat="44.23367004267918" lon="9.586276842408132"><ele>577.0</ele><time>2026-04-06T13:43:08.999Z</time></trkpt><trkpt lat="44.23358517772693" lon="9.58636727821086"><ele>576.0</ele><time>2026-04-06T13:43:09.999Z</time></trkpt><trkpt lat="44.23347618456488" lon="9.58636107175041"><ele>575.0</ele><time>2026-04-06T13:43:10.999Z</time></trkpt><trkpt lat="44.23338734988274" lon="9.586307441793842"><ele>574.0</ele><time>2026-04-06T13:43:11.999Z</time></trkpt><trkpt lat="44.23329309031416" lon="9.586242499712833"><ele>573.0</ele><time>2026-04-06T13:43:12.999Z</time></trkpt><trkpt lat="44.23318134433247" lon="9.586179369406034"><ele>580.75</ele><time>2026-04-06T13:43:13.999Z</time></trkpt><trkpt lat="44.233065194139016" lon="9.58614363621146"><ele>588.5</ele><time>2026-04-06T13:43:14.999Z</time></trkpt><trkpt lat="44.23294134989178" lon="9.586090977771907"><ele>596.25</ele><time>2026-04-06T13:43:15.999Z</time></trkpt><trkpt lat="44.232812334984985" lon="9.586069108151914"><ele>604.0</ele><time>2026-04-06T13:43:16.999Z</time></trkpt><trkpt lat="44.232687623739984" lon="9.58603324352797"><ele>604.0</ele><time>2026-04-06T13:43:17.999Z</time></trkpt><trkpt lat="44.23257344564227" lon="9.586001558733708"><ele>604.0</ele><time>2026-04-06T13:43:18.999Z</time></trkpt><trkpt lat="44.232460363710715" lon="9.586024475602672"><ele>604.0</ele><time>2026-04-06T13:43:19.999Z</time></trkpt><trkpt lat="44.23235565353512" lon="9.586101870090776"><ele>604.0</ele><time>2026-04-06T13:43:20.999Z</time></trkpt><trkpt lat="44.232254559769686" lon="9.586210004723934"><ele>600.5</ele><time>2026-04-06T13:43:21.999Z</time></trkpt><trkpt lat="44.23213848053384" lon="9.586300872022615"><ele>597.0</ele><time>2026-04-06T13:43:22.999Z</time></trkpt><trkpt lat="44.2320225159728" lon="9.586368986008212"><ele>593.5</ele><time>2026-04-06T13:43:23.999Z</time></trkpt><trkpt lat="44.23189612249749" lon="9.5864339478762"><ele>590.0</ele><time>2026-04-06T13:43:24.999Z</time></trkpt><trkpt lat="44.23177909067638" lon="9.586505724477384"><ele>590.0</ele><time>2026-04-06T13:43:25.999Z</time></trkpt><trkpt lat="44.231675698760064" lon="9.586529106630229"><ele>590.0</ele><time>2026-04-06T13:43:26.999Z</time></trkpt><trkpt lat="44.23157626133331" lon="9.586517010303327"><ele>590.0</ele><time>2026-04-06T13:43:27.999Z</time></trkpt><trkpt lat="44.23147023283058" lon="9.586474042647021"><ele>590.0</ele><time>2026-04-06T13:43:28.999Z</time></trkpt><trkpt lat="44.23136913988291" lon="9.586452233910855"><ele>590.0</ele><time>2026-04-06T13:43:29.999Z</time></trkpt><trkpt lat="44.231264655648566" lon="9.586495366415088"><ele>586.0</ele><time>2026-04-06T13:43:30.999Z</time></trkpt><trkpt lat="44.231167256458896" lon="9.586587684656731"><ele>582.0</ele><time>2026-04-06T13:43:31.999Z</time></trkpt><trkpt lat="44.23107991627959" lon="9.586714629246398"><ele>578.0</ele><time>2026-04-06T13:43:32.999Z</time></trkpt><trkpt lat="44.23099391546114" lon="9.586864691224731"><ele>574.0</ele><time>2026-04-06T13:43:33.999Z</time></trkpt><trkpt lat="44.230914861475775" lon="9.587008324343152"><ele>572.0</ele><time>2026-04-06T13:43:34.999Z</time></trkpt><trkpt lat="44.23083229913646" lon="9.587164047461561"><ele>570.0</ele><time>2026-04-06T13:43:35.999Z</time></trkpt><trkpt lat="44.230751212247576" lon="9.587319331109406"><ele>568.0</ele><time>2026-04-06T13:43:36.999Z</time></trkpt><trkpt lat="44.23066608996785" lon="9.587482613830536"><ele>566.0</ele><time>2026-04-06T13:43:37.999Z</time></trkpt><trkpt lat="44.2305833998488" lon="9.587653775202096"><ele>566.0</ele><time>2026-04-06T13:43:38.999Z</time></trkpt><trkpt lat="44.230497652317354" lon="9.587829073780645"><ele>566.0</ele><time>2026-04-06T13:43:39.999Z</time></trkpt><trkpt lat="44.230399037752555" lon="9.587984226919184"><ele>566.0</ele><time>2026-04-06T13:43:40.999Z</time></trkpt><trkpt lat="44.23030165536452" lon="9.588145576993124"><ele>570.75</ele><time>2026-04-06T13:43:41.999Z</time></trkpt><trkpt lat="44.23021262832803" lon="9.588310586770799"><ele>575.5</ele><time>2026-04-06T13:43:42.999Z</time></trkpt><trkpt lat="44.23011564191638" lon="9.588442487339488"><ele>580.25</ele><time>2026-04-06T13:43:43.999Z</time></trkpt><trkpt lat="44.2300028093272" lon="9.588573519593318"><ele>585.0</ele><time>2026-04-06T13:43:44.998Z</time></trkpt><trkpt lat="44.22990436316618" lon="9.588686398239993"><ele>583.75</ele><time>2026-04-06T13:43:45.998Z</time></trkpt><trkpt lat="44.229807039916004" lon="9.588800647642664"><ele>582.5</ele><time>2026-04-06T13:43:46.998Z</time></trkpt><trkpt lat="44.2297005769221" lon="9.588900594453467"><ele>581.25</ele><time>2026-04-06T13:43:47.998Z</time></trkpt><trkpt lat="44.22959372026963" lon="9.589004217748528"><ele>580.0</ele><time>2026-04-06T13:43:48.998Z</time></trkpt><trkpt lat="44.229532634262064" lon="9.58914832749105"><ele>580.0</ele><time>2026-04-06T13:43:49.998Z</time></trkpt><trkpt lat="44.229466226810835" lon="9.589326950955254"><ele>580.0</ele><time>2026-04-06T13:43:50.998Z</time></trkpt><trkpt lat="44.22939258780722" lon="9.589473441812599"><ele>580.0</ele><time>2026-04-06T13:43:51.998Z</time></trkpt><trkpt lat="44.229317464100724" lon="9.589613060490855"><ele>580.0</ele><time>2026-04-06T13:43:52.998Z</time></trkpt><trkpt lat="44.229240006265385" lon="9.5897114747457"><ele>585.6</ele><time>2026-04-06T13:43:53.998Z</time></trkpt><trkpt lat="44.22915401167224" lon="9.58975662039099"><ele>591.2</ele><time>2026-04-06T13:43:54.998Z</time></trkpt><trkpt lat="44.22907517911734" lon="9.589806573825047"><ele>596.8</ele><time>2026-04-06T13:43:55.998Z</time></trkpt><trkpt lat="44.22898479459458" lon="9.589829683896664"><ele>602.4</ele><time>2026-04-06T13:43:56.998Z</time></trkpt><trkpt lat="44.22889549821649" lon="9.589806174854075"><ele>608.0</ele><time>2026-04-06T13:43:57.998Z</time></trkpt><trkpt lat="44.228813435552084" lon="9.589746243089433"><ele>608.4</ele><time>2026-04-06T13:43:58.998Z</time></trkpt><trkpt lat="44.228726270469686" lon="9.589680787918764"><ele>608.8</ele><time>2026-04-06T13:44:00Z</time></trkpt><trkpt lat="44.22863432035311" lon="9.58960792017243"><ele>609.2</ele><time>2026-04-06T13:44:01Z</time></trkpt><trkpt lat="44.2285648699266" lon="9.589536697507402"><ele>609.6</ele><time>2026-04-06T13:44:02Z</time></trkpt><trkpt lat="44.22848795345586" lon="9.589445995567564"><ele>610.0</ele><time>2026-04-06T13:44:03Z</time></trkpt><trkpt lat="44.228406223754334" lon="9.589367642022998"><ele>606.8</ele><time>2026-04-06T13:44:04Z</time></trkpt><trkpt lat="44.228309255669615" lon="9.589309841551563"><ele>603.6</ele><time>2026-04-06T13:44:05Z</time></trkpt><trkpt lat="44.228238791048874" lon="9.589250574973478"><ele>600.4</ele><time>2026-04-06T13:44:06Z</time></trkpt><trkpt lat="44.22814681175849" lon="9.589181625806765"><ele>597.2</ele><time>2026-04-06T13:44:07Z</time></trkpt><trkpt lat="44.2280659572021" lon="9.589120695593415"><ele>594.0</ele><time>2026-04-06T13:44:08Z</time></trkpt><trkpt lat="44.22802449160083" lon="9.588989407809528"><ele>594.0</ele><time>2026-04-06T13:44:09Z</time></trkpt><trkpt lat="44.227979951681114" lon="9.588857592291822"><ele>594.0</ele><time>2026-04-06T13:44:10Z</time></trkpt><trkpt lat="44.22794311945869" lon="9.588695953369577"><ele>594.0</ele><time>2026-04-06T13:44:11Z</time></trkpt><trkpt lat="44.22790325695534" lon="9.588548988837692"><ele>594.0</ele><time>2026-04-06T13:44:12Z</time></trkpt><trkpt lat="44.22785889871138" lon="9.588430050642582"><ele>594.0</ele><time>2026-04-06T13:44:13Z</time></trkpt><trkpt lat="44.227790722028175" lon="9.588369172010324"><ele>594.0</ele><time>2026-04-06T13:44:14Z</time></trkpt><trkpt lat="44.22771839427495" lon="9.588358041141554"><ele>594.0</ele><time>2026-04-06T13:44:15Z</time></trkpt><trkpt lat="44.22763198000755" lon="9.588396478682158"><ele>594.0</ele><time>2026-04-06T13:44:16Z</time></trkpt><trkpt lat="44.22754778085659" lon="9.588463434442406"><ele>594.0</ele><time>2026-04-06T13:44:17Z</time></trkpt><trkpt lat="44.22748904665552" lon="9.588571302658355"><ele>594.0</ele><time>2026-04-06T13:44:18Z</time></trkpt><trkpt lat="44.22746750278859" lon="9.588717307636486"><ele>594.0</ele><time>2026-04-06T13:44:19Z</time></trkpt><trkpt lat="44.22747255658065" lon="9.588878681305209"><ele>594.0</ele><time>2026-04-06T13:44:20Z</time></trkpt><trkpt lat="44.22746303227347" lon="9.58902832453794"><ele>594.0</ele><time>2026-04-06T13:44:21Z</time></trkpt><trkpt lat="44.227413724094895" lon="9.589152715504474"><ele>594.0</ele><time>2026-04-06T13:44:22Z</time></trkpt><trkpt lat="44.22734577700827" lon="9.58930544532772"><ele>594.2</ele><time>2026-04-06T13:44:23Z</time></trkpt><trkpt lat="44.22728177120514" lon="9.589463472499654"><ele>594.4</ele><time>2026-04-06T13:44:24Z</time></trkpt><trkpt lat="44.22725329676315" lon="9.589629999647807"><ele>594.6</ele><time>2026-04-06T13:44:25Z</time></trkpt><trkpt lat="44.22723090513573" lon="9.589772451912939"><ele>594.8</ele><time>2026-04-06T13:44:26Z</time></trkpt><trkpt lat="44.227200356243166" lon="9.589880902172782"><ele>595.0</ele><time>2026-04-06T13:44:27Z</time></trkpt><trkpt lat="44.22716555985453" lon="9.589963923222692"><ele>595.0</ele><time>2026-04-06T13:44:28Z</time></trkpt><trkpt lat="44.22706261437175" lon="9.589957784263387"><ele>595.0</ele><time>2026-04-06T13:44:29Z</time></trkpt><trkpt lat="44.22697781956426" lon="9.590002413532188"><ele>595.0</ele><time>2026-04-06T13:44:30Z</time></trkpt><trkpt lat="44.22687528065729" lon="9.590028217617354"><ele>595.0</ele><time>2026-04-06T13:44:31Z</time></trkpt><trkpt lat="44.22677028602172" lon="9.590070012420806"><ele>595.0</ele><time>2026-04-06T13:44:32Z</time></trkpt><trkpt lat="44.22665639972478" lon="9.590108387231963"><ele>595.0</ele><time>2026-04-06T13:44:33Z</time></trkpt><trkpt lat="44.226529807893805" lon="9.590140047366736"><ele>595.0</ele><time>2026-04-06T13:44:34Z</time></trkpt><trkpt lat="44.2264214365678" lon="9.590136147255246"><ele>595.0</ele><time>2026-04-06T13:44:35Z</time></trkpt><trkpt lat="44.226285773287856" lon="9.590083236977922"><ele>595.0</ele><time>2026-04-06T13:44:36Z</time></trkpt><trkpt lat="44.226156971934685" lon="9.590030022970405"><ele>594.0</ele><time>2026-04-06T13:44:37Z</time></trkpt><trkpt lat="44.22602722742963" lon="9.589995453343303"><ele>593.0</ele><time>2026-04-06T13:44:38Z</time></trkpt><trkpt lat="44.22588623690964" lon="9.590039713498813"><ele>592.0</ele><time>2026-04-06T13:44:39Z</time></trkpt><trkpt lat="44.225712482708055" lon="9.59009552756714"><ele>591.75</ele><time>2026-04-06T13:44:40Z</time></trkpt><trkpt lat="44.22558117439657" lon="9.590119280140138"><ele>591.5</ele><time>2026-04-06T13:44:41Z</time></trkpt><trkpt lat="44.22543744281581" lon="9.590112578408531"><ele>591.25</ele><time>2026-04-06T13:44:42Z</time></trkpt><trkpt lat="44.22528611640353" lon="9.590105804970955"><ele>591.0</ele><time>2026-04-06T13:44:43Z</time></trkpt><trkpt lat="44.22514246765725" lon="9.590128286772787"><ele>591.0</ele><time>2026-04-06T13:44:44Z</time></trkpt><trkpt lat="44.22502834868045" lon="9.590166750572864"><ele>591.0</ele><time>2026-04-06T13:44:45Z</time></trkpt><trkpt lat="44.224912431619" lon="9.590241949507538"><ele>591.0</ele><time>2026-04-06T13:44:46Z</time></trkpt><trkpt lat="44.22480222528062" lon="9.590350551386173"><ele>591.0</ele><time>2026-04-06T13:44:47Z</time></trkpt><trkpt lat="44.22470650024383" lon="9.590494714872374"><ele>591.75</ele><time>2026-04-06T13:44:48Z</time></trkpt><trkpt lat="44.22461802715041" lon="9.590645163131386"><ele>592.5</ele><time>2026-04-06T13:44:48.999Z</time></trkpt><trkpt lat="44.22451158149713" lon="9.590756974196525"><ele>593.25</ele><time>2026-04-06T13:44:49.999Z</time></trkpt><trkpt lat="44.224380439055416" lon="9.5907987505651"><ele>594.0</ele><time>2026-04-06T13:44:50.999Z</time></trkpt><trkpt lat="44.224248436033896" lon="9.590869967896602"><ele>594.0</ele><time>2026-04-06T13:44:51.999Z</time></trkpt><trkpt lat="44.22411258651734" lon="9.590921865896442"><ele>594.0</ele><time>2026-04-06T13:44:52.999Z</time></trkpt><trkpt lat="44.22398138398206" lon="9.591015030013715"><ele>594.0</ele><time>2026-04-06T13:44:53.999Z</time></trkpt><trkpt lat="44.22384913764699" lon="9.591095438862112"><ele>594.0</ele><time>2026-04-06T13:44:54.999Z</time></trkpt><trkpt lat="44.22372219808003" lon="9.591185646469295"><ele>594.25</ele><time>2026-04-06T13:44:55.999Z</time></trkpt><trkpt lat="44.22359555911568" lon="9.591274913557928"><ele>594.5</ele><time>2026-04-06T13:44:56.999Z</time></trkpt><trkpt lat="44.22346570045908" lon="9.591337666287528"><ele>594.75</ele><time>2026-04-06T13:44:57.999Z</time></trkpt><trkpt lat="44.22333765009215" lon="9.591372154412577"><ele>595.0</ele><time>2026-04-06T13:44:58.999Z</time></trkpt><trkpt lat="44.22321250883528" lon="9.591344449031737"><ele>595.5</ele><time>2026-04-06T13:44:59.999Z</time></trkpt><trkpt lat="44.223087687003016" lon="9.591342588443396"><ele>596.0</ele><time>2026-04-06T13:45:00.999Z</time></trkpt><trkpt lat="44.222968838287585" lon="9.591267591296234"><ele>596.5</ele><time>2026-04-06T13:45:01.999Z</time></trkpt><trkpt lat="44.222846511718615" lon="9.59121792096414"><ele>597.0</ele><time>2026-04-06T13:45:02.999Z</time></trkpt><trkpt lat="44.22273144403989" lon="9.591170272218797"><ele>597.0</ele><time>2026-04-06T13:45:03.999Z</time></trkpt><trkpt lat="44.222615756522465" lon="9.591176342316968"><ele>597.0</ele><time>2026-04-06T13:45:04.999Z</time></trkpt><trkpt lat="44.22251842929555" lon="9.591209889803672"><ele>597.0</ele><time>2026-04-06T13:45:05.999Z</time></trkpt><trkpt lat="44.22243084512499" lon="9.591215634925183"><ele>597.0</ele><time>2026-04-06T13:45:06.999Z</time></trkpt><trkpt lat="44.2223570301256" lon="9.59116165975019"><ele>597.0</ele><time>2026-04-06T13:45:07.999Z</time></trkpt><trkpt lat="44.22229980603392" lon="9.591073712193975"><ele>600.2</ele><time>2026-04-06T13:45:08.999Z</time></trkpt><trkpt lat="44.22226731872029" lon="9.590958598055565"><ele>603.4000000000001</ele><time>2026-04-06T13:45:09.999Z</time></trkpt><trkpt lat="44.22226904310689" lon="9.590835885192565"><ele>606.5999999999999</ele><time>2026-04-06T13:45:10.999Z</time></trkpt><trkpt lat="44.22227065042731" lon="9.590707249749833"><ele>609.8</ele><time>2026-04-06T13:45:11.999Z</time></trkpt><trkpt lat="44.22226331561638" lon="9.590576582120084"><ele>613.0</ele><time>2026-04-06T13:45:12.999Z</time></trkpt><trkpt lat="44.222241390861626" lon="9.590447207051035"><ele>611.5</ele><time>2026-04-06T13:45:13.999Z</time></trkpt><trkpt lat="44.22218925896077" lon="9.590312082728776"><ele>610.0</ele><time>2026-04-06T13:45:14.999Z</time></trkpt><trkpt lat="44.22211900428405" lon="9.590184903609991"><ele>608.5</ele><time>2026-04-06T13:45:15.999Z</time></trkpt><trkpt lat="44.22203277241944" lon="9.590083624848981"><ele>607.0</ele><time>2026-04-06T13:45:16.999Z</time></trkpt><trkpt lat="44.221941846022496" lon="9.5899646750857"><ele>607.0</ele><time>2026-04-06T13:45:17.999Z</time></trkpt><trkpt lat="44.22185272312577" lon="9.58983877697555"><ele>607.0</ele><time>2026-04-06T13:45:18.999Z</time></trkpt><trkpt lat="44.221762589456645" lon="9.589708512793258"><ele>607.0</ele><time>2026-04-06T13:45:19.999Z</time></trkpt><trkpt lat="44.221652649123264" lon="9.589580890051284"><ele>607.0</ele><time>2026-04-06T13:45:20.999Z</time></trkpt><trkpt lat="44.221570212929336" lon="9.589449147110761"><ele>610.0</ele><time>2026-04-06T13:45:21.999Z</time></trkpt><trkpt lat="44.22146570294207" lon="9.589314762353164"><ele>613.0</ele><time>2026-04-06T13:45:22.999Z</time></trkpt><trkpt lat="44.22138875801513" lon="9.589157047269069"><ele>616.0</ele><time>2026-04-06T13:45:23.999Z</time></trkpt><trkpt lat="44.22130561064193" lon="9.58898772588665"><ele>619.0</ele><time>2026-04-06T13:45:24.999Z</time></trkpt><trkpt lat="44.22124191020514" lon="9.588808745964185"><ele>613.5</ele><time>2026-04-06T13:45:25.999Z</time></trkpt><trkpt lat="44.22117573200108" lon="9.588627675022995"><ele>608.0</ele><time>2026-04-06T13:45:26.999Z</time></trkpt><trkpt lat="44.221091878972814" lon="9.588469970507314"><ele>602.5</ele><time>2026-04-06T13:45:27.999Z</time></trkpt><trkpt lat="44.220999952703636" lon="9.588345401704073"><ele>597.0</ele><time>2026-04-06T13:45:28.999Z</time></trkpt><trkpt lat="44.22091164345355" lon="9.588324522429948"><ele>597.0</ele><time>2026-04-06T13:45:29.999Z</time></trkpt><trkpt lat="44.220798083632786" lon="9.588306138672419"><ele>597.0</ele><time>2026-04-06T13:45:30.999Z</time></trkpt><trkpt lat="44.220676386329025" lon="9.588302469118066"><ele>597.0</ele><time>2026-04-06T13:45:31.999Z</time></trkpt><trkpt lat="44.220553691285176" lon="9.588291863654623"><ele>597.0</ele><time>2026-04-06T13:45:32.999Z</time></trkpt><trkpt lat="44.220435255607946" lon="9.588283569083083"><ele>599.0</ele><time>2026-04-06T13:45:33.999Z</time></trkpt><trkpt lat="44.220315599318354" lon="9.58825114923547"><ele>601.0</ele><time>2026-04-06T13:45:34.999Z</time></trkpt><trkpt lat="44.220186834948414" lon="9.588227032629522"><ele>603.0</ele><time>2026-04-06T13:45:35.999Z</time></trkpt><trkpt lat="44.22006064904691" lon="9.588215153082745"><ele>605.0</ele><time>2026-04-06T13:45:36.999Z</time></trkpt><trkpt lat="44.21992535246633" lon="9.588201280279609"><ele>607.75</ele><time>2026-04-06T13:45:37.999Z</time></trkpt><trkpt lat="44.21979865131817" lon="9.588213871065335"><ele>610.5</ele><time>2026-04-06T13:45:38.999Z</time></trkpt><trkpt lat="44.21967597223646" lon="9.588203307318036"><ele>613.25</ele><time>2026-04-06T13:45:39.999Z</time></trkpt><trkpt lat="44.219555279587716" lon="9.588139804820216"><ele>616.0</ele><time>2026-04-06T13:45:40.999Z</time></trkpt><trkpt lat="44.21947872552738" lon="9.588038576215565"><ele>616.0</ele><time>2026-04-06T13:45:41.999Z</time></trkpt><trkpt lat="44.219398993930334" lon="9.587903655119662"><ele>616.0</ele><time>2026-04-06T13:45:42.999Z</time></trkpt><trkpt lat="44.21930840865782" lon="9.587791223514904"><ele>616.0</ele><time>2026-04-06T13:45:43.999Z</time></trkpt><trkpt lat="44.21921412796019" lon="9.587708558420887"><ele>616.0</ele><time>2026-04-06T13:45:44.999Z</time></trkpt><trkpt lat="44.21910234191097" lon="9.587672297499367"><ele>608.75</ele><time>2026-04-06T13:45:45.999Z</time></trkpt><trkpt lat="44.218980004635405" lon="9.587667561221577"><ele>601.5</ele><time>2026-04-06T13:45:46.999Z</time></trkpt><trkpt lat="44.2188569379352" lon="9.587683532176152"><ele>594.25</ele><time>2026-04-06T13:45:47.999Z</time></trkpt><trkpt lat="44.2187390193093" lon="9.5877136100171"><ele>587.0</ele><time>2026-04-06T13:45:48.999Z</time></trkpt><trkpt lat="44.2186281023979" lon="9.587801053128533"><ele>593.5</ele><time>2026-04-06T13:45:49.999Z</time></trkpt><trkpt lat="44.21852113287109" lon="9.587911606151964"><ele>600.0</ele><time>2026-04-06T13:45:50.999Z</time></trkpt><trkpt lat="44.218407798109574" lon="9.588004679514997"><ele>606.5</ele><time>2026-04-06T13:45:51.999Z</time></trkpt><trkpt lat="44.218281890422276" lon="9.588065024719876"><ele>613.0</ele><time>2026-04-06T13:45:52.999Z</time></trkpt><trkpt lat="44.21814569168137" lon="9.588106086039565"><ele>615.8</ele><time>2026-04-06T13:45:53.999Z</time></trkpt><trkpt lat="44.21801060905206" lon="9.588118924570267"><ele>618.5999999999999</ele><time>2026-04-06T13:45:54.999Z</time></trkpt><trkpt lat="44.21788668454385" lon="9.588135089201995"><ele>621.4000000000001</ele><time>2026-04-06T13:45:55.999Z</time></trkpt><trkpt lat="44.21778512339215" lon="9.588131063231934"><ele>624.2</ele><time>2026-04-06T13:45:56.999Z</time></trkpt><trkpt lat="44.21771977004271" lon="9.588096787627642"><ele>627.0</ele><time>2026-04-06T13:45:57.998Z</time></trkpt><trkpt lat="44.21767296492398" lon="9.588015926671371"><ele>627.0</ele><time>2026-04-06T13:45:58.998Z</time></trkpt><trkpt lat="44.2176637758245" lon="9.587894149293986"><ele>627.0</ele><time>2026-04-06T13:45:59.998Z</time></trkpt><trkpt lat="44.21768619359673" lon="9.587773698245005"><ele>627.0</ele><time>2026-04-06T13:46:00.998Z</time></trkpt><trkpt lat="44.21773359048536" lon="9.587648176471307"><ele>627.0</ele><time>2026-04-06T13:46:01.998Z</time></trkpt><trkpt lat="44.21776806486675" lon="9.587523361577366"><ele>627.0</ele><time>2026-04-06T13:46:02.998Z</time></trkpt><trkpt lat="44.21779685871539" lon="9.58737075989663"><ele>626.75</ele><time>2026-04-06T13:46:03.998Z</time></trkpt><trkpt lat="44.21782990382804" lon="9.587238952976277"><ele>626.5</ele><time>2026-04-06T13:46:04.998Z</time></trkpt><trkpt lat="44.217862273867574" lon="9.587107018868808"><ele>626.25</ele><time>2026-04-06T13:46:06Z</time></trkpt><trkpt lat="44.21787083122189" lon="9.586957300420687"><ele>626.0</ele><time>2026-04-06T13:46:07Z</time></trkpt><trkpt lat="44.217930013715005" lon="9.586770267660222"><ele>624.25</ele><time>2026-04-06T13:46:08Z</time></trkpt><trkpt lat="44.217835549352515" lon="9.586596078214706"><ele>622.5</ele><time>2026-04-06T13:46:09Z</time></trkpt><trkpt lat="44.217760091143106" lon="9.586452159656574"><ele>620.75</ele><time>2026-04-06T13:46:10Z</time></trkpt><trkpt lat="44.21767838898384" lon="9.586273233724421"><ele>619.0</ele><time>2026-04-06T13:46:11Z</time></trkpt><trkpt lat="44.21761000229881" lon="9.586094488264482"><ele>614.75</ele><time>2026-04-06T13:46:12Z</time></trkpt><trkpt lat="44.21754635529179" lon="9.585910365493818"><ele>610.5</ele><time>2026-04-06T13:46:13Z</time></trkpt><trkpt lat="44.21749602291968" lon="9.585732082375559"><ele>606.25</ele><time>2026-04-06T13:46:14Z</time></trkpt><trkpt lat="44.21744873155007" lon="9.585584956831012"><ele>602.0</ele><time>2026-04-06T13:46:15Z</time></trkpt><trkpt lat="44.21739945043922" lon="9.585476697667799"><ele>607.75</ele><time>2026-04-06T13:46:16Z</time></trkpt><trkpt lat="44.217298772050086" lon="9.585412612968405"><ele>613.5</ele><time>2026-04-06T13:46:17Z</time></trkpt><trkpt lat="44.21719976845037" lon="9.585406109171918"><ele>619.25</ele><time>2026-04-06T13:46:18Z</time></trkpt><trkpt lat="44.21706992794491" lon="9.585405065647885"><ele>625.0</ele><time>2026-04-06T13:46:19Z</time></trkpt><trkpt lat="44.216944368081826" lon="9.585382814422292"><ele>619.5</ele><time>2026-04-06T13:46:20Z</time></trkpt><trkpt lat="44.216822938050484" lon="9.585304712723753"><ele>614.0</ele><time>2026-04-06T13:46:21Z</time></trkpt><trkpt lat="44.21669429465434" lon="9.58525446504148"><ele>608.5</ele><time>2026-04-06T13:46:22Z</time></trkpt><trkpt lat="44.216563693196136" lon="9.58520762334477"><ele>603.0</ele><time>2026-04-06T13:46:23Z</time></trkpt><trkpt lat="44.21643726696209" lon="9.585259696417735"><ele>603.0</ele><time>2026-04-06T13:46:24Z</time></trkpt><trkpt lat="44.21630290187546" lon="9.58530543775527"><ele>603.0</ele><time>2026-04-06T13:46:25Z</time></trkpt><trkpt lat="44.21617401334985" lon="9.58533912780323"><ele>603.0</ele><time>2026-04-06T13:46:26Z</time></trkpt><trkpt lat="44.21604641713454" lon="9.585395465046377"><ele>603.0</ele><time>2026-04-06T13:46:27Z</time></trkpt><trkpt lat="44.21594107898791" lon="9.585447693006556"><ele>603.0</ele><time>2026-04-06T13:46:28Z</time></trkpt><trkpt lat="44.21585078854858" lon="9.585502305299455"><ele>603.0</ele><time>2026-04-06T13:46:29Z</time></trkpt><trkpt lat="44.21578336279651" lon="9.585523311478212"><ele>603.0</ele><time>2026-04-06T13:46:30Z</time></trkpt><trkpt lat="44.21571737812395" lon="9.58533076340849"><ele>603.0</ele><time>2026-04-06T13:46:32Z</time></trkpt><trkpt lat="44.21566100621324" lon="9.585230699301166"><ele>603.0</ele><time>2026-04-06T13:46:33Z</time></trkpt><trkpt lat="44.21560695549086" lon="9.585115508358236"><ele>611.0</ele><time>2026-04-06T13:46:34Z</time></trkpt><trkpt lat="44.21554205408999" lon="9.585003173935256"><ele>619.0</ele><time>2026-04-06T13:46:35Z</time></trkpt><trkpt lat="44.215479693819944" lon="9.584870322005413"><ele>627.0</ele><time>2026-04-06T13:46:36Z</time></trkpt><trkpt lat="44.21545687430615" lon="9.584709094940562"><ele>635.0</ele><time>2026-04-06T13:46:37Z</time></trkpt><trkpt lat="44.21542439878685" lon="9.584548896092432"><ele>628.75</ele><time>2026-04-06T13:46:38Z</time></trkpt><trkpt lat="44.215372414079766" lon="9.584396003993994"><ele>622.5</ele><time>2026-04-06T13:46:39Z</time></trkpt><trkpt lat="44.21529919024879" lon="9.584287432466214"><ele>616.25</ele><time>2026-04-06T13:46:40Z</time></trkpt><trkpt lat="44.21519878699676" lon="9.584201673080848"><ele>610.0</ele><time>2026-04-06T13:46:41Z</time></trkpt><trkpt lat="44.215076803147724" lon="9.584156405510523"><ele>610.0</ele><time>2026-04-06T13:46:42Z</time></trkpt><trkpt lat="44.214945041849" lon="9.584097043531434"><ele>610.0</ele><time>2026-04-06T13:46:43Z</time></trkpt><trkpt lat="44.21483237399791" lon="9.584037600429049"><ele>610.0</ele><time>2026-04-06T13:46:44Z</time></trkpt><trkpt lat="44.21471900778368" lon="9.583973294667421"><ele>610.0</ele><time>2026-04-06T13:46:45Z</time></trkpt><trkpt lat="44.21459682039673" lon="9.583910738672955"><ele>607.75</ele><time>2026-04-06T13:46:46Z</time></trkpt><trkpt lat="44.2144727317557" lon="9.583833729582263"><ele>605.5</ele><time>2026-04-06T13:46:47Z</time></trkpt><trkpt lat="44.21435057795167" lon="9.583758956532828"><ele>603.25</ele><time>2026-04-06T13:46:47.999Z</time></trkpt><trkpt lat="44.21421977713696" lon="9.583675476992315"><ele>601.0</ele><time>2026-04-06T13:46:48.999Z</time></trkpt><trkpt lat="44.21409718777749" lon="9.583612863679992"><ele>601.0</ele><time>2026-04-06T13:46:49.999Z</time></trkpt><trkpt lat="44.21398998745985" lon="9.583563590782466"><ele>601.0</ele><time>2026-04-06T13:46:50.999Z</time></trkpt><trkpt lat="44.21388990168915" lon="9.58354519238148"><ele>601.0</ele><time>2026-04-06T13:46:51.999Z</time></trkpt><trkpt lat="44.21379248142803" lon="9.58359536407339"><ele>601.0</ele><time>2026-04-06T13:46:52.999Z</time></trkpt><trkpt lat="44.21369382735912" lon="9.583693349857489"><ele>601.0</ele><time>2026-04-06T13:46:53.999Z</time></trkpt><trkpt lat="44.21360374791079" lon="9.58380201826949"><ele>604.75</ele><time>2026-04-06T13:46:54.999Z</time></trkpt><trkpt lat="44.21350063310674" lon="9.583914884030174"><ele>608.5</ele><time>2026-04-06T13:46:55.999Z</time></trkpt><trkpt lat="44.21341975091151" lon="9.584055950767711"><ele>612.25</ele><time>2026-04-06T13:46:56.999Z</time></trkpt><trkpt lat="44.21331997631792" lon="9.584214029258913"><ele>616.0</ele><time>2026-04-06T13:46:57.999Z</time></trkpt><trkpt lat="44.21326425904019" lon="9.584343801911313"><ele>616.0</ele><time>2026-04-06T13:46:58.999Z</time></trkpt><trkpt lat="44.21319726647706" lon="9.584433999618733"><ele>616.0</ele><time>2026-04-06T13:46:59.999Z</time></trkpt><trkpt lat="44.213131597789285" lon="9.584489421611769"><ele>616.0</ele><time>2026-04-06T13:47:00.999Z</time></trkpt><trkpt lat="44.21305317484448" lon="9.584471567339179"><ele>616.0</ele><time>2026-04-06T13:47:01.999Z</time></trkpt><trkpt lat="44.21298267227702" lon="9.58439950587469"><ele>616.0</ele><time>2026-04-06T13:47:02.999Z</time></trkpt><trkpt lat="44.21293390467705" lon="9.584285276445836"><ele>616.0</ele><time>2026-04-06T13:47:03.999Z</time></trkpt><trkpt lat="44.212878617256024" lon="9.584185706371747"><ele>617.6</ele><time>2026-04-06T13:47:04.999Z</time></trkpt><trkpt lat="44.21277929767685" lon="9.58417678142921"><ele>619.2</ele><time>2026-04-06T13:47:05.999Z</time></trkpt><trkpt lat="44.21268662661355" lon="9.584251687750088"><ele>620.8</ele><time>2026-04-06T13:47:06.999Z</time></trkpt><trkpt lat="44.21260622958266" lon="9.584378219521724"><ele>622.4</ele><time>2026-04-06T13:47:07.999Z</time></trkpt><trkpt lat="44.2125400639745" lon="9.584498516639691"><ele>624.0</ele><time>2026-04-06T13:47:08.999Z</time></trkpt><trkpt lat="44.21248423065179" lon="9.584630246629446"><ele>624.0</ele><time>2026-04-06T13:47:09.999Z</time></trkpt><trkpt lat="44.212400164219936" lon="9.584743370177648"><ele>624.0</ele><time>2026-04-06T13:47:10.999Z</time></trkpt><trkpt lat="44.212330626987765" lon="9.58487600493593"><ele>624.0</ele><time>2026-04-06T13:47:11.999Z</time></trkpt><trkpt lat="44.2122778407394" lon="9.585028336127476"><ele>624.0</ele><time>2026-04-06T13:47:12.999Z</time></trkpt><trkpt lat="44.21221509154692" lon="9.585177125466839"><ele>622.25</ele><time>2026-04-06T13:47:13.999Z</time></trkpt><trkpt lat="44.21214695700458" lon="9.585290302786438"><ele>620.5</ele><time>2026-04-06T13:47:14.999Z</time></trkpt><trkpt lat="44.21208472973649" lon="9.585454893847766"><ele>618.75</ele><time>2026-04-06T13:47:15.999Z</time></trkpt><trkpt lat="44.21200788508583" lon="9.585586235040385"><ele>617.0</ele><time>2026-04-06T13:47:16.999Z</time></trkpt><trkpt lat="44.21193673751686" lon="9.585779114287789"><ele>617.0</ele><time>2026-04-06T13:47:17.999Z</time></trkpt><trkpt lat="44.21186107641534" lon="9.58596189190534"><ele>617.0</ele><time>2026-04-06T13:47:18.999Z</time></trkpt><trkpt lat="44.21179366879071" lon="9.586111445624496"><ele>617.0</ele><time>2026-04-06T13:47:19.999Z</time></trkpt><trkpt lat="44.21175076564745" lon="9.586231570398812"><ele>617.0</ele><time>2026-04-06T13:47:20.999Z</time></trkpt><trkpt lat="44.21174790429695" lon="9.58635468252524"><ele>617.0</ele><time>2026-04-06T13:47:21.999Z</time></trkpt><trkpt lat="44.2117903330752" lon="9.586472343442727"><ele>617.0</ele><time>2026-04-06T13:47:22.999Z</time></trkpt><trkpt lat="44.211847824542716" lon="9.586599875414244"><ele>617.0</ele><time>2026-04-06T13:47:23.999Z</time></trkpt><trkpt lat="44.211918273342526" lon="9.586734288413464"><ele>617.0</ele><time>2026-04-06T13:47:24.999Z</time></trkpt><trkpt lat="44.211977287766864" lon="9.586883621948402"><ele>617.0</ele><time>2026-04-06T13:47:25.999Z</time></trkpt><trkpt lat="44.21203981446341" lon="9.587039440983041"><ele>617.0</ele><time>2026-04-06T13:47:26.999Z</time></trkpt><trkpt lat="44.21209635905669" lon="9.58717775255387"><ele>617.0</ele><time>2026-04-06T13:47:27.999Z</time></trkpt><trkpt lat="44.212129920429696" lon="9.587282344376439"><ele>617.0</ele><time>2026-04-06T13:47:28.999Z</time></trkpt><trkpt lat="44.212156019067834" lon="9.587366169749092"><ele>617.0</ele><time>2026-04-06T13:47:29.999Z</time></trkpt><trkpt lat="44.212110315401375" lon="9.587456220037105"><ele>617.0</ele><time>2026-04-06T13:47:30.999Z</time></trkpt><trkpt lat="44.21202551867751" lon="9.58750364626735"><ele>617.0</ele><time>2026-04-06T13:47:31.999Z</time></trkpt><trkpt lat="44.21193738388777" lon="9.587499291076062"><ele>617.0</ele><time>2026-04-06T13:47:32.999Z</time></trkpt><trkpt lat="44.21183644988681" lon="9.587503196874842"><ele>617.0</ele><time>2026-04-06T13:47:33.999Z</time></trkpt><trkpt lat="44.211743134250305" lon="9.587565694063409"><ele>617.0</ele><time>2026-04-06T13:47:34.999Z</time></trkpt><trkpt lat="44.211669702699886" lon="9.58769328685101"><ele>617.0</ele><time>2026-04-06T13:47:35.999Z</time></trkpt><trkpt lat="44.21160939272325" lon="9.587834588212711"><ele>617.0</ele><time>2026-04-06T13:47:36.999Z</time></trkpt><trkpt lat="44.21151447075945" lon="9.587891547943475"><ele>618.0</ele><time>2026-04-06T13:47:37.999Z</time></trkpt><trkpt lat="44.211408248472075" lon="9.587913403251372"><ele>619.0</ele><time>2026-04-06T13:47:38.999Z</time></trkpt><trkpt lat="44.21130292461811" lon="9.587927011631646"><ele>620.0</ele><time>2026-04-06T13:47:39.999Z</time></trkpt><trkpt lat="44.21120169485443" lon="9.587941590767425"><ele>621.0</ele><time>2026-04-06T13:47:40.999Z</time></trkpt><trkpt lat="44.21105729466429" lon="9.587967117115276"><ele>621.0</ele><time>2026-04-06T13:47:41.999Z</time></trkpt><trkpt lat="44.21093241262346" lon="9.587933657655936"><ele>621.0</ele><time>2026-04-06T13:47:42.999Z</time></trkpt><trkpt lat="44.210804435412335" lon="9.587870491409964"><ele>621.0</ele><time>2026-04-06T13:47:43.999Z</time></trkpt><trkpt lat="44.21070064018013" lon="9.587782497554494"><ele>621.0</ele><time>2026-04-06T13:47:44.999Z</time></trkpt><trkpt lat="44.21062701608635" lon="9.587658611753605"><ele>619.0</ele><time>2026-04-06T13:47:45.999Z</time></trkpt><trkpt lat="44.21058120632584" lon="9.587522510556582"><ele>617.0</ele><time>2026-04-06T13:47:46.999Z</time></trkpt><trkpt lat="44.21052886709732" lon="9.587417924434883"><ele>615.0</ele><time>2026-04-06T13:47:47.999Z</time></trkpt><trkpt lat="44.210461592008386" lon="9.587369391890974"><ele>613.0</ele><time>2026-04-06T13:47:48.999Z</time></trkpt><trkpt lat="44.21035300980416" lon="9.58738672928323"><ele>611.0</ele><time>2026-04-06T13:47:49.999Z</time></trkpt><trkpt lat="44.21025614856154" lon="9.587455434790213"><ele>611.0</ele><time>2026-04-06T13:47:50.999Z</time></trkpt><trkpt lat="44.21016381493825" lon="9.587543476830566"><ele>611.0</ele><time>2026-04-06T13:47:51.999Z</time></trkpt><trkpt lat="44.21006098117246" lon="9.587618542933315"><ele>611.0</ele><time>2026-04-06T13:47:52.999Z</time></trkpt><trkpt lat="44.20996543242197" lon="9.587702113114117"><ele>611.0</ele><time>2026-04-06T13:47:53.999Z</time></trkpt><trkpt lat="44.20987710178434" lon="9.587822335783578"><ele>608.5</ele><time>2026-04-06T13:47:54.999Z</time></trkpt><trkpt lat="44.20981001076742" lon="9.587971943271343"><ele>606.0</ele><time>2026-04-06T13:47:55.999Z</time></trkpt><trkpt lat="44.20976394884395" lon="9.58814376947644"><ele>603.5</ele><time>2026-04-06T13:47:56.999Z</time></trkpt><trkpt lat="44.2097366945774" lon="9.58830424592368"><ele>601.0</ele><time>2026-04-06T13:47:57.999Z</time></trkpt><trkpt lat="44.20968996034226" lon="9.588427120006438"><ele>601.0</ele><time>2026-04-06T13:47:58.999Z</time></trkpt><trkpt lat="44.20965639478624" lon="9.588513294562846"><ele>601.0</ele><time>2026-04-06T13:47:59.999Z</time></trkpt><trkpt lat="44.209606787952495" lon="9.588575673515045"><ele>601.0</ele><time>2026-04-06T13:48:00.998Z</time></trkpt><trkpt lat="44.20953695523534" lon="9.588581185806987"><ele>601.0</ele><time>2026-04-06T13:48:01.998Z</time></trkpt><trkpt lat="44.209439377502385" lon="9.588519521977757"><ele>601.0</ele><time>2026-04-06T13:48:02.998Z</time></trkpt><trkpt lat="44.20934861796437" lon="9.5884401159811"><ele>601.0</ele><time>2026-04-06T13:48:03.998Z</time></trkpt><trkpt lat="44.209251723133136" lon="9.588374182847138"><ele>601.0</ele><time>2026-04-06T13:48:04.998Z</time></trkpt><trkpt lat="44.209155924819605" lon="9.588351639485621"><ele>601.0</ele><time>2026-04-06T13:48:05.998Z</time></trkpt><trkpt lat="44.209081350465375" lon="9.588397221383941"><ele>601.0</ele><time>2026-04-06T13:48:06.998Z</time></trkpt><trkpt lat="44.209020930149464" lon="9.58850860971216"><ele>601.0</ele><time>2026-04-06T13:48:07.998Z</time></trkpt><trkpt lat="44.208997281209975" lon="9.588668311153592"><ele>601.0</ele><time>2026-04-06T13:48:08.998Z</time></trkpt><trkpt lat="44.20900635905652" lon="9.588843239140289"><ele>600.25</ele><time>2026-04-06T13:48:09.998Z</time></trkpt><trkpt lat="44.20901942048706" lon="9.58899755238777"><ele>599.5</ele><time>2026-04-06T13:48:10.998Z</time></trkpt><trkpt lat="44.20907645604928" lon="9.589140215721425"><ele>598.75</ele><time>2026-04-06T13:48:12Z</time></trkpt><trkpt lat="44.20917379743618" lon="9.589229280411875"><ele>598.0</ele><time>2026-04-06T13:48:13Z</time></trkpt><trkpt lat="44.20928542421149" lon="9.589320906375358"><ele>598.0</ele><time>2026-04-06T13:48:14Z</time></trkpt><trkpt lat="44.20935713169256" lon="9.589469116380162"><ele>598.0</ele><time>2026-04-06T13:48:15Z</time></trkpt><trkpt lat="44.20938462549573" lon="9.589634213071593"><ele>598.0</ele><time>2026-04-06T13:48:16Z</time></trkpt><trkpt lat="44.20943096425189" lon="9.589831147600485"><ele>598.0</ele><time>2026-04-06T13:48:17Z</time></trkpt><trkpt lat="44.20948037213566" lon="9.590015244416746"><ele>595.25</ele><time>2026-04-06T13:48:18Z</time></trkpt><trkpt lat="44.209542870977174" lon="9.590189212860718"><ele>592.5</ele><time>2026-04-06T13:48:19Z</time></trkpt><trkpt lat="44.209647437064646" lon="9.59033871754843"><ele>589.75</ele><time>2026-04-06T13:48:20Z</time></trkpt><trkpt lat="44.20974078761357" lon="9.59047679160202"><ele>587.0</ele><time>2026-04-06T13:48:21Z</time></trkpt><trkpt lat="44.20982079664005" lon="9.590609423473522"><ele>586.6666666666666</ele><time>2026-04-06T13:48:22Z</time></trkpt><trkpt lat="44.20987774909969" lon="9.590716809970129"><ele>586.3333333333333</ele><time>2026-04-06T13:48:23Z</time></trkpt><trkpt lat="44.20992165463763" lon="9.590816223292233"><ele>586.0</ele><time>2026-04-06T13:48:24Z</time></trkpt><trkpt lat="44.20992818254711" lon="9.590921621009326"><ele>585.6666666666666</ele><time>2026-04-06T13:48:26Z</time></trkpt><trkpt lat="44.209859443299216" lon="9.590967080019185"><ele>585.3333333333334</ele><time>2026-04-06T13:48:28Z</time></trkpt><trkpt lat="44.20979937217252" lon="9.59092014327628"><ele>585.0</ele><time>2026-04-06T13:48:29Z</time></trkpt><trkpt lat="44.20974229136827" lon="9.59085499387277"><ele>585.0</ele><time>2026-04-06T13:48:30Z</time></trkpt><trkpt lat="44.20965373126854" lon="9.590765337291113"><ele>585.0</ele><time>2026-04-06T13:48:31Z</time></trkpt><trkpt lat="44.209570253198535" lon="9.590717588639736"><ele>585.0</ele><time>2026-04-06T13:48:32Z</time></trkpt><trkpt lat="44.209482539764664" lon="9.590701945061035"><ele>585.0</ele><time>2026-04-06T13:48:33Z</time></trkpt><trkpt lat="44.20940637549014" lon="9.59074587852047"><ele>585.0</ele><time>2026-04-06T13:48:34Z</time></trkpt><trkpt lat="44.209354989282836" lon="9.590915294000627"><ele>585.0</ele><time>2026-04-06T13:48:35Z</time></trkpt><trkpt lat="44.20935716996383" lon="9.591084007218301"><ele>585.0</ele><time>2026-04-06T13:48:36Z</time></trkpt><trkpt lat="44.20933137061985" lon="9.591194821035685"><ele>585.0</ele><time>2026-04-06T13:48:37Z</time></trkpt><trkpt lat="44.20928513197301" lon="9.591282951274355"><ele>585.0</ele><time>2026-04-06T13:48:38Z</time></trkpt><trkpt lat="44.209186893835515" lon="9.591278330700948"><ele>585.0</ele><time>2026-04-06T13:48:39Z</time></trkpt><trkpt lat="44.20908450589107" lon="9.59130435703144"><ele>586.0</ele><time>2026-04-06T13:48:40Z</time></trkpt><trkpt lat="44.2089964076262" lon="9.59138456470756"><ele>587.0</ele><time>2026-04-06T13:48:41Z</time></trkpt><trkpt lat="44.208928052744746" lon="9.591518858919661"><ele>588.0</ele><time>2026-04-06T13:48:42Z</time></trkpt><trkpt lat="44.208934570716345" lon="9.591704794958458"><ele>589.0</ele><time>2026-04-06T13:48:43Z</time></trkpt><trkpt lat="44.20898565851812" lon="9.591827979899348"><ele>589.0</ele><time>2026-04-06T13:48:44Z</time></trkpt><trkpt lat="44.209022200209645" lon="9.59197672723639"><ele>589.0</ele><time>2026-04-06T13:48:46Z</time></trkpt><trkpt lat="44.20895960462668" lon="9.592033877482455"><ele>589.0</ele><time>2026-04-06T13:48:47Z</time></trkpt><trkpt lat="44.20887817006376" lon="9.592051033208913"><ele>589.0</ele><time>2026-04-06T13:48:48Z</time></trkpt><trkpt lat="44.20878876183297" lon="9.59203162480021"><ele>589.0</ele><time>2026-04-06T13:48:49Z</time></trkpt><trkpt lat="44.20869924628383" lon="9.591998722157955"><ele>589.0</ele><time>2026-04-06T13:48:50Z</time></trkpt><trkpt lat="44.20859209809077" lon="9.591914700918728"><ele>589.0</ele><time>2026-04-06T13:48:51Z</time></trkpt><trkpt lat="44.20852094318044" lon="9.591792240162876"><ele>589.0</ele><time>2026-04-06T13:48:52Z</time></trkpt><trkpt lat="44.20849029714558" lon="9.591645264260398"><ele>589.0</ele><time>2026-04-06T13:48:53Z</time></trkpt><trkpt lat="44.20846158770939" lon="9.59149034061367"><ele>589.0</ele><time>2026-04-06T13:48:54Z</time></trkpt><trkpt lat="44.20840063785584" lon="9.591350303216938"><ele>589.0</ele><time>2026-04-06T13:48:55Z</time></trkpt><trkpt lat="44.20830627903191" lon="9.591242653463784"><ele>589.0</ele><time>2026-04-06T13:48:56Z</time></trkpt><trkpt lat="44.208191086476425" lon="9.59116414535789"><ele>589.0</ele><time>2026-04-06T13:48:57Z</time></trkpt><trkpt lat="44.20806790212624" lon="9.591104503068069"><ele>586.5</ele><time>2026-04-06T13:48:58Z</time></trkpt><trkpt lat="44.20793617983014" lon="9.591033952881189"><ele>584.0</ele><time>2026-04-06T13:48:59Z</time></trkpt><trkpt lat="44.20781201227087" lon="9.59098029387896"><ele>581.5</ele><time>2026-04-06T13:49:00Z</time></trkpt><trkpt lat="44.207705642242665" lon="9.590907343134173"><ele>579.0</ele><time>2026-04-06T13:49:01Z</time></trkpt><trkpt lat="44.207567933306066" lon="9.590952692029093"><ele>579.0</ele><time>2026-04-06T13:49:02Z</time></trkpt><trkpt lat="44.20742366846905" lon="9.59099378551948"><ele>579.0</ele><time>2026-04-06T13:49:03Z</time></trkpt><trkpt lat="44.20728091962156" lon="9.591041221676134"><ele>579.0</ele><time>2026-04-06T13:49:04Z</time></trkpt><trkpt lat="44.20714664918892" lon="9.591063639791859"><ele>579.0</ele><time>2026-04-06T13:49:05Z</time></trkpt><trkpt lat="44.20700418617805" lon="9.591052793071208"><ele>577.5</ele><time>2026-04-06T13:49:06Z</time></trkpt><trkpt lat="44.20686474277741" lon="9.591006721890901"><ele>576.0</ele><time>2026-04-06T13:49:06.999Z</time></trkpt><trkpt lat="44.20671796231236" lon="9.590944969161358"><ele>574.5</ele><time>2026-04-06T13:49:07.999Z</time></trkpt><trkpt lat="44.206575276076165" lon="9.590889867388979"><ele>573.0</ele><time>2026-04-06T13:49:08.999Z</time></trkpt><trkpt lat="44.20643227064496" lon="9.59085713546975"><ele>570.0</ele><time>2026-04-06T13:49:09.999Z</time></trkpt><trkpt lat="44.206297114665716" lon="9.590855822646564"><ele>567.0</ele><time>2026-04-06T13:49:10.999Z</time></trkpt><trkpt lat="44.20617796748279" lon="9.590893587787031"><ele>564.0</ele><time>2026-04-06T13:49:11.999Z</time></trkpt><trkpt lat="44.20605748825061" lon="9.59097019347243"><ele>561.0</ele><time>2026-04-06T13:49:12.999Z</time></trkpt><trkpt lat="44.20593648551739" lon="9.591080538442142"><ele>562.5</ele><time>2026-04-06T13:49:13.999Z</time></trkpt><trkpt lat="44.20583632428924" lon="9.591219435991666"><ele>564.0</ele><time>2026-04-06T13:49:14.999Z</time></trkpt><trkpt lat="44.205744365008236" lon="9.591379525665936"><ele>565.5</ele><time>2026-04-06T13:49:15.999Z</time></trkpt><trkpt lat="44.20567218640804" lon="9.591558620332812"><ele>567.0</ele><time>2026-04-06T13:49:16.999Z</time></trkpt><trkpt lat="44.20562272338676" lon="9.591730938885041"><ele>564.6</ele><time>2026-04-06T13:49:17.999Z</time></trkpt><trkpt lat="44.20560690618428" lon="9.591886404447994"><ele>562.2</ele><time>2026-04-06T13:49:18.999Z</time></trkpt><trkpt lat="44.205617693106184" lon="9.592016386678951"><ele>559.8</ele><time>2026-04-06T13:49:19.999Z</time></trkpt><trkpt lat="44.20559628561988" lon="9.592142225188402"><ele>557.4</ele><time>2026-04-06T13:49:21.999Z</time></trkpt><trkpt lat="44.205520330054554" lon="9.592141601233996"><ele>555.0</ele><time>2026-04-06T13:49:23.999Z</time></trkpt><trkpt lat="44.20548444005935" lon="9.591940020874715"><ele>554.4</ele><time>2026-04-06T13:49:25.999Z</time></trkpt><trkpt lat="44.20546682217156" lon="9.591807429857077"><ele>553.8</ele><time>2026-04-06T13:49:26.999Z</time></trkpt><trkpt lat="44.20544207121517" lon="9.591663081841602"><ele>553.2</ele><time>2026-04-06T13:49:27.999Z</time></trkpt><trkpt lat="44.20542548016206" lon="9.591501296570621"><ele>552.6</ele><time>2026-04-06T13:49:28.999Z</time></trkpt><trkpt lat="44.20544665931294" lon="9.591353658863717"><ele>552.0</ele><time>2026-04-06T13:49:29.999Z</time></trkpt><trkpt lat="44.20549117438909" lon="9.591214017816512"><ele>551.0</ele><time>2026-04-06T13:49:30.999Z</time></trkpt><trkpt lat="44.205527640619756" lon="9.591088904188016"><ele>550.0</ele><time>2026-04-06T13:49:31.999Z</time></trkpt><trkpt lat="44.20554267181022" lon="9.591000333850497"><ele>549.0</ele><time>2026-04-06T13:49:32.999Z</time></trkpt><trkpt lat="44.20548398473605" lon="9.590863525049445"><ele>548.0</ele><time>2026-04-06T13:49:34.999Z</time></trkpt><trkpt lat="44.2054190259535" lon="9.590867819009764"><ele>547.0</ele><time>2026-04-06T13:49:35.999Z</time></trkpt><trkpt lat="44.205350125809694" lon="9.590938527242914"><ele>546.0</ele><time>2026-04-06T13:49:36.999Z</time></trkpt><trkpt lat="44.205297810773025" lon="9.59105541790614"><ele>546.0</ele><time>2026-04-06T13:49:37.999Z</time></trkpt><trkpt lat="44.205226935287165" lon="9.591161377554924"><ele>546.0</ele><time>2026-04-06T13:49:38.999Z</time></trkpt><trkpt lat="44.20512232187375" lon="9.591230973963853"><ele>546.0</ele><time>2026-04-06T13:49:39.999Z</time></trkpt><trkpt lat="44.205005318767704" lon="9.59124028162803"><ele>546.0</ele><time>2026-04-06T13:49:40.999Z</time></trkpt><trkpt lat="44.20488245049834" lon="9.591228986619168"><ele>543.25</ele><time>2026-04-06T13:49:41.999Z</time></trkpt><trkpt lat="44.20476526725902" lon="9.591273391369214"><ele>540.5</ele><time>2026-04-06T13:49:42.999Z</time></trkpt><trkpt lat="44.20466740387937" lon="9.591396878592452"><ele>537.75</ele><time>2026-04-06T13:49:43.999Z</time></trkpt><trkpt lat="44.204594624407605" lon="9.591546644148167"><ele>535.0</ele><time>2026-04-06T13:49:44.999Z</time></trkpt><trkpt lat="44.20455024450197" lon="9.591674585071909"><ele>535.0</ele><time>2026-04-06T13:49:45.999Z</time></trkpt><trkpt lat="44.204551237445266" lon="9.591815979035589"><ele>535.0</ele><time>2026-04-06T13:49:46.999Z</time></trkpt><trkpt lat="44.204611830769345" lon="9.59195391462821"><ele>535.0</ele><time>2026-04-06T13:49:47.999Z</time></trkpt><trkpt lat="44.20465758955765" lon="9.592063630203622"><ele>535.0</ele><time>2026-04-06T13:49:48.999Z</time></trkpt><trkpt lat="44.20463229510831" lon="9.592232259789021"><ele>535.0</ele><time>2026-04-06T13:49:50.999Z</time></trkpt><trkpt lat="44.204550933092136" lon="9.592282586132916"><ele>537.0</ele><time>2026-04-06T13:49:51.999Z</time></trkpt><trkpt lat="44.20446044975891" lon="9.592247068878308"><ele>539.0</ele><time>2026-04-06T13:49:52.999Z</time></trkpt><trkpt lat="44.20436957202235" lon="9.592171792305118"><ele>541.0</ele><time>2026-04-06T13:49:53.999Z</time></trkpt><trkpt lat="44.20427175761851" lon="9.592133671323408"><ele>543.0</ele><time>2026-04-06T13:49:54.999Z</time></trkpt><trkpt lat="44.20415332837432" lon="9.592144686398877"><ele>545.0</ele><time>2026-04-06T13:49:55.999Z</time></trkpt><trkpt lat="44.204035128677674" lon="9.592209159080046"><ele>539.5</ele><time>2026-04-06T13:49:56.999Z</time></trkpt><trkpt lat="44.20392753852988" lon="9.592328566842141"><ele>534.0</ele><time>2026-04-06T13:49:57.999Z</time></trkpt><trkpt lat="44.20382732612542" lon="9.592476027801851"><ele>528.5</ele><time>2026-04-06T13:49:58.999Z</time></trkpt><trkpt lat="44.203744760319665" lon="9.592568904817238"><ele>523.0</ele><time>2026-04-06T13:49:59.999Z</time></trkpt><trkpt lat="44.20368660153452" lon="9.592652109233713"><ele>523.0</ele><time>2026-04-06T13:50:00.999Z</time></trkpt><trkpt lat="44.20363893882828" lon="9.59276373847979"><ele>523.0</ele><time>2026-04-06T13:50:01.999Z</time></trkpt><trkpt lat="44.20365963370677" lon="9.592916119693294"><ele>523.0</ele><time>2026-04-06T13:50:02.999Z</time></trkpt><trkpt lat="44.20371534344964" lon="9.593042566212102"><ele>523.0</ele><time>2026-04-06T13:50:03.999Z</time></trkpt><trkpt lat="44.20380541167465" lon="9.59313227544241"><ele>523.0</ele><time>2026-04-06T13:50:04.999Z</time></trkpt><trkpt lat="44.20391581315534" lon="9.59320307666823"><ele>522.6</ele><time>2026-04-06T13:50:05.999Z</time></trkpt><trkpt lat="44.20400898469068" lon="9.593273349612534"><ele>522.1999999999999</ele><time>2026-04-06T13:50:06.999Z</time></trkpt><trkpt lat="44.20407504971335" lon="9.593331947787188"><ele>521.8</ele><time>2026-04-06T13:50:07.999Z</time></trkpt><trkpt lat="44.20412395254092" lon="9.593469899336627"><ele>521.4</ele><time>2026-04-06T13:50:09.999Z</time></trkpt><trkpt lat="44.20406582348412" lon="9.593561299750213"><ele>521.0</ele><time>2026-04-06T13:50:10.999Z</time></trkpt><trkpt lat="44.203963296344234" lon="9.593602853512836"><ele>521.0</ele><time>2026-04-06T13:50:11.999Z</time></trkpt><trkpt lat="44.20386721852525" lon="9.593625401961173"><ele>521.0</ele><time>2026-04-06T13:50:12.999Z</time></trkpt><trkpt lat="44.203755576094395" lon="9.593659707069504"><ele>521.0</ele><time>2026-04-06T13:50:13.999Z</time></trkpt><trkpt lat="44.20364113128957" lon="9.593709742730328"><ele>521.0</ele><time>2026-04-06T13:50:14.999Z</time></trkpt><trkpt lat="44.20351711484066" lon="9.593764431395162"><ele>520.6</ele><time>2026-04-06T13:50:15.999Z</time></trkpt><trkpt lat="44.20340706203465" lon="9.593811403826903"><ele>520.2</ele><time>2026-04-06T13:50:16.998Z</time></trkpt><trkpt lat="44.20333047368046" lon="9.593848498016612"><ele>519.8</ele><time>2026-04-06T13:50:18Z</time></trkpt><trkpt lat="44.20329612527883" lon="9.594024643445087"><ele>519.4</ele><time>2026-04-06T13:50:20Z</time></trkpt><trkpt lat="44.20333174679877" lon="9.594138744072268"><ele>519.0</ele><time>2026-04-06T13:50:21Z</time></trkpt><trkpt lat="44.203426107243175" lon="9.59424563569411"><ele>519.0</ele><time>2026-04-06T13:50:22Z</time></trkpt><trkpt lat="44.2034958452826" lon="9.594362753991891"><ele>519.0</ele><time>2026-04-06T13:50:23Z</time></trkpt><trkpt lat="44.20356620774075" lon="9.594506958737108"><ele>519.0</ele><time>2026-04-06T13:50:24Z</time></trkpt><trkpt lat="44.20362927552668" lon="9.594589795192194"><ele>519.0</ele><time>2026-04-06T13:50:25Z</time></trkpt><trkpt lat="44.203692882425" lon="9.594725823801713"><ele>519.0</ele><time>2026-04-06T13:50:27Z</time></trkpt><trkpt lat="44.20361521033499" lon="9.594835967290452"><ele>522.4</ele><time>2026-04-06T13:50:29Z</time></trkpt><trkpt lat="44.203550740152984" lon="9.594813395226117"><ele>525.8</ele><time>2026-04-06T13:50:30Z</time></trkpt><trkpt lat="44.203489159198654" lon="9.594743621529352"><ele>529.2</ele><time>2026-04-06T13:50:31Z</time></trkpt><trkpt lat="44.20341292015482" lon="9.59466647232698"><ele>532.6</ele><time>2026-04-06T13:50:32Z</time></trkpt><trkpt lat="44.20332315889936" lon="9.59459310191979"><ele>536.0</ele><time>2026-04-06T13:50:33Z</time></trkpt><trkpt lat="44.203214494174944" lon="9.594536196468994"><ele>534.0</ele><time>2026-04-06T13:50:34Z</time></trkpt><trkpt lat="44.203075905327815" lon="9.59452994836044"><ele>532.0</ele><time>2026-04-06T13:50:35Z</time></trkpt><trkpt lat="44.20292472426141" lon="9.594547064040954"><ele>530.0</ele><time>2026-04-06T13:50:36Z</time></trkpt><trkpt lat="44.20280960421351" lon="9.59452096982127"><ele>528.0</ele><time>2026-04-06T13:50:37Z</time></trkpt><trkpt lat="44.20271312754654" lon="9.594496655115718"><ele>528.0</ele><time>2026-04-06T13:50:38Z</time></trkpt><trkpt lat="44.2026405034771" lon="9.59449819546629"><ele>528.0</ele><time>2026-04-06T13:50:39Z</time></trkpt><trkpt lat="44.202561210923776" lon="9.594554813463247"><ele>528.0</ele><time>2026-04-06T13:50:40Z</time></trkpt><trkpt lat="44.20255537121208" lon="9.594669707779577"><ele>528.0</ele><time>2026-04-06T13:50:41Z</time></trkpt><trkpt lat="44.202549585544595" lon="9.594790984449563"><ele>528.0</ele><time>2026-04-06T13:50:42Z</time></trkpt><trkpt lat="44.202488399605464" lon="9.5948853483654"><ele>528.0</ele><time>2026-04-06T13:50:44Z</time></trkpt><trkpt lat="44.20242680764906" lon="9.594833073655538"><ele>528.0</ele><time>2026-04-06T13:50:45Z</time></trkpt><trkpt lat="44.20239870689031" lon="9.594637331669022"><ele>528.0</ele><time>2026-04-06T13:50:47Z</time></trkpt><trkpt lat="44.20236204517368" lon="9.594502031106693"><ele>528.0</ele><time>2026-04-06T13:50:48Z</time></trkpt><trkpt lat="44.20231435852232" lon="9.594349280600776"><ele>528.0</ele><time>2026-04-06T13:50:49Z</time></trkpt><trkpt lat="44.20226984332087" lon="9.594188698307818"><ele>526.0</ele><time>2026-04-06T13:50:50Z</time></trkpt><trkpt lat="44.20225404293406" lon="9.594050595945525"><ele>524.0</ele><time>2026-04-06T13:50:51Z</time></trkpt><trkpt lat="44.202222566328295" lon="9.59391639862605"><ele>522.0</ele><time>2026-04-06T13:50:52Z</time></trkpt><trkpt lat="44.20219201137889" lon="9.593830449630707"><ele>520.0</ele><time>2026-04-06T13:50:53Z</time></trkpt><trkpt lat="44.20212112780978" lon="9.593782863093677"><ele>518.0</ele><time>2026-04-06T13:50:54Z</time></trkpt><trkpt lat="44.202020790718905" lon="9.593813505525857"><ele>518.0</ele><time>2026-04-06T13:50:55Z</time></trkpt><trkpt lat="44.20195150756615" lon="9.59386072708152"><ele>518.0</ele><time>2026-04-06T13:50:56Z</time></trkpt><trkpt lat="44.2018926010234" lon="9.593818547093484"><ele>518.0</ele><time>2026-04-06T13:50:57Z</time></trkpt><trkpt lat="44.20186180220363" lon="9.593701628768025"><ele>518.0</ele><time>2026-04-06T13:50:58Z</time></trkpt><trkpt lat="44.20186017760428" lon="9.593532565832504"><ele>518.0</ele><time>2026-04-06T13:50:59Z</time></trkpt><trkpt lat="44.20187120070741" lon="9.593371418065878"><ele>514.75</ele><time>2026-04-06T13:51:00Z</time></trkpt><trkpt lat="44.20187631734444" lon="9.59320143799547"><ele>511.5</ele><time>2026-04-06T13:51:01Z</time></trkpt><trkpt lat="44.20185532277106" lon="9.59305271587526"><ele>508.25</ele><time>2026-04-06T13:51:02Z</time></trkpt><trkpt lat="44.20181078219725" lon="9.592903237537522"><ele>505.0</ele><time>2026-04-06T13:51:03Z</time></trkpt><trkpt lat="44.20172923944299" lon="9.592759536361102"><ele>503.0</ele><time>2026-04-06T13:51:04Z</time></trkpt><trkpt lat="44.201651460347236" lon="9.592604019581968"><ele>501.0</ele><time>2026-04-06T13:51:05Z</time></trkpt><trkpt lat="44.20156912359785" lon="9.59243296422082"><ele>499.0</ele><time>2026-04-06T13:51:06Z</time></trkpt><trkpt lat="44.20149184051741" lon="9.592256740826318"><ele>497.0</ele><time>2026-04-06T13:51:07Z</time></trkpt><trkpt lat="44.20141673744212" lon="9.592096995362693"><ele>492.8</ele><time>2026-04-06T13:51:08Z</time></trkpt><trkpt lat="44.201353842857955" lon="9.591984450562395"><ele>488.6</ele><time>2026-04-06T13:51:09Z</time></trkpt><trkpt lat="44.2012841931897" lon="9.591907797839397"><ele>484.40000000000003</ele><time>2026-04-06T13:51:10Z</time></trkpt><trkpt lat="44.20119188204944" lon="9.591889165116015"><ele>480.20000000000005</ele><time>2026-04-06T13:51:11Z</time></trkpt><trkpt lat="44.20108180031834" lon="9.591925929840302"><ele>476.0</ele><time>2026-04-06T13:51:12Z</time></trkpt><trkpt lat="44.20096940909641" lon="9.592000020831902"><ele>481.25</ele><time>2026-04-06T13:51:13Z</time></trkpt><trkpt lat="44.200847935217126" lon="9.592048400331716"><ele>486.5</ele><time>2026-04-06T13:51:14Z</time></trkpt><trkpt lat="44.200729105986795" lon="9.592074778567001"><ele>491.75</ele><time>2026-04-06T13:51:15Z</time></trkpt><trkpt lat="44.2006080324789" lon="9.592069340477309"><ele>497.0</ele><time>2026-04-06T13:51:15.999Z</time></trkpt><trkpt lat="44.20049129933596" lon="9.59201340236202"><ele>493.0</ele><time>2026-04-06T13:51:16.999Z</time></trkpt><trkpt lat="44.20038178528502" lon="9.59189428811135"><ele>489.0</ele><time>2026-04-06T13:51:17.999Z</time></trkpt><trkpt lat="44.20025947221764" lon="9.591779954493656"><ele>485.0</ele><time>2026-04-06T13:51:18.999Z</time></trkpt><trkpt lat="44.2001569505059" lon="9.591692131861999"><ele>481.0</ele><time>2026-04-06T13:51:19.999Z</time></trkpt><trkpt lat="44.20006135007719" lon="9.591564126404226"><ele>481.0</ele><time>2026-04-06T13:51:20.999Z</time></trkpt><trkpt lat="44.19999195484635" lon="9.591374184003653"><ele>481.0</ele><time>2026-04-06T13:51:21.999Z</time></trkpt><trkpt lat="44.199911974936484" lon="9.591182701837397"><ele>481.0</ele><time>2026-04-06T13:51:22.999Z</time></trkpt><trkpt lat="44.19980053582326" lon="9.591011999934448"><ele>479.33333333333337</ele><time>2026-04-06T13:51:23.999Z</time></trkpt><trkpt lat="44.199683466091" lon="9.590826929397748"><ele>477.66666666666663</ele><time>2026-04-06T13:51:24.999Z</time></trkpt><trkpt lat="44.19957758137787" lon="9.590627457440833"><ele>476.0</ele><time>2026-04-06T13:51:25.999Z</time></trkpt><trkpt lat="44.19948068877624" lon="9.590434414979264"><ele>469.5</ele><time>2026-04-06T13:51:26.999Z</time></trkpt><trkpt lat="44.19939801552574" lon="9.590274266161911"><ele>463.0</ele><time>2026-04-06T13:51:27.999Z</time></trkpt><trkpt lat="44.19933500623557" lon="9.59012838405711"><ele>456.5</ele><time>2026-04-06T13:51:28.999Z</time></trkpt><trkpt lat="44.199292838152836" lon="9.58999156230337"><ele>450.0</ele><time>2026-04-06T13:51:29.999Z</time></trkpt><trkpt lat="44.19924304485832" lon="9.589881493761743"><ele>450.0</ele><time>2026-04-06T13:51:30.999Z</time></trkpt><trkpt lat="44.19920200028831" lon="9.589789053228507"><ele>450.0</ele><time>2026-04-06T13:51:31.999Z</time></trkpt><trkpt lat="44.19913177883818" lon="9.589728527050102"><ele>450.0</ele><time>2026-04-06T13:51:32.999Z</time></trkpt><trkpt lat="44.19903057792888" lon="9.589713436116265"><ele>450.0</ele><time>2026-04-06T13:51:33.999Z</time></trkpt><trkpt lat="44.19891781589708" lon="9.58976966908879"><ele>450.0</ele><time>2026-04-06T13:51:34.999Z</time></trkpt><trkpt lat="44.198809217601344" lon="9.589865029384391"><ele>452.0</ele><time>2026-04-06T13:51:35.999Z</time></trkpt><trkpt lat="44.19870268983402" lon="9.58998333395349"><ele>454.0</ele><time>2026-04-06T13:51:36.999Z</time></trkpt><trkpt lat="44.1986129171572" lon="9.590123601267512"><ele>456.0</ele><time>2026-04-06T13:51:37.999Z</time></trkpt><trkpt lat="44.198512492893435" lon="9.59028557537422"><ele>458.0</ele><time>2026-04-06T13:51:38.999Z</time></trkpt><trkpt lat="44.19841293065085" lon="9.590449619474278"><ele>458.0</ele><time>2026-04-06T13:51:39.999Z</time></trkpt><trkpt lat="44.19832151942623" lon="9.59062516393125"><ele>458.0</ele><time>2026-04-06T13:51:40.999Z</time></trkpt><trkpt lat="44.19825210057405" lon="9.590771628787117"><ele>458.0</ele><time>2026-04-06T13:51:41.999Z</time></trkpt><trkpt lat="44.19819719870684" lon="9.590876249759999"><ele>458.0</ele><time>2026-04-06T13:51:42.999Z</time></trkpt><trkpt lat="44.19812980024495" lon="9.590933854161763"><ele>452.0</ele><time>2026-04-06T13:51:43.999Z</time></trkpt><trkpt lat="44.19803472057315" lon="9.5909763749215"><ele>446.0</ele><time>2026-04-06T13:51:44.999Z</time></trkpt><trkpt lat="44.1979278407869" lon="9.5909253328461"><ele>440.0</ele><time>2026-04-06T13:51:45.999Z</time></trkpt><trkpt lat="44.19781605204635" lon="9.59086294880193"><ele>434.0</ele><time>2026-04-06T13:51:46.999Z</time></trkpt><trkpt lat="44.19769406468081" lon="9.590850986974091"><ele>434.0</ele><time>2026-04-06T13:51:47.999Z</time></trkpt><trkpt lat="44.19756475463585" lon="9.59089617918755"><ele>434.0</ele><time>2026-04-06T13:51:48.999Z</time></trkpt><trkpt lat="44.197425568708816" lon="9.590966670085173"><ele>434.0</ele><time>2026-04-06T13:51:49.999Z</time></trkpt><trkpt lat="44.19732329602743" lon="9.591065401027768"><ele>434.0</ele><time>2026-04-06T13:51:50.999Z</time></trkpt><trkpt lat="44.19724983303053" lon="9.591182799247111"><ele>434.25</ele><time>2026-04-06T13:51:51.999Z</time></trkpt><trkpt lat="44.197198842696935" lon="9.59134620548715"><ele>434.5</ele><time>2026-04-06T13:51:52.999Z</time></trkpt><trkpt lat="44.19714190108725" lon="9.591472550715839"><ele>434.75</ele><time>2026-04-06T13:51:53.999Z</time></trkpt><trkpt lat="44.19704216998761" lon="9.591558838522968"><ele>435.0</ele><time>2026-04-06T13:51:54.999Z</time></trkpt><trkpt lat="44.19690888677291" lon="9.591610390265036"><ele>435.0</ele><time>2026-04-06T13:51:55.999Z</time></trkpt><trkpt lat="44.19676790694077" lon="9.591611036021332"><ele>435.0</ele><time>2026-04-06T13:51:56.999Z</time></trkpt><trkpt lat="44.19661559426175" lon="9.591584868861457"><ele>435.0</ele><time>2026-04-06T13:51:57.999Z</time></trkpt><trkpt lat="44.19648336590363" lon="9.591553932897732"><ele>435.0</ele><time>2026-04-06T13:51:58.999Z</time></trkpt><trkpt lat="44.1963518750099" lon="9.591558376872173"><ele>430.75</ele><time>2026-04-06T13:51:59.999Z</time></trkpt><trkpt lat="44.19622268803233" lon="9.591634612511351"><ele>426.5</ele><time>2026-04-06T13:52:00.999Z</time></trkpt><trkpt lat="44.19610235075605" lon="9.59172658392262"><ele>422.25</ele><time>2026-04-06T13:52:01.999Z</time></trkpt><trkpt lat="44.196003389398186" lon="9.591846889536686"><ele>418.0</ele><time>2026-04-06T13:52:02.999Z</time></trkpt><trkpt lat="44.195921503746675" lon="9.591988958273813"><ele>422.0</ele><time>2026-04-06T13:52:03.999Z</time></trkpt><trkpt lat="44.19587256024222" lon="9.592132024255482"><ele>426.0</ele><time>2026-04-06T13:52:04.999Z</time></trkpt><trkpt lat="44.19578713746055" lon="9.592233562284031"><ele>429.99999999999994</ele><time>2026-04-06T13:52:05.999Z</time></trkpt><trkpt lat="44.19570224282177" lon="9.592297685249743"><ele>434.0</ele><time>2026-04-06T13:52:06.999Z</time></trkpt><trkpt lat="44.19562951915316" lon="9.592339320748186"><ele>438.0</ele><time>2026-04-06T13:52:07.999Z</time></trkpt><trkpt lat="44.195515504538065" lon="9.59230580588906"><ele>438.79999999999995</ele><time>2026-04-06T13:52:09.999Z</time></trkpt><trkpt lat="44.195473671643555" lon="9.592221118498697"><ele>439.59999999999997</ele><time>2026-04-06T13:52:10.999Z</time></trkpt><trkpt lat="44.19544400030416" lon="9.592091223221416"><ele>440.40000000000003</ele><time>2026-04-06T13:52:11.999Z</time></trkpt><trkpt lat="44.19542131366911" lon="9.591951253920467"><ele>441.20000000000005</ele><time>2026-04-06T13:52:12.999Z</time></trkpt><trkpt lat="44.19539250752913" lon="9.591822024026268"><ele>442.0</ele><time>2026-04-06T13:52:13.999Z</time></trkpt><trkpt lat="44.19528441591017" lon="9.591759625303613"><ele>436.75</ele><time>2026-04-06T13:52:14.999Z</time></trkpt><trkpt lat="44.19514537364346" lon="9.591744373709162"><ele>431.5</ele><time>2026-04-06T13:52:15.999Z</time></trkpt><trkpt lat="44.19499892269291" lon="9.59172306125402"><ele>426.25</ele><time>2026-04-06T13:52:16.999Z</time></trkpt><trkpt lat="44.194866001523586" lon="9.5916618767835"><ele>421.0</ele><time>2026-04-06T13:52:17.999Z</time></trkpt><trkpt lat="44.194714588869424" lon="9.591573890355564"><ele>421.0</ele><time>2026-04-06T13:52:18.999Z</time></trkpt><trkpt lat="44.19455118025899" lon="9.591524347862855"><ele>421.0</ele><time>2026-04-06T13:52:19.999Z</time></trkpt><trkpt lat="44.19438365709605" lon="9.591489032757282"><ele>421.0</ele><time>2026-04-06T13:52:20.999Z</time></trkpt><trkpt lat="44.194211605724966" lon="9.591428861970712"><ele>421.0</ele><time>2026-04-06T13:52:21.998Z</time></trkpt><trkpt lat="44.19403248159283" lon="9.591364035879495"><ele>421.0</ele><time>2026-04-06T13:52:22.998Z</time></trkpt><trkpt lat="44.193851487076344" lon="9.59133913754859"><ele>421.0</ele><time>2026-04-06T13:52:24Z</time></trkpt><trkpt lat="44.193719014838315" lon="9.591337482983832"><ele>418.75</ele><time>2026-04-06T13:52:25Z</time></trkpt><trkpt lat="44.19359052122578" lon="9.591319752985715"><ele>416.5</ele><time>2026-04-06T13:52:26Z</time></trkpt><trkpt lat="44.193463893531266" lon="9.591254052661657"><ele>414.25</ele><time>2026-04-06T13:52:27Z</time></trkpt><trkpt lat="44.19338339675764" lon="9.591151725546728"><ele>412.0</ele><time>2026-04-06T13:52:28Z</time></trkpt><trkpt lat="44.19331076177558" lon="9.591085256767752"><ele>406.0</ele><time>2026-04-06T13:52:29Z</time></trkpt><trkpt lat="44.193213631833395" lon="9.591079371163"><ele>400.0</ele><time>2026-04-06T13:52:30Z</time></trkpt><trkpt lat="44.19310918552941" lon="9.59117600070972"><ele>394.0</ele><time>2026-04-06T13:52:31Z</time></trkpt><trkpt lat="44.1930047706419" lon="9.591293786753411"><ele>388.0</ele><time>2026-04-06T13:52:32Z</time></trkpt><trkpt lat="44.19290057672497" lon="9.591386951838446"><ele>386.75</ele><time>2026-04-06T13:52:33Z</time></trkpt><trkpt lat="44.192778033015216" lon="9.591494936350356"><ele>385.5</ele><time>2026-04-06T13:52:34Z</time></trkpt><trkpt lat="44.19266842288549" lon="9.591569752402748"><ele>384.25</ele><time>2026-04-06T13:52:35Z</time></trkpt><trkpt lat="44.19252314466354" lon="9.591640510898811"><ele>383.0</ele><time>2026-04-06T13:52:36Z</time></trkpt><trkpt lat="44.19242908379008" lon="9.591808095783588"><ele>383.0</ele><time>2026-04-06T13:52:37Z</time></trkpt><trkpt lat="44.192342680083655" lon="9.591989707038138"><ele>383.0</ele><time>2026-04-06T13:52:38Z</time></trkpt><trkpt lat="44.192239708286955" lon="9.592151402752588"><ele>383.0</ele><time>2026-04-06T13:52:39Z</time></trkpt><trkpt lat="44.19214177200484" lon="9.592304320775023"><ele>380.0</ele><time>2026-04-06T13:52:40Z</time></trkpt><trkpt lat="44.19203547697816" lon="9.592439715811077"><ele>377.0</ele><time>2026-04-06T13:52:41Z</time></trkpt><trkpt lat="44.19192066202538" lon="9.592531645408929"><ele>374.0</ele><time>2026-04-06T13:52:42Z</time></trkpt><trkpt lat="44.19180267161077" lon="9.592595123448008"><ele>371.0</ele><time>2026-04-06T13:52:43Z</time></trkpt><trkpt lat="44.19170749572665" lon="9.592645132235319"><ele>371.0</ele><time>2026-04-06T13:52:44Z</time></trkpt><trkpt lat="44.19163898984058" lon="9.592706224946092"><ele>371.0</ele><time>2026-04-06T13:52:45Z</time></trkpt><trkpt lat="44.19159093431607" lon="9.59279142946437"><ele>371.0</ele><time>2026-04-06T13:52:46Z</time></trkpt><trkpt lat="44.191588511084994" lon="9.592916730989566"><ele>371.0</ele><time>2026-04-06T13:52:47Z</time></trkpt><trkpt lat="44.19163254859099" lon="9.593064142687217"><ele>371.0</ele><time>2026-04-06T13:52:48Z</time></trkpt><trkpt lat="44.19170023543093" lon="9.593229689234962"><ele>371.75</ele><time>2026-04-06T13:52:49Z</time></trkpt><trkpt lat="44.191755819707694" lon="9.593406196501544"><ele>372.5</ele><time>2026-04-06T13:52:50Z</time></trkpt><trkpt lat="44.19178552980448" lon="9.593619862702587"><ele>373.25</ele><time>2026-04-06T13:52:51Z</time></trkpt><trkpt lat="44.19178174452393" lon="9.593794222633125"><ele>374.0</ele><time>2026-04-06T13:52:52Z</time></trkpt><trkpt lat="44.191800285056075" lon="9.593963962097783"><ele>370.5</ele><time>2026-04-06T13:52:53Z</time></trkpt><trkpt lat="44.191810350919525" lon="9.594115111899534"><ele>367.0</ele><time>2026-04-06T13:52:54Z</time></trkpt><trkpt lat="44.191838163173074" lon="9.594257205218234"><ele>363.5</ele><time>2026-04-06T13:52:55Z</time></trkpt><trkpt lat="44.191916942401306" lon="9.594377382422056"><ele>360.0</ele><time>2026-04-06T13:52:56Z</time></trkpt><trkpt lat="44.192025280667494" lon="9.594471821698209"><ele>358.0</ele><time>2026-04-06T13:52:57Z</time></trkpt><trkpt lat="44.19215149933628" lon="9.594545594030132"><ele>356.0</ele><time>2026-04-06T13:52:58Z</time></trkpt><trkpt lat="44.19230932587013" lon="9.594631825525596"><ele>354.0</ele><time>2026-04-06T13:52:59Z</time></trkpt><trkpt lat="44.192470488281714" lon="9.59467157873031"><ele>354.0</ele><time>2026-04-06T13:53:00Z</time></trkpt><trkpt lat="44.19261685537174" lon="9.594754314947746"><ele>354.0</ele><time>2026-04-06T13:53:01Z</time></trkpt><trkpt lat="44.19276278572879" lon="9.59479388722669"><ele>354.0</ele><time>2026-04-06T13:53:02Z</time></trkpt><trkpt lat="44.1928723586486" lon="9.594895188513885"><ele>354.0</ele><time>2026-04-06T13:53:03Z</time></trkpt><trkpt lat="44.19298076072109" lon="9.59500115507023"><ele>354.0</ele><time>2026-04-06T13:53:04Z</time></trkpt><trkpt lat="44.19309093270902" lon="9.595076165967543"><ele>354.0</ele><time>2026-04-06T13:53:05Z</time></trkpt><trkpt lat="44.193215210212585" lon="9.595109663399649"><ele>354.0</ele><time>2026-04-06T13:53:06Z</time></trkpt><trkpt lat="44.19329612410708" lon="9.595149123950977"><ele>354.0</ele><time>2026-04-06T13:53:07Z</time></trkpt><trkpt lat="44.193379112520375" lon="9.595101064717866"><ele>354.0</ele><time>2026-04-06T13:53:08Z</time></trkpt><trkpt lat="44.19346884252924" lon="9.595112434306069"><ele>357.0</ele><time>2026-04-06T13:53:09Z</time></trkpt><trkpt lat="44.19352623550845" lon="9.595229096543537"><ele>360.0</ele><time>2026-04-06T13:53:11Z</time></trkpt><trkpt lat="44.19351112817492" lon="9.595327171618555"><ele>363.0</ele><time>2026-04-06T13:53:12Z</time></trkpt><trkpt lat="44.19342776754216" lon="9.595373533233772"><ele>366.0</ele><time>2026-04-06T13:53:13Z</time></trkpt><trkpt lat="44.19335098601115" lon="9.595455546484041"><ele>369.0</ele><time>2026-04-06T13:53:14Z</time></trkpt><trkpt lat="44.19327545049136" lon="9.595543913531841"><ele>369.0</ele><time>2026-04-06T13:53:14.999Z</time></trkpt><trkpt lat="44.193214491874016" lon="9.595657101264736"><ele>369.0</ele><time>2026-04-06T13:53:15.999Z</time></trkpt><trkpt lat="44.19317145851879" lon="9.595790295993709"><ele>369.0</ele><time>2026-04-06T13:53:16.999Z</time></trkpt><trkpt lat="44.193123398208414" lon="9.595873004517626"><ele>369.0</ele><time>2026-04-06T13:53:17.999Z</time></trkpt><trkpt lat="44.19304417063935" lon="9.595955125737602"><ele>369.0</ele><time>2026-04-06T13:53:18.999Z</time></trkpt><trkpt lat="44.19296102241088" lon="9.595992504974687"><ele>366.6</ele><time>2026-04-06T13:53:19.999Z</time></trkpt><trkpt lat="44.19286976628985" lon="9.59599889270548"><ele>364.2</ele><time>2026-04-06T13:53:20.999Z</time></trkpt><trkpt lat="44.19273326220617" lon="9.596044881039276"><ele>361.8</ele><time>2026-04-06T13:53:21.999Z</time></trkpt><trkpt lat="44.192653436558594" lon="9.596109625932668"><ele>359.40000000000003</ele><time>2026-04-06T13:53:22.999Z</time></trkpt><trkpt lat="44.192602743331825" lon="9.596182160900835"><ele>357.0</ele><time>2026-04-06T13:53:23.999Z</time></trkpt><trkpt lat="44.192531133016715" lon="9.59626304990287"><ele>357.0</ele><time>2026-04-06T13:53:24.999Z</time></trkpt><trkpt lat="44.19245941671346" lon="9.596310036845983"><ele>357.0</ele><time>2026-04-06T13:53:25.999Z</time></trkpt><trkpt lat="44.19236863924055" lon="9.59637920175132"><ele>357.0</ele><time>2026-04-06T13:53:26.999Z</time></trkpt><trkpt lat="44.192328964188015" lon="9.596462086138544"><ele>357.0</ele><time>2026-04-06T13:53:27.999Z</time></trkpt><trkpt lat="44.19227729166116" lon="9.596531899944557"><ele>357.0</ele><time>2026-04-06T13:53:28.999Z</time></trkpt><trkpt lat="44.1922347486998" lon="9.596607537287579"><ele>357.0</ele><time>2026-04-06T13:53:29.999Z</time></trkpt><trkpt lat="44.1921721366699" lon="9.5966744540029"><ele>357.0</ele><time>2026-04-06T13:53:31.999Z</time></trkpt><trkpt lat="44.19214920642403" lon="9.596574715381932"><ele>357.0</ele><time>2026-04-06T13:53:33.999Z</time></trkpt><trkpt lat="44.19221630088616" lon="9.596481206297062"><ele>357.0</ele><time>2026-04-06T13:53:35.999Z</time></trkpt><trkpt lat="44.19229646459916" lon="9.596396110929195"><ele>357.0</ele><time>2026-04-06T13:53:38.999Z</time></trkpt><trkpt lat="44.19234590541409" lon="9.596301559408882"><ele>357.0</ele><time>2026-04-06T13:53:40.999Z</time></trkpt><trkpt lat="44.19240208221471" lon="9.596197673254798"><ele>357.0</ele><time>2026-04-06T13:53:41.999Z</time></trkpt><trkpt lat="44.19246946714422" lon="9.596110983847824"><ele>354.40000000000003</ele><time>2026-04-06T13:53:42.999Z</time></trkpt><trkpt lat="44.19253045256669" lon="9.59602923946838"><ele>351.8</ele><time>2026-04-06T13:53:44.999Z</time></trkpt><trkpt lat="44.19250454729414" lon="9.595891082631246"><ele>349.2</ele><time>2026-04-06T13:53:46.999Z</time></trkpt><trkpt lat="44.19239861782486" lon="9.595875179174516"><ele>346.6</ele><time>2026-04-06T13:53:47.999Z</time></trkpt><trkpt lat="44.19234263051097" lon="9.596028670435075"><ele>344.0</ele><time>2026-04-06T13:53:48.999Z</time></trkpt><trkpt lat="44.19228167189338" lon="9.596073409203502"><ele>342.4</ele><time>2026-04-06T13:53:49.999Z</time></trkpt><trkpt lat="44.19221629325154" lon="9.596122858855162"><ele>340.79999999999995</ele><time>2026-04-06T13:53:50.999Z</time></trkpt><trkpt lat="44.19212152194262" lon="9.59614577201097"><ele>339.20000000000005</ele><time>2026-04-06T13:53:51.999Z</time></trkpt><trkpt lat="44.19202970270418" lon="9.596176203858768"><ele>337.6</ele><time>2026-04-06T13:53:52.999Z</time></trkpt><trkpt lat="44.191919749820784" lon="9.596231581034763"><ele>336.0</ele><time>2026-04-06T13:53:53.999Z</time></trkpt><trkpt lat="44.191795190546884" lon="9.596258019620766"><ele>336.0</ele><time>2026-04-06T13:53:54.999Z</time></trkpt><trkpt lat="44.19167777270546" lon="9.596295120427694"><ele>336.0</ele><time>2026-04-06T13:53:55.999Z</time></trkpt><trkpt lat="44.19156834653606" lon="9.596339036246917"><ele>336.0</ele><time>2026-04-06T13:53:56.999Z</time></trkpt><trkpt lat="44.19147490034142" lon="9.596402885214435"><ele>336.0</ele><time>2026-04-06T13:53:57.999Z</time></trkpt><trkpt lat="44.191430492238624" lon="9.596514600967009"><ele>336.0</ele><time>2026-04-06T13:53:58.999Z</time></trkpt><trkpt lat="44.19140943549688" lon="9.596633672720715"><ele>336.0</ele><time>2026-04-06T13:53:59.999Z</time></trkpt><trkpt lat="44.191462345050304" lon="9.59675102489233"><ele>336.0</ele><time>2026-04-06T13:54:00.999Z</time></trkpt><trkpt lat="44.19153083375316" lon="9.596861957850413"><ele>336.0</ele><time>2026-04-06T13:54:01.999Z</time></trkpt><trkpt lat="44.191639472848344" lon="9.59697023997022"><ele>336.0</ele><time>2026-04-06T13:54:02.999Z</time></trkpt><trkpt lat="44.19172507042583" lon="9.597086628557907"><ele>336.8</ele><time>2026-04-06T13:54:03.999Z</time></trkpt><trkpt lat="44.19177994625295" lon="9.597200178428103"><ele>337.6</ele><time>2026-04-06T13:54:04.999Z</time></trkpt><trkpt lat="44.19181361866998" lon="9.59728938563982"><ele>338.4</ele><time>2026-04-06T13:54:05.999Z</time></trkpt><trkpt lat="44.19177104163958" lon="9.597439129989084"><ele>339.2</ele><time>2026-04-06T13:54:07.999Z</time></trkpt><trkpt lat="44.19167052003278" lon="9.59748717684895"><ele>340.0</ele><time>2026-04-06T13:54:08.999Z</time></trkpt><trkpt lat="44.191547811474706" lon="9.597399466839036"><ele>341.25</ele><time>2026-04-06T13:54:09.999Z</time></trkpt><trkpt lat="44.1914281800175" lon="9.59734064864026"><ele>342.5</ele><time>2026-04-06T13:54:10.999Z</time></trkpt><trkpt lat="44.1913030098771" lon="9.597299924012399"><ele>343.75</ele><time>2026-04-06T13:54:11.999Z</time></trkpt><trkpt lat="44.191176284030014" lon="9.597219616652328"><ele>345.0</ele><time>2026-04-06T13:54:12.999Z</time></trkpt><trkpt lat="44.19104833000781" lon="9.597182171670793"><ele>345.0</ele><time>2026-04-06T13:54:13.999Z</time></trkpt><trkpt lat="44.190929724376566" lon="9.597166173070631"><ele>345.0</ele><time>2026-04-06T13:54:14.999Z</time></trkpt><trkpt lat="44.19084738971232" lon="9.59714230155907"><ele>345.0</ele><time>2026-04-06T13:54:15.999Z</time></trkpt><trkpt lat="44.190720281419" lon="9.59704332932643"><ele>345.0</ele><time>2026-04-06T13:54:16.999Z</time></trkpt><trkpt lat="44.190615847385395" lon="9.596920123930133"><ele>341.25</ele><time>2026-04-06T13:54:17.998Z</time></trkpt><trkpt lat="44.190569756732216" lon="9.596776547094468"><ele>337.5</ele><time>2026-04-06T13:54:18.998Z</time></trkpt><trkpt lat="44.190513438894826" lon="9.596612228190539"><ele>333.75</ele><time>2026-04-06T13:54:19.998Z</time></trkpt><trkpt lat="44.19043888264629" lon="9.596451403201664"><ele>330.0</ele><time>2026-04-06T13:54:20.998Z</time></trkpt><trkpt lat="44.19038107608013" lon="9.596290107780964"><ele>324.25</ele><time>2026-04-06T13:54:21.998Z</time></trkpt><trkpt lat="44.19029110696474" lon="9.596151028317442"><ele>318.5</ele><time>2026-04-06T13:54:22.998Z</time></trkpt><trkpt lat="44.190215142371464" lon="9.59603469910511"><ele>312.75</ele><time>2026-04-06T13:54:23.998Z</time></trkpt><trkpt lat="44.19011883458665" lon="9.595978720261236"><ele>307.0</ele><time>2026-04-06T13:54:24.998Z</time></trkpt><trkpt lat="44.18999495930267" lon="9.595979309388097"><ele>307.0</ele><time>2026-04-06T13:54:25.998Z</time></trkpt><trkpt lat="44.18987284617131" lon="9.595979049104152"><ele>307.0</ele><time>2026-04-06T13:54:26.998Z</time></trkpt><trkpt lat="44.18973011346231" lon="9.596071453021063"><ele>307.0</ele><time>2026-04-06T13:54:27.998Z</time></trkpt><trkpt lat="44.18959860996535" lon="9.596123068425678"><ele>307.0</ele><time>2026-04-06T13:54:28.998Z</time></trkpt><trkpt lat="44.18945620054219" lon="9.596188937351656"><ele>308.75</ele><time>2026-04-06T13:54:30Z</time></trkpt><trkpt lat="44.18932528508515" lon="9.59622086718767"><ele>310.5</ele><time>2026-04-06T13:54:31Z</time></trkpt><trkpt lat="44.18919961203814" lon="9.596250940038779"><ele>312.25</ele><time>2026-04-06T13:54:32Z</time></trkpt><trkpt lat="44.18907579316023" lon="9.596334336181915"><ele>314.0</ele><time>2026-04-06T13:54:33Z</time></trkpt><trkpt lat="44.18896085078052" lon="9.596478986298361"><ele>314.0</ele><time>2026-04-06T13:54:34Z</time></trkpt><trkpt lat="44.188878458184206" lon="9.596651307194158"><ele>314.0</ele><time>2026-04-06T13:54:35Z</time></trkpt><trkpt lat="44.18881670418401" lon="9.596790241919212"><ele>314.0</ele><time>2026-04-06T13:54:36Z</time></trkpt><trkpt lat="44.188761976049506" lon="9.596901019799079"><ele>314.0</ele><time>2026-04-06T13:54:37Z</time></trkpt><trkpt lat="44.18870688620346" lon="9.596951722846303"><ele>314.0</ele><time>2026-04-06T13:54:38Z</time></trkpt><trkpt lat="44.18863677334308" lon="9.596960152112766"><ele>314.0</ele><time>2026-04-06T13:54:39Z</time></trkpt><trkpt lat="44.18857214832448" lon="9.596884142164948"><ele>314.0</ele><time>2026-04-06T13:54:40Z</time></trkpt><trkpt lat="44.188554497837075" lon="9.596773976590509"><ele>314.0</ele><time>2026-04-06T13:54:41Z</time></trkpt><trkpt lat="44.188556172239046" lon="9.596621970109807"><ele>314.0</ele><time>2026-04-06T13:54:42Z</time></trkpt><trkpt lat="44.188528310094796" lon="9.59645677834332"><ele>314.0</ele><time>2026-04-06T13:54:43Z</time></trkpt><trkpt lat="44.188488990838415" lon="9.596289700376204"><ele>310.25</ele><time>2026-04-06T13:54:44Z</time></trkpt><trkpt lat="44.18846036923109" lon="9.596097356527432"><ele>306.5</ele><time>2026-04-06T13:54:45Z</time></trkpt><trkpt lat="44.1884199759624" lon="9.595904996426452"><ele>302.75</ele><time>2026-04-06T13:54:46Z</time></trkpt><trkpt lat="44.18835920076127" lon="9.595734408971506"><ele>299.0</ele><time>2026-04-06T13:54:47Z</time></trkpt><trkpt lat="44.1882735844402" lon="9.59561701004185"><ele>299.8</ele><time>2026-04-06T13:54:48Z</time></trkpt><trkpt lat="44.188170486290055" lon="9.595533821734103"><ele>300.59999999999997</ele><time>2026-04-06T13:54:49Z</time></trkpt><trkpt lat="44.18805802535668" lon="9.595512223145438"><ele>301.4</ele><time>2026-04-06T13:54:50Z</time></trkpt><trkpt lat="44.187964191206895" lon="9.595515259936246"><ele>302.2</ele><time>2026-04-06T13:54:51Z</time></trkpt><trkpt lat="44.187906166465275" lon="9.595464463968598"><ele>303.0</ele><time>2026-04-06T13:54:52Z</time></trkpt><trkpt lat="44.18789079266155" lon="9.59533271853789"><ele>303.0</ele><time>2026-04-06T13:54:53Z</time></trkpt><trkpt lat="44.18790485448117" lon="9.595165564505198"><ele>303.0</ele><time>2026-04-06T13:54:54Z</time></trkpt><trkpt lat="44.18789794823416" lon="9.595001557386917"><ele>303.0</ele><time>2026-04-06T13:54:55Z</time></trkpt><trkpt lat="44.18786845559808" lon="9.594823208525856"><ele>303.0</ele><time>2026-04-06T13:54:56Z</time></trkpt><trkpt lat="44.187794028915114" lon="9.594635585506586"><ele>297.3333333333333</ele><time>2026-04-06T13:54:57Z</time></trkpt><trkpt lat="44.18770697353046" lon="9.594463709343271"><ele>291.66666666666663</ele><time>2026-04-06T13:54:58Z</time></trkpt><trkpt lat="44.187595268672496" lon="9.594311195542181"><ele>286.0</ele><time>2026-04-06T13:54:59Z</time></trkpt><trkpt lat="44.187466469638075" lon="9.594174983365306"><ele>286.0</ele><time>2026-04-06T13:55:00Z</time></trkpt><trkpt lat="44.18734774189645" lon="9.594049738136857"><ele>286.0</ele><time>2026-04-06T13:55:01Z</time></trkpt><trkpt lat="44.1872177322664" lon="9.593946746019538"><ele>286.0</ele><time>2026-04-06T13:55:02Z</time></trkpt><trkpt lat="44.18709444224152" lon="9.593835095377635"><ele>286.0</ele><time>2026-04-06T13:55:03Z</time></trkpt><trkpt lat="44.1870196209188" lon="9.593658685100603"><ele>281.25</ele><time>2026-04-06T13:55:04Z</time></trkpt><trkpt lat="44.18695838470583" lon="9.593506273058201"><ele>276.5</ele><time>2026-04-06T13:55:05Z</time></trkpt><trkpt lat="44.186883164633066" lon="9.593397102350343"><ele>271.75</ele><time>2026-04-06T13:55:06Z</time></trkpt><trkpt lat="44.18677835478029" lon="9.593338654278416"><ele>267.0</ele><time>2026-04-06T13:55:07Z</time></trkpt><trkpt lat="44.18666467667231" lon="9.593321563720473"><ele>267.0</ele><time>2026-04-06T13:55:08Z</time></trkpt><trkpt lat="44.186540755603716" lon="9.593346117669697"><ele>267.0</ele><time>2026-04-06T13:55:09Z</time></trkpt><trkpt lat="44.186421094118046" lon="9.593472405457002"><ele>267.0</ele><time>2026-04-06T13:55:10Z</time></trkpt><trkpt lat="44.186315529627635" lon="9.59360880340546"><ele>267.0</ele><time>2026-04-06T13:55:11Z</time></trkpt><trkpt lat="44.18620832122845" lon="9.593728861950504"><ele>266.4</ele><time>2026-04-06T13:55:12Z</time></trkpt><trkpt lat="44.1861152572783" lon="9.593804630927854"><ele>265.79999999999995</ele><time>2026-04-06T13:55:13Z</time></trkpt><trkpt lat="44.18603996709364" lon="9.593855078284284"><ele>265.2</ele><time>2026-04-06T13:55:14Z</time></trkpt><trkpt lat="44.18597500008156" lon="9.59383952176051"><ele>264.59999999999997</ele><time>2026-04-06T13:55:14.999Z</time></trkpt><trkpt lat="44.18592611404578" lon="9.593718667439468"><ele>264.0</ele><time>2026-04-06T13:55:15.999Z</time></trkpt><trkpt lat="44.18584557266149" lon="9.59361958162626"><ele>264.0</ele><time>2026-04-06T13:55:16.999Z</time></trkpt><trkpt lat="44.18575572537364" lon="9.593500400515527"><ele>264.0</ele><time>2026-04-06T13:55:17.999Z</time></trkpt><trkpt lat="44.18566812100295" lon="9.593409844668905"><ele>264.0</ele><time>2026-04-06T13:55:18.999Z</time></trkpt><trkpt lat="44.18562601678896" lon="9.593253228299172"><ele>264.0</ele><time>2026-04-06T13:55:19.999Z</time></trkpt><trkpt lat="44.18558962947386" lon="9.593162207312826"><ele>264.0</ele><time>2026-04-06T13:55:20.999Z</time></trkpt><trkpt lat="44.18551710966382" lon="9.593099406754106"><ele>266.4</ele><time>2026-04-06T13:55:21.999Z</time></trkpt><trkpt lat="44.18541469871613" lon="9.593107649413398"><ele>268.79999999999995</ele><time>2026-04-06T13:55:22.999Z</time></trkpt><trkpt lat="44.18529943086791" lon="9.593206250692235"><ele>271.20000000000005</ele><time>2026-04-06T13:55:23.999Z</time></trkpt><trkpt lat="44.18521290137447" lon="9.593276951872944"><ele>273.6</ele><time>2026-04-06T13:55:24.999Z</time></trkpt><trkpt lat="44.185117478396556" lon="9.593266149412031"><ele>276.0</ele><time>2026-04-06T13:55:25.999Z</time></trkpt><trkpt lat="44.185033829635536" lon="9.593174600675034"><ele>276.0</ele><time>2026-04-06T13:55:26.999Z</time></trkpt><trkpt lat="44.18496938446155" lon="9.593030719890901"><ele>276.0</ele><time>2026-04-06T13:55:27.999Z</time></trkpt><trkpt lat="44.184870564177" lon="9.592873657274481"><ele>276.0</ele><time>2026-04-06T13:55:28.999Z</time></trkpt><trkpt lat="44.18479495845247" lon="9.592718393417186"><ele>276.0</ele><time>2026-04-06T13:55:29.999Z</time></trkpt><trkpt lat="44.18470145546821" lon="9.592553921409232"><ele>279.3333333333333</ele><time>2026-04-06T13:55:30.999Z</time></trkpt><trkpt lat="44.18459884227546" lon="9.592359179225534"><ele>282.66666666666663</ele><time>2026-04-06T13:55:31.999Z</time></trkpt><trkpt lat="44.18448972335046" lon="9.59220966163496"><ele>286.0</ele><time>2026-04-06T13:55:32.999Z</time></trkpt><trkpt lat="44.184375959864646" lon="9.592048204180756"><ele>278.3333333333333</ele><time>2026-04-06T13:55:33.999Z</time></trkpt><trkpt lat="44.18427484316694" lon="9.5918821325995"><ele>270.6666666666667</ele><time>2026-04-06T13:55:34.999Z</time></trkpt><trkpt lat="44.18418816960869" lon="9.591702482603644"><ele>263.0</ele><time>2026-04-06T13:55:35.999Z</time></trkpt><trkpt lat="44.184156745418576" lon="9.59147137706398"><ele>263.0</ele><time>2026-04-06T13:55:36.999Z</time></trkpt><trkpt lat="44.184087969026166" lon="9.59128413147311"><ele>263.0</ele><time>2026-04-06T13:55:37.999Z</time></trkpt><trkpt lat="44.18402837158123" lon="9.591069734745806"><ele>263.0</ele><time>2026-04-06T13:55:38.999Z</time></trkpt><trkpt lat="44.18391541307145" lon="9.590885777892968"><ele>255.0</ele><time>2026-04-06T13:55:39.999Z</time></trkpt><trkpt lat="44.18380834659327" lon="9.5907557799373"><ele>247.0</ele><time>2026-04-06T13:55:40.999Z</time></trkpt><trkpt lat="44.18371657571557" lon="9.590668072753013"><ele>239.0</ele><time>2026-04-06T13:55:41.999Z</time></trkpt><trkpt lat="44.18361727656585" lon="9.59060755695676"><ele>231.0</ele><time>2026-04-06T13:55:42.999Z</time></trkpt><trkpt lat="44.183502751790606" lon="9.590625325507624"><ele>231.0</ele><time>2026-04-06T13:55:43.999Z</time></trkpt><trkpt lat="44.18338809372076" lon="9.590691752452935"><ele>231.0</ele><time>2026-04-06T13:55:44.999Z</time></trkpt><trkpt lat="44.18331224853882" lon="9.590834007144284"><ele>231.0</ele><time>2026-04-06T13:55:45.999Z</time></trkpt><trkpt lat="44.183263982001755" lon="9.591010383848506"><ele>231.0</ele><time>2026-04-06T13:55:46.999Z</time></trkpt><trkpt lat="44.18322832752665" lon="9.5911879030162"><ele>229.0</ele><time>2026-04-06T13:55:47.999Z</time></trkpt><trkpt lat="44.18314047118583" lon="9.591364508314518"><ele>227.0</ele><time>2026-04-06T13:55:48.999Z</time></trkpt><trkpt lat="44.183072033974845" lon="9.591548626649239"><ele>225.0</ele><time>2026-04-06T13:55:49.999Z</time></trkpt><trkpt lat="44.182972965773025" lon="9.591674409778399"><ele>223.0</ele><time>2026-04-06T13:55:50.999Z</time></trkpt><trkpt lat="44.18288915735228" lon="9.59179390949005"><ele>223.0</ele><time>2026-04-06T13:55:51.999Z</time></trkpt><trkpt lat="44.18277348439691" lon="9.591850398550285"><ele>223.0</ele><time>2026-04-06T13:55:52.999Z</time></trkpt><trkpt lat="44.18263466296057" lon="9.591858942732175"><ele>223.0</ele><time>2026-04-06T13:55:53.999Z</time></trkpt><trkpt lat="44.18249146048148" lon="9.591858756948143"><ele>223.0</ele><time>2026-04-06T13:55:54.999Z</time></trkpt><trkpt lat="44.182364919084925" lon="9.591878432697191"><ele>222.5</ele><time>2026-04-06T13:55:55.999Z</time></trkpt><trkpt lat="44.18224516936948" lon="9.591949893607211"><ele>222.0</ele><time>2026-04-06T13:55:56.999Z</time></trkpt><trkpt lat="44.182144171884886" lon="9.592073198046217"><ele>221.5</ele><time>2026-04-06T13:55:57.999Z</time></trkpt><trkpt lat="44.182074652187545" lon="9.59227343193342"><ele>221.0</ele><time>2026-04-06T13:55:58.999Z</time></trkpt><trkpt lat="44.18201225231328" lon="9.592471820831081"><ele>221.0</ele><time>2026-04-06T13:55:59.999Z</time></trkpt><trkpt lat="44.18196587497625" lon="9.592620160794219"><ele>221.0</ele><time>2026-04-06T13:56:00.999Z</time></trkpt><trkpt lat="44.18190362007087" lon="9.59270656388082"><ele>221.0</ele><time>2026-04-06T13:56:01.999Z</time></trkpt><trkpt lat="44.18174990584179" lon="9.592718654525495"><ele>221.0</ele><time>2026-04-06T13:56:03.999Z</time></trkpt><trkpt lat="44.181636588678764" lon="9.592655504335548"><ele>215.0</ele><time>2026-04-06T13:56:04.999Z</time></trkpt><trkpt lat="44.18150949789801" lon="9.592622036034195"><ele>209.0</ele><time>2026-04-06T13:56:05.999Z</time></trkpt><trkpt lat="44.181369323878585" lon="9.592607475007911"><ele>203.0</ele><time>2026-04-06T13:56:06.999Z</time></trkpt><trkpt lat="44.18124701941153" lon="9.592623080249147"><ele>197.0</ele><time>2026-04-06T13:56:07.999Z</time></trkpt><trkpt lat="44.18114700910619" lon="9.59268147162585"><ele>197.0</ele><time>2026-04-06T13:56:08.999Z</time></trkpt><trkpt lat="44.181058466245204" lon="9.592791093854316"><ele>197.0</ele><time>2026-04-06T13:56:09.999Z</time></trkpt><trkpt lat="44.18099043054833" lon="9.59295369513406"><ele>197.0</ele><time>2026-04-06T13:56:10.999Z</time></trkpt><trkpt lat="44.18092218174471" lon="9.593128118181113"><ele>197.0</ele><time>2026-04-06T13:56:11.999Z</time></trkpt><trkpt lat="44.18084277861887" lon="9.593292290501552"><ele>197.75</ele><time>2026-04-06T13:56:12.999Z</time></trkpt><trkpt lat="44.1807503483622" lon="9.5934554743164"><ele>198.5</ele><time>2026-04-06T13:56:13.999Z</time></trkpt><trkpt lat="44.18066622323305" lon="9.59361648136242"><ele>199.25</ele><time>2026-04-06T13:56:14.999Z</time></trkpt><trkpt lat="44.18057241527457" lon="9.593773926108078"><ele>200.0</ele><time>2026-04-06T13:56:15.999Z</time></trkpt><trkpt lat="44.18047878852077" lon="9.593916630750789"><ele>201.5</ele><time>2026-04-06T13:56:16.999Z</time></trkpt><trkpt lat="44.180374985449866" lon="9.594038496276891"><ele>203.0</ele><time>2026-04-06T13:56:17.999Z</time></trkpt><trkpt lat="44.18026275364094" lon="9.594144542690053"><ele>204.5</ele><time>2026-04-06T13:56:18.998Z</time></trkpt><trkpt lat="44.18016165457412" lon="9.594239813132297"><ele>206.0</ele><time>2026-04-06T13:56:19.998Z</time></trkpt><trkpt lat="44.180055919706916" lon="9.5943289512213"><ele>206.0</ele><time>2026-04-06T13:56:20.998Z</time></trkpt><trkpt lat="44.1799495986429" lon="9.59441096455085"><ele>206.0</ele><time>2026-04-06T13:56:21.998Z</time></trkpt><trkpt lat="44.17984605125396" lon="9.594470468572094"><ele>206.0</ele><time>2026-04-06T13:56:22.998Z</time></trkpt><trkpt lat="44.17976772647983" lon="9.594525208124399"><ele>206.0</ele><time>2026-04-06T13:56:23.998Z</time></trkpt><trkpt lat="44.17971879855833" lon="9.594608570721542"><ele>206.0</ele><time>2026-04-06T13:56:24.998Z</time></trkpt><trkpt lat="44.1796895456717" lon="9.594749983605896"><ele>200.75</ele><time>2026-04-06T13:56:25.998Z</time></trkpt><trkpt lat="44.17969179917856" lon="9.594914768229557"><ele>195.5</ele><time>2026-04-06T13:56:26.998Z</time></trkpt><trkpt lat="44.1796885521835" lon="9.595093688272152"><ele>190.25</ele><time>2026-04-06T13:56:27.998Z</time></trkpt><trkpt lat="44.179675904236056" lon="9.595283235650752"><ele>185.0</ele><time>2026-04-06T13:56:28.998Z</time></trkpt><trkpt lat="44.179652432066604" lon="9.595482050964588"><ele>185.0</ele><time>2026-04-06T13:56:29.998Z</time></trkpt><trkpt lat="44.17965278144319" lon="9.595669767502326"><ele>185.0</ele><time>2026-04-06T13:56:30.998Z</time></trkpt><trkpt lat="44.17966555698265" lon="9.595830936129829"><ele>185.0</ele><time>2026-04-06T13:56:31.998Z</time></trkpt><trkpt lat="44.179670696087136" lon="9.595955217850609"><ele>185.0</ele><time>2026-04-06T13:56:32.998Z</time></trkpt><trkpt lat="44.1796668306094" lon="9.596083501766502"><ele>185.0</ele><time>2026-04-06T13:56:33.998Z</time></trkpt><trkpt lat="44.17961669747499" lon="9.596202571041552"><ele>186.0</ele><time>2026-04-06T13:56:34.998Z</time></trkpt><trkpt lat="44.17952681224284" lon="9.596311787260099"><ele>187.0</ele><time>2026-04-06T13:56:36Z</time></trkpt><trkpt lat="44.179417207701526" lon="9.596393605455566"><ele>188.0</ele><time>2026-04-06T13:56:37Z</time></trkpt><trkpt lat="44.179289592200874" lon="9.596444085618812"><ele>189.0</ele><time>2026-04-06T13:56:38Z</time></trkpt><trkpt lat="44.179164566850574" lon="9.596523042148927"><ele>189.0</ele><time>2026-04-06T13:56:39Z</time></trkpt><trkpt lat="44.17904859223895" lon="9.59664911232639"><ele>189.0</ele><time>2026-04-06T13:56:40Z</time></trkpt><trkpt lat="44.178947440314985" lon="9.596773429808911"><ele>189.0</ele><time>2026-04-06T13:56:41Z</time></trkpt><trkpt lat="44.17886887895807" lon="9.596899019484715"><ele>189.0</ele><time>2026-04-06T13:56:42Z</time></trkpt><trkpt lat="44.17881516861048" lon="9.597064208457445"><ele>185.5</ele><time>2026-04-06T13:56:43Z</time></trkpt><trkpt lat="44.17877572151577" lon="9.5972525951874"><ele>182.0</ele><time>2026-04-06T13:56:44Z</time></trkpt><trkpt lat="44.178714877656105" lon="9.597431784248215"><ele>178.5</ele><time>2026-04-06T13:56:45Z</time></trkpt><trkpt lat="44.17861539323765" lon="9.59757156144957"><ele>175.0</ele><time>2026-04-06T13:56:46Z</time></trkpt><trkpt lat="44.17849611867678" lon="9.597698935902873"><ele>175.0</ele><time>2026-04-06T13:56:47Z</time></trkpt><trkpt lat="44.178357411302066" lon="9.597778070955822"><ele>175.0</ele><time>2026-04-06T13:56:48Z</time></trkpt><trkpt lat="44.178204562743915" lon="9.597811995470268"><ele>175.0</ele><time>2026-04-06T13:56:49Z</time></trkpt><trkpt lat="44.17803534831824" lon="9.597849406507663"><ele>173.0</ele><time>2026-04-06T13:56:50Z</time></trkpt><trkpt lat="44.177876464241116" lon="9.597882745715056"><ele>171.0</ele><time>2026-04-06T13:56:51Z</time></trkpt><trkpt lat="44.17773341286607" lon="9.597945258460069"><ele>169.0</ele><time>2026-04-06T13:56:52Z</time></trkpt><trkpt lat="44.1776104064901" lon="9.598027368546633"><ele>167.0</ele><time>2026-04-06T13:56:53Z</time></trkpt><trkpt lat="44.17749670854512" lon="9.598111435611273"><ele>167.0</ele><time>2026-04-06T13:56:54Z</time></trkpt><trkpt lat="44.17739526974447" lon="9.598185213215626"><ele>167.0</ele><time>2026-04-06T13:56:55Z</time></trkpt><trkpt lat="44.17730003981911" lon="9.598265796965638"><ele>167.0</ele><time>2026-04-06T13:56:56Z</time></trkpt><trkpt lat="44.177231684420434" lon="9.598354985144194"><ele>167.0</ele><time>2026-04-06T13:56:57Z</time></trkpt><trkpt lat="44.1771871838074" lon="9.59845502441642"><ele>167.0</ele><time>2026-04-06T13:56:58Z</time></trkpt><trkpt lat="44.17717574130546" lon="9.598582331997276"><ele>162.75</ele><time>2026-04-06T13:56:59Z</time></trkpt><trkpt lat="44.177281498477875" lon="9.598707134615346"><ele>158.5</ele><time>2026-04-06T13:57:00Z</time></trkpt><trkpt lat="44.177381513705555" lon="9.598803047099032"><ele>154.25</ele><time>2026-04-06T13:57:01Z</time></trkpt><trkpt lat="44.17749452776103" lon="9.598886401470137"><ele>150.0</ele><time>2026-04-06T13:57:02Z</time></trkpt><trkpt lat="44.17761628964881" lon="9.598936818361148"><ele>150.0</ele><time>2026-04-06T13:57:03Z</time></trkpt><trkpt lat="44.17773046667602" lon="9.598938914045327"><ele>150.0</ele><time>2026-04-06T13:57:04Z</time></trkpt><trkpt lat="44.17785273742005" lon="9.598896708226556"><ele>150.0</ele><time>2026-04-06T13:57:05Z</time></trkpt><trkpt lat="44.177977675021744" lon="9.598864019926328"><ele>150.0</ele><time>2026-04-06T13:57:06Z</time></trkpt><trkpt lat="44.1781035355961" lon="9.598844308576322"><ele>149.5</ele><time>2026-04-06T13:57:07Z</time></trkpt><trkpt lat="44.178227713217794" lon="9.598820942118893"><ele>149.0</ele><time>2026-04-06T13:57:08Z</time></trkpt><trkpt lat="44.17834620338993" lon="9.598792027922334"><ele>148.5</ele><time>2026-04-06T13:57:09Z</time></trkpt><trkpt lat="44.17846758445207" lon="9.598753788583467"><ele>148.0</ele><time>2026-04-06T13:57:10Z</time></trkpt><trkpt lat="44.17857907625238" lon="9.59872654432277"><ele>148.0</ele><time>2026-04-06T13:57:11Z</time></trkpt><trkpt lat="44.17869142370893" lon="9.598734524220585"><ele>148.0</ele><time>2026-04-06T13:57:12Z</time></trkpt><trkpt lat="44.17878256458958" lon="9.59881310589099"><ele>148.0</ele><time>2026-04-06T13:57:13Z</time></trkpt><trkpt lat="44.178885115587605" lon="9.59888969497919"><ele>148.0</ele><time>2026-04-06T13:57:14Z</time></trkpt><trkpt lat="44.178973476409546" lon="9.598975452141506"><ele>148.0</ele><time>2026-04-06T13:57:15Z</time></trkpt><trkpt lat="44.17903125071422" lon="9.599120290827916"><ele>151.0</ele><time>2026-04-06T13:57:16Z</time></trkpt><trkpt lat="44.17902921349796" lon="9.59928390014283"><ele>154.0</ele><time>2026-04-06T13:57:17Z</time></trkpt><trkpt lat="44.17905846067609" lon="9.599436788871829"><ele>157.0</ele><time>2026-04-06T13:57:18Z</time></trkpt><trkpt lat="44.179066062720004" lon="9.599534174100148"><ele>160.0</ele><time>2026-04-06T13:57:19Z</time></trkpt><trkpt lat="44.17905211315283" lon="9.599641085902212"><ele>163.0</ele><time>2026-04-06T13:57:20Z</time></trkpt><trkpt lat="44.17897351950274" lon="9.599733265416658"><ele>155.5</ele><time>2026-04-06T13:57:21Z</time></trkpt><trkpt lat="44.17887764461139" lon="9.5998006556733"><ele>148.0</ele><time>2026-04-06T13:57:22Z</time></trkpt><trkpt lat="44.178778666233974" lon="9.599894279791169"><ele>140.5</ele><time>2026-04-06T13:57:22.999Z</time></trkpt><trkpt lat="44.17868015063683" lon="9.599989168029643"><ele>133.0</ele><time>2026-04-06T13:57:23.999Z</time></trkpt><trkpt lat="44.17858551550547" lon="9.60009400854283"><ele>133.0</ele><time>2026-04-06T13:57:24.999Z</time></trkpt><trkpt lat="44.178513543242246" lon="9.600215447930188"><ele>133.0</ele><time>2026-04-06T13:57:25.999Z</time></trkpt><trkpt lat="44.1784454026477" lon="9.600332314199727"><ele>133.0</ele><time>2026-04-06T13:57:26.999Z</time></trkpt><trkpt lat="44.17841574303814" lon="9.600435956141812"><ele>133.0</ele><time>2026-04-06T13:57:27.999Z</time></trkpt><trkpt lat="44.178391163701676" lon="9.60053314397752"><ele>133.0</ele><time>2026-04-06T13:57:28.999Z</time></trkpt><trkpt lat="44.178373666278624" lon="9.600625519910695"><ele>133.0</ele><time>2026-04-06T13:57:29.999Z</time></trkpt><trkpt lat="44.17835809711762" lon="9.600738064734168"><ele>133.20000000000002</ele><time>2026-04-06T13:57:30.999Z</time></trkpt><trkpt lat="44.178350559752275" lon="9.600866614228226"><ele>133.4</ele><time>2026-04-06T13:57:31.999Z</time></trkpt><trkpt lat="44.17839802543622" lon="9.600996081072928"><ele>133.60000000000002</ele><time>2026-04-06T13:57:32.999Z</time></trkpt><trkpt lat="44.17845448245188" lon="9.601105557328411"><ele>133.8</ele><time>2026-04-06T13:57:33.999Z</time></trkpt><trkpt lat="44.178493988917104" lon="9.601227185285856"><ele>134.0</ele><time>2026-04-06T13:57:34.999Z</time></trkpt><trkpt lat="44.178479150272885" lon="9.601362594280262"><ele>134.0</ele><time>2026-04-06T13:57:35.999Z</time></trkpt><trkpt lat="44.17840767692986" lon="9.601477428136807"><ele>134.0</ele><time>2026-04-06T13:57:36.999Z</time></trkpt><trkpt lat="44.17834646178269" lon="9.601611662774353"><ele>134.0</ele><time>2026-04-06T13:57:37.999Z</time></trkpt><trkpt lat="44.17832523356781" lon="9.60175273862913"><ele>134.0</ele><time>2026-04-06T13:57:38.999Z</time></trkpt><trkpt lat="44.17834671091455" lon="9.601905753004988"><ele>134.0</ele><time>2026-04-06T13:57:39.999Z</time></trkpt><trkpt lat="44.17838714647767" lon="9.60204730042462"><ele>134.0</ele><time>2026-04-06T13:57:40.999Z</time></trkpt><trkpt lat="44.17840037187173" lon="9.602202946070546"><ele>134.0</ele><time>2026-04-06T13:57:41.999Z</time></trkpt><trkpt lat="44.17835082676959" lon="9.602352007769298"><ele>134.0</ele><time>2026-04-06T13:57:42.999Z</time></trkpt><trkpt lat="44.17831828830323" lon="9.602512145625457"><ele>134.0</ele><time>2026-04-06T13:57:43.999Z</time></trkpt><trkpt lat="44.17829189304319" lon="9.602686715673185"><ele>133.25</ele><time>2026-04-06T13:57:44.999Z</time></trkpt><trkpt lat="44.17829715819308" lon="9.602859456520278"><ele>132.5</ele><time>2026-04-06T13:57:45.999Z</time></trkpt><trkpt lat="44.17826415397954" lon="9.603032307869329"><ele>131.75</ele><time>2026-04-06T13:57:46.999Z</time></trkpt><trkpt lat="44.17821957382934" lon="9.603196995216816"><ele>131.0</ele><time>2026-04-06T13:57:47.999Z</time></trkpt><trkpt lat="44.17818654315037" lon="9.603361133920039"><ele>123.0</ele><time>2026-04-06T13:57:48.999Z</time></trkpt><trkpt lat="44.17815561478835" lon="9.603527423439902"><ele>115.0</ele><time>2026-04-06T13:57:49.999Z</time></trkpt><trkpt lat="44.17812799063812" lon="9.603689505233495"><ele>107.0</ele><time>2026-04-06T13:57:50.999Z</time></trkpt><trkpt lat="44.17811133800526" lon="9.603852443266774"><ele>99.0</ele><time>2026-04-06T13:57:51.999Z</time></trkpt><trkpt lat="44.17811303132722" lon="9.604017369728194"><ele>99.5</ele><time>2026-04-06T13:57:52.999Z</time></trkpt><trkpt lat="44.17812063064238" lon="9.604182015454626"><ele>100.0</ele><time>2026-04-06T13:57:53.999Z</time></trkpt><trkpt lat="44.178131243501205" lon="9.604349736108926"><ele>100.5</ele><time>2026-04-06T13:57:54.999Z</time></trkpt><trkpt lat="44.1781513134459" lon="9.604509659556962"><ele>101.0</ele><time>2026-04-06T13:57:55.999Z</time></trkpt><trkpt lat="44.17815452986014" lon="9.60465281827022"><ele>101.0</ele><time>2026-04-06T13:57:56.999Z</time></trkpt><trkpt lat="44.178165126523204" lon="9.604785394448655"><ele>101.0</ele><time>2026-04-06T13:57:57.999Z</time></trkpt><trkpt lat="44.17818168316026" lon="9.604923709337625"><ele>101.0</ele><time>2026-04-06T13:57:58.999Z</time></trkpt><trkpt lat="44.178212929065545" lon="9.605060670457474"><ele>101.0</ele><time>2026-04-06T13:57:59.999Z</time></trkpt><trkpt lat="44.178266603832675" lon="9.605168085470009"><ele>101.0</ele><time>2026-04-06T13:58:00.999Z</time></trkpt><trkpt lat="44.178341255533475" lon="9.605230452420471"><ele>104.16666666666666</ele><time>2026-04-06T13:58:01.999Z</time></trkpt><trkpt lat="44.17840493930631" lon="9.605278476044083"><ele>107.33333333333333</ele><time>2026-04-06T13:58:02.999Z</time></trkpt><trkpt lat="44.178469271707044" lon="9.60533115789432"><ele>110.5</ele><time>2026-04-06T13:58:03.999Z</time></trkpt><trkpt lat="44.1785154044198" lon="9.605401448375458"><ele>113.66666666666666</ele><time>2026-04-06T13:58:04.999Z</time></trkpt><trkpt lat="44.1785507596613" lon="9.605475886264951"><ele>116.83333333333333</ele><time>2026-04-06T13:58:05.999Z</time></trkpt><trkpt lat="44.17856603605661" lon="9.605650422835955"><ele>120.0</ele><time>2026-04-06T13:58:07.999Z</time></trkpt><trkpt lat="44.17856148149838" lon="9.60577432019487"><ele>122.0</ele><time>2026-04-06T13:58:09.999Z</time></trkpt><trkpt lat="44.17841917169548" lon="9.605715782265406"><ele>124.0</ele><time>2026-04-06T13:58:10.999Z</time></trkpt><trkpt lat="44.178337116698515" lon="9.605670212053859"><ele>126.0</ele><time>2026-04-06T13:58:11.999Z</time></trkpt><trkpt lat="44.17801651695082" lon="9.605578963325586"><ele>126.6</ele><time>2026-04-06T13:58:12.999Z</time></trkpt><trkpt lat="44.1779100852256" lon="9.605526484671921"><ele>127.19999999999999</ele><time>2026-04-06T13:58:13.999Z</time></trkpt><trkpt lat="44.17780817184966" lon="9.605463874337609"><ele>127.80000000000001</ele><time>2026-04-06T13:58:14.999Z</time></trkpt><trkpt lat="44.1777083115237" lon="9.605421861212971"><ele>128.4</ele><time>2026-04-06T13:58:15.999Z</time></trkpt><trkpt lat="44.177616587718575" lon="9.605366366059284"><ele>129.0</ele><time>2026-04-06T13:58:16.999Z</time></trkpt><trkpt lat="44.17755442497223" lon="9.605303963548701"><ele>123.4</ele><time>2026-04-06T13:58:17.999Z</time></trkpt><trkpt lat="44.177474631654576" lon="9.605241708857857"><ele>117.80000000000001</ele><time>2026-04-06T13:58:18.999Z</time></trkpt><trkpt lat="44.17738261766848" lon="9.60518635281974"><ele>112.19999999999999</ele><time>2026-04-06T13:58:19.999Z</time></trkpt><trkpt lat="44.177311823561936" lon="9.605094333937146"><ele>106.6</ele><time>2026-04-06T13:58:20.999Z</time></trkpt><trkpt lat="44.17723150757354" lon="9.60503554951738"><ele>101.0</ele><time>2026-04-06T13:58:21.999Z</time></trkpt><trkpt lat="44.17717356486469" lon="9.604978421836892"><ele>101.0</ele><time>2026-04-06T13:58:22.999Z</time></trkpt><trkpt lat="44.17712887080149" lon="9.604895554353181"><ele>101.0</ele><time>2026-04-06T13:58:25.998Z</time></trkpt><trkpt lat="44.17700290980612" lon="9.604899117535584"><ele>101.0</ele><time>2026-04-06T13:58:52Z</time></trkpt><trkpt lat="44.17686124630874" lon="9.604837934523442"><ele>101.0</ele><time>2026-04-06T13:58:54Z</time></trkpt><trkpt lat="44.176742080851" lon="9.604804258648988"><ele>101.0</ele><time>2026-04-06T13:58:55Z</time></trkpt><trkpt lat="44.17658651888175" lon="9.604774998490923"><ele>101.0</ele><time>2026-04-06T13:58:56Z</time></trkpt><trkpt lat="44.17644075944686" lon="9.604746584213784"><ele>101.0</ele><time>2026-04-06T13:58:57Z</time></trkpt><trkpt lat="44.17628775382842" lon="9.60474059525399"><ele>97.33333333333333</ele><time>2026-04-06T13:58:58Z</time></trkpt><trkpt lat="44.17612720307746" lon="9.604763456775203"><ele>93.66666666666666</ele><time>2026-04-06T13:58:59Z</time></trkpt><trkpt lat="44.17596382623147" lon="9.60480669503136"><ele>90.0</ele><time>2026-04-06T13:59:00Z</time></trkpt><trkpt lat="44.17579350118972" lon="9.604855267927382"><ele>85.33333333333333</ele><time>2026-04-06T13:59:01Z</time></trkpt><trkpt lat="44.175612321002816" lon="9.604892671062537"><ele>80.66666666666666</ele><time>2026-04-06T13:59:02Z</time></trkpt><trkpt lat="44.17544123589158" lon="9.604952006342167"><ele>76.0</ele><time>2026-04-06T13:59:03Z</time></trkpt><trkpt lat="44.17526670097471" lon="9.60503086046121"><ele>76.0</ele><time>2026-04-06T13:59:04Z</time></trkpt><trkpt lat="44.175089332333314" lon="9.605126568475562"><ele>76.0</ele><time>2026-04-06T13:59:05Z</time></trkpt><trkpt lat="44.17491688235823" lon="9.605245039607679"><ele>76.0</ele><time>2026-04-06T13:59:06Z</time></trkpt><trkpt lat="44.174742004492856" lon="9.60535258774368"><ele>78.33333333333333</ele><time>2026-04-06T13:59:07Z</time></trkpt><trkpt lat="44.17457398479617" lon="9.60543773927035"><ele>80.66666666666667</ele><time>2026-04-06T13:59:08Z</time></trkpt><trkpt lat="44.17440053566074" lon="9.605495565044645"><ele>83.0</ele><time>2026-04-06T13:59:09Z</time></trkpt><trkpt lat="44.17421953148943" lon="9.605519039319208"><ele>83.0</ele><time>2026-04-06T13:59:10Z</time></trkpt><trkpt lat="44.174062967004424" lon="9.605508264048296"><ele>83.0</ele><time>2026-04-06T13:59:11Z</time></trkpt><trkpt lat="44.17391308837206" lon="9.605495443049813"><ele>83.0</ele><time>2026-04-06T13:59:12Z</time></trkpt><trkpt lat="44.17376872703476" lon="9.605497078690224"><ele>77.75</ele><time>2026-04-06T13:59:13Z</time></trkpt><trkpt lat="44.173646600330294" lon="9.60551540499505"><ele>72.5</ele><time>2026-04-06T13:59:14Z</time></trkpt><trkpt lat="44.173514585228304" lon="9.605573858451082"><ele>67.25</ele><time>2026-04-06T13:59:15Z</time></trkpt><trkpt lat="44.17338532960962" lon="9.605622078802075"><ele>62.0</ele><time>2026-04-06T13:59:16Z</time></trkpt><trkpt lat="44.173282046601294" lon="9.605704988759364"><ele>62.0</ele><time>2026-04-06T13:59:17Z</time></trkpt><trkpt lat="44.17320267779296" lon="9.605841893328863"><ele>62.0</ele><time>2026-04-06T13:59:18Z</time></trkpt><trkpt lat="44.17314055777897" lon="9.605994193462724"><ele>62.0</ele><time>2026-04-06T13:59:19Z</time></trkpt><trkpt lat="44.17308357380949" lon="9.606204735593185"><ele>62.0</ele><time>2026-04-06T13:59:20Z</time></trkpt><trkpt lat="44.17301517179109" lon="9.606385909082631"><ele>54.75</ele><time>2026-04-06T13:59:21Z</time></trkpt><trkpt lat="44.172940137796274" lon="9.606560382838895"><ele>47.5</ele><time>2026-04-06T13:59:22Z</time></trkpt><trkpt lat="44.1728805742572" lon="9.606718070812075"><ele>40.25</ele><time>2026-04-06T13:59:23Z</time></trkpt><trkpt lat="44.17284611417531" lon="9.606845930246978"><ele>33.0</ele><time>2026-04-06T13:59:24Z</time></trkpt><trkpt lat="44.17282561757408" lon="9.607017946355118"><ele>33.0</ele><time>2026-04-06T13:59:24.999Z</time></trkpt><trkpt lat="44.17282464147851" lon="9.607195161616536"><ele>33.0</ele><time>2026-04-06T13:59:25.999Z</time></trkpt><trkpt lat="44.17282227654654" lon="9.6074448547717"><ele>33.0</ele><time>2026-04-06T13:59:26.999Z</time></trkpt><trkpt lat="44.17282589098508" lon="9.607651172155252"><ele>31.75</ele><time>2026-04-06T13:59:27.999Z</time></trkpt><trkpt lat="44.172829597640295" lon="9.607871915602688"><ele>30.5</ele><time>2026-04-06T13:59:28.999Z</time></trkpt><trkpt lat="44.17283036372461" lon="9.60806918340231"><ele>29.25</ele><time>2026-04-06T13:59:29.999Z</time></trkpt><trkpt lat="44.172841786832194" lon="9.60825699093499"><ele>28.0</ele><time>2026-04-06T13:59:30.999Z</time></trkpt><trkpt lat="44.1728888665971" lon="9.60844160847592"><ele>28.0</ele><time>2026-04-06T13:59:31.999Z</time></trkpt><trkpt lat="44.17294739242029" lon="9.608628799666963"><ele>28.0</ele><time>2026-04-06T13:59:32.999Z</time></trkpt><trkpt lat="44.17301117588054" lon="9.608827541012973"><ele>28.0</ele><time>2026-04-06T13:59:33.999Z</time></trkpt><trkpt lat="44.173079084731604" lon="9.60903530668576"><ele>26.5</ele><time>2026-04-06T13:59:34.999Z</time></trkpt><trkpt lat="44.17314821664921" lon="9.609246554162146"><ele>25.0</ele><time>2026-04-06T13:59:35.999Z</time></trkpt><trkpt lat="44.17320441493991" lon="9.60943640047438"><ele>23.5</ele><time>2026-04-06T13:59:36.999Z</time></trkpt><trkpt lat="44.17324576289241" lon="9.609607016890182"><ele>22.0</ele><time>2026-04-06T13:59:37.999Z</time></trkpt><trkpt lat="44.17327024360884" lon="9.609779782736352"><ele>28.75</ele><time>2026-04-06T13:59:38.999Z</time></trkpt><trkpt lat="44.17327512606638" lon="9.609958901447296"><ele>35.5</ele><time>2026-04-06T13:59:39.999Z</time></trkpt><trkpt lat="44.173261538936885" lon="9.610141048833022"><ele>42.25</ele><time>2026-04-06T13:59:40.999Z</time></trkpt><trkpt lat="44.173241839727716" lon="9.610323392529784"><ele>49.0</ele><time>2026-04-06T13:59:41.999Z</time></trkpt><trkpt lat="44.17321972478479" lon="9.610490631361678"><ele>49.0</ele><time>2026-04-06T13:59:42.999Z</time></trkpt><trkpt lat="44.17320580728687" lon="9.610663312247086"><ele>49.0</ele><time>2026-04-06T13:59:43.999Z</time></trkpt><trkpt lat="44.17318326067744" lon="9.610820585659122"><ele>49.0</ele><time>2026-04-06T13:59:44.999Z</time></trkpt><trkpt lat="44.173164911863786" lon="9.610957796454908"><ele>49.0</ele><time>2026-04-06T13:59:45.999Z</time></trkpt><trkpt lat="44.173192827805195" lon="9.611100289073033"><ele>49.0</ele><time>2026-04-06T13:59:46.999Z</time></trkpt><trkpt lat="44.173286238968394" lon="9.611226788264691"><ele>45.25</ele><time>2026-04-06T13:59:47.999Z</time></trkpt><trkpt lat="44.17334735500909" lon="9.611358773945447"><ele>41.5</ele><time>2026-04-06T13:59:48.999Z</time></trkpt><trkpt lat="44.17342451375655" lon="9.611488588518453"><ele>37.75</ele><time>2026-04-06T13:59:49.999Z</time></trkpt><trkpt lat="44.17350211566676" lon="9.611616464167966"><ele>34.0</ele><time>2026-04-06T13:59:50.999Z</time></trkpt><trkpt lat="44.17357811451863" lon="9.611719818839767"><ele>34.0</ele><time>2026-04-06T13:59:51.999Z</time></trkpt><trkpt lat="44.17364284104905" lon="9.611805559626527"><ele>34.0</ele><time>2026-04-06T13:59:52.999Z</time></trkpt><trkpt lat="44.17372131759812" lon="9.611931100137129"><ele>34.0</ele><time>2026-04-06T13:59:54.999Z</time></trkpt><trkpt lat="44.17375474715742" lon="9.612031207775178"><ele>34.0</ele><time>2026-04-06T13:59:58.999Z</time></trkpt><trkpt lat="44.17381352744745" lon="9.61207176363598"><ele>34.0</ele><time>2026-04-06T13:59:59.999Z</time></trkpt><trkpt lat="44.17389794401712" lon="9.612095325006514"><ele>34.0</ele><time>2026-04-06T14:00:00.999Z</time></trkpt><trkpt lat="44.17398273890079" lon="9.612094907213068"><ele>35.6</ele><time>2026-04-06T14:00:01.999Z</time></trkpt><trkpt lat="44.174061283306884" lon="9.612120724808301"><ele>37.2</ele><time>2026-04-06T14:00:02.999Z</time></trkpt><trkpt lat="44.174162743365784" lon="9.612148049165214"><ele>38.800000000000004</ele><time>2026-04-06T14:00:03.999Z</time></trkpt><trkpt lat="44.17424339005355" lon="9.612176586151724"><ele>40.4</ele><time>2026-04-06T14:00:04.999Z</time></trkpt><trkpt lat="44.17433473938884" lon="9.612173471436117"><ele>42.0</ele><time>2026-04-06T14:00:05.999Z</time></trkpt><trkpt lat="44.174430276057" lon="9.61222116679328"><ele>42.0</ele><time>2026-04-06T14:00:06.999Z</time></trkpt><trkpt lat="44.17452071178965" lon="9.612245436664043"><ele>42.0</ele><time>2026-04-06T14:00:07.999Z</time></trkpt><trkpt lat="44.174620053422224" lon="9.612274163842223"><ele>42.0</ele><time>2026-04-06T14:00:08.999Z</time></trkpt><trkpt lat="44.1747181368699" lon="9.6123047342886"><ele>42.0</ele><time>2026-04-06T14:00:09.999Z</time></trkpt><trkpt lat="44.17481450734033" lon="9.61233556187433"><ele>42.0</ele><time>2026-04-06T14:00:10.999Z</time></trkpt><trkpt lat="44.174912605614374" lon="9.612370876281982"><ele>45.400000000000006</ele><time>2026-04-06T14:00:11.999Z</time></trkpt><trkpt lat="44.17499846631889" lon="9.612377731346358"><ele>48.800000000000004</ele><time>2026-04-06T14:00:12.999Z</time></trkpt><trkpt lat="44.17510056569269" lon="9.612421400489012"><ele>52.2</ele><time>2026-04-06T14:00:13.999Z</time></trkpt><trkpt lat="44.17519836952307" lon="9.612457566789878"><ele>55.6</ele><time>2026-04-06T14:00:14.999Z</time></trkpt><trkpt lat="44.17530673764877" lon="9.612487068234872"><ele>59.0</ele><time>2026-04-06T14:00:15.999Z</time></trkpt><trkpt lat="44.17542292935708" lon="9.612518954298729"><ele>59.0</ele><time>2026-04-06T14:00:16.999Z</time></trkpt><trkpt lat="44.17552655919657" lon="9.612548348967831"><ele>59.00000000000001</ele><time>2026-04-06T14:00:17.999Z</time></trkpt><trkpt lat="44.175634970874334" lon="9.612574410903871"><ele>59.00000000000001</ele><time>2026-04-06T14:00:18.999Z</time></trkpt><trkpt lat="44.175746858801475" lon="9.612598308800743"><ele>59.0</ele><time>2026-04-06T14:00:19.999Z</time></trkpt><trkpt lat="44.175859848769306" lon="9.61262468433247"><ele>59.0</ele><time>2026-04-06T14:00:20.999Z</time></trkpt><trkpt lat="44.175975646016774" lon="9.612643255644166"><ele>63.0</ele><time>2026-04-06T14:00:21.999Z</time></trkpt><trkpt lat="44.17609116752637" lon="9.612650007721104"><ele>67.0</ele><time>2026-04-06T14:00:22.999Z</time></trkpt><trkpt lat="44.17617833091626" lon="9.6126541126353"><ele>71.0</ele><time>2026-04-06T14:00:23.999Z</time></trkpt><trkpt lat="44.17630271834843" lon="9.612682548277322"><ele>75.0</ele><time>2026-04-06T14:00:24.999Z</time></trkpt><trkpt lat="44.176413649802306" lon="9.61274969023792"><ele>74.6</ele><time>2026-04-06T14:00:25.999Z</time></trkpt><trkpt lat="44.17649448550637" lon="9.61286354996449"><ele>74.2</ele><time>2026-04-06T14:00:26.998Z</time></trkpt><trkpt lat="44.17656409121187" lon="9.612963565185035"><ele>73.8</ele><time>2026-04-06T14:00:27.998Z</time></trkpt><trkpt lat="44.176633644687115" lon="9.613078224795615"><ele>73.4</ele><time>2026-04-06T14:00:28.998Z</time></trkpt><trkpt lat="44.176700406865685" lon="9.613148127005884"><ele>73.0</ele><time>2026-04-06T14:00:29.998Z</time></trkpt><trkpt lat="44.1767812332716" lon="9.613205259863689"><ele>73.0</ele><time>2026-04-06T14:00:30.998Z</time></trkpt><trkpt lat="44.17687469693057" lon="9.613239593259532"><ele>73.0</ele><time>2026-04-06T14:00:31.998Z</time></trkpt><trkpt lat="44.17697109142315" lon="9.613271248034009"><ele>73.0</ele><time>2026-04-06T14:00:32.998Z</time></trkpt><trkpt lat="44.1770640124985" lon="9.613300397688626"><ele>73.0</ele><time>2026-04-06T14:00:33.998Z</time></trkpt><trkpt lat="44.17715836608443" lon="9.613324143918838"><ele>73.0</ele><time>2026-04-06T14:00:34.998Z</time></trkpt><trkpt lat="44.177245668867414" lon="9.613347343343527"><ele>73.0</ele><time>2026-04-06T14:00:35.998Z</time></trkpt><trkpt lat="44.177332567396434" lon="9.613383248522377"><ele>73.0</ele><time>2026-04-06T14:00:36.998Z</time></trkpt><trkpt lat="44.17741051252211" lon="9.613423060168406"><ele>73.0</ele><time>2026-04-06T14:00:37.998Z</time></trkpt><trkpt lat="44.177477545121434" lon="9.613478270463057"><ele>73.0</ele><time>2026-04-06T14:00:38.998Z</time></trkpt><trkpt lat="44.177531401840504" lon="9.613568144916632"><ele>73.0</ele><time>2026-04-06T14:00:39.998Z</time></trkpt><trkpt lat="44.177586319752464" lon="9.613666293190358"><ele>73.0</ele><time>2026-04-06T14:00:40.998Z</time></trkpt><trkpt lat="44.17765911931106" lon="9.613764154588855"><ele>74.0</ele><time>2026-04-06T14:00:41.998Z</time></trkpt><trkpt lat="44.17772466118383" lon="9.613836938580084"><ele>75.0</ele><time>2026-04-06T14:00:42.998Z</time></trkpt><trkpt lat="44.17781816311841" lon="9.61389294794833"><ele>76.0</ele><time>2026-04-06T14:00:43.998Z</time></trkpt><trkpt lat="44.17791892153487" lon="9.613922457938015"><ele>77.0</ele><time>2026-04-06T14:00:44.998Z</time></trkpt><trkpt lat="44.17802051607611" lon="9.613929884491586"><ele>78.0</ele><time>2026-04-06T14:00:45.998Z</time></trkpt><trkpt lat="44.178125521743276" lon="9.613895879423628"><ele>81.0</ele><time>2026-04-06T14:00:46.998Z</time></trkpt><trkpt lat="44.178224380825334" lon="9.613845373810875"><ele>84.0</ele><time>2026-04-06T14:00:48Z</time></trkpt><trkpt lat="44.17832307620812" lon="9.613794242022493"><ele>87.0</ele><time>2026-04-06T14:00:49Z</time></trkpt><trkpt lat="44.17841891438637" lon="9.613779321411403"><ele>90.0</ele><time>2026-04-06T14:00:50Z</time></trkpt><trkpt lat="44.17849760073272" lon="9.613811484422113"><ele>93.0</ele><time>2026-04-06T14:00:51Z</time></trkpt><trkpt lat="44.17858058364973" lon="9.613848503249079"><ele>93.0</ele><time>2026-04-06T14:00:52Z</time></trkpt><trkpt lat="44.178634097519485" lon="9.613929257202827"><ele>93.0</ele><time>2026-04-06T14:00:53Z</time></trkpt><trkpt lat="44.178689154613224" lon="9.614023975737885"><ele>93.0</ele><time>2026-04-06T14:00:54Z</time></trkpt><trkpt lat="44.178767164767855" lon="9.614112484566913"><ele>93.0</ele><time>2026-04-06T14:00:55Z</time></trkpt><trkpt lat="44.17883498406816" lon="9.61417793975079"><ele>93.0</ele><time>2026-04-06T14:00:56Z</time></trkpt><trkpt lat="44.178908036673604" lon="9.614234924562329"><ele>93.0</ele><time>2026-04-06T14:00:57Z</time></trkpt><trkpt lat="44.17898802662689" lon="9.6142985222373"><ele>96.2</ele><time>2026-04-06T14:00:58Z</time></trkpt><trkpt lat="44.179075867507926" lon="9.614352641964178"><ele>99.4</ele><time>2026-04-06T14:00:59Z</time></trkpt><trkpt lat="44.17916829826452" lon="9.614395556898481"><ele>102.60000000000001</ele><time>2026-04-06T14:01:00Z</time></trkpt><trkpt lat="44.17926619136912" lon="9.614426583300107"><ele>105.80000000000001</ele><time>2026-04-06T14:01:01Z</time></trkpt><trkpt lat="44.17936828267981" lon="9.614442425882048"><ele>109.0</ele><time>2026-04-06T14:01:02Z</time></trkpt><trkpt lat="44.179476702936675" lon="9.614465103484129"><ele>106.80000000000001</ele><time>2026-04-06T14:01:03Z</time></trkpt><trkpt lat="44.17957680558759" lon="9.614536304894822"><ele>104.60000000000001</ele><time>2026-04-06T14:01:04Z</time></trkpt><trkpt lat="44.17967207208485" lon="9.614573894529087"><ele>102.4</ele><time>2026-04-06T14:01:05Z</time></trkpt><trkpt lat="44.17975998942719" lon="9.614591874133282"><ele>100.2</ele><time>2026-04-06T14:01:06Z</time></trkpt><trkpt lat="44.17985116504115" lon="9.614552084112828"><ele>98.0</ele><time>2026-04-06T14:01:07Z</time></trkpt><trkpt lat="44.1799404679389" lon="9.61447678377164"><ele>98.0</ele><time>2026-04-06T14:01:08Z</time></trkpt><trkpt lat="44.180036426497274" lon="9.614415413808286"><ele>98.0</ele><time>2026-04-06T14:01:09Z</time></trkpt><trkpt lat="44.180148118442204" lon="9.6144217512542"><ele>98.0</ele><time>2026-04-06T14:01:10Z</time></trkpt><trkpt lat="44.18023126170893" lon="9.614430882006731"><ele>98.0</ele><time>2026-04-06T14:01:11Z</time></trkpt><trkpt lat="44.1803087138209" lon="9.614489567624059"><ele>98.0</ele><time>2026-04-06T14:01:12Z</time></trkpt><trkpt lat="44.18037980842013" lon="9.614590054799056"><ele>98.0</ele><time>2026-04-06T14:01:13Z</time></trkpt><trkpt lat="44.180465262106516" lon="9.61466886835745"><ele>98.0</ele><time>2026-04-06T14:01:14Z</time></trkpt><trkpt lat="44.18053962582845" lon="9.614746335280772"><ele>98.0</ele><time>2026-04-06T14:01:15Z</time></trkpt><trkpt lat="44.18061020024424" lon="9.614782329947625"><ele>98.0</ele><time>2026-04-06T14:01:16Z</time></trkpt><trkpt lat="44.18070719305381" lon="9.614783789981981"><ele>98.0</ele><time>2026-04-06T14:01:17Z</time></trkpt><trkpt lat="44.18079570435636" lon="9.614765791941497"><ele>99.80000000000001</ele><time>2026-04-06T14:01:18Z</time></trkpt><trkpt lat="44.180907950965235" lon="9.614753448966022"><ele>101.6</ele><time>2026-04-06T14:01:19Z</time></trkpt><trkpt lat="44.181003638481705" lon="9.614798804898324"><ele>103.39999999999999</ele><time>2026-04-06T14:01:20Z</time></trkpt><trkpt lat="44.18107705363327" lon="9.61487880478525"><ele>105.19999999999999</ele><time>2026-04-06T14:01:21Z</time></trkpt><trkpt lat="44.18115932381718" lon="9.614919386062935"><ele>107.0</ele><time>2026-04-06T14:01:22Z</time></trkpt><trkpt lat="44.18123958434424" lon="9.614915019513427"><ele>107.0</ele><time>2026-04-06T14:01:23Z</time></trkpt><trkpt lat="44.181322871616345" lon="9.614845128717334"><ele>106.99999999999999</ele><time>2026-04-06T14:01:24Z</time></trkpt><trkpt lat="44.18139822944071" lon="9.614740891453671"><ele>106.99999999999999</ele><time>2026-04-06T14:01:25Z</time></trkpt><trkpt lat="44.18146603304944" lon="9.61463017028639"><ele>107.0</ele><time>2026-04-06T14:01:26Z</time></trkpt><trkpt lat="44.18152624649382" lon="9.614493188007058"><ele>107.0</ele><time>2026-04-06T14:01:27Z</time></trkpt><trkpt lat="44.18158879171784" lon="9.61437131509666"><ele>110.0</ele><time>2026-04-06T14:01:28Z</time></trkpt><trkpt lat="44.18166305267466" lon="9.614269394374917"><ele>112.99999999999999</ele><time>2026-04-06T14:01:29Z</time></trkpt><trkpt lat="44.181742617324396" lon="9.61418267100862"><ele>115.99999999999999</ele><time>2026-04-06T14:01:30Z</time></trkpt><trkpt lat="44.181828992931436" lon="9.61410627227881"><ele>119.0</ele><time>2026-04-06T14:01:31Z</time></trkpt><trkpt lat="44.181890927849324" lon="9.6140112014237"><ele>122.0</ele><time>2026-04-06T14:01:32Z</time></trkpt><trkpt lat="44.181914719187105" lon="9.613928862835655"><ele>121.99999999999999</ele><time>2026-04-06T14:01:32.999Z</time></trkpt><trkpt lat="44.18194018925527" lon="9.613842973286177"><ele>122.0</ele><time>2026-04-06T14:01:35.999Z</time></trkpt><trkpt lat="44.18189883544311" lon="9.61395268574476"><ele>121.99999999999999</ele><time>2026-04-06T14:01:39.999Z</time></trkpt><trkpt lat="44.18184706579641" lon="9.614027082631843"><ele>121.99999999999999</ele><time>2026-04-06T14:01:40.999Z</time></trkpt><trkpt lat="44.18180586460965" lon="9.614100961540709"><ele>122.0</ele><time>2026-04-06T14:01:41.999Z</time></trkpt><trkpt lat="44.181749665168276" lon="9.614176308240825"><ele>121.99999999999999</ele><time>2026-04-06T14:01:42.999Z</time></trkpt><trkpt lat="44.18168852432907" lon="9.61420221954675"><ele>121.99999999999999</ele><time>2026-04-06T14:01:43.999Z</time></trkpt><trkpt lat="44.18161151433986" lon="9.614259951151727"><ele>121.99999999999999</ele><time>2026-04-06T14:01:45.999Z</time></trkpt><trkpt lat="44.181510129254846" lon="9.614219725434088"><ele>122.0</ele><time>2026-04-06T14:02:24.999Z</time></trkpt><trkpt lat="44.181578701973585" lon="9.614281874683261"><ele>122.0</ele><time>2026-04-06T14:02:33.999Z</time></trkpt><trkpt lat="44.18157743759867" lon="9.614328760662689"><ele>122.0</ele><time>2026-04-06T14:04:59Z</time></trkpt><trkpt lat="44.181647420488254" lon="9.614255320465285"><ele>121.99999999999999</ele><time>2026-04-06T14:05:24Z</time></trkpt><trkpt lat="44.18174010904901" lon="9.61416942116983"><ele>122.0</ele><time>2026-04-06T14:05:26Z</time></trkpt><trkpt lat="44.18182845558707" lon="9.614040832167213"><ele>121.99999999999999</ele><time>2026-04-06T14:05:28Z</time></trkpt><trkpt lat="44.18189305956191" lon="9.613966041520042"><ele>122.0</ele><time>2026-04-06T14:05:28.999Z</time></trkpt><trkpt lat="44.181929539757924" lon="9.613871328133154"><ele>122.0</ele><time>2026-04-06T14:05:29.999Z</time></trkpt><trkpt lat="44.181963438473446" lon="9.613778947996654"><ele>122.0</ele><time>2026-04-06T14:05:30.999Z</time></trkpt><trkpt lat="44.181998473522945" lon="9.613673881480086"><ele>121.99999999999999</ele><time>2026-04-06T14:05:31.999Z</time></trkpt><trkpt lat="44.18203132321683" lon="9.613564317919288"><ele>122.0</ele><time>2026-04-06T14:05:32.999Z</time></trkpt><trkpt lat="44.18205910841787" lon="9.613448197598203"><ele>126.19999999999999</ele><time>2026-04-06T14:05:33.999Z</time></trkpt><trkpt lat="44.18208991491141" lon="9.613337484050215"><ele>130.39999999999998</ele><time>2026-04-06T14:05:34.999Z</time></trkpt><trkpt lat="44.182113970372306" lon="9.61321774618621"><ele>134.60000000000002</ele><time>2026-04-06T14:05:35.999Z</time></trkpt><trkpt lat="44.18218177066638" lon="9.613122468787152"><ele>138.8</ele><time>2026-04-06T14:05:36.999Z</time></trkpt><trkpt lat="44.18222605746261" lon="9.613008657082748"><ele>143.0</ele><time>2026-04-06T14:05:37.999Z</time></trkpt><trkpt lat="44.182250797296625" lon="9.612879358172782"><ele>141.8</ele><time>2026-04-06T14:05:38.999Z</time></trkpt><trkpt lat="44.18227644987055" lon="9.612749514400171"><ele>140.60000000000002</ele><time>2026-04-06T14:05:39.999Z</time></trkpt><trkpt lat="44.18230766264243" lon="9.61263665546285"><ele>139.39999999999998</ele><time>2026-04-06T14:05:40.999Z</time></trkpt><trkpt lat="44.18239075314418" lon="9.612501843694329"><ele>138.2</ele><time>2026-04-06T14:05:42.999Z</time></trkpt><trkpt lat="44.182465965004454" lon="9.612509382751362"><ele>137.0</ele><time>2026-04-06T14:05:43.999Z</time></trkpt><trkpt lat="44.18254012481057" lon="9.612539907018432"><ele>137.0</ele><time>2026-04-06T14:05:44.999Z</time></trkpt><trkpt lat="44.18262302417879" lon="9.612573687671844"><ele>137.0</ele><time>2026-04-06T14:05:45.999Z</time></trkpt><trkpt lat="44.182653339787784" lon="9.61268070552166"><ele>137.0</ele><time>2026-04-06T14:05:46.999Z</time></trkpt><trkpt lat="44.18270404077189" lon="9.612769200668104"><ele>137.0</ele><time>2026-04-06T14:05:47.999Z</time></trkpt><trkpt lat="44.182765482609156" lon="9.612847629466584"><ele>137.0</ele><time>2026-04-06T14:05:48.999Z</time></trkpt><trkpt lat="44.18280700918165" lon="9.61294174140411"><ele>137.0</ele><time>2026-04-06T14:05:49.999Z</time></trkpt><trkpt lat="44.18285567473843" lon="9.613036024779603"><ele>134.4</ele><time>2026-04-06T14:05:50.999Z</time></trkpt><trkpt lat="44.182904860384504" lon="9.613130036627608"><ele>131.79999999999998</ele><time>2026-04-06T14:05:51.999Z</time></trkpt><trkpt lat="44.18296196671783" lon="9.613230386592855"><ele>129.2</ele><time>2026-04-06T14:05:52.999Z</time></trkpt><trkpt lat="44.18302161661393" lon="9.61332583498383"><ele>126.6</ele><time>2026-04-06T14:05:53.999Z</time></trkpt><trkpt lat="44.18307705917243" lon="9.613429610314235"><ele>124.0</ele><time>2026-04-06T14:05:54.999Z</time></trkpt><trkpt lat="44.18314545846157" lon="9.613515359402383"><ele>125.2</ele><time>2026-04-06T14:05:55.999Z</time></trkpt><trkpt lat="44.183225177800004" lon="9.613579578807528"><ele>126.4</ele><time>2026-04-06T14:05:56.999Z</time></trkpt><trkpt lat="44.183313320937174" lon="9.613640274136044"><ele>127.6</ele><time>2026-04-06T14:05:57.999Z</time></trkpt><trkpt lat="44.183403718288396" lon="9.613699195455006"><ele>128.8</ele><time>2026-04-06T14:05:58.999Z</time></trkpt><trkpt lat="44.18349782456573" lon="9.613754877989084"><ele>130.0</ele><time>2026-04-06T14:05:59.999Z</time></trkpt><trkpt lat="44.1835968220512" lon="9.613807099384612"><ele>130.0</ele><time>2026-04-06T14:06:00.999Z</time></trkpt><trkpt lat="44.18369549963175" lon="9.61386589604778"><ele>130.0</ele><time>2026-04-06T14:06:01.999Z</time></trkpt><trkpt lat="44.18379197655138" lon="9.613913143503144"><ele>130.0</ele><time>2026-04-06T14:06:02.999Z</time></trkpt><trkpt lat="44.1838966884661" lon="9.613969864998948"><ele>130.0</ele><time>2026-04-06T14:06:03.999Z</time></trkpt><trkpt lat="44.18398185055674" lon="9.614067974853109"><ele>130.0</ele><time>2026-04-06T14:06:04.999Z</time></trkpt><trkpt lat="44.184073635875166" lon="9.614151223407164"><ele>134.0</ele><time>2026-04-06T14:06:05.999Z</time></trkpt><trkpt lat="44.18416397726114" lon="9.61425711098255"><ele>138.0</ele><time>2026-04-06T14:06:06.999Z</time></trkpt><trkpt lat="44.18425201944214" lon="9.61435610246811"><ele>142.0</ele><time>2026-04-06T14:06:07.999Z</time></trkpt><trkpt lat="44.18434134716973" lon="9.614451916795762"><ele>146.0</ele><time>2026-04-06T14:06:08.999Z</time></trkpt><trkpt lat="44.18443724792888" lon="9.61452491145574"><ele>146.0</ele><time>2026-04-06T14:06:09.999Z</time></trkpt><trkpt lat="44.18454645197253" lon="9.61457654522692"><ele>146.0</ele><time>2026-04-06T14:06:10.999Z</time></trkpt><trkpt lat="44.1846581557397" lon="9.614636601770089"><ele>146.0</ele><time>2026-04-06T14:06:11.999Z</time></trkpt><trkpt lat="44.184739961778455" lon="9.614734075807426"><ele>146.0</ele><time>2026-04-06T14:06:12.999Z</time></trkpt><trkpt lat="44.184808697330126" lon="9.614844967341527"><ele>146.0</ele><time>2026-04-06T14:06:13.999Z</time></trkpt><trkpt lat="44.18488416888557" lon="9.614920144100578"><ele>148.8</ele><time>2026-04-06T14:06:14.999Z</time></trkpt><trkpt lat="44.18497809872827" lon="9.61496949764412"><ele>151.6</ele><time>2026-04-06T14:06:15.999Z</time></trkpt><trkpt lat="44.18506878892868" lon="9.614959759291878"><ele>154.4</ele><time>2026-04-06T14:06:16.999Z</time></trkpt><trkpt lat="44.18516041547356" lon="9.614977433290425"><ele>157.2</ele><time>2026-04-06T14:06:17.999Z</time></trkpt><trkpt lat="44.1852194100311" lon="9.615056848267017"><ele>160.0</ele><time>2026-04-06T14:06:18.999Z</time></trkpt><trkpt lat="44.18528113066193" lon="9.61515198500214"><ele>160.0</ele><time>2026-04-06T14:06:19.999Z</time></trkpt><trkpt lat="44.185339553103915" lon="9.615219534416147"><ele>160.0</ele><time>2026-04-06T14:06:20.999Z</time></trkpt><trkpt lat="44.18544955781079" lon="9.615362908719487"><ele>160.0</ele><time>2026-04-06T14:06:22.999Z</time></trkpt><trkpt lat="44.185500636423996" lon="9.615460517167355"><ele>160.0</ele><time>2026-04-06T14:06:23.999Z</time></trkpt><trkpt lat="44.18553831079527" lon="9.615567828209304"><ele>160.0</ele><time>2026-04-06T14:06:24.999Z</time></trkpt><trkpt lat="44.1855709035443" lon="9.615680841005842"><ele>160.16666666666669</ele><time>2026-04-06T14:06:25.999Z</time></trkpt><trkpt lat="44.185610719486085" lon="9.615774919986887"><ele>160.33333333333334</ele><time>2026-04-06T14:06:26.999Z</time></trkpt><trkpt lat="44.185669564127785" lon="9.615827327849356"><ele>160.5</ele><time>2026-04-06T14:06:27.999Z</time></trkpt><trkpt lat="44.18574171096722" lon="9.6158348775769"><ele>160.66666666666666</ele><time>2026-04-06T14:06:28.999Z</time></trkpt><trkpt lat="44.185817580048706" lon="9.615712052700024"><ele>160.83333333333331</ele><time>2026-04-06T14:06:29.999Z</time></trkpt><trkpt lat="44.18588996997822" lon="9.61564049254252"><ele>161.0</ele><time>2026-04-06T14:06:30.998Z</time></trkpt><trkpt lat="44.18595502986279" lon="9.6155581657056"><ele>161.0</ele><time>2026-04-06T14:06:31.998Z</time></trkpt><trkpt lat="44.186024025992374" lon="9.615489347050794"><ele>161.0</ele><time>2026-04-06T14:06:32.998Z</time></trkpt><trkpt lat="44.186093564062205" lon="9.615438439483361"><ele>161.0</ele><time>2026-04-06T14:06:33.998Z</time></trkpt><trkpt lat="44.1861714098159" lon="9.615421857453914"><ele>161.0</ele><time>2026-04-06T14:06:34.998Z</time></trkpt><trkpt lat="44.18625487954195" lon="9.61543775341502"><ele>161.0</ele><time>2026-04-06T14:06:35.998Z</time></trkpt><trkpt lat="44.18632993850228" lon="9.615489746701645"><ele>161.0</ele><time>2026-04-06T14:06:36.998Z</time></trkpt><trkpt lat="44.186406884231815" lon="9.615520204577386"><ele>161.0</ele><time>2026-04-06T14:06:37.998Z</time></trkpt><trkpt lat="44.18648941770345" lon="9.615530189673176"><ele>161.0</ele><time>2026-04-06T14:06:38.998Z</time></trkpt><trkpt lat="44.18656874104058" lon="9.61547192776844"><ele>161.0</ele><time>2026-04-06T14:06:39.998Z</time></trkpt><trkpt lat="44.18663361587509" lon="9.615373598311816"><ele>161.0</ele><time>2026-04-06T14:06:40.998Z</time></trkpt><trkpt lat="44.186683527040415" lon="9.615254392575473"><ele>161.0</ele><time>2026-04-06T14:06:41.998Z</time></trkpt><trkpt lat="44.18672665389539" lon="9.615132108126438"><ele>166.4</ele><time>2026-04-06T14:06:42.998Z</time></trkpt><trkpt lat="44.186795345663896" lon="9.615033552287732"><ele>171.8</ele><time>2026-04-06T14:06:43.998Z</time></trkpt><trkpt lat="44.18687035632216" lon="9.614959327489144"><ele>177.20000000000002</ele><time>2026-04-06T14:06:44.998Z</time></trkpt><trkpt lat="44.186964129023316" lon="9.614912573682036"><ele>182.60000000000002</ele><time>2026-04-06T14:06:45.998Z</time></trkpt><trkpt lat="44.18705661950869" lon="9.614915360426819"><ele>188.0</ele><time>2026-04-06T14:06:46.998Z</time></trkpt><trkpt lat="44.18716635143336" lon="9.614882716050987"><ele>188.0</ele><time>2026-04-06T14:06:47.998Z</time></trkpt><trkpt lat="44.18726604600407" lon="9.614876202712496"><ele>188.0</ele><time>2026-04-06T14:06:48.998Z</time></trkpt><trkpt lat="44.187369907030835" lon="9.614847317225047"><ele>188.0</ele><time>2026-04-06T14:06:50Z</time></trkpt><trkpt lat="44.187460013432194" lon="9.614771873041395"><ele>188.0</ele><time>2026-04-06T14:06:51Z</time></trkpt><trkpt lat="44.18753077848879" lon="9.61467030461886"><ele>188.0</ele><time>2026-04-06T14:06:52Z</time></trkpt><trkpt lat="44.187598069309935" lon="9.614563382223562"><ele>188.8</ele><time>2026-04-06T14:06:53Z</time></trkpt><trkpt lat="44.18764835115554" lon="9.614439610384618"><ele>189.60000000000002</ele><time>2026-04-06T14:06:54Z</time></trkpt><trkpt lat="44.18768250534265" lon="9.61429879681856"><ele>190.39999999999998</ele><time>2026-04-06T14:06:55Z</time></trkpt><trkpt lat="44.187707989144684" lon="9.61415112303549"><ele>191.2</ele><time>2026-04-06T14:06:56Z</time></trkpt><trkpt lat="44.18773408219032" lon="9.613997681231723"><ele>192.0</ele><time>2026-04-06T14:06:57Z</time></trkpt><trkpt lat="44.18775519500366" lon="9.613839950581736"><ele>192.0</ele><time>2026-04-06T14:06:58Z</time></trkpt><trkpt lat="44.18779886445916" lon="9.613687175324177"><ele>192.0</ele><time>2026-04-06T14:06:59Z</time></trkpt><trkpt lat="44.187840437648354" lon="9.613531697987916"><ele>192.0</ele><time>2026-04-06T14:07:00Z</time></trkpt><trkpt lat="44.18789189022598" lon="9.61338468344596"><ele>192.0</ele><time>2026-04-06T14:07:01Z</time></trkpt><trkpt lat="44.187958184320806" lon="9.61325027446772"><ele>196.5</ele><time>2026-04-06T14:07:02Z</time></trkpt><trkpt lat="44.18801417028699" lon="9.613092813334347"><ele>201.0</ele><time>2026-04-06T14:07:03Z</time></trkpt><trkpt lat="44.1880710269627" lon="9.612956673788124"><ele>205.5</ele><time>2026-04-06T14:07:04Z</time></trkpt><trkpt lat="44.18812868543619" lon="9.612810287378478"><ele>210.0</ele><time>2026-04-06T14:07:05Z</time></trkpt><trkpt lat="44.188171726451266" lon="9.612665411035639"><ele>206.0</ele><time>2026-04-06T14:07:06Z</time></trkpt><trkpt lat="44.18820104806836" lon="9.612537808021461"><ele>202.0</ele><time>2026-04-06T14:07:07Z</time></trkpt><trkpt lat="44.18824379895439" lon="9.612441819181779"><ele>198.0</ele><time>2026-04-06T14:07:08Z</time></trkpt><trkpt lat="44.18829611810374" lon="9.61231248305244"><ele>194.0</ele><time>2026-04-06T14:07:10Z</time></trkpt><trkpt lat="44.188374736411994" lon="9.612305462988747"><ele>190.0</ele><time>2026-04-06T14:07:12Z</time></trkpt><trkpt lat="44.18846319068271" lon="9.612425667222569"><ele>190.0</ele><time>2026-04-06T14:07:14Z</time></trkpt><trkpt lat="44.18850155196275" lon="9.612504280458705"><ele>190.0</ele><time>2026-04-06T14:07:15Z</time></trkpt><trkpt lat="44.18856070326123" lon="9.612588078539476"><ele>190.0</ele><time>2026-04-06T14:07:16Z</time></trkpt><trkpt lat="44.18862269781658" lon="9.612673002211501"><ele>190.0</ele><time>2026-04-06T14:07:17Z</time></trkpt><trkpt lat="44.18868829804697" lon="9.61273823077012"><ele>190.0</ele><time>2026-04-06T14:07:18Z</time></trkpt><trkpt lat="44.18875888088572" lon="9.612753670042466"><ele>190.0</ele><time>2026-04-06T14:07:19Z</time></trkpt><trkpt lat="44.18882763287076" lon="9.612732516614395"><ele>190.0</ele><time>2026-04-06T14:07:20Z</time></trkpt><trkpt lat="44.18888507346904" lon="9.61260807204846"><ele>190.0</ele><time>2026-04-06T14:07:21Z</time></trkpt><trkpt lat="44.18893485612317" lon="9.612507874215876"><ele>190.0</ele><time>2026-04-06T14:07:22Z</time></trkpt><trkpt lat="44.188991167560864" lon="9.61241581032717"><ele>190.0</ele><time>2026-04-06T14:07:23Z</time></trkpt><trkpt lat="44.18905131819056" lon="9.612323466274399"><ele>190.0</ele><time>2026-04-06T14:07:24Z</time></trkpt><trkpt lat="44.18910790367448" lon="9.612226618144868"><ele>188.33333333333334</ele><time>2026-04-06T14:07:25Z</time></trkpt><trkpt lat="44.18916228184443" lon="9.612141206111637"><ele>186.66666666666669</ele><time>2026-04-06T14:07:26Z</time></trkpt><trkpt lat="44.189201564189176" lon="9.6120678589412"><ele>185.0</ele><time>2026-04-06T14:07:27Z</time></trkpt><trkpt lat="44.1892335828908" lon="9.611968724539942"><ele>183.33333333333334</ele><time>2026-04-06T14:07:29Z</time></trkpt><trkpt lat="44.18926603471539" lon="9.611835301712505"><ele>181.66666666666666</ele><time>2026-04-06T14:07:50.999Z</time></trkpt><trkpt lat="44.18931233025864" lon="9.611680114273128"><ele>180.0</ele><time>2026-04-06T14:07:52.999Z</time></trkpt><trkpt lat="44.189340003867486" lon="9.61159967084584"><ele>184.4</ele><time>2026-04-06T14:07:53.999Z</time></trkpt><trkpt lat="44.189380757202436" lon="9.611525210054623"><ele>188.8</ele><time>2026-04-06T14:07:54.999Z</time></trkpt><trkpt lat="44.18951035467102" lon="9.611546794342583"><ele>193.2</ele><time>2026-04-06T14:07:55.999Z</time></trkpt><trkpt lat="44.1896308239573" lon="9.611540780635917"><ele>197.6</ele><time>2026-04-06T14:07:57.999Z</time></trkpt><trkpt lat="44.18969922670908" lon="9.611535005713245"><ele>202.0</ele><time>2026-04-06T14:07:58.999Z</time></trkpt><trkpt lat="44.18974471794339" lon="9.611619316705605"><ele>201.99999999999997</ele><time>2026-04-06T14:07:59.999Z</time></trkpt><trkpt lat="44.18976169024949" lon="9.611713480867127"><ele>202.0</ele><time>2026-04-06T14:08:00.999Z</time></trkpt><trkpt lat="44.189800633074" lon="9.611812348105419"><ele>202.0</ele><time>2026-04-06T14:08:01.999Z</time></trkpt><trkpt lat="44.18985512640491" lon="9.611910196286921"><ele>202.0</ele><time>2026-04-06T14:08:02.999Z</time></trkpt><trkpt lat="44.189895315014894" lon="9.612012050688762"><ele>201.99999999999997</ele><time>2026-04-06T14:08:03.999Z</time></trkpt><trkpt lat="44.18994433199229" lon="9.612111927468966"><ele>202.0</ele><time>2026-04-06T14:08:04.999Z</time></trkpt><trkpt lat="44.189985755465734" lon="9.612208438375541"><ele>196.6</ele><time>2026-04-06T14:08:05.999Z</time></trkpt><trkpt lat="44.19006873911027" lon="9.612250158154913"><ele>191.2</ele><time>2026-04-06T14:08:06.999Z</time></trkpt><trkpt lat="44.190161902438604" lon="9.612214507104738"><ele>185.8</ele><time>2026-04-06T14:08:07.999Z</time></trkpt><trkpt lat="44.190239982730944" lon="9.61216500645128"><ele>180.4</ele><time>2026-04-06T14:08:08.999Z</time></trkpt><trkpt lat="44.190320708998655" lon="9.61211028379971"><ele>175.0</ele><time>2026-04-06T14:08:09.999Z</time></trkpt><trkpt lat="44.19040946325519" lon="9.612084263406437"><ele>175.0</ele><time>2026-04-06T14:08:10.999Z</time></trkpt><trkpt lat="44.190493407966564" lon="9.612032704721054"><ele>175.0</ele><time>2026-04-06T14:08:11.999Z</time></trkpt><trkpt lat="44.19057285741724" lon="9.61197645427081"><ele>175.0</ele><time>2026-04-06T14:08:12.999Z</time></trkpt><trkpt lat="44.19064530618449" lon="9.611878098780359"><ele>175.0</ele><time>2026-04-06T14:08:13.999Z</time></trkpt><trkpt lat="44.19067041187061" lon="9.61172544875026"><ele>175.0</ele><time>2026-04-06T14:08:14.999Z</time></trkpt><trkpt lat="44.19068274311571" lon="9.611582168123416"><ele>176.4</ele><time>2026-04-06T14:08:15.999Z</time></trkpt><trkpt lat="44.190692286445156" lon="9.611440619942867"><ele>177.8</ele><time>2026-04-06T14:08:16.999Z</time></trkpt><trkpt lat="44.19073036454721" lon="9.611305637886963"><ele>179.2</ele><time>2026-04-06T14:08:17.999Z</time></trkpt><trkpt lat="44.190763106232616" lon="9.61117626186841"><ele>180.6</ele><time>2026-04-06T14:08:18.999Z</time></trkpt><trkpt lat="44.190802877641474" lon="9.611027035312038"><ele>182.0</ele><time>2026-04-06T14:08:19.999Z</time></trkpt><trkpt lat="44.19089409655183" lon="9.610932689533323"><ele>186.39999999999998</ele><time>2026-04-06T14:08:20.999Z</time></trkpt><trkpt lat="44.190987422402124" lon="9.610862255523813"><ele>190.79999999999998</ele><time>2026-04-06T14:08:21.999Z</time></trkpt><trkpt lat="44.19108805229268" lon="9.61078327602784"><ele>195.2</ele><time>2026-04-06T14:08:22.999Z</time></trkpt><trkpt lat="44.19116801250125" lon="9.610682137858017"><ele>199.6</ele><time>2026-04-06T14:08:23.999Z</time></trkpt><trkpt lat="44.19123065794664" lon="9.610562636000308"><ele>204.0</ele><time>2026-04-06T14:08:24.999Z</time></trkpt><trkpt lat="44.19125229081853" lon="9.610411220904219"><ele>203.0</ele><time>2026-04-06T14:08:25.999Z</time></trkpt><trkpt lat="44.19125434266758" lon="9.610258687351582"><ele>202.0</ele><time>2026-04-06T14:08:26.999Z</time></trkpt><trkpt lat="44.191277045608544" lon="9.610132918255339"><ele>201.0</ele><time>2026-04-06T14:08:27.999Z</time></trkpt><trkpt lat="44.19130835366668" lon="9.610054405959064"><ele>200.0</ele><time>2026-04-06T14:08:28.999Z</time></trkpt><trkpt lat="44.19136693845534" lon="9.610010432265446"><ele>199.0</ele><time>2026-04-06T14:08:29.999Z</time></trkpt><trkpt lat="44.19144315910346" lon="9.610010013940892"><ele>198.0</ele><time>2026-04-06T14:08:30.999Z</time></trkpt><trkpt lat="44.19152424471481" lon="9.610054419833492"><ele>198.0</ele><time>2026-04-06T14:08:31.999Z</time></trkpt><trkpt lat="44.19160362329844" lon="9.610092585763724"><ele>198.0</ele><time>2026-04-06T14:08:32.999Z</time></trkpt><trkpt lat="44.191688215640454" lon="9.610107158044718"><ele>198.0</ele><time>2026-04-06T14:08:33.999Z</time></trkpt><trkpt lat="44.191773189056946" lon="9.610090214419538"><ele>198.0</ele><time>2026-04-06T14:08:34.998Z</time></trkpt><trkpt lat="44.19185935495131" lon="9.61003162943213"><ele>198.0</ele><time>2026-04-06T14:08:35.998Z</time></trkpt><trkpt lat="44.19192881056311" lon="9.60993535300991"><ele>198.0</ele><time>2026-04-06T14:08:36.998Z</time></trkpt><trkpt lat="44.19197858760909" lon="9.609818386845548"><ele>198.0</ele><time>2026-04-06T14:08:37.998Z</time></trkpt><trkpt lat="44.19200982863592" lon="9.609692469890023"><ele>198.0</ele><time>2026-04-06T14:08:38.998Z</time></trkpt><trkpt lat="44.19202016784897" lon="9.609557301175448"><ele>198.0</ele><time>2026-04-06T14:08:39.998Z</time></trkpt><trkpt lat="44.19202914708957" lon="9.609423366303236"><ele>198.0</ele><time>2026-04-06T14:08:40.998Z</time></trkpt><trkpt lat="44.19205179809904" lon="9.60928757102403"><ele>198.0</ele><time>2026-04-06T14:08:41.998Z</time></trkpt><trkpt lat="44.192073461355676" lon="9.609151678878288"><ele>199.66666666666666</ele><time>2026-04-06T14:08:42.998Z</time></trkpt><trkpt lat="44.192092393188325" lon="9.609031080010565"><ele>201.33333333333331</ele><time>2026-04-06T14:08:43.998Z</time></trkpt><trkpt lat="44.192122540243936" lon="9.608941129571795"><ele>203.0</ele><time>2026-04-06T14:08:44.998Z</time></trkpt><trkpt lat="44.19222199794492" lon="9.608860336678415"><ele>204.66666666666666</ele><time>2026-04-06T14:08:46.998Z</time></trkpt><trkpt lat="44.19230848529627" lon="9.608862553835642"><ele>206.33333333333331</ele><time>2026-04-06T14:08:47.998Z</time></trkpt><trkpt lat="44.192377231215836" lon="9.60891966025407"><ele>208.0</ele><time>2026-04-06T14:08:48.998Z</time></trkpt><trkpt lat="44.19242093355751" lon="9.609021948773618"><ele>207.99999999999997</ele><time>2026-04-06T14:08:49.998Z</time></trkpt><trkpt lat="44.192435426772725" lon="9.609137212850788"><ele>208.0</ele><time>2026-04-06T14:08:50.998Z</time></trkpt><trkpt lat="44.19245852847502" lon="9.609255519763403"><ele>208.0</ele><time>2026-04-06T14:08:51.998Z</time></trkpt><trkpt lat="44.192489491123936" lon="9.609363886476524"><ele>208.0</ele><time>2026-04-06T14:08:52.998Z</time></trkpt><trkpt lat="44.192519820118015" lon="9.609478304385972"><ele>207.99999999999997</ele><time>2026-04-06T14:08:53.998Z</time></trkpt><trkpt lat="44.192558309667504" lon="9.609592194067098"><ele>208.0</ele><time>2026-04-06T14:08:54.998Z</time></trkpt><trkpt lat="44.19258554989384" lon="9.609707686031463"><ele>207.60000000000002</ele><time>2026-04-06T14:08:56Z</time></trkpt><trkpt lat="44.192605352209725" lon="9.60983239923463"><ele>207.20000000000002</ele><time>2026-04-06T14:08:57Z</time></trkpt><trkpt lat="44.19256417713639" lon="9.60995269376858"><ele>206.8</ele><time>2026-04-06T14:08:58Z</time></trkpt><trkpt lat="44.19254268040579" lon="9.610088493204746"><ele>206.4</ele><time>2026-04-06T14:08:59Z</time></trkpt><trkpt lat="44.192516432849054" lon="9.61022019926755"><ele>206.0</ele><time>2026-04-06T14:09:00Z</time></trkpt><trkpt lat="44.19252932283272" lon="9.610355130915805"><ele>207.0</ele><time>2026-04-06T14:09:01Z</time></trkpt><trkpt lat="44.192537477946196" lon="9.610484870003452"><ele>208.0</ele><time>2026-04-06T14:09:02Z</time></trkpt><trkpt lat="44.192480829821626" lon="9.610603375109989"><ele>209.0</ele><time>2026-04-06T14:09:03Z</time></trkpt><trkpt lat="44.19244811530611" lon="9.610727021283367"><ele>210.0</ele><time>2026-04-06T14:09:04Z</time></trkpt><trkpt lat="44.19240567843632" lon="9.610860462557616"><ele>211.0</ele><time>2026-04-06T14:09:05Z</time></trkpt><trkpt lat="44.192383561795474" lon="9.610995862309458"><ele>211.0</ele><time>2026-04-06T14:09:06Z</time></trkpt><trkpt lat="44.19235652802013" lon="9.611139696742987"><ele>211.0</ele><time>2026-04-06T14:09:07Z</time></trkpt><trkpt lat="44.19234832657432" lon="9.611287281743724"><ele>211.0</ele><time>2026-04-06T14:09:08Z</time></trkpt><trkpt lat="44.192334396583504" lon="9.611431179566942"><ele>211.0</ele><time>2026-04-06T14:09:09Z</time></trkpt><trkpt lat="44.19230516114125" lon="9.611584273553907"><ele>211.0</ele><time>2026-04-06T14:09:10Z</time></trkpt><trkpt lat="44.19228250021276" lon="9.61173120423171"><ele>202.0</ele><time>2026-04-06T14:09:11Z</time></trkpt><trkpt lat="44.192270714596724" lon="9.611880790641884"><ele>193.0</ele><time>2026-04-06T14:09:12Z</time></trkpt><trkpt lat="44.19225922898005" lon="9.612036047185086"><ele>184.0</ele><time>2026-04-06T14:09:13Z</time></trkpt><trkpt lat="44.19223774405913" lon="9.612192620754868"><ele>175.0</ele><time>2026-04-06T14:09:14Z</time></trkpt><trkpt lat="44.19221859600929" lon="9.612344982490008"><ele>166.0</ele><time>2026-04-06T14:09:15Z</time></trkpt><trkpt lat="44.19219719210084" lon="9.612498548651779"><ele>165.8</ele><time>2026-04-06T14:09:16Z</time></trkpt><trkpt lat="44.19219750064149" lon="9.61264506599058"><ele>165.60000000000002</ele><time>2026-04-06T14:09:17Z</time></trkpt><trkpt lat="44.19219514530462" lon="9.612810573014313"><ele>165.4</ele><time>2026-04-06T14:09:18Z</time></trkpt><trkpt lat="44.19220577308138" lon="9.612968635646363"><ele>165.2</ele><time>2026-04-06T14:09:19Z</time></trkpt><trkpt lat="44.19221092041422" lon="9.613107993055532"><ele>165.0</ele><time>2026-04-06T14:09:20Z</time></trkpt><trkpt lat="44.19221307414093" lon="9.61322385257461"><ele>165.83333333333334</ele><time>2026-04-06T14:09:21Z</time></trkpt><trkpt lat="44.192302989103354" lon="9.613325245323296"><ele>166.66666666666666</ele><time>2026-04-06T14:09:23Z</time></trkpt><trkpt lat="44.19237246707038" lon="9.613298159401753"><ele>167.5</ele><time>2026-04-06T14:09:24Z</time></trkpt><trkpt lat="44.1924299827503" lon="9.613236665582098"><ele>168.33333333333331</ele><time>2026-04-06T14:09:25Z</time></trkpt><trkpt lat="44.19248440878958" lon="9.613177394776251"><ele>169.16666666666666</ele><time>2026-04-06T14:09:26Z</time></trkpt><trkpt lat="44.19254553163858" lon="9.613118189440897"><ele>170.0</ele><time>2026-04-06T14:09:27Z</time></trkpt><trkpt lat="44.1926124830838" lon="9.613053385079555"><ele>176.4</ele><time>2026-04-06T14:09:28Z</time></trkpt><trkpt lat="44.192685236796706" lon="9.612989865085476"><ele>182.8</ele><time>2026-04-06T14:09:29Z</time></trkpt><trkpt lat="44.192756540069034" lon="9.612919008307443"><ele>189.2</ele><time>2026-04-06T14:09:30Z</time></trkpt><trkpt lat="44.19282964701342" lon="9.612836457162922"><ele>195.6</ele><time>2026-04-06T14:09:31Z</time></trkpt><trkpt lat="44.19289863578372" lon="9.612746153347288"><ele>202.0</ele><time>2026-04-06T14:09:32Z</time></trkpt><trkpt lat="44.19296499491148" lon="9.612660720905458"><ele>204.83333333333331</ele><time>2026-04-06T14:09:33Z</time></trkpt><trkpt lat="44.19304270338496" lon="9.612631695800264"><ele>207.66666666666666</ele><time>2026-04-06T14:09:34Z</time></trkpt><trkpt lat="44.19311770450001" lon="9.612641574627387"><ele>210.5</ele><time>2026-04-06T14:09:35Z</time></trkpt><trkpt lat="44.19320808736377" lon="9.612677265233929"><ele>213.33333333333331</ele><time>2026-04-06T14:09:36Z</time></trkpt><trkpt lat="44.193301821244674" lon="9.612674095099448"><ele>216.16666666666666</ele><time>2026-04-06T14:09:37Z</time></trkpt><trkpt lat="44.19340025349423" lon="9.612656533126682"><ele>219.0</ele><time>2026-04-06T14:09:38Z</time></trkpt><trkpt lat="44.19349847856365" lon="9.612627385878763"><ele>221.2</ele><time>2026-04-06T14:09:39Z</time></trkpt><trkpt lat="44.19360008496253" lon="9.612610723702037"><ele>223.39999999999998</ele><time>2026-04-06T14:09:40Z</time></trkpt><trkpt lat="44.19369914090379" lon="9.612594293016627"><ele>225.6</ele><time>2026-04-06T14:09:40.999Z</time></trkpt><trkpt lat="44.19380209754626" lon="9.612597162710744"><ele>227.8</ele><time>2026-04-06T14:09:41.999Z</time></trkpt><trkpt lat="44.19388751365039" lon="9.612672388455726"><ele>230.0</ele><time>2026-04-06T14:09:42.999Z</time></trkpt><trkpt lat="44.193966624767015" lon="9.612747938463794"><ele>231.0</ele><time>2026-04-06T14:09:43.999Z</time></trkpt><trkpt lat="44.19405086237436" lon="9.612820347017403"><ele>232.0</ele><time>2026-04-06T14:09:44.999Z</time></trkpt><trkpt lat="44.194126530053914" lon="9.61291138606966"><ele>233.0</ele><time>2026-04-06T14:09:45.999Z</time></trkpt><trkpt lat="44.194206586820215" lon="9.612995398189492"><ele>234.0</ele><time>2026-04-06T14:09:46.999Z</time></trkpt><trkpt lat="44.19429363431593" lon="9.613072301805984"><ele>235.0</ele><time>2026-04-06T14:09:47.999Z</time></trkpt><trkpt lat="44.194392131848296" lon="9.613118602351287"><ele>230.2</ele><time>2026-04-06T14:09:48.999Z</time></trkpt><trkpt lat="44.19449148136481" lon="9.613127266158275"><ele>225.4</ele><time>2026-04-06T14:09:49.999Z</time></trkpt><trkpt lat="44.19457397106591" lon="9.613133247693051"><ele>220.60000000000002</ele><time>2026-04-06T14:09:50.999Z</time></trkpt><trkpt lat="44.19465335121704" lon="9.613165865918456"><ele>215.8</ele><time>2026-04-06T14:09:51.999Z</time></trkpt><trkpt lat="44.194740807743486" lon="9.613291913612203"><ele>211.0</ele><time>2026-04-06T14:09:53.999Z</time></trkpt><trkpt lat="44.194769109300104" lon="9.61346839391951"><ele>210.99999999999997</ele><time>2026-04-06T14:09:55.999Z</time></trkpt><trkpt lat="44.1947470849988" lon="9.613570251014862"><ele>211.0</ele><time>2026-04-06T14:09:56.999Z</time></trkpt><trkpt lat="44.19471957815688" lon="9.613676087294754"><ele>211.0</ele><time>2026-04-06T14:09:57.999Z</time></trkpt><trkpt lat="44.194688357916256" lon="9.613784821052244"><ele>211.0</ele><time>2026-04-06T14:09:58.999Z</time></trkpt><trkpt lat="44.194620016663386" lon="9.613849480820296"><ele>210.99999999999997</ele><time>2026-04-06T14:09:59.999Z</time></trkpt><trkpt lat="44.19453336386989" lon="9.613889713923953"><ele>211.0</ele><time>2026-04-06T14:10:00.999Z</time></trkpt><trkpt lat="44.1944472943205" lon="9.613899009792265"><ele>207.8</ele><time>2026-04-06T14:10:01.999Z</time></trkpt><trkpt lat="44.194360831780685" lon="9.61390971258973"><ele>204.60000000000002</ele><time>2026-04-06T14:10:02.999Z</time></trkpt><trkpt lat="44.194276018438416" lon="9.613929553530292"><ele>201.4</ele><time>2026-04-06T14:10:03.999Z</time></trkpt><trkpt lat="44.194183210954634" lon="9.613955329136054"><ele>198.2</ele><time>2026-04-06T14:10:04.999Z</time></trkpt><trkpt lat="44.19408505804466" lon="9.613980043984986"><ele>195.0</ele><time>2026-04-06T14:10:05.999Z</time></trkpt><trkpt lat="44.1939889406989" lon="9.61400027446438"><ele>195.0</ele><time>2026-04-06T14:10:06.999Z</time></trkpt><trkpt lat="44.19389368862656" lon="9.614036936549509"><ele>195.0</ele><time>2026-04-06T14:10:07.999Z</time></trkpt><trkpt lat="44.193815797807034" lon="9.614124735506264"><ele>195.0</ele><time>2026-04-06T14:10:08.999Z</time></trkpt><trkpt lat="44.19375027888112" lon="9.614234927070868"><ele>195.0</ele><time>2026-04-06T14:10:09.999Z</time></trkpt><trkpt lat="44.193682168148975" lon="9.614328156100122"><ele>195.0</ele><time>2026-04-06T14:10:10.999Z</time></trkpt><trkpt lat="44.193609505731544" lon="9.614416964675895"><ele>200.4</ele><time>2026-04-06T14:10:11.999Z</time></trkpt><trkpt lat="44.1935516426366" lon="9.614508323124387"><ele>205.8</ele><time>2026-04-06T14:10:12.999Z</time></trkpt><trkpt lat="44.19351705096077" lon="9.61462979061419"><ele>211.2</ele><time>2026-04-06T14:10:13.999Z</time></trkpt><trkpt lat="44.193512290673745" lon="9.614765426601185"><ele>216.6</ele><time>2026-04-06T14:10:14.999Z</time></trkpt><trkpt lat="44.1935228491737" lon="9.614902088666309"><ele>222.0</ele><time>2026-04-06T14:10:15.999Z</time></trkpt><trkpt lat="44.193542514702905" lon="9.615034233712791"><ele>222.0</ele><time>2026-04-06T14:10:16.999Z</time></trkpt><trkpt lat="44.19350669801603" lon="9.615146943944552"><ele>222.0</ele><time>2026-04-06T14:10:17.999Z</time></trkpt><trkpt lat="44.19343509066656" lon="9.615228631433578"><ele>222.0</ele><time>2026-04-06T14:10:18.999Z</time></trkpt><trkpt lat="44.193334567541555" lon="9.615288974972001"><ele>222.0</ele><time>2026-04-06T14:10:19.999Z</time></trkpt><trkpt lat="44.19324807966819" lon="9.615364354782534"><ele>222.0</ele><time>2026-04-06T14:10:20.999Z</time></trkpt><trkpt lat="44.19317749352604" lon="9.615470648767964"><ele>218.39999999999998</ele><time>2026-04-06T14:10:21.999Z</time></trkpt><trkpt lat="44.19311408800344" lon="9.615589854403192"><ele>214.79999999999998</ele><time>2026-04-06T14:10:22.999Z</time></trkpt><trkpt lat="44.19305207180652" lon="9.61571498281528"><ele>211.2</ele><time>2026-04-06T14:10:23.999Z</time></trkpt><trkpt lat="44.192963416242705" lon="9.615823982280101"><ele>207.6</ele><time>2026-04-06T14:10:24.999Z</time></trkpt><trkpt lat="44.192893811424526" lon="9.615942986178764"><ele>204.0</ele><time>2026-04-06T14:10:25.999Z</time></trkpt><trkpt lat="44.19284903909208" lon="9.616082088941459"><ele>206.6</ele><time>2026-04-06T14:10:26.999Z</time></trkpt><trkpt lat="44.1928238279311" lon="9.616235339398049"><ele>209.2</ele><time>2026-04-06T14:10:27.999Z</time></trkpt><trkpt lat="44.19280028781211" lon="9.61639162888801"><ele>211.79999999999998</ele><time>2026-04-06T14:10:28.999Z</time></trkpt><trkpt lat="44.19280323550785" lon="9.616553679334471"><ele>214.39999999999998</ele><time>2026-04-06T14:10:29.999Z</time></trkpt><trkpt lat="44.192797492090655" lon="9.616700846981777"><ele>217.0</ele><time>2026-04-06T14:10:30.999Z</time></trkpt><trkpt lat="44.19275307039492" lon="9.616811439211443"><ele>217.0</ele><time>2026-04-06T14:10:31.999Z</time></trkpt><trkpt lat="44.19266620376094" lon="9.616907632927527"><ele>217.0</ele><time>2026-04-06T14:10:32.999Z</time></trkpt><trkpt lat="44.19255624524416" lon="9.616971442049607"><ele>217.0</ele><time>2026-04-06T14:10:33.999Z</time></trkpt><trkpt lat="44.192463759497485" lon="9.617014789385088"><ele>217.0</ele><time>2026-04-06T14:10:34.999Z</time></trkpt><trkpt lat="44.19237237404267" lon="9.61707997972282"><ele>217.0</ele><time>2026-04-06T14:10:35.999Z</time></trkpt><trkpt lat="44.192296992173794" lon="9.617124998554637"><ele>213.66666666666666</ele><time>2026-04-06T14:10:36.999Z</time></trkpt><trkpt lat="44.19222896056727" lon="9.617188712814"><ele>210.33333333333331</ele><time>2026-04-06T14:10:37.999Z</time></trkpt><trkpt lat="44.19218461098979" lon="9.617290079809822"><ele>207.0</ele><time>2026-04-06T14:10:38.999Z</time></trkpt><trkpt lat="44.19217487086271" lon="9.617418113589835"><ele>203.66666666666669</ele><time>2026-04-06T14:10:39.999Z</time></trkpt><trkpt lat="44.19220661881435" lon="9.617542341844358"><ele>200.33333333333334</ele><time>2026-04-06T14:10:40.999Z</time></trkpt><trkpt lat="44.19222179554857" lon="9.617668175172879"><ele>197.0</ele><time>2026-04-06T14:10:41.999Z</time></trkpt><trkpt lat="44.1922282829866" lon="9.617789588189353"><ele>201.00000000000003</ele><time>2026-04-06T14:10:42.998Z</time></trkpt><trkpt lat="44.19221378089369" lon="9.617913271239258"><ele>205.0</ele><time>2026-04-06T14:10:43.998Z</time></trkpt><trkpt lat="44.19221586268596" lon="9.618024430532026"><ele>209.0</ele><time>2026-04-06T14:10:44.998Z</time></trkpt><trkpt lat="44.19216868266497" lon="9.6181420828251"><ele>213.0</ele><time>2026-04-06T14:10:45.998Z</time></trkpt><trkpt lat="44.19213484975489" lon="9.618237090119752"><ele>217.00000000000003</ele><time>2026-04-06T14:10:46.998Z</time></trkpt><trkpt lat="44.19208701556282" lon="9.618315093797195"><ele>221.0</ele><time>2026-04-06T14:10:47.998Z</time></trkpt><trkpt lat="44.19204692153958" lon="9.618417770100349"><ele>221.0</ele><time>2026-04-06T14:10:48.998Z</time></trkpt><trkpt lat="44.19198541392706" lon="9.618510658553726"><ele>221.00000000000003</ele><time>2026-04-06T14:10:49.998Z</time></trkpt><trkpt lat="44.191919161760346" lon="9.618595650863982"><ele>221.00000000000003</ele><time>2026-04-06T14:10:50.998Z</time></trkpt><trkpt lat="44.191842215841916" lon="9.618658900076897"><ele>221.0</ele><time>2026-04-06T14:10:51.998Z</time></trkpt><trkpt lat="44.191765671214824" lon="9.618697134381744"><ele>221.0</ele><time>2026-04-06T14:10:52.998Z</time></trkpt><trkpt lat="44.19165225272571" lon="9.61873224327134"><ele>220.33333333333334</ele><time>2026-04-06T14:10:54.998Z</time></trkpt><trkpt lat="44.19156930513555" lon="9.618741137270911"><ele>219.66666666666669</ele><time>2026-04-06T14:10:56.998Z</time></trkpt><trkpt lat="44.19147478455166" lon="9.618785399922325"><ele>219.0</ele><time>2026-04-06T14:10:59.998Z</time></trkpt><trkpt lat="44.19138088229281" lon="9.61883791936809"><ele>218.33333333333331</ele><time>2026-04-06T14:11:02Z</time></trkpt><trkpt lat="44.1913232739965" lon="9.618892657056085"><ele>217.66666666666666</ele><time>2026-04-06T14:11:03Z</time></trkpt><trkpt lat="44.19126476410623" lon="9.618965882783419"><ele>217.0</ele><time>2026-04-06T14:11:04Z</time></trkpt><trkpt lat="44.19119919225584" lon="9.619025715197237"><ele>216.99999999999997</ele><time>2026-04-06T14:11:05Z</time></trkpt><trkpt lat="44.19112955441066" lon="9.619087778992245"><ele>217.0</ele><time>2026-04-06T14:11:06Z</time></trkpt><trkpt lat="44.19106636558406" lon="9.619155720332223"><ele>217.0</ele><time>2026-04-06T14:11:07Z</time></trkpt><trkpt lat="44.19100327436083" lon="9.619221113295563"><ele>217.0</ele><time>2026-04-06T14:11:09Z</time></trkpt><trkpt lat="44.190954866023965" lon="9.619286676439334"><ele>216.99999999999997</ele><time>2026-04-06T14:11:11Z</time></trkpt><trkpt lat="44.190894227124765" lon="9.619406718196403"><ele>217.0</ele><time>2026-04-06T14:11:13Z</time></trkpt><trkpt lat="44.190856779367515" lon="9.619492389693209"><ele>217.66666666666666</ele><time>2026-04-06T14:11:14Z</time></trkpt><trkpt lat="44.19084163770072" lon="9.619589989590843"><ele>218.33333333333331</ele><time>2026-04-06T14:11:15Z</time></trkpt><trkpt lat="44.19086337320506" lon="9.619744452740823"><ele>219.0</ele><time>2026-04-06T14:11:17Z</time></trkpt><trkpt lat="44.19091448478385" lon="9.619817145259573"><ele>219.66666666666669</ele><time>2026-04-06T14:11:18Z</time></trkpt><trkpt lat="44.190985856132166" lon="9.61986251533556"><ele>220.33333333333334</ele><time>2026-04-06T14:11:19Z</time></trkpt><trkpt lat="44.191049068392985" lon="9.619889489191406"><ele>221.0</ele><time>2026-04-06T14:11:20Z</time></trkpt><trkpt lat="44.191161452092544" lon="9.619911991274174"><ele>221.00000000000003</ele><time>2026-04-06T14:11:22Z</time></trkpt><trkpt lat="44.19122690134802" lon="9.61991123762249"><ele>221.0</ele><time>2026-04-06T14:11:24Z</time></trkpt><trkpt lat="44.1913092233038" lon="9.619940049022123"><ele>221.0</ele><time>2026-04-06T14:11:27Z</time></trkpt><trkpt lat="44.191375511999816" lon="9.619959903504528"><ele>221.0</ele><time>2026-04-06T14:11:29Z</time></trkpt><trkpt lat="44.191451502566" lon="9.619969750600115"><ele>221.00000000000003</ele><time>2026-04-06T14:11:31Z</time></trkpt><trkpt lat="44.19157127996399" lon="9.620017523490844"><ele>221.0</ele><time>2026-04-06T14:11:33Z</time></trkpt><trkpt lat="44.19165215029248" lon="9.620042172046517"><ele>224.00000000000003</ele><time>2026-04-06T14:11:34Z</time></trkpt><trkpt lat="44.19174361602228" lon="9.620065678842142"><ele>227.0</ele><time>2026-04-06T14:11:35Z</time></trkpt><trkpt lat="44.19182130987085" lon="9.620084868167154"><ele>230.0</ele><time>2026-04-06T14:11:36Z</time></trkpt><trkpt lat="44.191904622951526" lon="9.620104646612784"><ele>233.0</ele><time>2026-04-06T14:11:37Z</time></trkpt><trkpt lat="44.19198527124438" lon="9.620137562369901"><ele>236.00000000000003</ele><time>2026-04-06T14:11:38Z</time></trkpt><trkpt lat="44.19206830229691" lon="9.620170306666319"><ele>239.0</ele><time>2026-04-06T14:11:39Z</time></trkpt><trkpt lat="44.192146945559315" lon="9.620208390874897"><ele>239.00000000000003</ele><time>2026-04-06T14:11:40Z</time></trkpt><trkpt lat="44.19222896876245" lon="9.620246597481172"><ele>239.0</ele><time>2026-04-06T14:11:41Z</time></trkpt><trkpt lat="44.19231329576899" lon="9.620256371589242"><ele>239.0</ele><time>2026-04-06T14:11:42Z</time></trkpt><trkpt lat="44.19240089985134" lon="9.62025983886514"><ele>239.0</ele><time>2026-04-06T14:11:43Z</time></trkpt><trkpt lat="44.19248111683924" lon="9.620259532510126"><ele>239.00000000000003</ele><time>2026-04-06T14:11:44Z</time></trkpt><trkpt lat="44.19256234676949" lon="9.620273033372067"><ele>239.0</ele><time>2026-04-06T14:11:45Z</time></trkpt><trkpt lat="44.1926432735126" lon="9.620308618236228"><ele>236.83333333333334</ele><time>2026-04-06T14:11:45.999Z</time></trkpt><trkpt lat="44.19271480273444" lon="9.620372473994715"><ele>234.66666666666669</ele><time>2026-04-06T14:11:46.999Z</time></trkpt><trkpt lat="44.19278628751749" lon="9.620442315037842"><ele>232.5</ele><time>2026-04-06T14:11:47.999Z</time></trkpt><trkpt lat="44.19286390871601" lon="9.620486567012383"><ele>230.33333333333331</ele><time>2026-04-06T14:11:48.999Z</time></trkpt><trkpt lat="44.19294899030391" lon="9.620507234191908"><ele>228.16666666666666</ele><time>2026-04-06T14:11:49.999Z</time></trkpt><trkpt lat="44.19303935114591" lon="9.620513782858914"><ele>226.0</ele><time>2026-04-06T14:11:50.999Z</time></trkpt><trkpt lat="44.193128933864955" lon="9.620506670778095"><ele>230.33333333333331</ele><time>2026-04-06T14:11:51.999Z</time></trkpt><trkpt lat="44.19321769045026" lon="9.62048698682712"><ele>234.66666666666666</ele><time>2026-04-06T14:11:52.999Z</time></trkpt><trkpt lat="44.19329547026192" lon="9.620499185625306"><ele>239.0</ele><time>2026-04-06T14:11:53.999Z</time></trkpt><trkpt lat="44.19339637078554" lon="9.62056991584138"><ele>243.33333333333331</ele><time>2026-04-06T14:11:55.999Z</time></trkpt><trkpt lat="44.19341061473173" lon="9.620659232207295"><ele>247.66666666666666</ele><time>2026-04-06T14:11:56.999Z</time></trkpt><trkpt lat="44.19338636037207" lon="9.62077526980268"><ele>252.0</ele><time>2026-04-06T14:11:57.999Z</time></trkpt><trkpt lat="44.19335816476772" lon="9.620896578934287"><ele>252.0</ele><time>2026-04-06T14:11:58.999Z</time></trkpt><trkpt lat="44.193323744731984" lon="9.621010554769098"><ele>252.0</ele><time>2026-04-06T14:11:59.999Z</time></trkpt><trkpt lat="44.19328042534868" lon="9.621120102675606"><ele>252.0</ele><time>2026-04-06T14:12:00.999Z</time></trkpt><trkpt lat="44.193219864752976" lon="9.621215677709197"><ele>252.0</ele><time>2026-04-06T14:12:01.999Z</time></trkpt><trkpt lat="44.193149003514584" lon="9.621291693281002"><ele>252.0</ele><time>2026-04-06T14:12:02.999Z</time></trkpt><trkpt lat="44.193090759939395" lon="9.621362702553862"><ele>252.0</ele><time>2026-04-06T14:12:03.999Z</time></trkpt><trkpt lat="44.19301141606228" lon="9.621468491876096"><ele>247.0</ele><time>2026-04-06T14:12:05.999Z</time></trkpt><trkpt lat="44.19295232674333" lon="9.62156741283873"><ele>242.0</ele><time>2026-04-06T14:12:08.999Z</time></trkpt><trkpt lat="44.192961082928385" lon="9.621660945328266"><ele>237.0</ele><time>2026-04-06T14:12:09.999Z</time></trkpt><trkpt lat="44.1930119123561" lon="9.621763502803752"><ele>232.0</ele><time>2026-04-06T14:12:11.999Z</time></trkpt><trkpt lat="44.19307644872355" lon="9.621850311711613"><ele>227.0</ele><time>2026-04-06T14:12:13.999Z</time></trkpt><trkpt lat="44.19313225113728" lon="9.621987502597792"><ele>228.0</ele><time>2026-04-06T14:12:15.999Z</time></trkpt><trkpt lat="44.19322613096161" lon="9.622029197066093"><ele>229.0</ele><time>2026-04-06T14:12:17.999Z</time></trkpt><trkpt lat="44.193286970534274" lon="9.622066500865635"><ele>230.0</ele><time>2026-04-06T14:12:18.999Z</time></trkpt><trkpt lat="44.19339377266315" lon="9.622100364131791"><ele>231.0</ele><time>2026-04-06T14:12:20.999Z</time></trkpt><trkpt lat="44.193482374238194" lon="9.622106892843306"><ele>232.0</ele><time>2026-04-06T14:12:22.999Z</time></trkpt><trkpt lat="44.193584725077606" lon="9.622137208845233"><ele>231.99999999999997</ele><time>2026-04-06T14:12:24.999Z</time></trkpt><trkpt lat="44.193700331450984" lon="9.622160604793642"><ele>232.0</ele><time>2026-04-06T14:12:26.999Z</time></trkpt><trkpt lat="44.193787563012314" lon="9.62218066189886"><ele>232.0</ele><time>2026-04-06T14:12:28.999Z</time></trkpt><trkpt lat="44.19385642032388" lon="9.622194653428778"><ele>232.0</ele><time>2026-04-06T14:12:30.999Z</time></trkpt><trkpt lat="44.19393330455102" lon="9.622205297164797"><ele>231.99999999999997</ele><time>2026-04-06T14:12:34.999Z</time></trkpt><trkpt lat="44.194003352588815" lon="9.622197453160164"><ele>232.0</ele><time>2026-04-06T14:12:36.999Z</time></trkpt><trkpt lat="44.19410267900506" lon="9.62216236852134"><ele>232.28571428571433</ele><time>2026-04-06T14:12:38.999Z</time></trkpt><trkpt lat="44.19415327042187" lon="9.622108035157986"><ele>232.57142857142858</ele><time>2026-04-06T14:12:39.999Z</time></trkpt><trkpt lat="44.19420420013791" lon="9.62204536125864"><ele>232.8571428571429</ele><time>2026-04-06T14:12:40.999Z</time></trkpt><trkpt lat="44.19425038897037" lon="9.621965018113048"><ele>233.14285714285717</ele><time>2026-04-06T14:12:41.999Z</time></trkpt><trkpt lat="44.194276257639956" lon="9.621872962286355"><ele>233.42857142857144</ele><time>2026-04-06T14:12:42.999Z</time></trkpt><trkpt lat="44.19431004722005" lon="9.62177287997874"><ele>233.71428571428572</ele><time>2026-04-06T14:12:43.999Z</time></trkpt><trkpt lat="44.19435915956851" lon="9.621676729230524"><ele>234.0</ele><time>2026-04-06T14:12:44.999Z</time></trkpt><trkpt lat="44.19439647340831" lon="9.621569611269349"><ele>238.2</ele><time>2026-04-06T14:12:45.999Z</time></trkpt><trkpt lat="44.19443554621094" lon="9.621462434567187"><ele>242.39999999999998</ele><time>2026-04-06T14:12:46.998Z</time></trkpt><trkpt lat="44.19446461057772" lon="9.621341736650125"><ele>246.6</ele><time>2026-04-06T14:12:47.998Z</time></trkpt><trkpt lat="44.19451603020401" lon="9.621232277995347"><ele>250.8</ele><time>2026-04-06T14:12:48.998Z</time></trkpt><trkpt lat="44.194578100756914" lon="9.621110976788689"><ele>255.0</ele><time>2026-04-06T14:12:49.998Z</time></trkpt><trkpt lat="44.19464257637679" lon="9.62103689775117"><ele>255.8</ele><time>2026-04-06T14:12:50.998Z</time></trkpt><trkpt lat="44.194713154093186" lon="9.62095358838615"><ele>256.6</ele><time>2026-04-06T14:12:51.998Z</time></trkpt><trkpt lat="44.1947984714546" lon="9.620877115302743"><ele>257.4</ele><time>2026-04-06T14:12:52.998Z</time></trkpt><trkpt lat="44.1948845107494" lon="9.620806893182966"><ele>258.2</ele><time>2026-04-06T14:12:53.998Z</time></trkpt><trkpt lat="44.194965989104375" lon="9.62074602517813"><ele>259.0</ele><time>2026-04-06T14:12:54.998Z</time></trkpt><trkpt lat="44.195048584408156" lon="9.6206870075927"><ele>259.0</ele><time>2026-04-06T14:12:55.998Z</time></trkpt><trkpt lat="44.19512920438059" lon="9.62064201620871"><ele>259.0</ele><time>2026-04-06T14:12:56.998Z</time></trkpt><trkpt lat="44.19520690990619" lon="9.620635619321316"><ele>259.0</ele><time>2026-04-06T14:12:57.998Z</time></trkpt><trkpt lat="44.19528936830042" lon="9.62067646399057"><ele>259.0</ele><time>2026-04-06T14:12:58.998Z</time></trkpt><trkpt lat="44.19535116669096" lon="9.620763447063032"><ele>259.0</ele><time>2026-04-06T14:12:59.998Z</time></trkpt><trkpt lat="44.19539608014193" lon="9.620859830232623"><ele>259.0</ele><time>2026-04-06T14:13:00.998Z</time></trkpt><trkpt lat="44.19544742874999" lon="9.620976349269391"><ele>259.0</ele><time>2026-04-06T14:13:01.998Z</time></trkpt><trkpt lat="44.19550776418082" lon="9.62110858680332"><ele>259.0</ele><time>2026-04-06T14:13:02.998Z</time></trkpt><trkpt lat="44.195574094946714" lon="9.621212604143194"><ele>259.0</ele><time>2026-04-06T14:13:03.998Z</time></trkpt><trkpt lat="44.195673551610334" lon="9.621290446277955"><ele>259.0</ele><time>2026-04-06T14:13:04.998Z</time></trkpt><trkpt lat="44.195759546718776" lon="9.621363390516748"><ele>259.0</ele><time>2026-04-06T14:13:05.998Z</time></trkpt><trkpt lat="44.19585170048166" lon="9.621375540103456"><ele>256.4</ele><time>2026-04-06T14:13:06.998Z</time></trkpt><trkpt lat="44.19596734476152" lon="9.621379662603582"><ele>253.79999999999998</ele><time>2026-04-06T14:13:08Z</time></trkpt><trkpt lat="44.19605457044407" lon="9.621371542922944"><ele>251.20000000000002</ele><time>2026-04-06T14:13:09Z</time></trkpt><trkpt lat="44.196162818805114" lon="9.621353656549932"><ele>248.60000000000002</ele><time>2026-04-06T14:13:10Z</time></trkpt><trkpt lat="44.196271885973836" lon="9.621317765484482"><ele>246.0</ele><time>2026-04-06T14:13:11Z</time></trkpt><trkpt lat="44.196373789393085" lon="9.621342926907559"><ele>246.0</ele><time>2026-04-06T14:13:12Z</time></trkpt><trkpt lat="44.19646136357756" lon="9.621397518410632"><ele>246.00000000000003</ele><time>2026-04-06T14:13:13Z</time></trkpt><trkpt lat="44.19653944812438" lon="9.621510879133636"><ele>246.00000000000003</ele><time>2026-04-06T14:13:14Z</time></trkpt><trkpt lat="44.1965936719019" lon="9.621632514618753"><ele>246.0</ele><time>2026-04-06T14:13:15Z</time></trkpt><trkpt lat="44.19664013924001" lon="9.621761590314943"><ele>246.0</ele><time>2026-04-06T14:13:16Z</time></trkpt><trkpt lat="44.196691589083976" lon="9.621860631518219"><ele>244.0</ele><time>2026-04-06T14:13:17Z</time></trkpt><trkpt lat="44.19675887527018" lon="9.621948858628423"><ele>242.00000000000003</ele><time>2026-04-06T14:13:18Z</time></trkpt><trkpt lat="44.1968530172565" lon="9.62199569606871"><ele>240.00000000000003</ele><time>2026-04-06T14:13:19Z</time></trkpt><trkpt lat="44.196952294780026" lon="9.62198374695796"><ele>238.0</ele><time>2026-04-06T14:13:20Z</time></trkpt><trkpt lat="44.19705732800441" lon="9.621935133131995"><ele>236.0</ele><time>2026-04-06T14:13:21Z</time></trkpt><trkpt lat="44.19714448120419" lon="9.621862331283161"><ele>239.60000000000002</ele><time>2026-04-06T14:13:22Z</time></trkpt><trkpt lat="44.197229709688386" lon="9.621795364242328"><ele>243.20000000000002</ele><time>2026-04-06T14:13:23Z</time></trkpt><trkpt lat="44.197309326378765" lon="9.621705550923126"><ele>246.79999999999998</ele><time>2026-04-06T14:13:24Z</time></trkpt><trkpt lat="44.197375709877036" lon="9.621598296181222"><ele>250.39999999999998</ele><time>2026-04-06T14:13:25Z</time></trkpt><trkpt lat="44.19741800114536" lon="9.62147742699565"><ele>254.0</ele><time>2026-04-06T14:13:26Z</time></trkpt><trkpt lat="44.19745764061698" lon="9.621328759026216"><ele>254.0</ele><time>2026-04-06T14:13:27Z</time></trkpt><trkpt lat="44.19747942584481" lon="9.62117833274336"><ele>253.99999999999997</ele><time>2026-04-06T14:13:28Z</time></trkpt><trkpt lat="44.19746724596468" lon="9.621024219173435"><ele>253.99999999999997</ele><time>2026-04-06T14:13:29Z</time></trkpt><trkpt lat="44.197482379859096" lon="9.620880930107763"><ele>254.0</ele><time>2026-04-06T14:13:30Z</time></trkpt><trkpt lat="44.19751403876879" lon="9.620775208721827"><ele>254.0</ele><time>2026-04-06T14:13:31Z</time></trkpt><trkpt lat="44.19756735097617" lon="9.620701302795089"><ele>256.1666666666667</ele><time>2026-04-06T14:13:32Z</time></trkpt><trkpt lat="44.197635342382675" lon="9.620640084990171"><ele>258.33333333333337</ele><time>2026-04-06T14:13:33Z</time></trkpt><trkpt lat="44.197727186171335" lon="9.62062136017292"><ele>260.5</ele><time>2026-04-06T14:13:34Z</time></trkpt><trkpt lat="44.19781134896515" lon="9.62061696008228"><ele>262.6666666666667</ele><time>2026-04-06T14:13:35Z</time></trkpt><trkpt lat="44.19789304984024" lon="9.62061917580855"><ele>264.8333333333333</ele><time>2026-04-06T14:13:36Z</time></trkpt><trkpt lat="44.19797035530135" lon="9.620610064097633"><ele>267.0</ele><time>2026-04-06T14:13:37Z</time></trkpt><trkpt lat="44.19803647930222" lon="9.620596573061198"><ele>267.0</ele><time>2026-04-06T14:13:38Z</time></trkpt><trkpt lat="44.19816773876815" lon="9.620575884232737"><ele>267.0</ele><time>2026-04-06T14:13:40Z</time></trkpt><trkpt lat="44.1982415698632" lon="9.620564786204826"><ele>267.0</ele><time>2026-04-06T14:13:41Z</time></trkpt><trkpt lat="44.19832001636445" lon="9.620556891658499"><ele>267.0</ele><time>2026-04-06T14:13:42Z</time></trkpt><trkpt lat="44.19840413576534" lon="9.620552116181262"><ele>267.0</ele><time>2026-04-06T14:13:43Z</time></trkpt><trkpt lat="44.19849375848928" lon="9.620549466164345"><ele>265.0</ele><time>2026-04-06T14:13:44Z</time></trkpt><trkpt lat="44.19858335867058" lon="9.62055826171429"><ele>263.0</ele><time>2026-04-06T14:13:45Z</time></trkpt><trkpt lat="44.198669318728804" lon="9.620593070344967"><ele>261.0</ele><time>2026-04-06T14:13:46Z</time></trkpt><trkpt lat="44.1987566591728" lon="9.620639881765873"><ele>259.0</ele><time>2026-04-06T14:13:47Z</time></trkpt><trkpt lat="44.19882564790277" lon="9.62071953204563"><ele>257.0</ele><time>2026-04-06T14:13:48Z</time></trkpt><trkpt lat="44.1988953995966" lon="9.620823192123725"><ele>257.0</ele><time>2026-04-06T14:13:49Z</time></trkpt><trkpt lat="44.198952572616236" lon="9.6209383106662"><ele>257.0</ele><time>2026-04-06T14:13:50Z</time></trkpt><trkpt lat="44.199008398183835" lon="9.621046582414154"><ele>257.0</ele><time>2026-04-06T14:13:51Z</time></trkpt><trkpt lat="44.19906765210591" lon="9.621157473282759"><ele>257.0</ele><time>2026-04-06T14:13:51.999Z</time></trkpt><trkpt lat="44.19913763960241" lon="9.621250074645861"><ele>257.0</ele><time>2026-04-06T14:13:52.999Z</time></trkpt><trkpt lat="44.19921900736303" lon="9.621311997582099"><ele>259.0</ele><time>2026-04-06T14:13:53.999Z</time></trkpt><trkpt lat="44.20114499147759" lon="9.621620866315903"><ele>259.0</ele><time>2026-04-06T14:14:19.999Z</time></trkpt><trkpt lat="44.20122871780346" lon="9.621730361251785"><ele>259.0</ele><time>2026-04-06T14:14:20.999Z</time></trkpt><trkpt lat="44.20132571841739" lon="9.621788682869214"><ele>259.0</ele><time>2026-04-06T14:14:21.999Z</time></trkpt><trkpt lat="44.20141861843332" lon="9.621859226579332"><ele>259.0</ele><time>2026-04-06T14:14:22.999Z</time></trkpt><trkpt lat="44.20149936231194" lon="9.62194949792417"><ele>259.0</ele><time>2026-04-06T14:14:23.999Z</time></trkpt><trkpt lat="44.20156066259827" lon="9.622050240192655"><ele>263.5</ele><time>2026-04-06T14:14:24.999Z</time></trkpt><trkpt lat="44.20159539205204" lon="9.622181802860368"><ele>268.0</ele><time>2026-04-06T14:14:25.999Z</time></trkpt><trkpt lat="44.20161054628406" lon="9.622310452076857"><ele>272.5</ele><time>2026-04-06T14:14:26.999Z</time></trkpt><trkpt lat="44.20162840468522" lon="9.622438311633486"><ele>277.0</ele><time>2026-04-06T14:14:27.999Z</time></trkpt><trkpt lat="44.20164770375777" lon="9.62254747817943"><ele>281.5</ele><time>2026-04-06T14:14:28.999Z</time></trkpt><trkpt lat="44.201660964705084" lon="9.622658308936993"><ele>286.0</ele><time>2026-04-06T14:14:29.999Z</time></trkpt><trkpt lat="44.201662290811036" lon="9.622777303656651"><ele>283.75</ele><time>2026-04-06T14:14:30.999Z</time></trkpt><trkpt lat="44.20157448113144" lon="9.623006902634039"><ele>281.5</ele><time>2026-04-06T14:14:32.999Z</time></trkpt><trkpt lat="44.20147994984136" lon="9.623077613858973"><ele>279.25</ele><time>2026-04-06T14:14:33.999Z</time></trkpt><trkpt lat="44.2013937603211" lon="9.623116197147853"><ele>277.0</ele><time>2026-04-06T14:14:34.999Z</time></trkpt><trkpt lat="44.20130402193174" lon="9.623156001190216"><ele>277.0</ele><time>2026-04-06T14:14:35.999Z</time></trkpt><trkpt lat="44.20121371124257" lon="9.623191476938482"><ele>277.0</ele><time>2026-04-06T14:14:36.999Z</time></trkpt><trkpt lat="44.20112134614396" lon="9.623236489859611"><ele>277.0</ele><time>2026-04-06T14:14:37.999Z</time></trkpt><trkpt lat="44.20103522804905" lon="9.623298995490313"><ele>277.0</ele><time>2026-04-06T14:14:38.999Z</time></trkpt><trkpt lat="44.20094263821193" lon="9.6233520117732"><ele>277.0</ele><time>2026-04-06T14:14:39.999Z</time></trkpt><trkpt lat="44.20086414767103" lon="9.623406281340328"><ele>277.0</ele><time>2026-04-06T14:14:40.999Z</time></trkpt><trkpt lat="44.20078865614547" lon="9.623470189112401"><ele>277.0</ele><time>2026-04-06T14:14:41.999Z</time></trkpt><trkpt lat="44.200702592948275" lon="9.623548410878767"><ele>277.0</ele><time>2026-04-06T14:14:42.999Z</time></trkpt><trkpt lat="44.20062763192509" lon="9.623640137674524"><ele>277.0</ele><time>2026-04-06T14:14:43.999Z</time></trkpt><trkpt lat="44.20057200992305" lon="9.62372485522482"><ele>277.0</ele><time>2026-04-06T14:14:44.999Z</time></trkpt><trkpt lat="44.200506055763135" lon="9.623826264989624"><ele>274.16666666666663</ele><time>2026-04-06T14:14:45.999Z</time></trkpt><trkpt lat="44.200453729624726" lon="9.623923256574244"><ele>271.3333333333333</ele><time>2026-04-06T14:14:46.999Z</time></trkpt><trkpt lat="44.200413683806936" lon="9.624023304295312"><ele>268.5</ele><time>2026-04-06T14:14:47.999Z</time></trkpt><trkpt lat="44.200381392770666" lon="9.624118607742638"><ele>265.6666666666667</ele><time>2026-04-06T14:14:48.999Z</time></trkpt><trkpt lat="44.2003649706496" lon="9.6242271051933"><ele>262.83333333333337</ele><time>2026-04-06T14:14:49.999Z</time></trkpt><trkpt lat="44.20043923914528" lon="9.624300510653082"><ele>260.0</ele><time>2026-04-06T14:14:50.999Z</time></trkpt><trkpt lat="44.200511829356714" lon="9.624390568903186"><ele>262.2</ele><time>2026-04-06T14:14:51.999Z</time></trkpt><trkpt lat="44.20062179814838" lon="9.624601518528245"><ele>264.4</ele><time>2026-04-06T14:14:53.998Z</time></trkpt><trkpt lat="44.20069809721364" lon="9.624701950490799"><ele>266.6</ele><time>2026-04-06T14:14:54.998Z</time></trkpt><trkpt lat="44.200736314795066" lon="9.624796918132844"><ele>268.8</ele><time>2026-04-06T14:14:55.998Z</time></trkpt><trkpt lat="44.20077592747335" lon="9.624871638605"><ele>271.0</ele><time>2026-04-06T14:14:56.998Z</time></trkpt><trkpt lat="44.200789664717924" lon="9.62501933311"><ele>271.0</ele><time>2026-04-06T14:14:58.998Z</time></trkpt><trkpt lat="44.2006519364365" lon="9.625043909807642"><ele>271.0</ele><time>2026-04-06T14:15:00.998Z</time></trkpt><trkpt lat="44.20057929422486" lon="9.625062235258598"><ele>271.0</ele><time>2026-04-06T14:15:01.998Z</time></trkpt><trkpt lat="44.200496116628145" lon="9.625070400159133"><ele>271.0</ele><time>2026-04-06T14:15:02.998Z</time></trkpt><trkpt lat="44.20040572985708" lon="9.625107947282135"><ele>271.0</ele><time>2026-04-06T14:15:03.998Z</time></trkpt><trkpt lat="44.20031862041848" lon="9.625158976763078"><ele>271.0</ele><time>2026-04-06T14:15:04.998Z</time></trkpt><trkpt lat="44.20021935506803" lon="9.625202049540166"><ele>271.0</ele><time>2026-04-06T14:15:05.998Z</time></trkpt><trkpt lat="44.200125813652576" lon="9.625249504070446"><ele>271.0</ele><time>2026-04-06T14:15:06.998Z</time></trkpt><trkpt lat="44.20006493593272" lon="9.625321694096654"><ele>271.0</ele><time>2026-04-06T14:15:07.998Z</time></trkpt><trkpt lat="44.200028476146606" lon="9.625417415070476"><ele>271.0</ele><time>2026-04-06T14:15:08.998Z</time></trkpt><trkpt lat="44.20001339309536" lon="9.625550567026156"><ele>274.0</ele><time>2026-04-06T14:15:09.998Z</time></trkpt><trkpt lat="44.199990564425725" lon="9.62566917218462"><ele>277.0</ele><time>2026-04-06T14:15:10.998Z</time></trkpt><trkpt lat="44.19995549003045" lon="9.625754985809706"><ele>280.0</ele><time>2026-04-06T14:15:11.998Z</time></trkpt><trkpt lat="44.199858995277125" lon="9.625801752819687"><ele>283.0</ele><time>2026-04-06T14:15:14Z</time></trkpt><trkpt lat="44.1996987296736" lon="9.625569337699242"><ele>283.0</ele><time>2026-04-06T14:15:17Z</time></trkpt><trkpt lat="44.19962681724117" lon="9.62547824053443"><ele>283.0</ele><time>2026-04-06T14:15:18Z</time></trkpt><trkpt lat="44.19955725503555" lon="9.625397843891097"><ele>283.0</ele><time>2026-04-06T14:15:19Z</time></trkpt><trkpt lat="44.1994838698221" lon="9.625276452499492"><ele>283.0</ele><time>2026-04-06T14:15:20Z</time></trkpt><trkpt lat="44.199398780583174" lon="9.62516761071784"><ele>283.0</ele><time>2026-04-06T14:15:21Z</time></trkpt><trkpt lat="44.19930384696659" lon="9.625074313432888"><ele>278.0</ele><time>2026-04-06T14:15:22Z</time></trkpt><trkpt lat="44.1991120806398" lon="9.62499535092026"><ele>273.0</ele><time>2026-04-06T14:15:24Z</time></trkpt><trkpt lat="44.19902939881992" lon="9.625016200725605"><ele>268.0</ele><time>2026-04-06T14:15:25Z</time></trkpt><trkpt lat="44.19895457331568" lon="9.625085840015892"><ele>263.0</ele><time>2026-04-06T14:15:26Z</time></trkpt><trkpt lat="44.19886656236392" lon="9.625175818592519"><ele>259.6</ele><time>2026-04-06T14:15:27Z</time></trkpt><trkpt lat="44.19879145881351" lon="9.625288272971027"><ele>256.20000000000005</ele><time>2026-04-06T14:15:28Z</time></trkpt><trkpt lat="44.19871769083097" lon="9.625391921769612"><ele>252.8</ele><time>2026-04-06T14:15:29Z</time></trkpt><trkpt lat="44.19864664397" lon="9.625497334962906"><ele>249.4</ele><time>2026-04-06T14:15:30Z</time></trkpt><trkpt lat="44.19859604117317" lon="9.625612185979993"><ele>246.0</ele><time>2026-04-06T14:15:31Z</time></trkpt><trkpt lat="44.19857456720355" lon="9.625742798546538"><ele>246.0</ele><time>2026-04-06T14:15:32Z</time></trkpt><trkpt lat="44.19858878958605" lon="9.625867891809444"><ele>246.0</ele><time>2026-04-06T14:15:33Z</time></trkpt><trkpt lat="44.19859336192214" lon="9.625999472784061"><ele>246.0</ele><time>2026-04-06T14:15:34Z</time></trkpt><trkpt lat="44.19861660701291" lon="9.626111289045449"><ele>246.0</ele><time>2026-04-06T14:15:35Z</time></trkpt></trkseg><trkseg><trkpt lat="44.1731176986932" lon="9.612134822862696"><ele>12.0</ele><time>2026-04-06T14:36:12Z</time></trkpt><trkpt lat="44.17321151531398" lon="9.612158450012124"><ele>12.0</ele><time>2026-04-06T14:37:20.999Z</time></trkpt><trkpt lat="44.17314600720089" lon="9.612165024673057"><ele>12.0</ele><time>2026-04-06T14:37:55Z</time></trkpt><trkpt lat="44.17308791133621" lon="9.612215020638745"><ele>12.0</ele><time>2026-04-06T14:39:46.998Z</time></trkpt><trkpt lat="44.173181526934265" lon="9.612279209331593"><ele>12.0</ele><time>2026-04-06T14:40:16Z</time></trkpt><trkpt lat="44.17325966998943" lon="9.612343327563218"><ele>12.0</ele><time>2026-04-06T14:40:18Z</time></trkpt><trkpt lat="44.17333996419834" lon="9.612404767286357"><ele>14.6</ele><time>2026-04-06T14:40:20Z</time></trkpt><trkpt lat="44.173398684924365" lon="9.612287720925735"><ele>17.2</ele><time>2026-04-06T14:40:22Z</time></trkpt><trkpt lat="44.17333662062689" lon="9.612143183939695"><ele>19.8</ele><time>2026-04-06T14:40:24Z</time></trkpt><trkpt lat="44.1732900893691" lon="9.612065691682997"><ele>22.4</ele><time>2026-04-06T14:40:25Z</time></trkpt><trkpt lat="44.1732459188088" lon="9.61198332618766"><ele>25.0</ele><time>2026-04-06T14:40:26Z</time></trkpt><trkpt lat="44.17319830332358" lon="9.61189086316518"><ele>23.333333333333336</ele><time>2026-04-06T14:40:27Z</time></trkpt><trkpt lat="44.17315414676982" lon="9.611796454708664"><ele>21.666666666666668</ele><time>2026-04-06T14:40:28Z</time></trkpt><trkpt lat="44.17310423860336" lon="9.611707142548141"><ele>20.0</ele><time>2026-04-06T14:40:29Z</time></trkpt><trkpt lat="44.17305595458328" lon="9.611610598664214"><ele>18.333333333333336</ele><time>2026-04-06T14:40:30Z</time></trkpt><trkpt lat="44.17300921963781" lon="9.611526120063417"><ele>16.666666666666668</ele><time>2026-04-06T14:40:31Z</time></trkpt><trkpt lat="44.172967354773505" lon="9.611424543103256"><ele>15.0</ele><time>2026-04-06T14:40:32Z</time></trkpt><trkpt lat="44.172912058161955" lon="9.611326364519478"><ele>15.0</ele><time>2026-04-06T14:40:33Z</time></trkpt><trkpt lat="44.172863732128974" lon="9.611234584029619"><ele>15.0</ele><time>2026-04-06T14:40:34Z</time></trkpt><trkpt lat="44.17282432634941" lon="9.611151803106566"><ele>15.0</ele><time>2026-04-06T14:40:35Z</time></trkpt><trkpt lat="44.17277398620476" lon="9.61105098254995"><ele>15.0</ele><time>2026-04-06T14:40:36.999Z</time></trkpt><trkpt lat="44.172800767545525" lon="9.610964196730482"><ele>15.0</ele><time>2026-04-06T14:40:38.999Z</time></trkpt><trkpt lat="44.17286538018572" lon="9.611035671500893"><ele>15.0</ele><time>2026-04-06T14:40:41.999Z</time></trkpt><trkpt lat="44.17293440930575" lon="9.611136926840855"><ele>15.0</ele><time>2026-04-06T14:40:43.999Z</time></trkpt><trkpt lat="44.172988753046866" lon="9.611209412931109"><ele>15.0</ele><time>2026-04-06T14:40:44.999Z</time></trkpt><trkpt lat="44.17304734386939" lon="9.611286634138418"><ele>15.0</ele><time>2026-04-06T14:40:45.999Z</time></trkpt><trkpt lat="44.17311141379796" lon="9.611365723641606"><ele>15.0</ele><time>2026-04-06T14:40:46.999Z</time></trkpt><trkpt lat="44.173174831099004" lon="9.611456698558932"><ele>15.0</ele><time>2026-04-06T14:40:47.999Z</time></trkpt><trkpt lat="44.17324126536115" lon="9.611549523592158"><ele>15.0</ele><time>2026-04-06T14:40:48.999Z</time></trkpt><trkpt lat="44.173315766626665" lon="9.611645790813188"><ele>17.0</ele><time>2026-04-06T14:40:49.999Z</time></trkpt><trkpt lat="44.17339059783793" lon="9.611746410944782"><ele>19.0</ele><time>2026-04-06T14:40:50.999Z</time></trkpt><trkpt lat="44.17346426734583" lon="9.611849588253554"><ele>21.0</ele><time>2026-04-06T14:40:51.999Z</time></trkpt><trkpt lat="44.173536853725665" lon="9.611922045131461"><ele>23.0</ele><time>2026-04-06T14:40:52.999Z</time></trkpt><trkpt lat="44.173582632137354" lon="9.611987188352874"><ele>25.0</ele><time>2026-04-06T14:40:53.999Z</time></trkpt><trkpt lat="44.173652005124815" lon="9.612078793295845"><ele>25.000000000000004</ele><time>2026-04-06T14:40:55.999Z</time></trkpt><trkpt lat="44.1737327505645" lon="9.612112506133696"><ele>25.0</ele><time>2026-04-06T14:40:57.999Z</time></trkpt><trkpt lat="44.17378161313717" lon="9.611995567406598"><ele>25.0</ele><time>2026-04-06T14:40:59.999Z</time></trkpt><trkpt lat="44.17372249405942" lon="9.611882316950373"><ele>25.0</ele><time>2026-04-06T14:41:01.999Z</time></trkpt><trkpt lat="44.173670725176194" lon="9.611820569922878"><ele>25.000000000000004</ele><time>2026-04-06T14:41:02.999Z</time></trkpt><trkpt lat="44.173604617560315" lon="9.61173084484351"><ele>25.0</ele><time>2026-04-06T14:41:03.999Z</time></trkpt><trkpt lat="44.17355011031492" lon="9.611640499403682"><ele>26.8</ele><time>2026-04-06T14:41:04.999Z</time></trkpt><trkpt lat="44.173492013354206" lon="9.611537531071962"><ele>28.6</ele><time>2026-04-06T14:41:05.999Z</time></trkpt><trkpt lat="44.17343744585723" lon="9.611438049937243"><ele>30.4</ele><time>2026-04-06T14:41:06.999Z</time></trkpt><trkpt lat="44.17337789801346" lon="9.611332515822669"><ele>32.2</ele><time>2026-04-06T14:41:07.999Z</time></trkpt><trkpt lat="44.17331409582669" lon="9.61124150492745"><ele>34.0</ele><time>2026-04-06T14:41:08.999Z</time></trkpt><trkpt lat="44.173282503415436" lon="9.611138530142902"><ele>36.5</ele><time>2026-04-06T14:41:09.999Z</time></trkpt><trkpt lat="44.173230561769735" lon="9.611049226709836"><ele>39.0</ele><time>2026-04-06T14:41:10.999Z</time></trkpt><trkpt lat="44.17319487393166" lon="9.610961789532906"><ele>41.5</ele><time>2026-04-06T14:41:11.999Z</time></trkpt><trkpt lat="44.17322055248065" lon="9.610787593447824"><ele>44.0</ele><time>2026-04-06T14:41:13.999Z</time></trkpt><trkpt lat="44.173239544857324" lon="9.61069691750583"><ele>46.49999999999999</ele><time>2026-04-06T14:41:14.999Z</time></trkpt><trkpt lat="44.17325382293516" lon="9.610599984014211"><ele>49.0</ele><time>2026-04-06T14:41:15.999Z</time></trkpt><trkpt lat="44.17326687807032" lon="9.610496872455347"><ele>48.99999999999999</ele><time>2026-04-06T14:41:16.999Z</time></trkpt><trkpt lat="44.17328093582229" lon="9.610395695229233"><ele>49.0</ele><time>2026-04-06T14:41:17.999Z</time></trkpt><trkpt lat="44.17329616075597" lon="9.61029545685651"><ele>49.0</ele><time>2026-04-06T14:41:18.999Z</time></trkpt><trkpt lat="44.173303714757864" lon="9.610182502142692"><ele>49.0</ele><time>2026-04-06T14:41:19.999Z</time></trkpt><trkpt lat="44.1733110100655" lon="9.610069725721088"><ele>48.99999999999999</ele><time>2026-04-06T14:41:20.999Z</time></trkpt><trkpt lat="44.17332625842459" lon="9.609960746183448"><ele>49.0</ele><time>2026-04-06T14:41:21.999Z</time></trkpt><trkpt lat="44.17332577640091" lon="9.60983921067593"><ele>49.99999999999999</ele><time>2026-04-06T14:41:22.999Z</time></trkpt><trkpt lat="44.17331700222778" lon="9.60972102898682"><ele>51.0</ele><time>2026-04-06T14:41:23.999Z</time></trkpt><trkpt lat="44.17329297339397" lon="9.60960180670586"><ele>52.0</ele><time>2026-04-06T14:41:24.999Z</time></trkpt><trkpt lat="44.17327456887109" lon="9.609488991586526"><ele>53.0</ele><time>2026-04-06T14:41:25.999Z</time></trkpt><trkpt lat="44.17323687268835" lon="9.609365617466741"><ele>53.99999999999999</ele><time>2026-04-06T14:41:26.999Z</time></trkpt><trkpt lat="44.173195810694786" lon="9.609253890327276"><ele>55.0</ele><time>2026-04-06T14:41:27.999Z</time></trkpt><trkpt lat="44.17315136471064" lon="9.609134231313305"><ele>49.6</ele><time>2026-04-06T14:41:28.999Z</time></trkpt><trkpt lat="44.17311005460548" lon="9.609005975165577"><ele>44.2</ele><time>2026-04-06T14:41:29.999Z</time></trkpt><trkpt lat="44.17306979374309" lon="9.608877567455655"><ele>38.8</ele><time>2026-04-06T14:41:30.999Z</time></trkpt><trkpt lat="44.17303288550258" lon="9.608750346553352"><ele>33.4</ele><time>2026-04-06T14:41:31.999Z</time></trkpt><trkpt lat="44.1729938025533" lon="9.608619461300643"><ele>28.0</ele><time>2026-04-06T14:41:32.999Z</time></trkpt><trkpt lat="44.17295016374229" lon="9.608485709665255"><ele>28.0</ele><time>2026-04-06T14:41:33.999Z</time></trkpt><trkpt lat="44.17291247115596" lon="9.608355939479642"><ele>27.999999999999996</ele><time>2026-04-06T14:41:34.999Z</time></trkpt><trkpt lat="44.17287931566422" lon="9.608228547730466"><ele>27.999999999999996</ele><time>2026-04-06T14:41:35.999Z</time></trkpt><trkpt lat="44.17286136906005" lon="9.608096900487892"><ele>28.0</ele><time>2026-04-06T14:41:36.999Z</time></trkpt><trkpt lat="44.17286246609828" lon="9.607959228968621"><ele>28.0</ele><time>2026-04-06T14:41:37.999Z</time></trkpt><trkpt lat="44.17286464546346" lon="9.607823268025344"><ele>29.0</ele><time>2026-04-06T14:41:38.998Z</time></trkpt><trkpt lat="44.17285570075335" lon="9.607691620718"><ele>29.999999999999996</ele><time>2026-04-06T14:41:39.998Z</time></trkpt><trkpt lat="44.17285706167939" lon="9.607558757027645"><ele>30.999999999999996</ele><time>2026-04-06T14:41:40.998Z</time></trkpt><trkpt lat="44.17285825353052" lon="9.607427070681664"><ele>32.0</ele><time>2026-04-06T14:41:41.998Z</time></trkpt><trkpt lat="44.172856514323016" lon="9.607280218826988"><ele>33.0</ele><time>2026-04-06T14:41:42.998Z</time></trkpt><trkpt lat="44.17285185251415" lon="9.607139084622668"><ele>33.0</ele><time>2026-04-06T14:41:43.998Z</time></trkpt><trkpt lat="44.17283790110298" lon="9.607001852108858"><ele>33.0</ele><time>2026-04-06T14:41:44.998Z</time></trkpt><trkpt lat="44.172863065425936" lon="9.606872371903371"><ele>33.0</ele><time>2026-04-06T14:41:45.998Z</time></trkpt><trkpt lat="44.17292460427473" lon="9.60667135849218"><ele>33.0</ele><time>2026-04-06T14:41:47.998Z</time></trkpt><trkpt lat="44.17297424565474" lon="9.606553664520199"><ele>32.4</ele><time>2026-04-06T14:41:48.998Z</time></trkpt><trkpt lat="44.17300982898789" lon="9.60642668553188"><ele>31.799999999999997</ele><time>2026-04-06T14:41:49.998Z</time></trkpt><trkpt lat="44.17309914308511" lon="9.606287976670252"><ele>31.2</ele><time>2026-04-06T14:41:50.998Z</time></trkpt><trkpt lat="44.17314642720852" lon="9.60616753007182"><ele>30.6</ele><time>2026-04-06T14:41:51.998Z</time></trkpt><trkpt lat="44.17318065483441" lon="9.60605443932411"><ele>30.0</ele><time>2026-04-06T14:41:52.998Z</time></trkpt><trkpt lat="44.173214051553856" lon="9.605938999598328"><ele>36.4</ele><time>2026-04-06T14:41:53.998Z</time></trkpt><trkpt lat="44.173260912163855" lon="9.605827068661474"><ele>42.8</ele><time>2026-04-06T14:41:54.998Z</time></trkpt><trkpt lat="44.17332010193064" lon="9.605725688951916"><ele>49.2</ele><time>2026-04-06T14:41:55.998Z</time></trkpt><trkpt lat="44.1734105779901" lon="9.60567506771797"><ele>55.6</ele><time>2026-04-06T14:41:56.998Z</time></trkpt><trkpt lat="44.173501246463005" lon="9.605641460125353"><ele>62.0</ele><time>2026-04-06T14:41:58Z</time></trkpt><trkpt lat="44.173589654760775" lon="9.605610979162737"><ele>62.0</ele><time>2026-04-06T14:41:59Z</time></trkpt><trkpt lat="44.173692077922574" lon="9.605550655631303"><ele>62.0</ele><time>2026-04-06T14:42:00Z</time></trkpt><trkpt lat="44.17380329705329" lon="9.60555596767078"><ele>62.0</ele><time>2026-04-06T14:42:01Z</time></trkpt><trkpt lat="44.17391265563174" lon="9.60554727465594"><ele>62.0</ele><time>2026-04-06T14:42:02Z</time></trkpt><trkpt lat="44.17402591352788" lon="9.60554967831607"><ele>62.0</ele><time>2026-04-06T14:42:03Z</time></trkpt><trkpt lat="44.174129245919964" lon="9.605552808476414"><ele>66.2</ele><time>2026-04-06T14:42:04Z</time></trkpt><trkpt lat="44.1742387827117" lon="9.605550989978056"><ele>70.4</ele><time>2026-04-06T14:42:05Z</time></trkpt><trkpt lat="44.1743467249629" lon="9.605536662398363"><ele>74.60000000000001</ele><time>2026-04-06T14:42:06Z</time></trkpt><trkpt lat="44.17445646066181" lon="9.605517086357581"><ele>78.80000000000001</ele><time>2026-04-06T14:42:07Z</time></trkpt><trkpt lat="44.174558134281966" lon="9.605474642739557"><ele>83.0</ele><time>2026-04-06T14:42:08Z</time></trkpt><trkpt lat="44.1746632874701" lon="9.605455605657554"><ele>83.0</ele><time>2026-04-06T14:42:09Z</time></trkpt><trkpt lat="44.174765176726034" lon="9.605387370461608"><ele>83.0</ele><time>2026-04-06T14:42:10Z</time></trkpt><trkpt lat="44.17486228257727" lon="9.605334651511901"><ele>83.0</ele><time>2026-04-06T14:42:11Z</time></trkpt><trkpt lat="44.174961598758806" lon="9.6052640755629"><ele>83.0</ele><time>2026-04-06T14:42:12Z</time></trkpt><trkpt lat="44.17506542333703" lon="9.605198723959779"><ele>83.0</ele><time>2026-04-06T14:42:13Z</time></trkpt><trkpt lat="44.17515021110951" lon="9.605140102122169"><ele>81.60000000000001</ele><time>2026-04-06T14:42:14Z</time></trkpt><trkpt lat="44.17524874568756" lon="9.605083439243687"><ele>80.2</ele><time>2026-04-06T14:42:15Z</time></trkpt><trkpt lat="44.175355019713656" lon="9.605033945570849"><ele>78.8</ele><time>2026-04-06T14:42:16Z</time></trkpt><trkpt lat="44.175459949124225" lon="9.604993049717349"><ele>77.4</ele><time>2026-04-06T14:42:17Z</time></trkpt><trkpt lat="44.17557225316956" lon="9.604961313715258"><ele>76.0</ele><time>2026-04-06T14:42:18Z</time></trkpt><trkpt lat="44.17568223624239" lon="9.604928467693396"><ele>79.5</ele><time>2026-04-06T14:42:19Z</time></trkpt><trkpt lat="44.17578691192332" lon="9.604901759314691"><ele>83.0</ele><time>2026-04-06T14:42:20Z</time></trkpt><trkpt lat="44.17590403117153" lon="9.604879954764879"><ele>86.5</ele><time>2026-04-06T14:42:21Z</time></trkpt><trkpt lat="44.1760215338158" lon="9.604855372579221"><ele>90.0</ele><time>2026-04-06T14:42:22Z</time></trkpt><trkpt lat="44.17614213818166" lon="9.604828071335179"><ele>90.0</ele><time>2026-04-06T14:42:23Z</time></trkpt><trkpt lat="44.176265175919006" lon="9.604806408587597"><ele>90.0</ele><time>2026-04-06T14:42:24Z</time></trkpt><trkpt lat="44.17639122974119" lon="9.604797742719612"><ele>90.0</ele><time>2026-04-06T14:42:25Z</time></trkpt><trkpt lat="44.176512714722705" lon="9.604805045623047"><ele>90.0</ele><time>2026-04-06T14:42:26Z</time></trkpt><trkpt lat="44.17663137631163" lon="9.604828419259448"><ele>92.2</ele><time>2026-04-06T14:42:27Z</time></trkpt><trkpt lat="44.17674246419456" lon="9.604859276463626"><ele>94.4</ele><time>2026-04-06T14:42:28Z</time></trkpt><trkpt lat="44.17685110868348" lon="9.604889073571934"><ele>96.6</ele><time>2026-04-06T14:42:29Z</time></trkpt><trkpt lat="44.17695675972635" lon="9.604915079438555"><ele>98.8</ele><time>2026-04-06T14:42:30Z</time></trkpt><trkpt lat="44.17706303434902" lon="9.604954899560447"><ele>101.0</ele><time>2026-04-06T14:42:31Z</time></trkpt><trkpt lat="44.17716534530509" lon="9.605018136921657"><ele>101.0</ele><time>2026-04-06T14:42:32Z</time></trkpt><trkpt lat="44.17725990964401" lon="9.605104296642894"><ele>101.0</ele><time>2026-04-06T14:42:33Z</time></trkpt><trkpt lat="44.17734908986471" lon="9.60520619245651"><ele>101.0</ele><time>2026-04-06T14:42:34Z</time></trkpt><trkpt lat="44.17743256033924" lon="9.605287866067988"><ele>101.0</ele><time>2026-04-06T14:42:35Z</time></trkpt><trkpt lat="44.17752835637456" lon="9.605371412394863"><ele>101.0</ele><time>2026-04-06T14:42:36Z</time></trkpt><trkpt lat="44.17762756864306" lon="9.605438993197904"><ele>108.0</ele><time>2026-04-06T14:42:37Z</time></trkpt><trkpt lat="44.17773107629657" lon="9.60552481467669"><ele>115.0</ele><time>2026-04-06T14:42:38Z</time></trkpt><trkpt lat="44.1778366083657" lon="9.6055880156526"><ele>122.0</ele><time>2026-04-06T14:42:39Z</time></trkpt><trkpt lat="44.17794156004517" lon="9.605634565258445"><ele>129.0</ele><time>2026-04-06T14:42:40Z</time></trkpt><trkpt lat="44.17805026413635" lon="9.60566460566819"><ele>129.0</ele><time>2026-04-06T14:42:40.999Z</time></trkpt><trkpt lat="44.178150028312054" lon="9.605690082851538"><ele>129.0</ele><time>2026-04-06T14:42:41.999Z</time></trkpt><trkpt lat="44.17824600588822" lon="9.605689888544015"><ele>129.0</ele><time>2026-04-06T14:42:42.999Z</time></trkpt><trkpt lat="44.17833657290581" lon="9.605671387204778"><ele>129.0</ele><time>2026-04-06T14:42:43.999Z</time></trkpt><trkpt lat="44.178420512630524" lon="9.605633895973373"><ele>129.0</ele><time>2026-04-06T14:42:44.999Z</time></trkpt><trkpt lat="44.17849413721276" lon="9.605581216998528"><ele>128.5</ele><time>2026-04-06T14:42:45.999Z</time></trkpt><trkpt lat="44.17854796488117" lon="9.605494175991046"><ele>128.0</ele><time>2026-04-06T14:42:46.999Z</time></trkpt><trkpt lat="44.178561938487015" lon="9.60537569154351"><ele>127.5</ele><time>2026-04-06T14:42:47.999Z</time></trkpt><trkpt lat="44.178488846656826" lon="9.605279618811107"><ele>127.0</ele><time>2026-04-06T14:42:48.999Z</time></trkpt><trkpt lat="44.17842203862285" lon="9.605232333927674"><ele>126.5</ele><time>2026-04-06T14:42:49.999Z</time></trkpt><trkpt lat="44.178351867677826" lon="9.605170112471937"><ele>126.0</ele><time>2026-04-06T14:42:50.999Z</time></trkpt><trkpt lat="44.178295923607756" lon="9.605105154465123"><ele>124.8</ele><time>2026-04-06T14:42:51.999Z</time></trkpt><trkpt lat="44.1782552547075" lon="9.605019485691052"><ele>123.6</ele><time>2026-04-06T14:42:52.999Z</time></trkpt><trkpt lat="44.17822773702214" lon="9.604935303378545"><ele>122.4</ele><time>2026-04-06T14:42:53.999Z</time></trkpt><trkpt lat="44.178204256113574" lon="9.60474814481713"><ele>121.2</ele><time>2026-04-06T14:42:55.999Z</time></trkpt><trkpt lat="44.17818725114926" lon="9.604602127175824"><ele>120.0</ele><time>2026-04-06T14:42:57.999Z</time></trkpt><trkpt lat="44.17817466031268" lon="9.60448677339111"><ele>115.66666666666667</ele><time>2026-04-06T14:42:59.999Z</time></trkpt><trkpt lat="44.17817398211553" lon="9.604372098718326"><ele>111.33333333333333</ele><time>2026-04-06T14:43:01.999Z</time></trkpt><trkpt lat="44.17817388618848" lon="9.604207332918902"><ele>107.0</ele><time>2026-04-06T14:43:03.999Z</time></trkpt><trkpt lat="44.17815758800445" lon="9.604106825559919"><ele>102.66666666666666</ele><time>2026-04-06T14:43:04.999Z</time></trkpt><trkpt lat="44.17813489544948" lon="9.604004137540073"><ele>98.33333333333333</ele><time>2026-04-06T14:43:05.999Z</time></trkpt><trkpt lat="44.17813604330311" lon="9.603870019858247"><ele>94.0</ele><time>2026-04-06T14:43:06.999Z</time></trkpt><trkpt lat="44.17814179127362" lon="9.603740669205756"><ele>95.0</ele><time>2026-04-06T14:43:07.999Z</time></trkpt><trkpt lat="44.178159489117505" lon="9.603614603240851"><ele>96.0</ele><time>2026-04-06T14:43:08.999Z</time></trkpt><trkpt lat="44.17818449988656" lon="9.603486318036133"><ele>97.0</ele><time>2026-04-06T14:43:09.999Z</time></trkpt><trkpt lat="44.178215138248696" lon="9.603354416341649"><ele>98.0</ele><time>2026-04-06T14:43:10.999Z</time></trkpt><trkpt lat="44.17824596908337" lon="9.603219235238493"><ele>99.0</ele><time>2026-04-06T14:43:11.999Z</time></trkpt><trkpt lat="44.17828195243947" lon="9.603085731215508"><ele>105.4</ele><time>2026-04-06T14:43:12.999Z</time></trkpt><trkpt lat="44.17831475563776" lon="9.60294807553617"><ele>111.80000000000001</ele><time>2026-04-06T14:43:13.999Z</time></trkpt><trkpt lat="44.17833735999599" lon="9.602803935763376"><ele>118.19999999999999</ele><time>2026-04-06T14:43:14.999Z</time></trkpt><trkpt lat="44.178345313598626" lon="9.602650621221505"><ele>124.6</ele><time>2026-04-06T14:43:15.999Z</time></trkpt><trkpt lat="44.17834940862282" lon="9.6024972163312"><ele>131.0</ele><time>2026-04-06T14:43:16.999Z</time></trkpt><trkpt lat="44.178395750495575" lon="9.602357681455645"><ele>131.6</ele><time>2026-04-06T14:43:17.999Z</time></trkpt><trkpt lat="44.17843825107923" lon="9.602207527958587"><ele>132.2</ele><time>2026-04-06T14:43:18.999Z</time></trkpt><trkpt lat="44.17844178848212" lon="9.602054313011719"><ele>132.8</ele><time>2026-04-06T14:43:19.999Z</time></trkpt><trkpt lat="44.1784102862223" lon="9.60190450369767"><ele>133.4</ele><time>2026-04-06T14:43:20.999Z</time></trkpt><trkpt lat="44.17837752206588" lon="9.601776065996132"><ele>134.0</ele><time>2026-04-06T14:43:21.999Z</time></trkpt><trkpt lat="44.17837434153206" lon="9.60164708079805"><ele>134.0</ele><time>2026-04-06T14:43:22.999Z</time></trkpt><trkpt lat="44.178415113087766" lon="9.60152809706954"><ele>134.0</ele><time>2026-04-06T14:43:23.999Z</time></trkpt><trkpt lat="44.17846006794419" lon="9.601422919336583"><ele>134.0</ele><time>2026-04-06T14:43:24.999Z</time></trkpt><trkpt lat="44.17850183974076" lon="9.601309933046169"><ele>134.0</ele><time>2026-04-06T14:43:25.999Z</time></trkpt><trkpt lat="44.17851162059674" lon="9.601171098655922"><ele>134.0</ele><time>2026-04-06T14:43:26.999Z</time></trkpt><trkpt lat="44.17847968212357" lon="9.601038056693175"><ele>134.0</ele><time>2026-04-06T14:43:27.999Z</time></trkpt><trkpt lat="44.1784194328321" lon="9.60092691783873"><ele>134.0</ele><time>2026-04-06T14:43:28.999Z</time></trkpt><trkpt lat="44.178390444339506" lon="9.600796346676827"><ele>134.0</ele><time>2026-04-06T14:43:29.999Z</time></trkpt><trkpt lat="44.17839522811425" lon="9.600654630320255"><ele>134.0</ele><time>2026-04-06T14:43:30.999Z</time></trkpt><trkpt lat="44.17842263129514" lon="9.600527092665951"><ele>134.0</ele><time>2026-04-06T14:43:31.999Z</time></trkpt><trkpt lat="44.17845885648222" lon="9.600396725825057"><ele>133.8</ele><time>2026-04-06T14:43:32.999Z</time></trkpt><trkpt lat="44.17850654063861" lon="9.600268594030583"><ele>133.60000000000002</ele><time>2026-04-06T14:43:33.999Z</time></trkpt><trkpt lat="44.178569168624286" lon="9.600155660713352"><ele>133.4</ele><time>2026-04-06T14:43:34.999Z</time></trkpt><trkpt lat="44.1786422111285" lon="9.600056126559066"><ele>133.20000000000002</ele><time>2026-04-06T14:43:35.999Z</time></trkpt><trkpt lat="44.17872337114605" lon="9.599975785049242"><ele>133.0</ele><time>2026-04-06T14:43:36.999Z</time></trkpt><trkpt lat="44.17880645764619" lon="9.599887571543285"><ele>133.0</ele><time>2026-04-06T14:43:37.999Z</time></trkpt><trkpt lat="44.17888801543261" lon="9.599785806811497"><ele>133.0</ele><time>2026-04-06T14:43:38.999Z</time></trkpt><trkpt lat="44.178974397167025" lon="9.599689356058354"><ele>133.0</ele><time>2026-04-06T14:43:39.999Z</time></trkpt><trkpt lat="44.17906108595252" lon="9.599607545503572"><ele>133.0</ele><time>2026-04-06T14:43:40.999Z</time></trkpt><trkpt lat="44.17912561330896" lon="9.599529026301825"><ele>133.0</ele><time>2026-04-06T14:43:41.999Z</time></trkpt><trkpt lat="44.17911414950308" lon="9.599404401788577"><ele>135.5</ele><time>2026-04-06T14:43:42.998Z</time></trkpt><trkpt lat="44.17908411077669" lon="9.59931349022364"><ele>138.0</ele><time>2026-04-06T14:43:43.998Z</time></trkpt><trkpt lat="44.179060791353756" lon="9.599188964703872"><ele>140.5</ele><time>2026-04-06T14:43:44.998Z</time></trkpt><trkpt lat="44.179027170660596" lon="9.599065611060025"><ele>143.0</ele><time>2026-04-06T14:43:45.998Z</time></trkpt><trkpt lat="44.17898980899531" lon="9.598955622105729"><ele>145.5</ele><time>2026-04-06T14:43:46.998Z</time></trkpt><trkpt lat="44.17892329781052" lon="9.598848611591055"><ele>148.0</ele><time>2026-04-06T14:43:47.998Z</time></trkpt><trkpt lat="44.17882924755486" lon="9.598779990881232"><ele>148.0</ele><time>2026-04-06T14:43:48.998Z</time></trkpt><trkpt lat="44.17872191403069" lon="9.598716211378715"><ele>148.0</ele><time>2026-04-06T14:43:49.998Z</time></trkpt><trkpt lat="44.17861958183068" lon="9.598680938052176"><ele>148.0</ele><time>2026-04-06T14:43:50.998Z</time></trkpt><trkpt lat="44.1785062039148" lon="9.598681215173267"><ele>148.0</ele><time>2026-04-06T14:43:51.998Z</time></trkpt><trkpt lat="44.17839198902325" lon="9.59872093290328"><ele>148.0</ele><time>2026-04-06T14:43:52.998Z</time></trkpt><trkpt lat="44.17828680733147" lon="9.598780311409634"><ele>148.0</ele><time>2026-04-06T14:43:53.998Z</time></trkpt><trkpt lat="44.17817542479568" lon="9.598790612669125"><ele>148.0</ele><time>2026-04-06T14:43:54.998Z</time></trkpt><trkpt lat="44.17805583794445" lon="9.598814798200232"><ele>148.0</ele><time>2026-04-06T14:43:55.998Z</time></trkpt><trkpt lat="44.17794056831389" lon="9.59884898115353"><ele>148.5</ele><time>2026-04-06T14:43:56.998Z</time></trkpt><trkpt lat="44.177816488454845" lon="9.598863669715833"><ele>149.0</ele><time>2026-04-06T14:43:57.998Z</time></trkpt><trkpt lat="44.1776962955986" lon="9.598882371626322"><ele>149.5</ele><time>2026-04-06T14:43:58.998Z</time></trkpt><trkpt lat="44.1775803220197" lon="9.598885335279462"><ele>150.0</ele><time>2026-04-06T14:43:59.998Z</time></trkpt><trkpt lat="44.17747777509147" lon="9.598834066031793"><ele>150.0</ele><time>2026-04-06T14:44:00.998Z</time></trkpt><trkpt lat="44.17739006148838" lon="9.598755120972937"><ele>150.0</ele><time>2026-04-06T14:44:01.998Z</time></trkpt><trkpt lat="44.17730514776461" lon="9.59869396585391"><ele>150.0</ele><time>2026-04-06T14:44:02.998Z</time></trkpt><trkpt lat="44.177247253610616" lon="9.598592009845197"><ele>150.0</ele><time>2026-04-06T14:44:04Z</time></trkpt><trkpt lat="44.17721613636284" lon="9.598479369056795"><ele>150.0</ele><time>2026-04-06T14:44:05Z</time></trkpt><trkpt lat="44.177215154981255" lon="9.598366025165111"><ele>148.6</ele><time>2026-04-06T14:44:06Z</time></trkpt><trkpt lat="44.177279840434984" lon="9.598315593965411"><ele>147.2</ele><time>2026-04-06T14:44:07Z</time></trkpt><trkpt lat="44.177423378490495" lon="9.598226505448894"><ele>145.8</ele><time>2026-04-06T14:44:09Z</time></trkpt><trkpt lat="44.177490189277115" lon="9.59816733609395"><ele>144.4</ele><time>2026-04-06T14:44:10Z</time></trkpt><trkpt lat="44.17756062969749" lon="9.598104316988326"><ele>143.0</ele><time>2026-04-06T14:44:11Z</time></trkpt><trkpt lat="44.17763431947652" lon="9.598055272035129"><ele>147.8</ele><time>2026-04-06T14:44:12Z</time></trkpt><trkpt lat="44.17771863143492" lon="9.5980019557512"><ele>152.60000000000002</ele><time>2026-04-06T14:44:13Z</time></trkpt><trkpt lat="44.17780654163032" lon="9.597957364401779"><ele>157.39999999999998</ele><time>2026-04-06T14:44:14Z</time></trkpt><trkpt lat="44.177900429560076" lon="9.597917969899793"><ele>162.2</ele><time>2026-04-06T14:44:15Z</time></trkpt><trkpt lat="44.177994265298615" lon="9.597886553282615"><ele>167.0</ele><time>2026-04-06T14:44:16Z</time></trkpt><trkpt lat="44.17809280198245" lon="9.597868865561235"><ele>167.8</ele><time>2026-04-06T14:44:17Z</time></trkpt><trkpt lat="44.17819921621247" lon="9.597862700245896"><ele>168.6</ele><time>2026-04-06T14:44:18Z</time></trkpt><trkpt lat="44.178307075379834" lon="9.597847395939143"><ele>169.4</ele><time>2026-04-06T14:44:19Z</time></trkpt><trkpt lat="44.17841344378254" lon="9.597815921638349"><ele>170.20000000000002</ele><time>2026-04-06T14:44:20Z</time></trkpt><trkpt lat="44.17851688397192" lon="9.597748176016848"><ele>171.0</ele><time>2026-04-06T14:44:21Z</time></trkpt><trkpt lat="44.17861300798222" lon="9.597652456537835"><ele>172.0</ele><time>2026-04-06T14:44:22Z</time></trkpt><trkpt lat="44.17870404936063" lon="9.597527916795778"><ele>173.0</ele><time>2026-04-06T14:44:23Z</time></trkpt><trkpt lat="44.17878471399509" lon="9.597372675397255"><ele>174.0</ele><time>2026-04-06T14:44:24Z</time></trkpt><trkpt lat="44.17884138131935" lon="9.597212087039328"><ele>175.0</ele><time>2026-04-06T14:44:25Z</time></trkpt><trkpt lat="44.1788651157146" lon="9.597035676400163"><ele>174.6</ele><time>2026-04-06T14:44:26Z</time></trkpt><trkpt lat="44.17889183804918" lon="9.596890935068757"><ele>174.2</ele><time>2026-04-06T14:44:27Z</time></trkpt><trkpt lat="44.17896211385678" lon="9.596793699652965"><ele>173.8</ele><time>2026-04-06T14:44:28Z</time></trkpt><trkpt lat="44.17904080832693" lon="9.596727220415142"><ele>173.4</ele><time>2026-04-06T14:44:29Z</time></trkpt><trkpt lat="44.179120162010086" lon="9.596619061082725"><ele>173.0</ele><time>2026-04-06T14:44:30Z</time></trkpt><trkpt lat="44.179200970619064" lon="9.596535719654305"><ele>175.66666666666666</ele><time>2026-04-06T14:44:31Z</time></trkpt><trkpt lat="44.17928671995557" lon="9.596456053231666"><ele>178.33333333333331</ele><time>2026-04-06T14:44:32Z</time></trkpt><trkpt lat="44.17937743828715" lon="9.596431226418243"><ele>181.0</ele><time>2026-04-06T14:44:33Z</time></trkpt><trkpt lat="44.179462145085196" lon="9.596401676243818"><ele>183.66666666666666</ele><time>2026-04-06T14:44:34Z</time></trkpt><trkpt lat="44.17952476739388" lon="9.596369173712526"><ele>186.33333333333334</ele><time>2026-04-06T14:44:35Z</time></trkpt><trkpt lat="44.17959817839969" lon="9.596406109378009"><ele>189.0</ele><time>2026-04-06T14:44:38Z</time></trkpt><trkpt lat="44.17964315120576" lon="9.596477994131481"><ele>189.0</ele><time>2026-04-06T14:44:41Z</time></trkpt><trkpt lat="44.17965392339634" lon="9.59638148680343"><ele>189.0</ele><time>2026-04-06T14:44:45Z</time></trkpt><trkpt lat="44.17959349603483" lon="9.596252266193655"><ele>189.0</ele><time>2026-04-06T14:48:07.998Z</time></trkpt><trkpt lat="44.17963271668054" lon="9.596016127050842"><ele>189.0</ele><time>2026-04-06T14:48:09.998Z</time></trkpt><trkpt lat="44.179634817964356" lon="9.59590975883882"><ele>189.0</ele><time>2026-04-06T14:48:10.998Z</time></trkpt><trkpt lat="44.179588816752755" lon="9.595774816807102"><ele>188.0</ele><time>2026-04-06T14:48:11.998Z</time></trkpt><trkpt lat="44.17958256136061" lon="9.59566562772738"><ele>187.0</ele><time>2026-04-06T14:48:12.998Z</time></trkpt><trkpt lat="44.17957081510739" lon="9.595549800312709"><ele>186.0</ele><time>2026-04-06T14:48:13.998Z</time></trkpt><trkpt lat="44.179526775412846" lon="9.59533020630923"><ele>185.0</ele><time>2026-04-06T14:48:14.998Z</time></trkpt><trkpt lat="44.17941979595433" lon="9.595064809575442"><ele>185.0</ele><time>2026-04-06T14:48:16Z</time></trkpt><trkpt lat="44.179371150895506" lon="9.594911833854697"><ele>185.0</ele><time>2026-04-06T14:48:17Z</time></trkpt><trkpt lat="44.17932244604725" lon="9.594695975361521"><ele>185.0</ele><time>2026-04-06T14:48:18Z</time></trkpt><trkpt lat="44.17926045412319" lon="9.594576943699845"><ele>185.0</ele><time>2026-04-06T14:48:19Z</time></trkpt><trkpt lat="44.17923560999797" lon="9.594463589988123"><ele>185.4</ele><time>2026-04-06T14:48:20Z</time></trkpt><trkpt lat="44.17919925898291" lon="9.594344887401753"><ele>185.8</ele><time>2026-04-06T14:48:21Z</time></trkpt><trkpt lat="44.179170502054" lon="9.594213420107852"><ele>186.2</ele><time>2026-04-06T14:48:22Z</time></trkpt><trkpt lat="44.17915378874021" lon="9.59409980105424"><ele>186.6</ele><time>2026-04-06T14:48:23Z</time></trkpt><trkpt lat="44.17912334910892" lon="9.59397072415494"><ele>187.0</ele><time>2026-04-06T14:48:24Z</time></trkpt><trkpt lat="44.17907016475593" lon="9.593861633173125"><ele>187.0</ele><time>2026-04-06T14:48:25Z</time></trkpt><trkpt lat="44.1790442437466" lon="9.593739152514178"><ele>187.0</ele><time>2026-04-06T14:48:26Z</time></trkpt><trkpt lat="44.17902921831368" lon="9.593599245369608"><ele>187.0</ele><time>2026-04-06T14:48:27Z</time></trkpt><trkpt lat="44.179018190413345" lon="9.593466760203324"><ele>187.0</ele><time>2026-04-06T14:48:28Z</time></trkpt><trkpt lat="44.17901710268795" lon="9.593333177574664"><ele>187.0</ele><time>2026-04-06T14:48:29Z</time></trkpt><trkpt lat="44.179004958827285" lon="9.593212675130083"><ele>185.33333333333334</ele><time>2026-04-06T14:48:30Z</time></trkpt><trkpt lat="44.17899120022958" lon="9.59306552429348"><ele>183.66666666666669</ele><time>2026-04-06T14:48:31Z</time></trkpt><trkpt lat="44.17898988593551" lon="9.592952739164666"><ele>182.0</ele><time>2026-04-06T14:48:32Z</time></trkpt><trkpt lat="44.17898295045395" lon="9.592852914972358"><ele>180.33333333333334</ele><time>2026-04-06T14:48:33Z</time></trkpt><trkpt lat="44.17897080327203" lon="9.592739414667058"><ele>178.66666666666666</ele><time>2026-04-06T14:48:34Z</time></trkpt><trkpt lat="44.17894647781041" lon="9.59263642476969"><ele>177.0</ele><time>2026-04-06T14:48:35Z</time></trkpt><trkpt lat="44.17894550311155" lon="9.592534054426464"><ele>177.0</ele><time>2026-04-06T14:48:36Z</time></trkpt><trkpt lat="44.17894908799282" lon="9.592434901672721"><ele>177.0</ele><time>2026-04-06T14:48:37Z</time></trkpt><trkpt lat="44.17891870393257" lon="9.592236693124171"><ele>177.0</ele><time>2026-04-06T14:48:39Z</time></trkpt><trkpt lat="44.17890243351002" lon="9.592086189281872"><ele>177.0</ele><time>2026-04-06T14:48:40Z</time></trkpt><trkpt lat="44.17887975478001" lon="9.591953332955715"><ele>177.0</ele><time>2026-04-06T14:48:41Z</time></trkpt><trkpt lat="44.17883304749021" lon="9.591795042033615"><ele>177.39999999999998</ele><time>2026-04-06T14:48:42Z</time></trkpt><trkpt lat="44.17879383727253" lon="9.59163608178806"><ele>177.79999999999998</ele><time>2026-04-06T14:48:43Z</time></trkpt><trkpt lat="44.178773187619065" lon="9.59147270552829"><ele>178.2</ele><time>2026-04-06T14:48:44Z</time></trkpt><trkpt lat="44.178757560622245" lon="9.591342011184688"><ele>178.6</ele><time>2026-04-06T14:48:45Z</time></trkpt><trkpt lat="44.178787487847885" lon="9.591211615349438"><ele>179.0</ele><time>2026-04-06T14:48:46Z</time></trkpt><trkpt lat="44.1788063368371" lon="9.591078069984848"><ele>179.0</ele><time>2026-04-06T14:48:47Z</time></trkpt><trkpt lat="44.17881331239698" lon="9.590944692288396"><ele>179.0</ele><time>2026-04-06T14:48:48Z</time></trkpt><trkpt lat="44.17884118941538" lon="9.59082775290973"><ele>179.0</ele><time>2026-04-06T14:48:49Z</time></trkpt><trkpt lat="44.17882683707579" lon="9.590703094958076"><ele>179.0</ele><time>2026-04-06T14:48:50Z</time></trkpt><trkpt lat="44.178804170189146" lon="9.590577259540707"><ele>179.0</ele><time>2026-04-06T14:48:51Z</time></trkpt><trkpt lat="44.17878814669397" lon="9.590453354030931"><ele>177.0</ele><time>2026-04-06T14:48:52Z</time></trkpt><trkpt lat="44.17877351158518" lon="9.590331379635867"><ele>175.0</ele><time>2026-04-06T14:48:53Z</time></trkpt><trkpt lat="44.178757141558464" lon="9.590205360292357"><ele>173.0</ele><time>2026-04-06T14:48:53.999Z</time></trkpt><trkpt lat="44.17871693912353" lon="9.590091879267446"><ele>171.0</ele><time>2026-04-06T14:48:54.999Z</time></trkpt><trkpt lat="44.17869042583998" lon="9.589967313726762"><ele>169.0</ele><time>2026-04-06T14:48:55.999Z</time></trkpt><trkpt lat="44.17865994700945" lon="9.589851457724286"><ele>169.0</ele><time>2026-04-06T14:48:56.999Z</time></trkpt><trkpt lat="44.17862617586724" lon="9.589757849106128"><ele>169.0</ele><time>2026-04-06T14:48:57.999Z</time></trkpt><trkpt lat="44.17858132473165" lon="9.589660397279138"><ele>169.0</ele><time>2026-04-06T14:49:00.999Z</time></trkpt><trkpt lat="44.1785490469492" lon="9.589572140154315"><ele>169.0</ele><time>2026-04-06T14:49:03.999Z</time></trkpt><trkpt lat="44.17850631549465" lon="9.589440523683663"><ele>169.0</ele><time>2026-04-06T14:49:05.999Z</time></trkpt><trkpt lat="44.178481283874106" lon="9.589342493744207"><ele>169.0</ele><time>2026-04-06T14:49:06.999Z</time></trkpt><trkpt lat="44.178438363706356" lon="9.589240217627378"><ele>167.2</ele><time>2026-04-06T14:49:07.999Z</time></trkpt><trkpt lat="44.17839811825081" lon="9.58911201501594"><ele>165.39999999999998</ele><time>2026-04-06T14:49:08.999Z</time></trkpt><trkpt lat="44.17834575746766" lon="9.58897285763973"><ele>163.6</ele><time>2026-04-06T14:49:09.999Z</time></trkpt><trkpt lat="44.178291503400786" lon="9.588832296995125"><ele>161.8</ele><time>2026-04-06T14:49:10.999Z</time></trkpt><trkpt lat="44.17823089825841" lon="9.588693759157684"><ele>160.0</ele><time>2026-04-06T14:49:11.999Z</time></trkpt><trkpt lat="44.178187158399204" lon="9.588553140424262"><ele>157.5</ele><time>2026-04-06T14:49:12.999Z</time></trkpt><trkpt lat="44.17814146790423" lon="9.588415418135751"><ele>155.0</ele><time>2026-04-06T14:49:13.999Z</time></trkpt><trkpt lat="44.17809532233789" lon="9.58829459412705"><ele>152.5</ele><time>2026-04-06T14:49:14.999Z</time></trkpt><trkpt lat="44.178051354869304" lon="9.588193129586429"><ele>150.0</ele><time>2026-04-06T14:49:15.999Z</time></trkpt><trkpt lat="44.178005092500285" lon="9.58810252336527"><ele>147.5</ele><time>2026-04-06T14:49:16.999Z</time></trkpt><trkpt lat="44.17796917821525" lon="9.58802458390872"><ele>145.0</ele><time>2026-04-06T14:49:17.999Z</time></trkpt><trkpt lat="44.177913647636124" lon="9.587912471043351"><ele>145.0</ele><time>2026-04-06T14:49:19.999Z</time></trkpt><trkpt lat="44.17787434310249" lon="9.587812028496332"><ele>145.0</ele><time>2026-04-06T14:49:21.999Z</time></trkpt><trkpt lat="44.17795905289821" lon="9.587738815742897"><ele>145.0</ele><time>2026-04-06T14:49:24.999Z</time></trkpt><trkpt lat="44.1780605466358" lon="9.58787185333618"><ele>145.0</ele><time>2026-04-06T14:49:26.999Z</time></trkpt><trkpt lat="44.178114382516846" lon="9.58798201466394"><ele>145.0</ele><time>2026-04-06T14:49:27.999Z</time></trkpt><trkpt lat="44.17819285287615" lon="9.588092847063699"><ele>144.75</ele><time>2026-04-06T14:49:28.999Z</time></trkpt><trkpt lat="44.17827472790052" lon="9.588220178223354"><ele>144.5</ele><time>2026-04-06T14:49:29.999Z</time></trkpt><trkpt lat="44.17836334264016" lon="9.588369119667218"><ele>144.25</ele><time>2026-04-06T14:49:30.999Z</time></trkpt><trkpt lat="44.17846118277216" lon="9.588525729475908"><ele>144.0</ele><time>2026-04-06T14:49:31.999Z</time></trkpt><trkpt lat="44.178575001106445" lon="9.588677175311535"><ele>149.33333333333334</ele><time>2026-04-06T14:49:32.999Z</time></trkpt><trkpt lat="44.17869365841699" lon="9.588843405028795"><ele>154.66666666666669</ele><time>2026-04-06T14:49:33.999Z</time></trkpt><trkpt lat="44.17880415687123" lon="9.589031059933422"><ele>160.0</ele><time>2026-04-06T14:49:34.999Z</time></trkpt><trkpt lat="44.178912581585735" lon="9.58923122544128"><ele>160.0</ele><time>2026-04-06T14:49:35.999Z</time></trkpt><trkpt lat="44.17901042999958" lon="9.589428449533976"><ele>160.0</ele><time>2026-04-06T14:49:36.999Z</time></trkpt><trkpt lat="44.179091022727526" lon="9.58960999117279"><ele>160.0</ele><time>2026-04-06T14:49:37.999Z</time></trkpt><trkpt lat="44.17914851430863" lon="9.589758582326201"><ele>160.0</ele><time>2026-04-06T14:49:38.999Z</time></trkpt><trkpt lat="44.17920007797668" lon="9.589887777306728"><ele>158.0</ele><time>2026-04-06T14:49:39.999Z</time></trkpt><trkpt lat="44.17922597299939" lon="9.590003582890755"><ele>156.0</ele><time>2026-04-06T14:49:40.999Z</time></trkpt><trkpt lat="44.179245642827645" lon="9.59008819251902"><ele>154.0</ele><time>2026-04-06T14:49:41.999Z</time></trkpt><trkpt lat="44.179317123146724" lon="9.590194124225519"><ele>152.0</ele><time>2026-04-06T14:49:43.999Z</time></trkpt><trkpt lat="44.1794122628288" lon="9.590168278440514"><ele>150.0</ele><time>2026-04-06T14:49:45.999Z</time></trkpt><trkpt lat="44.179462984015856" lon="9.590099332898005"><ele>148.0</ele><time>2026-04-06T14:49:46.999Z</time></trkpt><trkpt lat="44.17948717840653" lon="9.590006206145178"><ele>148.0</ele><time>2026-04-06T14:49:47.999Z</time></trkpt><trkpt lat="44.179505140259025" lon="9.589905816574746"><ele>148.0</ele><time>2026-04-06T14:49:48.999Z</time></trkpt><trkpt lat="44.179531264976376" lon="9.589822728775554"><ele>148.0</ele><time>2026-04-06T14:49:49.999Z</time></trkpt><trkpt lat="44.179573498011706" lon="9.589747323287925"><ele>148.0</ele><time>2026-04-06T14:49:51.999Z</time></trkpt><trkpt lat="44.17963162642577" lon="9.589642284185397"><ele>148.0</ele><time>2026-04-06T14:50:08.998Z</time></trkpt><trkpt lat="44.1797317709349" lon="9.589523981254441"><ele>148.0</ele><time>2026-04-06T14:50:10.998Z</time></trkpt><trkpt lat="44.17978803732696" lon="9.589440646139485"><ele>142.20000000000002</ele><time>2026-04-06T14:50:11.998Z</time></trkpt><trkpt lat="44.179895174848866" lon="9.589354650859928"><ele>136.4</ele><time>2026-04-06T14:50:12.998Z</time></trkpt><trkpt lat="44.17996823637731" lon="9.589306298730707"><ele>130.60000000000002</ele><time>2026-04-06T14:50:13.998Z</time></trkpt><trkpt lat="44.180035978803986" lon="9.58926831056943"><ele>124.80000000000001</ele><time>2026-04-06T14:50:14.998Z</time></trkpt><trkpt lat="44.180174685264966" lon="9.589292778885065"><ele>119.0</ele><time>2026-04-06T14:50:16.998Z</time></trkpt><trkpt lat="44.18027347501367" lon="9.589304938720908"><ele>119.0</ele><time>2026-04-06T14:50:17.998Z</time></trkpt><trkpt lat="44.18036475188152" lon="9.589323816335636"><ele>119.0</ele><time>2026-04-06T14:50:18.998Z</time></trkpt><trkpt lat="44.18045878064646" lon="9.58933141066154"><ele>119.0</ele><time>2026-04-06T14:50:19.998Z</time></trkpt><trkpt lat="44.18054382921062" lon="9.589339745629628"><ele>119.0</ele><time>2026-04-06T14:50:20.998Z</time></trkpt><trkpt lat="44.18065222082134" lon="9.589332778312384"><ele>119.0</ele><time>2026-04-06T14:50:23Z</time></trkpt><trkpt lat="44.180687917363414" lon="9.589212873919829"><ele>119.0</ele><time>2026-04-06T14:50:25Z</time></trkpt><trkpt lat="44.180611995975596" lon="9.589092825133424"><ele>119.0</ele><time>2026-04-06T14:50:27Z</time></trkpt><trkpt lat="44.18053467444324" lon="9.589073933350203"><ele>119.0</ele><time>2026-04-06T14:50:28Z</time></trkpt><trkpt lat="44.18046372438981" lon="9.589024450814291"><ele>119.0</ele><time>2026-04-06T14:50:29Z</time></trkpt><trkpt lat="44.18032887838344" lon="9.588974142530619"><ele>119.0</ele><time>2026-04-06T14:50:30Z</time></trkpt><trkpt lat="44.18020526636661" lon="9.588910298067887"><ele>119.0</ele><time>2026-04-06T14:50:31Z</time></trkpt><trkpt lat="44.18010009793095" lon="9.588847640588732"><ele>119.0</ele><time>2026-04-06T14:50:32Z</time></trkpt><trkpt lat="44.18001804158414" lon="9.588765890958157"><ele>119.0</ele><time>2026-04-06T14:50:33Z</time></trkpt><trkpt lat="44.179940346928355" lon="9.58868453672155"><ele>119.0</ele><time>2026-04-06T14:50:34Z</time></trkpt><trkpt lat="44.17986256700492" lon="9.588659743967558"><ele>119.0</ele><time>2026-04-06T14:50:35Z</time></trkpt><trkpt lat="44.179773439391056" lon="9.588715366339926"><ele>121.2</ele><time>2026-04-06T14:50:36Z</time></trkpt><trkpt lat="44.17968038075891" lon="9.588755670817681"><ele>123.4</ele><time>2026-04-06T14:50:37Z</time></trkpt><trkpt lat="44.17960843554148" lon="9.588851315224186"><ele>125.6</ele><time>2026-04-06T14:50:38Z</time></trkpt><trkpt lat="44.179546536137956" lon="9.588928711693681"><ele>127.8</ele><time>2026-04-06T14:50:39Z</time></trkpt><trkpt lat="44.17945873951675" lon="9.588961945831358"><ele>130.0</ele><time>2026-04-06T14:50:41Z</time></trkpt><trkpt lat="44.17937039025817" lon="9.58887208165558"><ele>130.0</ele><time>2026-04-06T14:50:43Z</time></trkpt><trkpt lat="44.17937240268825" lon="9.588763232738305"><ele>130.0</ele><time>2026-04-06T14:50:44Z</time></trkpt><trkpt lat="44.17934789867257" lon="9.588663856137744"><ele>130.0</ele><time>2026-04-06T14:50:45Z</time></trkpt><trkpt lat="44.17931087612739" lon="9.588557398145845"><ele>130.0</ele><time>2026-04-06T14:50:46Z</time></trkpt><trkpt lat="44.17928381189589" lon="9.588431888892154"><ele>130.0</ele><time>2026-04-06T14:50:47Z</time></trkpt><trkpt lat="44.17927600942769" lon="9.588293527935948"><ele>130.0</ele><time>2026-04-06T14:50:48Z</time></trkpt><trkpt lat="44.179229517372555" lon="9.588134551979284"><ele>131.0</ele><time>2026-04-06T14:50:49Z</time></trkpt><trkpt lat="44.179201365309304" lon="9.588004153567699"><ele>132.0</ele><time>2026-04-06T14:50:50Z</time></trkpt><trkpt lat="44.179153539319735" lon="9.587873065292001"><ele>133.0</ele><time>2026-04-06T14:50:51Z</time></trkpt><trkpt lat="44.17908679180105" lon="9.587748833535736"><ele>134.0</ele><time>2026-04-06T14:50:52Z</time></trkpt><trkpt lat="44.179017433636524" lon="9.58762745109636"><ele>135.0</ele><time>2026-04-06T14:50:53Z</time></trkpt><trkpt lat="44.17896823215391" lon="9.587511105642728"><ele>135.0</ele><time>2026-04-06T14:50:54Z</time></trkpt><trkpt lat="44.17892933695939" lon="9.58742208038809"><ele>135.0</ele><time>2026-04-06T14:50:55Z</time></trkpt><trkpt lat="44.17890300336016" lon="9.587329261815139"><ele>135.0</ele><time>2026-04-06T14:50:56Z</time></trkpt><trkpt lat="44.178889696484426" lon="9.587220745510225"><ele>135.0</ele><time>2026-04-06T14:50:57Z</time></trkpt><trkpt lat="44.17889012495" lon="9.587108565435237"><ele>135.0</ele><time>2026-04-06T14:50:58Z</time></trkpt><trkpt lat="44.1788845020853" lon="9.586996758298358"><ele>135.0</ele><time>2026-04-06T14:50:59Z</time></trkpt><trkpt lat="44.178874704425624" lon="9.586887596090518"><ele>133.0</ele><time>2026-04-06T14:51:00Z</time></trkpt><trkpt lat="44.178856778314824" lon="9.586773730769526"><ele>131.0</ele><time>2026-04-06T14:51:01Z</time></trkpt><trkpt lat="44.178841502235294" lon="9.586657867195186"><ele>129.0</ele><time>2026-04-06T14:51:02Z</time></trkpt><trkpt lat="44.17882591996809" lon="9.586537612886529"><ele>127.0</ele><time>2026-04-06T14:51:03Z</time></trkpt><trkpt lat="44.17880049119033" lon="9.586418155254572"><ele>125.0</ele><time>2026-04-06T14:51:04Z</time></trkpt><trkpt lat="44.178770649308404" lon="9.586303253129582"><ele>123.0</ele><time>2026-04-06T14:51:05Z</time></trkpt><trkpt lat="44.17874633356565" lon="9.58618597162418"><ele>119.16666666666667</ele><time>2026-04-06T14:51:05.999Z</time></trkpt><trkpt lat="44.17873167358817" lon="9.586067342414452"><ele>115.33333333333334</ele><time>2026-04-06T14:51:06.999Z</time></trkpt><trkpt lat="44.17869669787961" lon="9.58595988884809"><ele>111.5</ele><time>2026-04-06T14:51:07.999Z</time></trkpt><trkpt lat="44.17866073107069" lon="9.585862169739118"><ele>107.66666666666667</ele><time>2026-04-06T14:51:08.999Z</time></trkpt><trkpt lat="44.17862016320765" lon="9.585769637751586"><ele>103.83333333333334</ele><time>2026-04-06T14:51:09.999Z</time></trkpt><trkpt lat="44.17857701560493" lon="9.585684296384779"><ele>100.0</ele><time>2026-04-06T14:51:10.999Z</time></trkpt><trkpt lat="44.17853574290264" lon="9.585604328559903"><ele>100.00000000000001</ele><time>2026-04-06T14:51:11.999Z</time></trkpt><trkpt lat="44.17846400975829" lon="9.585511780858122"><ele>100.0</ele><time>2026-04-06T14:51:13.999Z</time></trkpt><trkpt lat="44.17841808138922" lon="9.585441452747746"><ele>100.0</ele><time>2026-04-06T14:51:15.999Z</time></trkpt><trkpt lat="44.1784755908127" lon="9.585384730407792"><ele>100.0</ele><time>2026-04-06T14:51:18.999Z</time></trkpt><trkpt lat="44.17852247306532" lon="9.585492213069923"><ele>100.00000000000001</ele><time>2026-04-06T14:51:20.999Z</time></trkpt><trkpt lat="44.17860092197272" lon="9.585601686444175"><ele>100.0</ele><time>2026-04-06T14:51:22.999Z</time></trkpt><trkpt lat="44.17865718226742" lon="9.585695867960968"><ele>100.00000000000001</ele><time>2026-04-06T14:51:25.999Z</time></trkpt><trkpt lat="44.178702630551" lon="9.585784736382326"><ele>100.0</ele><time>2026-04-06T14:51:27.999Z</time></trkpt><trkpt lat="44.17876680415652" lon="9.585898033288165"><ele>100.0</ele><time>2026-04-06T14:51:29.999Z</time></trkpt><trkpt lat="44.178815430769596" lon="9.585958823784303"><ele>100.0</ele><time>2026-04-06T14:51:30.999Z</time></trkpt><trkpt lat="44.178844509424614" lon="9.586055955507396"><ele>100.00000000000001</ele><time>2026-04-06T14:51:31.999Z</time></trkpt><trkpt lat="44.178890964110096" lon="9.586150336303918"><ele>100.0</ele><time>2026-04-06T14:51:32.999Z</time></trkpt><trkpt lat="44.17893096908427" lon="9.586254384569884"><ele>95.6</ele><time>2026-04-06T14:51:33.999Z</time></trkpt><trkpt lat="44.178976504202346" lon="9.58637573270874"><ele>91.2</ele><time>2026-04-06T14:51:34.999Z</time></trkpt><trkpt lat="44.17902109565821" lon="9.586497687185812"><ele>86.8</ele><time>2026-04-06T14:51:35.999Z</time></trkpt><trkpt lat="44.179064557280014" lon="9.586617998646512"><ele>82.4</ele><time>2026-04-06T14:51:36.999Z</time></trkpt><trkpt lat="44.17910997184979" lon="9.586743716302415"><ele>78.0</ele><time>2026-04-06T14:51:37.999Z</time></trkpt><trkpt lat="44.17916037342861" lon="9.586865176097044"><ele>78.0</ele><time>2026-04-06T14:51:38.999Z</time></trkpt><trkpt lat="44.179201320865" lon="9.586963920262207"><ele>78.0</ele><time>2026-04-06T14:51:39.999Z</time></trkpt><trkpt lat="44.179248733375815" lon="9.587101248974578"><ele>78.0</ele><time>2026-04-06T14:51:41.999Z</time></trkpt><trkpt lat="44.179284968732006" lon="9.58718045631814"><ele>78.0</ele><time>2026-04-06T14:51:43.999Z</time></trkpt><trkpt lat="44.17934829056797" lon="9.587208028291693"><ele>78.0</ele><time>2026-04-06T14:51:45.999Z</time></trkpt><trkpt lat="44.179436933036754" lon="9.587220333867403"><ele>78.0</ele><time>2026-04-06T14:51:47.999Z</time></trkpt><trkpt lat="44.17955539257045" lon="9.587303725462762"><ele>77.16666666666667</ele><time>2026-04-06T14:51:49.999Z</time></trkpt><trkpt lat="44.17961286815443" lon="9.587375810956205"><ele>76.33333333333333</ele><time>2026-04-06T14:51:50.999Z</time></trkpt><trkpt lat="44.17967621700809" lon="9.587469605430345"><ele>75.5</ele><time>2026-04-06T14:51:51.999Z</time></trkpt><trkpt lat="44.1797364464724" lon="9.587555407046368"><ele>74.66666666666666</ele><time>2026-04-06T14:51:52.999Z</time></trkpt><trkpt lat="44.17980322685592" lon="9.587602179340564"><ele>73.83333333333333</ele><time>2026-04-06T14:51:53.999Z</time></trkpt><trkpt lat="44.17987538994208" lon="9.58762150456347"><ele>73.0</ele><time>2026-04-06T14:51:54.999Z</time></trkpt><trkpt lat="44.179957472694824" lon="9.587600735355197"><ele>73.0</ele><time>2026-04-06T14:51:55.999Z</time></trkpt><trkpt lat="44.180029525194634" lon="9.587572387616156"><ele>73.0</ele><time>2026-04-06T14:51:56.999Z</time></trkpt><trkpt lat="44.180163220262045" lon="9.5875111534325"><ele>73.0</ele><time>2026-04-06T14:51:58.999Z</time></trkpt><trkpt lat="44.18023695060672" lon="9.587468680246964"><ele>73.0</ele><time>2026-04-06T14:51:59.999Z</time></trkpt><trkpt lat="44.180308176861985" lon="9.587419191170765"><ele>73.0</ele><time>2026-04-06T14:52:00.999Z</time></trkpt><trkpt lat="44.18037542359289" lon="9.587335771573871"><ele>73.0</ele><time>2026-04-06T14:52:01.999Z</time></trkpt><trkpt lat="44.18043977485233" lon="9.587253827939056"><ele>73.0</ele><time>2026-04-06T14:52:02.999Z</time></trkpt><trkpt lat="44.18050284963903" lon="9.587165610045458"><ele>73.0</ele><time>2026-04-06T14:52:03.999Z</time></trkpt><trkpt lat="44.180591096286726" lon="9.58706114456436"><ele>73.0</ele><time>2026-04-06T14:52:05.999Z</time></trkpt><trkpt lat="44.18063568032929" lon="9.586996036677922"><ele>73.0</ele><time>2026-04-06T14:52:06.999Z</time></trkpt><trkpt lat="44.180701480331244" lon="9.58693255203759"><ele>73.0</ele><time>2026-04-06T14:52:07.999Z</time></trkpt><trkpt lat="44.18073438885257" lon="9.586840501088822"><ele>70.83333333333333</ele><time>2026-04-06T14:52:08.999Z</time></trkpt><trkpt lat="44.18078054876574" lon="9.586748629637336"><ele>68.66666666666666</ele><time>2026-04-06T14:52:09.999Z</time></trkpt><trkpt lat="44.180836217272855" lon="9.586651813420929"><ele>66.5</ele><time>2026-04-06T14:52:10.999Z</time></trkpt><trkpt lat="44.180896801799406" lon="9.586567858907545"><ele>64.33333333333333</ele><time>2026-04-06T14:52:11.999Z</time></trkpt><trkpt lat="44.180957855976914" lon="9.5865222532698"><ele>62.166666666666664</ele><time>2026-04-06T14:52:12.998Z</time></trkpt><trkpt lat="44.18105902712928" lon="9.586457441274904"><ele>60.0</ele><time>2026-04-06T14:52:14.998Z</time></trkpt><trkpt lat="44.18115850354684" lon="9.586491237039606"><ele>60.0</ele><time>2026-04-06T14:52:16.998Z</time></trkpt><trkpt lat="44.18122565971937" lon="9.586619935373255"><ele>60.0</ele><time>2026-04-06T14:52:18.998Z</time></trkpt><trkpt lat="44.18132156411198" lon="9.58671154422238"><ele>60.0</ele><time>2026-04-06T14:52:20.998Z</time></trkpt><trkpt lat="44.181436233045034" lon="9.586760367166121"><ele>60.0</ele><time>2026-04-06T14:52:22.998Z</time></trkpt><trkpt lat="44.181536758020265" lon="9.586713307241432"><ele>60.8</ele><time>2026-04-06T14:52:24.998Z</time></trkpt><trkpt lat="44.18161121517514" lon="9.586586440804924"><ele>61.6</ele><time>2026-04-06T14:52:26.998Z</time></trkpt><trkpt lat="44.18163488319935" lon="9.586428809792237"><ele>62.400000000000006</ele><time>2026-04-06T14:52:29Z</time></trkpt><trkpt lat="44.1816923968786" lon="9.586274662642515"><ele>63.2</ele><time>2026-04-06T14:52:31Z</time></trkpt><trkpt lat="44.18172872069647" lon="9.586195537234826"><ele>64.0</ele><time>2026-04-06T14:52:32Z</time></trkpt><trkpt lat="44.181780891269554" lon="9.586108847529685"><ele>60.800000000000004</ele><time>2026-04-06T14:52:33Z</time></trkpt><trkpt lat="44.181818430759" lon="9.585970891918413"><ele>57.60000000000001</ele><time>2026-04-06T14:52:34Z</time></trkpt><trkpt lat="44.181845389873764" lon="9.585809484867072"><ele>54.4</ele><time>2026-04-06T14:52:35Z</time></trkpt><trkpt lat="44.1818505828018" lon="9.585662382845989"><ele>51.2</ele><time>2026-04-06T14:52:36Z</time></trkpt><trkpt lat="44.18188174634655" lon="9.58556020407421"><ele>48.0</ele><time>2026-04-06T14:52:37Z</time></trkpt><trkpt lat="44.18190191941469" lon="9.585475079064642"><ele>48.0</ele><time>2026-04-06T14:52:38Z</time></trkpt><trkpt lat="44.18197955259636" lon="9.585357189196946"><ele>48.0</ele><time>2026-04-06T14:52:40Z</time></trkpt><trkpt lat="44.18204912920701" lon="9.585382119053934"><ele>48.0</ele><time>2026-04-06T14:52:41Z</time></trkpt><trkpt lat="44.18211866509459" lon="9.585385285796827"><ele>48.0</ele><time>2026-04-06T14:52:42Z</time></trkpt><trkpt lat="44.18218330822402" lon="9.58537461161222"><ele>48.0</ele><time>2026-04-06T14:52:43Z</time></trkpt><trkpt lat="44.18225089906719" lon="9.5853340984151"><ele>48.0</ele><time>2026-04-06T14:52:44Z</time></trkpt><trkpt lat="44.18232074027439" lon="9.585283810037819"><ele>48.666666666666664</ele><time>2026-04-06T14:52:45Z</time></trkpt><trkpt lat="44.18240230880364" lon="9.585282971522114"><ele>49.33333333333333</ele><time>2026-04-06T14:52:46Z</time></trkpt><trkpt lat="44.18245402574279" lon="9.585360084776688"><ele>50.0</ele><time>2026-04-06T14:52:47Z</time></trkpt><trkpt lat="44.18251950339973" lon="9.585418077609148"><ele>50.666666666666664</ele><time>2026-04-06T14:52:48Z</time></trkpt><trkpt lat="44.18257745166728" lon="9.585485280025699"><ele>51.33333333333333</ele><time>2026-04-06T14:52:49Z</time></trkpt><trkpt lat="44.18264376299868" lon="9.585541191190767"><ele>52.0</ele><time>2026-04-06T14:52:50Z</time></trkpt><trkpt lat="44.18269337236507" lon="9.58560739851158"><ele>51.99999999999999</ele><time>2026-04-06T14:52:51Z</time></trkpt><trkpt lat="44.18274972701804" lon="9.585647455858181"><ele>52.0</ele><time>2026-04-06T14:52:52Z</time></trkpt><trkpt lat="44.182831193874016" lon="9.585612476388157"><ele>52.0</ele><time>2026-04-06T14:52:54Z</time></trkpt><trkpt lat="44.182862721456665" lon="9.58551327642435"><ele>52.0</ele><time>2026-04-06T14:52:56Z</time></trkpt><trkpt lat="44.182758343403094" lon="9.58541597947652"><ele>51.99999999999999</ele><time>2026-04-06T14:52:57Z</time></trkpt><trkpt lat="44.18270129891107" lon="9.58537744969852"><ele>52.0</ele><time>2026-04-06T14:52:58Z</time></trkpt><trkpt lat="44.18260230237241" lon="9.585282139688786"><ele>48.49999999999999</ele><time>2026-04-06T14:53:00Z</time></trkpt><trkpt lat="44.182581335861954" lon="9.58519817615268"><ele>45.0</ele><time>2026-04-06T14:53:01Z</time></trkpt><trkpt lat="44.18253812243958" lon="9.585126079085235"><ele>41.5</ele><time>2026-04-06T14:53:02Z</time></trkpt><trkpt lat="44.18247075529751" lon="9.584989286763104"><ele>38.0</ele><time>2026-04-06T14:53:04Z</time></trkpt><trkpt lat="44.18240812320914" lon="9.58496346318211"><ele>34.5</ele><time>2026-04-06T14:53:05Z</time></trkpt><trkpt lat="44.18233711291239" lon="9.584983941249977"><ele>31.0</ele><time>2026-04-06T14:53:06Z</time></trkpt><trkpt lat="44.182230150617656" lon="9.58508622706158"><ele>31.000000000000004</ele><time>2026-04-06T14:53:08Z</time></trkpt><trkpt lat="44.18211265971915" lon="9.585088813435803"><ele>31.0</ele><time>2026-04-06T14:53:10Z</time></trkpt><trkpt lat="44.182062597748185" lon="9.585007749614483"><ele>31.0</ele><time>2026-04-06T14:53:11Z</time></trkpt><trkpt lat="44.18205534728993" lon="9.58490805726782"><ele>31.0</ele><time>2026-04-06T14:53:12Z</time></trkpt><trkpt lat="44.18202842310961" lon="9.58481602016832"><ele>31.000000000000004</ele><time>2026-04-06T14:53:13Z</time></trkpt><trkpt lat="44.1820103739855" lon="9.584700861305697"><ele>31.0</ele><time>2026-04-06T14:53:14Z</time></trkpt><trkpt lat="44.1819817120174" lon="9.584598551194267"><ele>31.000000000000004</ele><time>2026-04-06T14:53:15Z</time></trkpt><trkpt lat="44.1819594212338" lon="9.584514896604905"><ele>31.0</ele><time>2026-04-06T14:53:16Z</time></trkpt><trkpt lat="44.18191094777548" lon="9.584453521083402"><ele>31.0</ele><time>2026-04-06T14:53:17Z</time></trkpt><trkpt lat="44.181849191290624" lon="9.584433899789174"><ele>31.0</ele><time>2026-04-06T14:53:18Z</time></trkpt><trkpt lat="44.18175024032502" lon="9.584442373921968"><ele>31.000000000000004</ele><time>2026-04-06T14:53:19.999Z</time></trkpt><trkpt lat="44.18170434180451" lon="9.58435895974473"><ele>31.0</ele><time>2026-04-06T14:53:21.999Z</time></trkpt><trkpt lat="44.181921250213556" lon="9.584421880607302"><ele>31.000000000000004</ele><time>2026-04-06T14:53:26.999Z</time></trkpt><trkpt lat="44.18200995641724" lon="9.584450432894041"><ele>31.0</ele><time>2026-04-06T14:53:27.999Z</time></trkpt><trkpt lat="44.18205922449425" lon="9.584530656990786"><ele>31.0</ele><time>2026-04-06T14:53:28.999Z</time></trkpt><trkpt lat="44.18205826780588" lon="9.584648868136526"><ele>31.0</ele><time>2026-04-06T14:53:29.999Z</time></trkpt><trkpt lat="44.18207554379355" lon="9.584772032431573"><ele>31.000000000000004</ele><time>2026-04-06T14:53:30.999Z</time></trkpt><trkpt lat="44.18209029805653" lon="9.584861229660808"><ele>31.0</ele><time>2026-04-06T14:53:31.999Z</time></trkpt><trkpt lat="44.1821931896047" lon="9.58497135731057"><ele>31.000000000000004</ele><time>2026-04-06T14:53:33.999Z</time></trkpt><trkpt lat="44.182283265293904" lon="9.584931103673178"><ele>31.0</ele><time>2026-04-06T14:53:34.999Z</time></trkpt><trkpt lat="44.182334555431986" lon="9.584867969753502"><ele>31.0</ele><time>2026-04-06T14:53:35.999Z</time></trkpt><trkpt lat="44.18237079001116" lon="9.58475667829646"><ele>31.0</ele><time>2026-04-06T14:53:36.999Z</time></trkpt><trkpt lat="44.18241091975537" lon="9.584655801635076"><ele>31.000000000000004</ele><time>2026-04-06T14:53:37.999Z</time></trkpt><trkpt lat="44.18243142759672" lon="9.58454719190383"><ele>31.0</ele><time>2026-04-06T14:53:38.999Z</time></trkpt><trkpt lat="44.182383166532226" lon="9.584426884672435"><ele>27.833333333333336</ele><time>2026-04-06T14:53:40.999Z</time></trkpt><trkpt lat="44.182333759773634" lon="9.584356065657856"><ele>24.666666666666668</ele><time>2026-04-06T14:53:41.999Z</time></trkpt><trkpt lat="44.18230232296592" lon="9.584254026868848"><ele>21.5</ele><time>2026-04-06T14:53:42.999Z</time></trkpt><trkpt lat="44.18226563291396" lon="9.584119437949347"><ele>18.333333333333336</ele><time>2026-04-06T14:53:44.999Z</time></trkpt><trkpt lat="44.18229355444621" lon="9.584035479680386"><ele>15.166666666666668</ele><time>2026-04-06T14:53:46.999Z</time></trkpt><trkpt lat="44.182343308290136" lon="9.583941103292908"><ele>12.0</ele><time>2026-04-06T14:53:49.999Z</time></trkpt><trkpt lat="44.18241201394855" lon="9.583858168246051"><ele>11.333333333333334</ele><time>2026-04-06T14:53:52.999Z</time></trkpt><trkpt lat="44.1824625852541" lon="9.583788974412794"><ele>10.666666666666666</ele><time>2026-04-06T14:53:54.999Z</time></trkpt><trkpt lat="44.18250901041351" lon="9.583725668962611"><ele>10.0</ele><time>2026-04-06T14:53:56.999Z</time></trkpt><trkpt lat="44.18256871842759" lon="9.58365637346198"><ele>9.333333333333332</ele><time>2026-04-06T14:54:01.999Z</time></trkpt><trkpt lat="44.18260772080939" lon="9.583579353651606"><ele>8.666666666666666</ele><time>2026-04-06T14:54:03.999Z</time></trkpt><trkpt lat="44.18267100149959" lon="9.583522363391205"><ele>8.0</ele><time>2026-04-06T14:54:06.999Z</time></trkpt><trkpt lat="44.1827529711065" lon="9.583592880061918"><ele>7.999999999999999</ele><time>2026-04-06T14:54:09.999Z</time></trkpt><trkpt lat="44.18284513830457" lon="9.58368142206506"><ele>8.0</ele><time>2026-04-06T14:54:11.999Z</time></trkpt><trkpt lat="44.18291369718737" lon="9.58370520818028"><ele>8.0</ele><time>2026-04-06T14:54:13.999Z</time></trkpt><trkpt lat="44.18297601457207" lon="9.583725585241934"><ele>8.0</ele><time>2026-04-06T14:54:15.999Z</time></trkpt><trkpt lat="44.18304480911306" lon="9.583739911617837"><ele>7.999999999999999</ele><time>2026-04-06T14:54:17.999Z</time></trkpt><trkpt lat="44.18311807360553" lon="9.583772407927206"><ele>8.0</ele><time>2026-04-06T14:54:19.999Z</time></trkpt><trkpt lat="44.18319618822715" lon="9.583751217170539"><ele>7.4</ele><time>2026-04-06T14:54:22.999Z</time></trkpt><trkpt lat="44.18316561094908" lon="9.58364574681609"><ele>6.800000000000001</ele><time>2026-04-06T14:54:25.998Z</time></trkpt><trkpt lat="44.183079099320416" lon="9.583566835827769"><ele>6.2</ele><time>2026-04-06T14:54:27.998Z</time></trkpt><trkpt lat="44.18294413566085" lon="9.583496505710315"><ele>5.6</ele><time>2026-04-06T14:54:29.998Z</time></trkpt><trkpt lat="44.18286436663735" lon="9.583468914974974"><ele>5.0</ele><time>2026-04-06T14:54:30.998Z</time></trkpt><trkpt lat="44.18282182081179" lon="9.583395881601652"><ele>5.0</ele><time>2026-04-06T14:54:32.998Z</time></trkpt></trkseg><trkseg><trkpt lat="44.18274938262015" lon="9.583376552705749"><ele>5.0</ele><time>2026-04-06T15:12:29Z</time></trkpt><trkpt lat="44.18281469220899" lon="9.583391463239957"><ele>5.0</ele><time>2026-04-06T15:12:38Z</time></trkpt><trkpt lat="44.18272912377673" lon="9.583444890565364"><ele>5.0</ele><time>2026-04-06T15:12:55Z</time></trkpt><trkpt lat="44.18263933026531" lon="9.583532304027624"><ele>5.0</ele><time>2026-04-06T15:12:57Z</time></trkpt><trkpt lat="44.182554240282954" lon="9.583592631709765"><ele>5.0</ele><time>2026-04-06T15:12:59Z</time></trkpt><trkpt lat="44.18245100921435" lon="9.583568447131302"><ele>5.0</ele><time>2026-04-06T15:13:00Z</time></trkpt><trkpt lat="44.18238231507713" lon="9.58357678616506"><ele>5.0</ele><time>2026-04-06T15:13:01Z</time></trkpt><trkpt lat="44.18232571174816" lon="9.583639939662145"><ele>5.0</ele><time>2026-04-06T15:13:02Z</time></trkpt><trkpt lat="44.18226941654519" lon="9.583709908409238"><ele>5.0</ele><time>2026-04-06T15:13:03Z</time></trkpt><trkpt lat="44.1822128379697" lon="9.583770678126912"><ele>5.0</ele><time>2026-04-06T15:13:04Z</time></trkpt><trkpt lat="44.18213071735653" lon="9.583850068365933"><ele>5.0</ele><time>2026-04-06T15:13:06Z</time></trkpt><trkpt lat="44.18206252240845" lon="9.58390876202986"><ele>4.333333333333334</ele><time>2026-04-06T15:13:07.999Z</time></trkpt><trkpt lat="44.18198001016298" lon="9.583919169691073"><ele>3.666666666666667</ele><time>2026-04-06T15:13:09.999Z</time></trkpt><trkpt lat="44.18197386420611" lon="9.583823372293965"><ele>3.0</ele><time>2026-04-06T15:13:11.999Z</time></trkpt><trkpt lat="44.18204720083832" lon="9.583783880257545"><ele>2.3333333333333335</ele><time>2026-04-06T15:13:13.999Z</time></trkpt><trkpt lat="44.18215354082752" lon="9.583717296090818"><ele>1.6666666666666665</ele><time>2026-04-06T15:13:15.999Z</time></trkpt><trkpt lat="44.18221116406577" lon="9.583651641784"><ele>1.0</ele><time>2026-04-06T15:13:16.999Z</time></trkpt><trkpt lat="44.18227893534619" lon="9.583572939655962"><ele>2.0</ele><time>2026-04-06T15:13:17.999Z</time></trkpt><trkpt lat="44.182363063191495" lon="9.583499753663748"><ele>3.0</ele><time>2026-04-06T15:13:18.999Z</time></trkpt><trkpt lat="44.18244596188085" lon="9.583396224077632"><ele>4.0</ele><time>2026-04-06T15:13:19.999Z</time></trkpt><trkpt lat="44.18253705489626" lon="9.58329191988841"><ele>5.0</ele><time>2026-04-06T15:13:20.999Z</time></trkpt><trkpt lat="44.18262739448491" lon="9.583171590543223"><ele>5.0</ele><time>2026-04-06T15:13:21.999Z</time></trkpt><trkpt lat="44.1827226182442" lon="9.583047103355756"><ele>5.0</ele><time>2026-04-06T15:13:22.999Z</time></trkpt><trkpt lat="44.18280083675395" lon="9.582920759902212"><ele>5.0</ele><time>2026-04-06T15:13:23.999Z</time></trkpt><trkpt lat="44.182878038065766" lon="9.582805222662676"><ele>5.0</ele><time>2026-04-06T15:13:24.999Z</time></trkpt><trkpt lat="44.1829507213109" lon="9.58269755651417"><ele>4.6</ele><time>2026-04-06T15:13:25.999Z</time></trkpt><trkpt lat="44.18301471049488" lon="9.58259262528216"><ele>4.2</ele><time>2026-04-06T15:13:26.999Z</time></trkpt><trkpt lat="44.18307609467229" lon="9.58249401112419"><ele>3.8</ele><time>2026-04-06T15:13:27.999Z</time></trkpt><trkpt lat="44.18313260258463" lon="9.582395102369588"><ele>3.4</ele><time>2026-04-06T15:13:28.999Z</time></trkpt><trkpt lat="44.18318969154965" lon="9.582302911650265"><ele>3.0</ele><time>2026-04-06T15:13:29.999Z</time></trkpt><trkpt lat="44.183240271914684" lon="9.582214107838027"><ele>3.3333333333333335</ele><time>2026-04-06T15:13:30.999Z</time></trkpt><trkpt lat="44.183286650312716" lon="9.582133076651775"><ele>3.666666666666667</ele><time>2026-04-06T15:13:31.999Z</time></trkpt><trkpt lat="44.18332987737921" lon="9.582048780135883"><ele>4.0</ele><time>2026-04-06T15:13:32.999Z</time></trkpt><trkpt lat="44.183365686012294" lon="9.58196814991866"><ele>4.333333333333334</ele><time>2026-04-06T15:13:33.999Z</time></trkpt><trkpt lat="44.18339775841136" lon="9.581891037150879"><ele>4.666666666666667</ele><time>2026-04-06T15:13:34.999Z</time></trkpt><trkpt lat="44.183456711898266" lon="9.58174996019823"><ele>5.0</ele><time>2026-04-06T15:13:36.999Z</time></trkpt><trkpt lat="44.1835053933796" lon="9.581650573176894"><ele>5.0</ele><time>2026-04-06T15:13:38.999Z</time></trkpt><trkpt lat="44.1835439989298" lon="9.581540641598083"><ele>5.0</ele><time>2026-04-06T15:13:40.999Z</time></trkpt><trkpt lat="44.183581147777154" lon="9.581440680418359"><ele>5.0</ele><time>2026-04-06T15:13:42.999Z</time></trkpt><trkpt lat="44.18362343042881" lon="9.581342312181672"><ele>5.0</ele><time>2026-04-06T15:13:45.999Z</time></trkpt><trkpt lat="44.18357771634004" lon="9.581446427947084"><ele>5.0</ele><time>2026-04-06T15:13:54.999Z</time></trkpt><trkpt lat="44.183530288662354" lon="9.581547875362364"><ele>5.0</ele><time>2026-04-06T15:13:56.999Z</time></trkpt><trkpt lat="44.183464368853684" lon="9.581677130220651"><ele>5.0</ele><time>2026-04-06T15:13:58.999Z</time></trkpt><trkpt lat="44.183430904099055" lon="9.581753040689131"><ele>5.0</ele><time>2026-04-06T15:13:59.999Z</time></trkpt><trkpt lat="44.18336623647772" lon="9.58189300408495"><ele>5.0</ele><time>2026-04-06T15:14:01.999Z</time></trkpt><trkpt lat="44.18330562184004" lon="9.58201862301287"><ele>5.0</ele><time>2026-04-06T15:14:03.999Z</time></trkpt><trkpt lat="44.18325460270749" lon="9.582146266211021"><ele>5.0</ele><time>2026-04-06T15:14:05.999Z</time></trkpt><trkpt lat="44.18319772331588" lon="9.582251452102517"><ele>4.6</ele><time>2026-04-06T15:14:07.999Z</time></trkpt><trkpt lat="44.18315166259247" lon="9.582351420163766"><ele>4.2</ele><time>2026-04-06T15:14:09.999Z</time></trkpt><trkpt lat="44.183063937943935" lon="9.582472169781841"><ele>3.8</ele><time>2026-04-06T15:14:11.998Z</time></trkpt><trkpt lat="44.183011860478" lon="9.582562604758198"><ele>3.4</ele><time>2026-04-06T15:14:12.998Z</time></trkpt><trkpt lat="44.18295448639769" lon="9.582658110619004"><ele>3.0</ele><time>2026-04-06T15:14:13.998Z</time></trkpt><trkpt lat="44.18289352272419" lon="9.582759886111251"><ele>3.3333333333333335</ele><time>2026-04-06T15:14:14.998Z</time></trkpt><trkpt lat="44.182835017904644" lon="9.582850378237238"><ele>3.666666666666667</ele><time>2026-04-06T15:14:15.998Z</time></trkpt><trkpt lat="44.18278196751856" lon="9.582934520238124"><ele>4.0</ele><time>2026-04-06T15:14:16.998Z</time></trkpt><trkpt lat="44.182732724413896" lon="9.583007594040149"><ele>4.333333333333334</ele><time>2026-04-06T15:14:17.998Z</time></trkpt><trkpt lat="44.18268521616379" lon="9.583077439619698"><ele>4.666666666666667</ele><time>2026-04-06T15:14:18.998Z</time></trkpt><trkpt lat="44.18263678247832" lon="9.583138137177894"><ele>5.0</ele><time>2026-04-06T15:14:19.998Z</time></trkpt><trkpt lat="44.18254998257086" lon="9.583243247586076"><ele>5.0</ele><time>2026-04-06T15:14:21.998Z</time></trkpt><trkpt lat="44.182466076596384" lon="9.583341068609117"><ele>5.0</ele><time>2026-04-06T15:14:23.998Z</time></trkpt><trkpt lat="44.18237035098052" lon="9.583443079322425"><ele>5.0</ele><time>2026-04-06T15:14:25.998Z</time></trkpt><trkpt lat="44.18226845877867" lon="9.583549568693199"><ele>5.0</ele><time>2026-04-06T15:14:27.998Z</time></trkpt><trkpt lat="44.182178629802785" lon="9.583641678515155"><ele>6.4</ele><time>2026-04-06T15:14:29.998Z</time></trkpt><trkpt lat="44.18209247098005" lon="9.583719173223956"><ele>7.8</ele><time>2026-04-06T15:14:31.998Z</time></trkpt><trkpt lat="44.18201341709482" lon="9.583779839786503"><ele>9.2</ele><time>2026-04-06T15:14:33.998Z</time></trkpt><trkpt lat="44.18194383027931" lon="9.583838330846733"><ele>10.6</ele><time>2026-04-06T15:14:36.998Z</time></trkpt><trkpt lat="44.1820182745899" lon="9.583968964423901"><ele>12.0</ele><time>2026-04-06T15:14:44Z</time></trkpt><trkpt lat="44.18211440966949" lon="9.583898217409436"><ele>12.0</ele><time>2026-04-06T15:14:46Z</time></trkpt><trkpt lat="44.182175059858345" lon="9.583847810477844"><ele>12.0</ele><time>2026-04-06T15:14:47Z</time></trkpt><trkpt lat="44.182235718147986" lon="9.583792402178664"><ele>12.0</ele><time>2026-04-06T15:14:48Z</time></trkpt><trkpt lat="44.18232021160808" lon="9.583708969742402"><ele>12.0</ele><time>2026-04-06T15:14:50Z</time></trkpt><trkpt lat="44.18239306866165" lon="9.583643515300528"><ele>12.0</ele><time>2026-04-06T15:14:53Z</time></trkpt><trkpt lat="44.182456298440215" lon="9.583595021979772"><ele>12.0</ele><time>2026-04-06T15:14:57Z</time></trkpt><trkpt lat="44.182521060376445" lon="9.58369033502236"><ele>12.0</ele><time>2026-04-06T15:15:06Z</time></trkpt><trkpt lat="44.18240632212087" lon="9.583825872660125"><ele>12.0</ele><time>2026-04-06T15:15:07Z</time></trkpt><trkpt lat="44.18233167160763" lon="9.583872373100073"><ele>12.0</ele><time>2026-04-06T15:15:09Z</time></trkpt><trkpt lat="44.18228521722015" lon="9.583940294616262"><ele>12.0</ele><time>2026-04-06T15:15:11Z</time></trkpt><trkpt lat="44.18224946293711" lon="9.584023689250092"><ele>12.0</ele><time>2026-04-06T15:15:13Z</time></trkpt><trkpt lat="44.18223288175653" lon="9.584158723265302"><ele>12.0</ele><time>2026-04-06T15:15:15Z</time></trkpt><trkpt lat="44.182246534344735" lon="9.584247467294905"><ele>12.0</ele><time>2026-04-06T15:15:16Z</time></trkpt><trkpt lat="44.18228617343437" lon="9.584327398201465"><ele>12.0</ele><time>2026-04-06T15:15:17Z</time></trkpt><trkpt lat="44.18235592758254" lon="9.584451795349066"><ele>12.0</ele><time>2026-04-06T15:15:19Z</time></trkpt><trkpt lat="44.182384540468185" lon="9.584576056218701"><ele>12.0</ele><time>2026-04-06T15:15:21Z</time></trkpt><trkpt lat="44.18234701946713" lon="9.584721824597006"><ele>15.166666666666668</ele><time>2026-04-06T15:15:23Z</time></trkpt><trkpt lat="44.18230584110611" lon="9.584832138704579"><ele>18.333333333333336</ele><time>2026-04-06T15:15:24.999Z</time></trkpt><trkpt lat="44.182240732076856" lon="9.584886351911283"><ele>21.5</ele><time>2026-04-06T15:15:26.999Z</time></trkpt><trkpt lat="44.182166006549586" lon="9.584879437400215"><ele>24.666666666666668</ele><time>2026-04-06T15:15:28.999Z</time></trkpt><trkpt lat="44.18208214227758" lon="9.58476833526144"><ele>27.833333333333336</ele><time>2026-04-06T15:15:30.999Z</time></trkpt><trkpt lat="44.182082437651985" lon="9.584661277044221"><ele>31.0</ele><time>2026-04-06T15:15:31.999Z</time></trkpt><trkpt lat="44.18205680789754" lon="9.584535309396491"><ele>27.833333333333336</ele><time>2026-04-06T15:15:33.999Z</time></trkpt><trkpt lat="44.18203554018022" lon="9.584432486695503"><ele>24.666666666666668</ele><time>2026-04-06T15:15:35.999Z</time></trkpt><trkpt lat="44.18198670116425" lon="9.584374960460284"><ele>21.5</ele><time>2026-04-06T15:15:37.999Z</time></trkpt><trkpt lat="44.181913095772124" lon="9.58433297709047"><ele>18.333333333333336</ele><time>2026-04-06T15:15:38.999Z</time></trkpt><trkpt lat="44.18180271990435" lon="9.584325951464308"><ele>15.166666666666668</ele><time>2026-04-06T15:15:40.999Z</time></trkpt><trkpt lat="44.18174073056713" lon="9.584306361593352"><ele>12.0</ele><time>2026-04-06T15:15:42.999Z</time></trkpt><trkpt lat="44.18167288089704" lon="9.584359220971354"><ele>12.0</ele><time>2026-04-06T15:15:44.999Z</time></trkpt><trkpt lat="44.18171914672097" lon="9.584472027061564"><ele>12.0</ele><time>2026-04-06T15:15:46.999Z</time></trkpt><trkpt lat="44.181802484286486" lon="9.584494627057456"><ele>12.0</ele><time>2026-04-06T15:15:48.999Z</time></trkpt><trkpt lat="44.18186919760754" lon="9.584496004983125"><ele>12.0</ele><time>2026-04-06T15:15:49.999Z</time></trkpt><trkpt lat="44.18192740534381" lon="9.584534559501137"><ele>12.0</ele><time>2026-04-06T15:15:51.999Z</time></trkpt><trkpt lat="44.18198174890533" lon="9.584638652690625"><ele>12.0</ele><time>2026-04-06T15:15:53.999Z</time></trkpt><trkpt lat="44.18198674372596" lon="9.584746897887035"><ele>15.8</ele><time>2026-04-06T15:15:54.999Z</time></trkpt><trkpt lat="44.182006360816786" lon="9.584832376844883"><ele>19.6</ele><time>2026-04-06T15:15:55.999Z</time></trkpt><trkpt lat="44.182036937313335" lon="9.584971629583627"><ele>23.400000000000002</ele><time>2026-04-06T15:15:57.999Z</time></trkpt><trkpt lat="44.18209021647241" lon="9.585108331968609"><ele>27.2</ele><time>2026-04-06T15:15:59.999Z</time></trkpt><trkpt lat="44.18219611648513" lon="9.585165944706786"><ele>31.0</ele><time>2026-04-06T15:16:01.999Z</time></trkpt><trkpt lat="44.18226634392376" lon="9.58514019492057"><ele>31.0</ele><time>2026-04-06T15:16:02.999Z</time></trkpt><trkpt lat="44.182316468897795" lon="9.585057619780093"><ele>31.0</ele><time>2026-04-06T15:16:03.999Z</time></trkpt><trkpt lat="44.18240103980534" lon="9.584998655093802"><ele>31.0</ele><time>2026-04-06T15:16:05.999Z</time></trkpt><trkpt lat="44.18248534333735" lon="9.585027323242238"><ele>31.0</ele><time>2026-04-06T15:16:08.999Z</time></trkpt><trkpt lat="44.18253252165793" lon="9.585090976083004"><ele>31.0</ele><time>2026-04-06T15:16:09.999Z</time></trkpt><trkpt lat="44.18256737767229" lon="9.585259474064253"><ele>30.333333333333336</ele><time>2026-04-06T15:16:11.999Z</time></trkpt><trkpt lat="44.18262095652708" lon="9.585317914212467"><ele>29.666666666666668</ele><time>2026-04-06T15:16:12.999Z</time></trkpt><trkpt lat="44.18267412765891" lon="9.585380287843503"><ele>29.0</ele><time>2026-04-06T15:16:13.999Z</time></trkpt><trkpt lat="44.1827573104928" lon="9.585467443150002"><ele>28.333333333333336</ele><time>2026-04-06T15:16:15.999Z</time></trkpt><trkpt lat="44.182805724696344" lon="9.585557276788736"><ele>27.666666666666668</ele><time>2026-04-06T15:16:18.999Z</time></trkpt><trkpt lat="44.18275016689399" lon="9.58544958753708"><ele>27.0</ele><time>2026-04-06T15:16:33.998Z</time></trkpt><trkpt lat="44.18265952533489" lon="9.585407776868122"><ele>27.0</ele><time>2026-04-06T15:16:34.998Z</time></trkpt><trkpt lat="44.18257114609243" lon="9.585328722462116"><ele>27.0</ele><time>2026-04-06T15:16:36.998Z</time></trkpt><trkpt lat="44.18253772467655" lon="9.585232385948517"><ele>27.0</ele><time>2026-04-06T15:16:38.998Z</time></trkpt><trkpt lat="44.18237889957611" lon="9.584941924206273"><ele>27.0</ele><time>2026-04-06T15:16:40.998Z</time></trkpt><trkpt lat="44.182248683106366" lon="9.585294592664214"><ele>27.8</ele><time>2026-04-06T15:16:41.998Z</time></trkpt><trkpt lat="44.18218337961626" lon="9.585330157519879"><ele>28.6</ele><time>2026-04-06T15:16:42.998Z</time></trkpt><trkpt lat="44.1820683743137" lon="9.585338307581235"><ele>29.400000000000002</ele><time>2026-04-06T15:16:45Z</time></trkpt><trkpt lat="44.18197290490407" lon="9.585335868432844"><ele>30.200000000000003</ele><time>2026-04-06T15:16:47Z</time></trkpt><trkpt lat="44.18189766738581" lon="9.585399731370053"><ele>31.0</ele><time>2026-04-06T15:16:49Z</time></trkpt><trkpt lat="44.181853287903905" lon="9.585562149224346"><ele>33.833333333333336</ele><time>2026-04-06T15:16:51Z</time></trkpt><trkpt lat="44.181844388170354" lon="9.585674023022014"><ele>36.66666666666667</ele><time>2026-04-06T15:16:52Z</time></trkpt><trkpt lat="44.18182889964578" lon="9.58579407573437"><ele>39.5</ele><time>2026-04-06T15:16:53Z</time></trkpt><trkpt lat="44.181805466636334" lon="9.585916554071968"><ele>42.333333333333336</ele><time>2026-04-06T15:16:54Z</time></trkpt><trkpt lat="44.18178370980696" lon="9.586019980894962"><ele>45.166666666666664</ele><time>2026-04-06T15:16:55Z</time></trkpt><trkpt lat="44.181756558416424" lon="9.586121731215536"><ele>48.0</ele><time>2026-04-06T15:16:56Z</time></trkpt><trkpt lat="44.18171800792948" lon="9.58622178548676"><ele>50.0</ele><time>2026-04-06T15:16:57Z</time></trkpt><trkpt lat="44.1816759007787" lon="9.586324315187575"><ele>52.0</ele><time>2026-04-06T15:16:58Z</time></trkpt><trkpt lat="44.181634609917495" lon="9.586430993950783"><ele>54.0</ele><time>2026-04-06T15:16:59Z</time></trkpt><trkpt lat="44.18159317334991" lon="9.586533183834232"><ele>56.0</ele><time>2026-04-06T15:17:00Z</time></trkpt><trkpt lat="44.181558639521505" lon="9.586618697178377"><ele>58.0</ele><time>2026-04-06T15:17:01Z</time></trkpt><trkpt lat="44.18148335430173" lon="9.586715251243454"><ele>60.0</ele><time>2026-04-06T15:17:03Z</time></trkpt><trkpt lat="44.181384372390184" lon="9.586703391007504"><ele>60.0</ele><time>2026-04-06T15:17:05Z</time></trkpt><trkpt lat="44.18132884980575" lon="9.586660372356505"><ele>60.0</ele><time>2026-04-06T15:17:06Z</time></trkpt><trkpt lat="44.1812740979194" lon="9.586601762631458"><ele>60.0</ele><time>2026-04-06T15:17:07Z</time></trkpt><trkpt lat="44.181225496310425" lon="9.586524622988758"><ele>60.0</ele><time>2026-04-06T15:17:08Z</time></trkpt><trkpt lat="44.18114645597492" lon="9.586429596211117"><ele>60.0</ele><time>2026-04-06T15:17:10Z</time></trkpt><trkpt lat="44.181043380876396" lon="9.586424172777408"><ele>60.0</ele><time>2026-04-06T15:17:12Z</time></trkpt><trkpt lat="44.18097739706931" lon="9.586456437662468"><ele>60.0</ele><time>2026-04-06T15:17:13Z</time></trkpt><trkpt lat="44.180911514240954" lon="9.586503880691964"><ele>60.0</ele><time>2026-04-06T15:17:14Z</time></trkpt><trkpt lat="44.180805259417674" lon="9.586600379872017"><ele>60.0</ele><time>2026-04-06T15:17:16Z</time></trkpt><trkpt lat="44.180760390453706" lon="9.586689773233342"><ele>60.0</ele><time>2026-04-06T15:17:17Z</time></trkpt><trkpt lat="44.180713932746855" lon="9.586781247585451"><ele>60.0</ele><time>2026-04-06T15:17:18Z</time></trkpt><trkpt lat="44.180665027055205" lon="9.586877225413867"><ele>60.0</ele><time>2026-04-06T15:17:19Z</time></trkpt><trkpt lat="44.18060709021779" lon="9.586962694158837"><ele>62.166666666666664</ele><time>2026-04-06T15:17:20Z</time></trkpt><trkpt lat="44.18054412791841" lon="9.587053536907735"><ele>64.33333333333333</ele><time>2026-04-06T15:17:21Z</time></trkpt><trkpt lat="44.1804851141307" lon="9.58714019774589"><ele>66.5</ele><time>2026-04-06T15:17:22Z</time></trkpt><trkpt lat="44.18042203845945" lon="9.587219358406221"><ele>68.66666666666666</ele><time>2026-04-06T15:17:23Z</time></trkpt><trkpt lat="44.18036669167931" lon="9.587282594761646"><ele>70.83333333333333</ele><time>2026-04-06T15:17:24Z</time></trkpt><trkpt lat="44.180313163004236" lon="9.587340215489945"><ele>73.0</ele><time>2026-04-06T15:17:25Z</time></trkpt><trkpt lat="44.180259063482005" lon="9.587390548369369"><ele>73.0</ele><time>2026-04-06T15:17:26Z</time></trkpt><trkpt lat="44.18019986069738" lon="9.587428005740534"><ele>73.0</ele><time>2026-04-06T15:17:27Z</time></trkpt><trkpt lat="44.18013778609614" lon="9.587467301048223"><ele>73.0</ele><time>2026-04-06T15:17:28Z</time></trkpt><trkpt lat="44.180071420670785" lon="9.587496352801821"><ele>73.0</ele><time>2026-04-06T15:17:29Z</time></trkpt><trkpt lat="44.180003449152935" lon="9.587521890914873"><ele>73.0</ele><time>2026-04-06T15:17:30Z</time></trkpt><trkpt lat="44.179938507587224" lon="9.587545000103878"><ele>73.0</ele><time>2026-04-06T15:17:30.999Z</time></trkpt><trkpt lat="44.179833412811796" lon="9.587547912133841"><ele>73.0</ele><time>2026-04-06T15:17:32.999Z</time></trkpt><trkpt lat="44.17977452739658" lon="9.587510629073984"><ele>76.16666666666666</ele><time>2026-04-06T15:17:33.999Z</time></trkpt><trkpt lat="44.17972278581242" lon="9.587443175809277"><ele>79.33333333333333</ele><time>2026-04-06T15:17:34.999Z</time></trkpt><trkpt lat="44.17967253084302" lon="9.587363697045577"><ele>82.5</ele><time>2026-04-06T15:17:35.999Z</time></trkpt><trkpt lat="44.179610498591266" lon="9.587290904909805"><ele>85.66666666666667</ele><time>2026-04-06T15:17:36.999Z</time></trkpt><trkpt lat="44.179545320908176" lon="9.587219839571624"><ele>88.83333333333334</ele><time>2026-04-06T15:17:37.999Z</time></trkpt><trkpt lat="44.179475099060596" lon="9.587175201574224"><ele>92.0</ele><time>2026-04-06T15:17:38.999Z</time></trkpt><trkpt lat="44.17940989621138" lon="9.587154494233491"><ele>92.0</ele><time>2026-04-06T15:17:39.999Z</time></trkpt><trkpt lat="44.17934296159668" lon="9.587145750193507"><ele>92.0</ele><time>2026-04-06T15:17:40.999Z</time></trkpt><trkpt lat="44.179257933582235" lon="9.587047011332235"><ele>92.0</ele><time>2026-04-06T15:17:42.999Z</time></trkpt><trkpt lat="44.17922701919334" lon="9.586954775102955"><ele>92.0</ele><time>2026-04-06T15:17:43.999Z</time></trkpt><trkpt lat="44.17919356881566" lon="9.586860580356607"><ele>92.0</ele><time>2026-04-06T15:17:44.999Z</time></trkpt><trkpt lat="44.17915550555295" lon="9.586761233113593"><ele>92.0</ele><time>2026-04-06T15:17:45.999Z</time></trkpt><trkpt lat="44.1791187089783" lon="9.58664922585901"><ele>93.6</ele><time>2026-04-06T15:17:46.999Z</time></trkpt><trkpt lat="44.17908286696733" lon="9.586533727820784"><ele>95.19999999999999</ele><time>2026-04-06T15:17:47.999Z</time></trkpt><trkpt lat="44.17904035569395" lon="9.586409901164233"><ele>96.8</ele><time>2026-04-06T15:17:48.999Z</time></trkpt><trkpt lat="44.17899607204187" lon="9.58628681372469"><ele>98.4</ele><time>2026-04-06T15:17:49.999Z</time></trkpt><trkpt lat="44.17894300687351" lon="9.58616746174473"><ele>100.0</ele><time>2026-04-06T15:17:50.999Z</time></trkpt><trkpt lat="44.178881739802776" lon="9.58606459579222"><ele>100.0</ele><time>2026-04-06T15:17:51.999Z</time></trkpt><trkpt lat="44.1788197637463" lon="9.585965362551292"><ele>100.0</ele><time>2026-04-06T15:17:52.999Z</time></trkpt><trkpt lat="44.17877412037208" lon="9.585860207120376"><ele>100.0</ele><time>2026-04-06T15:17:53.999Z</time></trkpt><trkpt lat="44.178715918748125" lon="9.585752437695312"><ele>100.0</ele><time>2026-04-06T15:17:54.999Z</time></trkpt><trkpt lat="44.17866206136262" lon="9.585653064936874"><ele>100.0</ele><time>2026-04-06T15:17:55.999Z</time></trkpt><trkpt lat="44.178606732161235" lon="9.585559948021748"><ele>100.0</ele><time>2026-04-06T15:17:56.999Z</time></trkpt><trkpt lat="44.178557314493496" lon="9.585485708877547"><ele>100.0</ele><time>2026-04-06T15:17:57.999Z</time></trkpt><trkpt lat="44.17848425952957" lon="9.585369380075916"><ele>100.0</ele><time>2026-04-06T15:17:59.999Z</time></trkpt><trkpt lat="44.17840285935393" lon="9.585370342587572"><ele>100.0</ele><time>2026-04-06T15:18:01.999Z</time></trkpt><trkpt lat="44.178422217929416" lon="9.585541267256815"><ele>100.0</ele><time>2026-04-06T15:18:04.999Z</time></trkpt><trkpt lat="44.178482000823095" lon="9.585592210528462"><ele>100.00000000000001</ele><time>2026-04-06T15:18:05.999Z</time></trkpt><trkpt lat="44.17853290825807" lon="9.585662853967085"><ele>100.0</ele><time>2026-04-06T15:18:06.999Z</time></trkpt><trkpt lat="44.17858525600411" lon="9.58575585533881"><ele>100.0</ele><time>2026-04-06T15:18:07.999Z</time></trkpt><trkpt lat="44.1786288977652" lon="9.585855032425252"><ele>100.0</ele><time>2026-04-06T15:18:08.999Z</time></trkpt><trkpt lat="44.178662665789595" lon="9.585966464943589"><ele>100.00000000000001</ele><time>2026-04-06T15:18:09.999Z</time></trkpt><trkpt lat="44.17869485432321" lon="9.586082464942473"><ele>100.0</ele><time>2026-04-06T15:18:10.999Z</time></trkpt><trkpt lat="44.17872073865855" lon="9.586200685155728"><ele>104.6</ele><time>2026-04-06T15:18:11.999Z</time></trkpt><trkpt lat="44.17875212471664" lon="9.586323019463196"><ele>109.2</ele><time>2026-04-06T15:18:12.999Z</time></trkpt><trkpt lat="44.17878476525476" lon="9.586453530898801"><ele>113.80000000000001</ele><time>2026-04-06T15:18:13.999Z</time></trkpt><trkpt lat="44.17880600044318" lon="9.586591004423573"><ele>118.4</ele><time>2026-04-06T15:18:14.999Z</time></trkpt><trkpt lat="44.17883053342558" lon="9.586738528309295"><ele>123.0</ele><time>2026-04-06T15:18:15.999Z</time></trkpt><trkpt lat="44.17885156437753" lon="9.586888089385274"><ele>125.0</ele><time>2026-04-06T15:18:16.999Z</time></trkpt><trkpt lat="44.178854909655804" lon="9.587012749262337"><ele>127.0</ele><time>2026-04-06T15:18:17.999Z</time></trkpt><trkpt lat="44.1788598940788" lon="9.587132829038945"><ele>129.0</ele><time>2026-04-06T15:18:18.999Z</time></trkpt><trkpt lat="44.17886371861143" lon="9.587243978601961"><ele>131.0</ele><time>2026-04-06T15:18:19.999Z</time></trkpt><trkpt lat="44.17888050056457" lon="9.587351678944302"><ele>133.0</ele><time>2026-04-06T15:18:20.999Z</time></trkpt><trkpt lat="44.1789110518677" lon="9.587461433819234"><ele>135.0</ele><time>2026-04-06T15:18:21.999Z</time></trkpt><trkpt lat="44.178956376864384" lon="9.587557851191846"><ele>135.0</ele><time>2026-04-06T15:18:22.999Z</time></trkpt><trkpt lat="44.17900800994045" lon="9.587656248420279"><ele>135.0</ele><time>2026-04-06T15:18:23.999Z</time></trkpt><trkpt lat="44.17905578798397" lon="9.587760931189282"><ele>135.0</ele><time>2026-04-06T15:18:24.999Z</time></trkpt><trkpt lat="44.17910023545359" lon="9.587851241375493"><ele>135.0</ele><time>2026-04-06T15:18:25.999Z</time></trkpt><trkpt lat="44.17913674695121" lon="9.587933129713004"><ele>135.0</ele><time>2026-04-06T15:18:26.999Z</time></trkpt><trkpt lat="44.179169291270625" lon="9.588009770066744"><ele>135.0</ele><time>2026-04-06T15:18:27.999Z</time></trkpt><trkpt lat="44.17920386642567" lon="9.588169461943993"><ele>134.16666666666666</ele><time>2026-04-06T15:18:29.999Z</time></trkpt><trkpt lat="44.17921891006639" lon="9.588257871509347"><ele>133.33333333333334</ele><time>2026-04-06T15:18:30.999Z</time></trkpt><trkpt lat="44.179237017602105" lon="9.588349818491219"><ele>132.5</ele><time>2026-04-06T15:18:31.999Z</time></trkpt><trkpt lat="44.1792547295872" lon="9.588449623869113"><ele>131.66666666666669</ele><time>2026-04-06T15:18:32.999Z</time></trkpt><trkpt lat="44.17928027260292" lon="9.588551989074528"><ele>130.83333333333334</ele><time>2026-04-06T15:18:33.999Z</time></trkpt><trkpt lat="44.179289525269404" lon="9.588649939616252"><ele>130.0</ele><time>2026-04-06T15:18:34.999Z</time></trkpt><trkpt lat="44.17932722612314" lon="9.588817929690318"><ele>130.0</ele><time>2026-04-06T15:18:36.998Z</time></trkpt><trkpt lat="44.179410667437935" lon="9.588944543886504"><ele>130.0</ele><time>2026-04-06T15:18:38.998Z</time></trkpt><trkpt lat="44.17946595073369" lon="9.5890030563298"><ele>130.0</ele><time>2026-04-06T15:18:39.998Z</time></trkpt><trkpt lat="44.179538151229195" lon="9.588992228812817"><ele>130.0</ele><time>2026-04-06T15:18:40.998Z</time></trkpt><trkpt lat="44.179585839124684" lon="9.588931829993557"><ele>130.0</ele><time>2026-04-06T15:18:41.998Z</time></trkpt><trkpt lat="44.179684189638046" lon="9.588835311618643"><ele>130.0</ele><time>2026-04-06T15:18:43.998Z</time></trkpt><trkpt lat="44.17974094640329" lon="9.588787954507456"><ele>130.0</ele><time>2026-04-06T15:18:44.998Z</time></trkpt><trkpt lat="44.17980229616704" lon="9.588758996715924"><ele>130.0</ele><time>2026-04-06T15:18:45.998Z</time></trkpt><trkpt lat="44.17992299590423" lon="9.588742179119853"><ele>130.0</ele><time>2026-04-06T15:18:47.998Z</time></trkpt><trkpt lat="44.17998677665978" lon="9.58877097734805"><ele>130.0</ele><time>2026-04-06T15:18:48.998Z</time></trkpt><trkpt lat="44.18009404032576" lon="9.588879666853845"><ele>128.16666666666669</ele><time>2026-04-06T15:18:51Z</time></trkpt><trkpt lat="44.18015584519193" lon="9.588932955051481"><ele>126.33333333333334</ele><time>2026-04-06T15:18:52Z</time></trkpt><trkpt lat="44.18022529126416" lon="9.58897305963992"><ele>124.5</ele><time>2026-04-06T15:18:53Z</time></trkpt><trkpt lat="44.18030321483996" lon="9.58900943746163"><ele>122.66666666666666</ele><time>2026-04-06T15:18:54Z</time></trkpt><trkpt lat="44.18038180650828" lon="9.58904723460695"><ele>120.83333333333333</ele><time>2026-04-06T15:18:55Z</time></trkpt><trkpt lat="44.18045631472995" lon="9.589079371496087"><ele>119.0</ele><time>2026-04-06T15:18:56Z</time></trkpt><trkpt lat="44.180518000863486" lon="9.589126666330012"><ele>118.99999999999999</ele><time>2026-04-06T15:18:57Z</time></trkpt><trkpt lat="44.180596789078365" lon="9.589182046563062"><ele>119.0</ele><time>2026-04-06T15:18:59Z</time></trkpt><trkpt lat="44.18060402073349" lon="9.589280109801946"><ele>119.0</ele><time>2026-04-06T15:19:01Z</time></trkpt><trkpt lat="44.18052285681833" lon="9.589325598035451"><ele>119.0</ele><time>2026-04-06T15:19:03Z</time></trkpt><trkpt lat="44.18039677655425" lon="9.589286424180951"><ele>118.99999999999999</ele><time>2026-04-06T15:19:05Z</time></trkpt><trkpt lat="44.18032356491662" lon="9.58928477926872"><ele>119.0</ele><time>2026-04-06T15:19:06Z</time></trkpt><trkpt lat="44.18024735644658" lon="9.589280867179832"><ele>118.99999999999999</ele><time>2026-04-06T15:19:07Z</time></trkpt><trkpt lat="44.18016488573385" lon="9.589274215902272"><ele>119.0</ele><time>2026-04-06T15:19:08Z</time></trkpt><trkpt lat="44.18008631183686" lon="9.589274174500677"><ele>119.0</ele><time>2026-04-06T15:19:09Z</time></trkpt><trkpt lat="44.18000551164644" lon="9.58927118611389"><ele>119.0</ele><time>2026-04-06T15:19:10Z</time></trkpt><trkpt lat="44.17993062145358" lon="9.58928598273676"><ele>118.99999999999999</ele><time>2026-04-06T15:19:11Z</time></trkpt><trkpt lat="44.179851817015496" lon="9.589328683389297"><ele>119.0</ele><time>2026-04-06T15:19:12Z</time></trkpt><trkpt lat="44.1797886105085" lon="9.58940156544381"><ele>121.2</ele><time>2026-04-06T15:19:13Z</time></trkpt><trkpt lat="44.17972180145155" lon="9.58947744260155"><ele>123.4</ele><time>2026-04-06T15:19:14Z</time></trkpt><trkpt lat="44.179646013627945" lon="9.589553110139224"><ele>125.6</ele><time>2026-04-06T15:19:15Z</time></trkpt><trkpt lat="44.17957324591468" lon="9.589645789824012"><ele>127.8</ele><time>2026-04-06T15:19:16Z</time></trkpt><trkpt lat="44.17951462747963" lon="9.589755298785528"><ele>130.0</ele><time>2026-04-06T15:19:17Z</time></trkpt><trkpt lat="44.17947491073694" lon="9.589885543099887"><ele>133.6</ele><time>2026-04-06T15:19:18Z</time></trkpt><trkpt lat="44.17943887539138" lon="9.590004486264831"><ele>137.2</ele><time>2026-04-06T15:19:19Z</time></trkpt><trkpt lat="44.17935763164071" lon="9.59011037824827"><ele>140.8</ele><time>2026-04-06T15:19:21Z</time></trkpt><trkpt lat="44.179262961447876" lon="9.590049485008532"><ele>144.4</ele><time>2026-04-06T15:19:23Z</time></trkpt><trkpt lat="44.1792355471471" lon="9.589956858195503"><ele>148.0</ele><time>2026-04-06T15:19:24Z</time></trkpt><trkpt lat="44.17921043682059" lon="9.589845379694573"><ele>148.0</ele><time>2026-04-06T15:19:25Z</time></trkpt><trkpt lat="44.1791706640884" lon="9.589734107314285"><ele>148.0</ele><time>2026-04-06T15:19:26Z</time></trkpt><trkpt lat="44.17911202762849" lon="9.589615858569944"><ele>148.0</ele><time>2026-04-06T15:19:27Z</time></trkpt><trkpt lat="44.17905847982992" lon="9.589483006807589"><ele>148.0</ele><time>2026-04-06T15:19:28Z</time></trkpt><trkpt lat="44.17899583740615" lon="9.589348698814483"><ele>148.0</ele><time>2026-04-06T15:19:29Z</time></trkpt><trkpt lat="44.178924686592076" lon="9.589218679159268"><ele>147.0</ele><time>2026-04-06T15:19:30Z</time></trkpt><trkpt lat="44.178861709981476" lon="9.589064252694824"><ele>146.0</ele><time>2026-04-06T15:19:31Z</time></trkpt><trkpt lat="44.1787818247443" lon="9.588919588115628"><ele>145.0</ele><time>2026-04-06T15:19:32Z</time></trkpt><trkpt lat="44.1786894200732" lon="9.588782795891678"><ele>144.0</ele><time>2026-04-06T15:19:33Z</time></trkpt><trkpt lat="44.17860657145994" lon="9.588630409481306"><ele>144.0</ele><time>2026-04-06T15:19:34Z</time></trkpt><trkpt lat="44.17853566300908" lon="9.588543952927466"><ele>144.0</ele><time>2026-04-06T15:19:35Z</time></trkpt><trkpt lat="44.1784822204046" lon="9.588463921208849"><ele>144.0</ele><time>2026-04-06T15:19:35.999Z</time></trkpt><trkpt lat="44.17842528056284" lon="9.588392770030849"><ele>144.0</ele><time>2026-04-06T15:19:36.999Z</time></trkpt><trkpt lat="44.17836944062503" lon="9.588314814678029"><ele>144.0</ele><time>2026-04-06T15:19:37.999Z</time></trkpt><trkpt lat="44.178315080575175" lon="9.588223967975832"><ele>144.0</ele><time>2026-04-06T15:19:38.999Z</time></trkpt><trkpt lat="44.178264241865634" lon="9.588130335944282"><ele>144.0</ele><time>2026-04-06T15:19:39.999Z</time></trkpt><trkpt lat="44.17821467456639" lon="9.588039395463785"><ele>144.0</ele><time>2026-04-06T15:19:40.999Z</time></trkpt><trkpt lat="44.17815968511548" lon="9.587961138307616"><ele>144.0</ele><time>2026-04-06T15:19:41.999Z</time></trkpt><trkpt lat="44.178120762774824" lon="9.587889087587861"><ele>144.0</ele><time>2026-04-06T15:19:42.999Z</time></trkpt><trkpt lat="44.178038036236394" lon="9.587770676051335"><ele>144.0</ele><time>2026-04-06T15:19:44.999Z</time></trkpt><trkpt lat="44.177969459017504" lon="9.587688070277398"><ele>144.0</ele><time>2026-04-06T15:19:46.999Z</time></trkpt><trkpt lat="44.17786455775388" lon="9.58770433226299"><ele>144.2</ele><time>2026-04-06T15:19:48.999Z</time></trkpt><trkpt lat="44.17784440812294" lon="9.587898282431347"><ele>144.4</ele><time>2026-04-06T15:19:50.999Z</time></trkpt><trkpt lat="44.17791164705522" lon="9.587976360586698"><ele>144.6</ele><time>2026-04-06T15:19:51.999Z</time></trkpt><trkpt lat="44.177972911172574" lon="9.588070578850331"><ele>144.8</ele><time>2026-04-06T15:19:52.999Z</time></trkpt><trkpt lat="44.1780287730746" lon="9.588177620373123"><ele>145.0</ele><time>2026-04-06T15:19:53.999Z</time></trkpt><trkpt lat="44.178081012659234" lon="9.588293435998178"><ele>145.0</ele><time>2026-04-06T15:19:54.999Z</time></trkpt><trkpt lat="44.17812623329721" lon="9.588408052600386"><ele>145.0</ele><time>2026-04-06T15:19:55.999Z</time></trkpt><trkpt lat="44.17816038224085" lon="9.588529138719805"><ele>145.0</ele><time>2026-04-06T15:19:56.999Z</time></trkpt><trkpt lat="44.17819707959192" lon="9.588640204304376"><ele>145.0</ele><time>2026-04-06T15:19:57.999Z</time></trkpt><trkpt lat="44.17824036455963" lon="9.588763229459477"><ele>145.0</ele><time>2026-04-06T15:19:58.999Z</time></trkpt><trkpt lat="44.178284948506565" lon="9.588893128336137"><ele>148.75</ele><time>2026-04-06T15:19:59.999Z</time></trkpt><trkpt lat="44.178335640138066" lon="9.58902127554183"><ele>152.5</ele><time>2026-04-06T15:20:00.999Z</time></trkpt><trkpt lat="44.178386818506155" lon="9.589158200597247"><ele>156.25</ele><time>2026-04-06T15:20:01.999Z</time></trkpt><trkpt lat="44.17843890536071" lon="9.589304767066192"><ele>160.0</ele><time>2026-04-06T15:20:02.999Z</time></trkpt><trkpt lat="44.178490931220004" lon="9.58945107889475"><ele>162.25</ele><time>2026-04-06T15:20:03.999Z</time></trkpt><trkpt lat="44.178543777155156" lon="9.589602514941348"><ele>164.5</ele><time>2026-04-06T15:20:04.999Z</time></trkpt><trkpt lat="44.17858422442552" lon="9.589763247308253"><ele>166.75</ele><time>2026-04-06T15:20:05.999Z</time></trkpt><trkpt lat="44.17863806257621" lon="9.589911178787851"><ele>169.0</ele><time>2026-04-06T15:20:06.999Z</time></trkpt><trkpt lat="44.17868733982997" lon="9.59005493046703"><ele>169.0</ele><time>2026-04-06T15:20:07.999Z</time></trkpt><trkpt lat="44.17871869980051" lon="9.590188796768928"><ele>169.0</ele><time>2026-04-06T15:20:08.999Z</time></trkpt><trkpt lat="44.17874485949452" lon="9.590322937045276"><ele>169.0</ele><time>2026-04-06T15:20:09.999Z</time></trkpt><trkpt lat="44.17876733287102" lon="9.590454836314214"><ele>169.0</ele><time>2026-04-06T15:20:10.999Z</time></trkpt><trkpt lat="44.17878489389401" lon="9.590587159922137"><ele>169.0</ele><time>2026-04-06T15:20:11.999Z</time></trkpt><trkpt lat="44.17879559803441" lon="9.590710224540077"><ele>170.66666666666669</ele><time>2026-04-06T15:20:12.999Z</time></trkpt><trkpt lat="44.17881665132929" lon="9.590840622485093"><ele>172.33333333333334</ele><time>2026-04-06T15:20:13.999Z</time></trkpt><trkpt lat="44.178801008747826" lon="9.590974442004645"><ele>174.0</ele><time>2026-04-06T15:20:14.999Z</time></trkpt><trkpt lat="44.178773845152115" lon="9.591089179037061"><ele>175.66666666666666</ele><time>2026-04-06T15:20:15.999Z</time></trkpt><trkpt lat="44.17876730933123" lon="9.591191022121503"><ele>177.33333333333331</ele><time>2026-04-06T15:20:16.999Z</time></trkpt><trkpt lat="44.178760462390024" lon="9.591280192032444"><ele>179.0</ele><time>2026-04-06T15:20:17.999Z</time></trkpt><trkpt lat="44.17873187028459" lon="9.591425325043364"><ele>178.6</ele><time>2026-04-06T15:20:19.999Z</time></trkpt><trkpt lat="44.17874777818443" lon="9.59157936414792"><ele>178.2</ele><time>2026-04-06T15:20:21.999Z</time></trkpt><trkpt lat="44.17879521517583" lon="9.591728310841459"><ele>177.79999999999998</ele><time>2026-04-06T15:20:23.999Z</time></trkpt><trkpt lat="44.17882466290728" lon="9.591823925259794"><ele>177.39999999999998</ele><time>2026-04-06T15:20:24.999Z</time></trkpt><trkpt lat="44.1788437732949" lon="9.591914945119232"><ele>177.0</ele><time>2026-04-06T15:20:25.999Z</time></trkpt><trkpt lat="44.17887740350194" lon="9.59203157063137"><ele>177.0</ele><time>2026-04-06T15:20:26.999Z</time></trkpt><trkpt lat="44.17889432683924" lon="9.592137632071747"><ele>177.0</ele><time>2026-04-06T15:20:27.999Z</time></trkpt><trkpt lat="44.17889889631663" lon="9.592245267170346"><ele>177.0</ele><time>2026-04-06T15:20:28.999Z</time></trkpt><trkpt lat="44.17890473301101" lon="9.592368917635856"><ele>177.0</ele><time>2026-04-06T15:20:29.999Z</time></trkpt><trkpt lat="44.178912141544515" lon="9.592482301465681"><ele>177.0</ele><time>2026-04-06T15:20:30.999Z</time></trkpt><trkpt lat="44.178934273809574" lon="9.592567433113668"><ele>177.0</ele><time>2026-04-06T15:20:31.999Z</time></trkpt><trkpt lat="44.17894094896705" lon="9.592661719049183"><ele>177.0</ele><time>2026-04-06T15:20:32.999Z</time></trkpt><trkpt lat="44.17895619873485" lon="9.592765944159849"><ele>177.0</ele><time>2026-04-06T15:20:33.999Z</time></trkpt><trkpt lat="44.178963863805016" lon="9.592877719523486"><ele>177.0</ele><time>2026-04-06T15:20:34.999Z</time></trkpt><trkpt lat="44.17896436021461" lon="9.592999115151324"><ele>177.0</ele><time>2026-04-06T15:20:35.999Z</time></trkpt><trkpt lat="44.17897123451047" lon="9.593124871447644"><ele>177.0</ele><time>2026-04-06T15:20:36.999Z</time></trkpt><trkpt lat="44.17897601341815" lon="9.593261340708365"><ele>177.0</ele><time>2026-04-06T15:20:37.999Z</time></trkpt><trkpt lat="44.17897561429479" lon="9.593402064231261"><ele>175.0</ele><time>2026-04-06T15:20:38.999Z</time></trkpt><trkpt lat="44.17898624827553" lon="9.59353913246999"><ele>173.0</ele><time>2026-04-06T15:20:39.998Z</time></trkpt><trkpt lat="44.17900227431827" lon="9.593673005938006"><ele>171.0</ele><time>2026-04-06T15:20:40.998Z</time></trkpt><trkpt lat="44.179014204898834" lon="9.593830815524134"><ele>169.0</ele><time>2026-04-06T15:20:41.998Z</time></trkpt><trkpt lat="44.179067488320825" lon="9.593967895055048"><ele>167.0</ele><time>2026-04-06T15:20:42.998Z</time></trkpt><trkpt lat="44.17910810720536" lon="9.594125309596368"><ele>170.0</ele><time>2026-04-06T15:20:43.998Z</time></trkpt><trkpt lat="44.17915626118135" lon="9.594268570356085"><ele>173.0</ele><time>2026-04-06T15:20:44.998Z</time></trkpt><trkpt lat="44.17918809143576" lon="9.594371724929355"><ele>176.0</ele><time>2026-04-06T15:20:45.998Z</time></trkpt><trkpt lat="44.179207896602556" lon="9.594467518723345"><ele>179.0</ele><time>2026-04-06T15:20:46.998Z</time></trkpt><trkpt lat="44.17923436712332" lon="9.594558913100766"><ele>182.0</ele><time>2026-04-06T15:20:47.998Z</time></trkpt><trkpt lat="44.17925889758462" lon="9.59465071827212"><ele>185.0</ele><time>2026-04-06T15:20:48.998Z</time></trkpt><trkpt lat="44.179281002483044" lon="9.594751460696312"><ele>185.0</ele><time>2026-04-06T15:20:49.998Z</time></trkpt><trkpt lat="44.179305619132506" lon="9.594863781123847"><ele>185.0</ele><time>2026-04-06T15:20:50.998Z</time></trkpt><trkpt lat="44.179335564114254" lon="9.594981737927931"><ele>185.0</ele><time>2026-04-06T15:20:51.998Z</time></trkpt><trkpt lat="44.17936707794829" lon="9.595099679699281"><ele>185.0</ele><time>2026-04-06T15:20:52.998Z</time></trkpt><trkpt lat="44.17939588359033" lon="9.595206205486909"><ele>185.0</ele><time>2026-04-06T15:20:53.998Z</time></trkpt><trkpt lat="44.17942567200951" lon="9.595318365139343"><ele>185.0</ele><time>2026-04-06T15:20:54.998Z</time></trkpt><trkpt lat="44.17945227195679" lon="9.595428815059558"><ele>185.0</ele><time>2026-04-06T15:20:55.998Z</time></trkpt><trkpt lat="44.17948613639029" lon="9.59555564769145"><ele>185.0</ele><time>2026-04-06T15:20:57Z</time></trkpt><trkpt lat="44.1795194485073" lon="9.595675841183843"><ele>185.0</ele><time>2026-04-06T15:20:58Z</time></trkpt><trkpt lat="44.179539771000755" lon="9.595792004023542"><ele>185.0</ele><time>2026-04-06T15:20:59Z</time></trkpt><trkpt lat="44.179554891606514" lon="9.595935799360099"><ele>185.0</ele><time>2026-04-06T15:21:01Z</time></trkpt><trkpt lat="44.1795666512225" lon="9.596028124216662"><ele>185.0</ele><time>2026-04-06T15:21:03Z</time></trkpt><trkpt lat="44.179600740899545" lon="9.596147860215263"><ele>186.0</ele><time>2026-04-06T15:21:07Z</time></trkpt><trkpt lat="44.17963876935792" lon="9.59627186968327"><ele>187.0</ele><time>2026-04-06T15:21:09Z</time></trkpt><trkpt lat="44.17949548600045" lon="9.596328826135403"><ele>188.0</ele><time>2026-04-06T15:21:10Z</time></trkpt><trkpt lat="44.179372443770205" lon="9.596392606071992"><ele>189.0</ele><time>2026-04-06T15:21:12Z</time></trkpt><trkpt lat="44.179297118584586" lon="9.596426318624223"><ele>189.0</ele><time>2026-04-06T15:21:13Z</time></trkpt><trkpt lat="44.179214580358355" lon="9.596479441821664"><ele>189.0</ele><time>2026-04-06T15:21:14Z</time></trkpt><trkpt lat="44.17913803126261" lon="9.596554739762837"><ele>189.0</ele><time>2026-04-06T15:21:15Z</time></trkpt><trkpt lat="44.17905657455109" lon="9.5966453213113"><ele>189.0</ele><time>2026-04-06T15:21:16Z</time></trkpt><trkpt lat="44.178982172875195" lon="9.596723766777442"><ele>189.0</ele><time>2026-04-06T15:21:17Z</time></trkpt><trkpt lat="44.17891711375779" lon="9.596798423139466"><ele>186.66666666666666</ele><time>2026-04-06T15:21:18Z</time></trkpt><trkpt lat="44.17886326604941" lon="9.596882520326734"><ele>184.33333333333334</ele><time>2026-04-06T15:21:19Z</time></trkpt><trkpt lat="44.17882409886672" lon="9.596987536910438"><ele>182.0</ele><time>2026-04-06T15:21:20Z</time></trkpt><trkpt lat="44.17879602737043" lon="9.597117233045724"><ele>179.66666666666669</ele><time>2026-04-06T15:21:21Z</time></trkpt><trkpt lat="44.178769531074174" lon="9.597234654451682"><ele>177.33333333333334</ele><time>2026-04-06T15:21:22Z</time></trkpt><trkpt lat="44.17873045144542" lon="9.597342905155976"><ele>175.0</ele><time>2026-04-06T15:21:23Z</time></trkpt><trkpt lat="44.17868659151815" lon="9.597448102209691"><ele>175.0</ele><time>2026-04-06T15:21:24Z</time></trkpt><trkpt lat="44.17863632216302" lon="9.597538088351497"><ele>175.0</ele><time>2026-04-06T15:21:25Z</time></trkpt><trkpt lat="44.17857577714903" lon="9.597616601674066"><ele>175.0</ele><time>2026-04-06T15:21:26Z</time></trkpt><trkpt lat="44.17850477783428" lon="9.597685164142817"><ele>175.0</ele><time>2026-04-06T15:21:27Z</time></trkpt><trkpt lat="44.178428858518465" lon="9.597732139197348"><ele>175.0</ele><time>2026-04-06T15:21:28Z</time></trkpt><trkpt lat="44.17835345349723" lon="9.597769596316905"><ele>175.0</ele><time>2026-04-06T15:21:29Z</time></trkpt><trkpt lat="44.17827203282005" lon="9.59779259400375"><ele>175.0</ele><time>2026-04-06T15:21:30Z</time></trkpt><trkpt lat="44.17819065606074" lon="9.597808996796367"><ele>175.0</ele><time>2026-04-06T15:21:31Z</time></trkpt><trkpt lat="44.178110186720026" lon="9.597816985635019"><ele>175.0</ele><time>2026-04-06T15:21:32Z</time></trkpt><trkpt lat="44.178032317550375" lon="9.597833975737512"><ele>175.0</ele><time>2026-04-06T15:21:33Z</time></trkpt><trkpt lat="44.17795225656198" lon="9.597856335706506"><ele>175.0</ele><time>2026-04-06T15:21:34Z</time></trkpt><trkpt lat="44.17787128926751" lon="9.597877613456346"><ele>175.0</ele><time>2026-04-06T15:21:35Z</time></trkpt><trkpt lat="44.17778827547305" lon="9.597910054263425"><ele>173.66666666666669</ele><time>2026-04-06T15:21:36Z</time></trkpt><trkpt lat="44.177710137659055" lon="9.597959714823945"><ele>172.33333333333334</ele><time>2026-04-06T15:21:37Z</time></trkpt><trkpt lat="44.17763292097114" lon="9.598011687776184"><ele>171.0</ele><time>2026-04-06T15:21:38Z</time></trkpt><trkpt lat="44.1775517472465" lon="9.59805893771255"><ele>169.66666666666666</ele><time>2026-04-06T15:21:39Z</time></trkpt><trkpt lat="44.17747508259087" lon="9.598116436606649"><ele>168.33333333333331</ele><time>2026-04-06T15:21:40Z</time></trkpt><trkpt lat="44.1773961131699" lon="9.598176764618215"><ele>167.0</ele><time>2026-04-06T15:21:41Z</time></trkpt><trkpt lat="44.17731877403108" lon="9.598236037357477"><ele>163.0</ele><time>2026-04-06T15:21:42Z</time></trkpt><trkpt lat="44.17725094897996" lon="9.59829533174162"><ele>159.0</ele><time>2026-04-06T15:21:43Z</time></trkpt><trkpt lat="44.17719716876323" lon="9.59836711113845"><ele>155.0</ele><time>2026-04-06T15:21:44Z</time></trkpt><trkpt lat="44.177171841522686" lon="9.598472504525944"><ele>151.0</ele><time>2026-04-06T15:21:45Z</time></trkpt><trkpt lat="44.17717471997786" lon="9.598592177046076"><ele>147.0</ele><time>2026-04-06T15:21:46Z</time></trkpt><trkpt lat="44.17725263554232" lon="9.598699314528481"><ele>143.0</ele><time>2026-04-06T15:21:47Z</time></trkpt><trkpt lat="44.1773262515917" lon="9.598774439099365"><ele>143.99999999999997</ele><time>2026-04-06T15:21:47.999Z</time></trkpt><trkpt lat="44.177394961309325" lon="9.5988196976775"><ele>145.0</ele><time>2026-04-06T15:21:48.999Z</time></trkpt><trkpt lat="44.17745820151224" lon="9.598858087326697"><ele>146.0</ele><time>2026-04-06T15:21:49.999Z</time></trkpt><trkpt lat="44.17752186844685" lon="9.598900627249966"><ele>147.0</ele><time>2026-04-06T15:21:50.999Z</time></trkpt><trkpt lat="44.17758973070846" lon="9.59892833353901"><ele>148.0</ele><time>2026-04-06T15:21:51.999Z</time></trkpt><trkpt lat="44.177663015528964" lon="9.59893787560029"><ele>148.99999999999997</ele><time>2026-04-06T15:21:52.999Z</time></trkpt><trkpt lat="44.1777280126582" lon="9.598919089411968"><ele>150.0</ele><time>2026-04-06T15:21:53.999Z</time></trkpt><trkpt lat="44.177847588059365" lon="9.598898613849922"><ele>150.0</ele><time>2026-04-06T15:21:55.999Z</time></trkpt><trkpt lat="44.17796588638016" lon="9.598875615271844"><ele>150.0</ele><time>2026-04-06T15:21:57.999Z</time></trkpt><trkpt lat="44.17802874093214" lon="9.598864384749412"><ele>150.0</ele><time>2026-04-06T15:21:58.999Z</time></trkpt><trkpt lat="44.178148415843054" lon="9.598840288349887"><ele>150.0</ele><time>2026-04-06T15:22:00.999Z</time></trkpt><trkpt lat="44.1782639998931" lon="9.598814494456667"><ele>150.0</ele><time>2026-04-06T15:22:02.999Z</time></trkpt><trkpt lat="44.178326596926496" lon="9.598799150447999"><ele>149.6</ele><time>2026-04-06T15:22:03.999Z</time></trkpt><trkpt lat="44.17845265329495" lon="9.598775399764962"><ele>149.2</ele><time>2026-04-06T15:22:05.999Z</time></trkpt><trkpt lat="44.17856857752767" lon="9.598741364266065"><ele>148.8</ele><time>2026-04-06T15:22:07.999Z</time></trkpt><trkpt lat="44.17863334115171" lon="9.598737107069363"><ele>148.4</ele><time>2026-04-06T15:22:08.999Z</time></trkpt><trkpt lat="44.17870218026262" lon="9.598752538294537"><ele>148.0</ele><time>2026-04-06T15:22:09.999Z</time></trkpt><trkpt lat="44.17876787430574" lon="9.598787034837924"><ele>148.0</ele><time>2026-04-06T15:22:10.999Z</time></trkpt><trkpt lat="44.178827151250566" lon="9.598833710103234"><ele>148.0</ele><time>2026-04-06T15:22:11.999Z</time></trkpt><trkpt lat="44.17888444739282" lon="9.5988871102959"><ele>148.0</ele><time>2026-04-06T15:22:12.999Z</time></trkpt><trkpt lat="44.178936265582735" lon="9.598944872176173"><ele>148.0</ele><time>2026-04-06T15:22:13.999Z</time></trkpt><trkpt lat="44.17898078115115" lon="9.599025864877676"><ele>148.0</ele><time>2026-04-06T15:22:14.999Z</time></trkpt><trkpt lat="44.179009027151636" lon="9.599114449796506"><ele>148.0</ele><time>2026-04-06T15:22:15.999Z</time></trkpt><trkpt lat="44.179020338556136" lon="9.599203876399383"><ele>148.0</ele><time>2026-04-06T15:22:16.999Z</time></trkpt><trkpt lat="44.17902718160063" lon="9.599292034027348"><ele>151.0</ele><time>2026-04-06T15:22:17.999Z</time></trkpt><trkpt lat="44.17904624366307" lon="9.599376826345583"><ele>154.0</ele><time>2026-04-06T15:22:18.999Z</time></trkpt><trkpt lat="44.179065005448884" lon="9.599523891841525"><ele>157.0</ele><time>2026-04-06T15:22:20.999Z</time></trkpt><trkpt lat="44.179000089651204" lon="9.599643887986627"><ele>160.0</ele><time>2026-04-06T15:22:22.999Z</time></trkpt><trkpt lat="44.1788962208986" lon="9.599730702911616"><ele>163.0</ele><time>2026-04-06T15:22:24.999Z</time></trkpt><trkpt lat="44.17880665902334" lon="9.599840468953722"><ele>158.0</ele><time>2026-04-06T15:22:26.999Z</time></trkpt><trkpt lat="44.17871193635421" lon="9.599945004550728"><ele>153.0</ele><time>2026-04-06T15:22:28.999Z</time></trkpt><trkpt lat="44.17865943036476" lon="9.600006154719354"><ele>148.0</ele><time>2026-04-06T15:22:29.999Z</time></trkpt><trkpt lat="44.17860829951551" lon="9.600059762628568"><ele>143.0</ele><time>2026-04-06T15:22:30.999Z</time></trkpt><trkpt lat="44.1785530782058" lon="9.600119455774362"><ele>138.0</ele><time>2026-04-06T15:22:31.999Z</time></trkpt><trkpt lat="44.178507286143116" lon="9.600193433521492"><ele>133.0</ele><time>2026-04-06T15:22:32.999Z</time></trkpt><trkpt lat="44.17845724083895" lon="9.600269889418492"><ele>133.16666666666669</ele><time>2026-04-06T15:22:33.999Z</time></trkpt><trkpt lat="44.17842311380331" lon="9.6003694860622"><ele>133.33333333333334</ele><time>2026-04-06T15:22:34.999Z</time></trkpt><trkpt lat="44.17839936669548" lon="9.600474179203921"><ele>133.5</ele><time>2026-04-06T15:22:35.999Z</time></trkpt><trkpt lat="44.178380388045774" lon="9.600574906056368"><ele>133.66666666666666</ele><time>2026-04-06T15:22:36.999Z</time></trkpt><trkpt lat="44.178359490208315" lon="9.600674386614934"><ele>133.83333333333331</ele><time>2026-04-06T15:22:37.999Z</time></trkpt><trkpt lat="44.17833340098242" lon="9.600773886847112"><ele>134.0</ele><time>2026-04-06T15:22:38.999Z</time></trkpt><trkpt lat="44.17835411967716" lon="9.600894889190482"><ele>134.0</ele><time>2026-04-06T15:22:39.999Z</time></trkpt><trkpt lat="44.17838929792967" lon="9.600990234019054"><ele>134.0</ele><time>2026-04-06T15:22:40.999Z</time></trkpt><trkpt lat="44.178425781366556" lon="9.601081292166198"><ele>134.0</ele><time>2026-04-06T15:22:41.999Z</time></trkpt><trkpt lat="44.17845891518488" lon="9.601171242607506"><ele>134.0</ele><time>2026-04-06T15:22:42.999Z</time></trkpt><trkpt lat="44.178470260573064" lon="9.601270928828807"><ele>134.0</ele><time>2026-04-06T15:22:43.999Z</time></trkpt><trkpt lat="44.178446564504334" lon="9.601400885304567"><ele>134.0</ele><time>2026-04-06T15:22:44.999Z</time></trkpt><trkpt lat="44.1784149576573" lon="9.60149200808403"><ele>134.0</ele><time>2026-04-06T15:22:45.999Z</time></trkpt><trkpt lat="44.17836079883305" lon="9.60157876475236"><ele>134.0</ele><time>2026-04-06T15:22:46.999Z</time></trkpt><trkpt lat="44.178319551855196" lon="9.601673100077312"><ele>134.0</ele><time>2026-04-06T15:22:47.999Z</time></trkpt><trkpt lat="44.1783165543971" lon="9.601785429649906"><ele>134.0</ele><time>2026-04-06T15:22:48.999Z</time></trkpt><trkpt lat="44.17833815676338" lon="9.601888545525002"><ele>134.0</ele><time>2026-04-06T15:22:49.999Z</time></trkpt><trkpt lat="44.178372302279534" lon="9.602006893898764"><ele>134.0</ele><time>2026-04-06T15:22:50.999Z</time></trkpt><trkpt lat="44.178384706565325" lon="9.602122410084839"><ele>134.0</ele><time>2026-04-06T15:22:51.999Z</time></trkpt><trkpt lat="44.17838475734425" lon="9.602235643405116"><ele>134.0</ele><time>2026-04-06T15:22:52.999Z</time></trkpt><trkpt lat="44.17835430196582" lon="9.602366822723914"><ele>134.0</ele><time>2026-04-06T15:22:53.998Z</time></trkpt><trkpt lat="44.1783244828254" lon="9.602507139199528"><ele>134.0</ele><time>2026-04-06T15:22:54.998Z</time></trkpt><trkpt lat="44.17830763924038" lon="9.602674803950418"><ele>134.0</ele><time>2026-04-06T15:22:55.998Z</time></trkpt><trkpt lat="44.17828577310118" lon="9.602860761897823"><ele>133.0</ele><time>2026-04-06T15:22:56.998Z</time></trkpt><trkpt lat="44.17825192107086" lon="9.603075044548186"><ele>132.0</ele><time>2026-04-06T15:22:57.998Z</time></trkpt><trkpt lat="44.17819450053793" lon="9.60328658294622"><ele>131.0</ele><time>2026-04-06T15:22:58.998Z</time></trkpt><trkpt lat="44.17814770789578" lon="9.60349024070881"><ele>118.66666666666666</ele><time>2026-04-06T15:22:59.998Z</time></trkpt><trkpt lat="44.17811693692286" lon="9.60369326159181"><ele>106.33333333333333</ele><time>2026-04-06T15:23:00.998Z</time></trkpt><trkpt lat="44.17810205205195" lon="9.603907173026926"><ele>94.0</ele><time>2026-04-06T15:23:01.998Z</time></trkpt><trkpt lat="44.17809388793492" lon="9.604148751638236"><ele>94.0</ele><time>2026-04-06T15:23:03Z</time></trkpt><trkpt lat="44.178124312963845" lon="9.604385846522016"><ele>94.0</ele><time>2026-04-06T15:23:04Z</time></trkpt><trkpt lat="44.17815636197155" lon="9.604623275520622"><ele>94.0</ele><time>2026-04-06T15:23:05Z</time></trkpt><trkpt lat="44.178172364357714" lon="9.604829303567394"><ele>100.5</ele><time>2026-04-06T15:23:06Z</time></trkpt><trkpt lat="44.17819127885881" lon="9.604994933923573"><ele>107.0</ele><time>2026-04-06T15:23:07Z</time></trkpt><trkpt lat="44.178237482095724" lon="9.605133372343731"><ele>113.5</ele><time>2026-04-06T15:23:08Z</time></trkpt><trkpt lat="44.178328663060945" lon="9.605238970428084"><ele>120.0</ele><time>2026-04-06T15:23:09Z</time></trkpt><trkpt lat="44.178420996273296" lon="9.605304670479331"><ele>121.2</ele><time>2026-04-06T15:23:10Z</time></trkpt><trkpt lat="44.178484986988295" lon="9.605342553550708"><ele>122.4</ele><time>2026-04-06T15:23:11Z</time></trkpt><trkpt lat="44.178531505282805" lon="9.60547778334843"><ele>123.6</ele><time>2026-04-06T15:23:13Z</time></trkpt><trkpt lat="44.1784840815915" lon="9.605567115499813"><ele>124.8</ele><time>2026-04-06T15:23:14Z</time></trkpt><trkpt lat="44.17839329613107" lon="9.605636917264064"><ele>126.0</ele><time>2026-04-06T15:23:15Z</time></trkpt><trkpt lat="44.17829028822932" lon="9.605649224471803"><ele>126.75</ele><time>2026-04-06T15:23:16Z</time></trkpt><trkpt lat="44.178170723109886" lon="9.605674263789904"><ele>127.5</ele><time>2026-04-06T15:23:17Z</time></trkpt><trkpt lat="44.17806632721691" lon="9.605634733065472"><ele>128.25</ele><time>2026-04-06T15:23:18Z</time></trkpt><trkpt lat="44.17788173236083" lon="9.605567637919453"><ele>129.0</ele><time>2026-04-06T15:23:19Z</time></trkpt><trkpt lat="44.17772767422848" lon="9.605471954256158"><ele>129.0</ele><time>2026-04-06T15:23:20Z</time></trkpt><trkpt lat="44.17757297380661" lon="9.605346516611963"><ele>129.0</ele><time>2026-04-06T15:23:21Z</time></trkpt><trkpt lat="44.17740788209044" lon="9.605161562478443"><ele>129.0</ele><time>2026-04-06T15:23:22Z</time></trkpt><trkpt lat="44.17727069804981" lon="9.605031347606733"><ele>119.66666666666666</ele><time>2026-04-06T15:23:23Z</time></trkpt><trkpt lat="44.17712415761501" lon="9.604915190973779"><ele>110.33333333333333</ele><time>2026-04-06T15:23:24Z</time></trkpt><trkpt lat="44.17696127215655" lon="9.604827314144304"><ele>101.0</ele><time>2026-04-06T15:23:25Z</time></trkpt><trkpt lat="44.176787999555714" lon="9.604774401558071"><ele>101.0</ele><time>2026-04-06T15:23:26Z</time></trkpt><trkpt lat="44.17661206707399" lon="9.60475919725367"><ele>101.0</ele><time>2026-04-06T15:23:27Z</time></trkpt><trkpt lat="44.17642843191071" lon="9.604733479628818"><ele>101.0</ele><time>2026-04-06T15:23:28Z</time></trkpt><trkpt lat="44.176238623138644" lon="9.604730373432337"><ele>97.33333333333333</ele><time>2026-04-06T15:23:29Z</time></trkpt><trkpt lat="44.1760485267191" lon="9.604771103127678"><ele>93.66666666666666</ele><time>2026-04-06T15:23:30Z</time></trkpt><trkpt lat="44.17585107366309" lon="9.60482249347458"><ele>90.0</ele><time>2026-04-06T15:23:31Z</time></trkpt><trkpt lat="44.17565222728027" lon="9.604874286814002"><ele>85.33333333333333</ele><time>2026-04-06T15:23:32Z</time></trkpt><trkpt lat="44.175453721741654" lon="9.604942977152295"><ele>80.66666666666666</ele><time>2026-04-06T15:23:33Z</time></trkpt><trkpt lat="44.17526218003683" lon="9.605036446642872"><ele>76.0</ele><time>2026-04-06T15:23:34Z</time></trkpt><trkpt lat="44.17507231612472" lon="9.605151612099727"><ele>76.0</ele><time>2026-04-06T15:23:35Z</time></trkpt><trkpt lat="44.17488458906335" lon="9.605274949821487"><ele>76.0</ele><time>2026-04-06T15:23:36Z</time></trkpt><trkpt lat="44.174706436832324" lon="9.605381551855665"><ele>76.0</ele><time>2026-04-06T15:23:37Z</time></trkpt><trkpt lat="44.174542413785176" lon="9.605460695199934"><ele>78.33333333333333</ele><time>2026-04-06T15:23:38Z</time></trkpt><trkpt lat="44.17438012044571" lon="9.605503574593113"><ele>80.66666666666667</ele><time>2026-04-06T15:23:39Z</time></trkpt><trkpt lat="44.17422140277279" lon="9.60552056074501"><ele>83.0</ele><time>2026-04-06T15:23:40Z</time></trkpt><trkpt lat="44.17406996544117" lon="9.605520140048888"><ele>77.75</ele><time>2026-04-06T15:23:41Z</time></trkpt><trkpt lat="44.173962583288436" lon="9.605527930230142"><ele>72.5</ele><time>2026-04-06T15:23:42Z</time></trkpt><trkpt lat="44.17379375747705" lon="9.60550813961915"><ele>67.25</ele><time>2026-04-06T15:23:43Z</time></trkpt><trkpt lat="44.17364606332419" lon="9.605528239718575"><ele>62.0</ele><time>2026-04-06T15:23:44Z</time></trkpt><trkpt lat="44.17351461328749" lon="9.605568536339513"><ele>62.0</ele><time>2026-04-06T15:23:45Z</time></trkpt><trkpt lat="44.173401760536706" lon="9.605611626838597"><ele>62.0</ele><time>2026-04-06T15:23:46Z</time></trkpt><trkpt lat="44.17330650351885" lon="9.60568858778367"><ele>62.0</ele><time>2026-04-06T15:23:47Z</time></trkpt><trkpt lat="44.173223205159196" lon="9.60579012065971"><ele>62.0</ele><time>2026-04-06T15:23:48Z</time></trkpt><trkpt lat="44.17316400681823" lon="9.6059054720804"><ele>62.0</ele><time>2026-04-06T15:23:49Z</time></trkpt><trkpt lat="44.17313238981029" lon="9.606059769351068"><ele>55.6</ele><time>2026-04-06T15:23:49.999Z</time></trkpt><trkpt lat="44.1730924827714" lon="9.606200790389803"><ele>49.2</ele><time>2026-04-06T15:23:50.999Z</time></trkpt><trkpt lat="44.17304395189162" lon="9.606330994196616"><ele>42.8</ele><time>2026-04-06T15:23:51.999Z</time></trkpt><trkpt lat="44.17298588699295" lon="9.606458481525548"><ele>36.4</ele><time>2026-04-06T15:23:52.999Z</time></trkpt><trkpt lat="44.17293156279526" lon="9.606583735133313"><ele>30.0</ele><time>2026-04-06T15:23:53.999Z</time></trkpt><trkpt lat="44.17288345736064" lon="9.60669876648186"><ele>30.0</ele><time>2026-04-06T15:23:54.999Z</time></trkpt><trkpt lat="44.1728478687257" lon="9.606813118550772"><ele>30.0</ele><time>2026-04-06T15:23:55.999Z</time></trkpt><trkpt lat="44.17282515279034" lon="9.606944693188362"><ele>30.0</ele><time>2026-04-06T15:23:56.999Z</time></trkpt><trkpt lat="44.1728237665763" lon="9.607077632495624"><ele>30.0</ele><time>2026-04-06T15:23:57.999Z</time></trkpt><trkpt lat="44.17283458926711" lon="9.607210760486318"><ele>30.0</ele><time>2026-04-06T15:23:58.999Z</time></trkpt><trkpt lat="44.1728206350539" lon="9.607340276052064"><ele>29.666666666666668</ele><time>2026-04-06T15:23:59.999Z</time></trkpt><trkpt lat="44.17282259940773" lon="9.60746328388432"><ele>29.333333333333336</ele><time>2026-04-06T15:24:00.999Z</time></trkpt><trkpt lat="44.1728247606171" lon="9.607586648816255"><ele>29.0</ele><time>2026-04-06T15:24:01.999Z</time></trkpt><trkpt lat="44.17282689801382" lon="9.607708654514118"><ele>28.666666666666668</ele><time>2026-04-06T15:24:02.999Z</time></trkpt><trkpt lat="44.17282874080804" lon="9.607813843783088"><ele>28.333333333333336</ele><time>2026-04-06T15:24:03.999Z</time></trkpt><trkpt lat="44.172829948370556" lon="9.607962227597037"><ele>28.0</ele><time>2026-04-06T15:24:05.999Z</time></trkpt><trkpt lat="44.17283008475057" lon="9.608109328423886"><ele>28.000000000000004</ele><time>2026-04-06T15:24:07.999Z</time></trkpt><trkpt lat="44.172855072259" lon="9.608284959689808"><ele>28.0</ele><time>2026-04-06T15:24:09.999Z</time></trkpt><trkpt lat="44.1728769796329" lon="9.608379973431841"><ele>28.0</ele><time>2026-04-06T15:24:10.999Z</time></trkpt><trkpt lat="44.17291011902482" lon="9.60847471904548"><ele>28.0</ele><time>2026-04-06T15:24:11.999Z</time></trkpt><trkpt lat="44.1729460700254" lon="9.608574457042025"><ele>28.000000000000004</ele><time>2026-04-06T15:24:12.999Z</time></trkpt><trkpt lat="44.17296727125172" lon="9.608691074756605"><ele>28.0</ele><time>2026-04-06T15:24:13.999Z</time></trkpt><trkpt lat="44.17300111888562" lon="9.608796772277225"><ele>26.799999999999997</ele><time>2026-04-06T15:24:14.999Z</time></trkpt><trkpt lat="44.17305240761138" lon="9.608906746944353"><ele>25.599999999999998</ele><time>2026-04-06T15:24:15.999Z</time></trkpt><trkpt lat="44.173088213391175" lon="9.60902965947708"><ele>24.4</ele><time>2026-04-06T15:24:16.999Z</time></trkpt><trkpt lat="44.173124275155104" lon="9.609140298907166"><ele>23.200000000000003</ele><time>2026-04-06T15:24:17.999Z</time></trkpt><trkpt lat="44.17315538272183" lon="9.609260132289128"><ele>22.0</ele><time>2026-04-06T15:24:18.999Z</time></trkpt><trkpt lat="44.17318841559862" lon="9.609374280869847"><ele>28.6</ele><time>2026-04-06T15:24:19.999Z</time></trkpt><trkpt lat="44.17322223524701" lon="9.609489549436272"><ele>35.2</ele><time>2026-04-06T15:24:20.999Z</time></trkpt><trkpt lat="44.17322810664498" lon="9.60959766665091"><ele>41.8</ele><time>2026-04-06T15:24:21.999Z</time></trkpt><trkpt lat="44.17325890427477" lon="9.609732873306886"><ele>48.4</ele><time>2026-04-06T15:24:22.999Z</time></trkpt><trkpt lat="44.17327534891617" lon="9.60986575695511"><ele>55.0</ele><time>2026-04-06T15:24:23.999Z</time></trkpt><trkpt lat="44.1732779397143" lon="9.610001969998262"><ele>55.0</ele><time>2026-04-06T15:24:24.999Z</time></trkpt><trkpt lat="44.17327233478303" lon="9.610126778233623"><ele>55.0</ele><time>2026-04-06T15:24:25.999Z</time></trkpt><trkpt lat="44.17326446052583" lon="9.610228886566206"><ele>55.0</ele><time>2026-04-06T15:24:26.999Z</time></trkpt><trkpt lat="44.17323300848999" lon="9.610390348725018"><ele>55.0</ele><time>2026-04-06T15:24:28.999Z</time></trkpt><trkpt lat="44.173206219763976" lon="9.610566304088616"><ele>55.0</ele><time>2026-04-06T15:24:30.999Z</time></trkpt><trkpt lat="44.1731917753299" lon="9.61065310375915"><ele>51.49999999999999</ele><time>2026-04-06T15:24:31.999Z</time></trkpt><trkpt lat="44.17316968468202" lon="9.610746500124801"><ele>48.0</ele><time>2026-04-06T15:24:32.999Z</time></trkpt><trkpt lat="44.173157633004145" lon="9.61084867200933"><ele>44.5</ele><time>2026-04-06T15:24:33.999Z</time></trkpt><trkpt lat="44.17316212059182" lon="9.610958093072039"><ele>41.0</ele><time>2026-04-06T15:24:34.999Z</time></trkpt><trkpt lat="44.173185863924154" lon="9.611067044198284"><ele>37.5</ele><time>2026-04-06T15:24:35.999Z</time></trkpt><trkpt lat="44.17323709799746" lon="9.611164975230903"><ele>34.0</ele><time>2026-04-06T15:24:36.999Z</time></trkpt><trkpt lat="44.173286931957165" lon="9.611257603114751"><ele>34.0</ele><time>2026-04-06T15:24:37.999Z</time></trkpt><trkpt lat="44.173343520552834" lon="9.611348382083813"><ele>34.0</ele><time>2026-04-06T15:24:38.999Z</time></trkpt><trkpt lat="44.17339678040134" lon="9.6114428110052"><ele>34.0</ele><time>2026-04-06T15:24:39.999Z</time></trkpt><trkpt lat="44.17345110406946" lon="9.611529658676666"><ele>34.0</ele><time>2026-04-06T15:24:40.999Z</time></trkpt><trkpt lat="44.17350885655548" lon="9.611610227708507"><ele>34.0</ele><time>2026-04-06T15:24:41.999Z</time></trkpt><trkpt lat="44.1735656671082" lon="9.6116905188415"><ele>34.0</ele><time>2026-04-06T15:24:42.999Z</time></trkpt><trkpt lat="44.17361729433413" lon="9.611772614685668"><ele>34.0</ele><time>2026-04-06T15:24:43.999Z</time></trkpt><trkpt lat="44.1736602170112" lon="9.611837904915657"><ele>34.0</ele><time>2026-04-06T15:24:44.999Z</time></trkpt><trkpt lat="44.173705146592695" lon="9.611921602474805"><ele>34.0</ele><time>2026-04-06T15:24:46.999Z</time></trkpt><trkpt lat="44.17372374329067" lon="9.612007636276951"><ele>34.0</ele><time>2026-04-06T15:24:49.999Z</time></trkpt><trkpt lat="44.173618997211825" lon="9.61201866416514"><ele>34.0</ele><time>2026-04-06T15:24:52.999Z</time></trkpt><trkpt lat="44.17358678217987" lon="9.611931121319952"><ele>34.0</ele><time>2026-04-06T15:24:53.998Z</time></trkpt><trkpt lat="44.17352596860509" lon="9.611861464018354"><ele>34.0</ele><time>2026-04-06T15:24:54.998Z</time></trkpt><trkpt lat="44.173466341986945" lon="9.61177544077729"><ele>34.0</ele><time>2026-04-06T15:24:55.998Z</time></trkpt><trkpt lat="44.173397376874256" lon="9.611691032223694"><ele>34.0</ele><time>2026-04-06T15:24:56.998Z</time></trkpt><trkpt lat="44.173327627852636" lon="9.611602174709756"><ele>34.0</ele><time>2026-04-06T15:24:57.998Z</time></trkpt><trkpt lat="44.173257149793706" lon="9.611507950280282"><ele>34.0</ele><time>2026-04-06T15:24:58.998Z</time></trkpt><trkpt lat="44.173183540585846" lon="9.611410171448199"><ele>30.8</ele><time>2026-04-06T15:24:59.998Z</time></trkpt><trkpt lat="44.173107001586914" lon="9.611309839255904"><ele>27.599999999999998</ele><time>2026-04-06T15:25:00.998Z</time></trkpt><trkpt lat="44.173032213038475" lon="9.611208278804586"><ele>24.4</ele><time>2026-04-06T15:25:01.998Z</time></trkpt><trkpt lat="44.17296190058663" lon="9.611112756557828"><ele>21.2</ele><time>2026-04-06T15:25:02.998Z</time></trkpt><trkpt lat="44.17290593251904" lon="9.611022960306"><ele>18.0</ele><time>2026-04-06T15:25:03.998Z</time></trkpt><trkpt lat="44.17286093074146" lon="9.610948308110475"><ele>18.0</ele><time>2026-04-06T15:25:04.998Z</time></trkpt><trkpt lat="44.172792288713886" lon="9.610884467217211"><ele>18.0</ele><time>2026-04-06T15:25:06.998Z</time></trkpt><trkpt lat="44.17272327563693" lon="9.610982047784814"><ele>18.0</ele><time>2026-04-06T15:25:09Z</time></trkpt><trkpt lat="44.17274013759127" lon="9.611072322291562"><ele>18.0</ele><time>2026-04-06T15:25:10Z</time></trkpt><trkpt lat="44.17278106760745" lon="9.611146925085848"><ele>18.0</ele><time>2026-04-06T15:25:11Z</time></trkpt><trkpt lat="44.1728647137184" lon="9.611284467487483"><ele>18.0</ele><time>2026-04-06T15:25:13Z</time></trkpt><trkpt lat="44.172903660609144" lon="9.61136107658484"><ele>17.5</ele><time>2026-04-06T15:25:14Z</time></trkpt><trkpt lat="44.1729362509096" lon="9.611451626207066"><ele>17.0</ele><time>2026-04-06T15:25:15Z</time></trkpt><trkpt lat="44.17299332393905" lon="9.611521361963918"><ele>16.5</ele><time>2026-04-06T15:25:16Z</time></trkpt><trkpt lat="44.17302605024087" lon="9.611621557980982"><ele>16.0</ele><time>2026-04-06T15:25:17Z</time></trkpt><trkpt lat="44.17308599368082" lon="9.611698222006728"><ele>15.5</ele><time>2026-04-06T15:25:18Z</time></trkpt><trkpt lat="44.17313163207722" lon="9.611797161522093"><ele>15.0</ele><time>2026-04-06T15:25:19Z</time></trkpt><trkpt lat="44.17317584680339" lon="9.611895754260987"><ele>16.666666666666668</ele><time>2026-04-06T15:25:20Z</time></trkpt><trkpt lat="44.173218303638805" lon="9.6119900615535"><ele>18.333333333333336</ele><time>2026-04-06T15:25:21Z</time></trkpt><trkpt lat="44.17325497949109" lon="9.612069758088788"><ele>20.0</ele><time>2026-04-06T15:25:22Z</time></trkpt><trkpt lat="44.17331717554705" lon="9.612173536539887"><ele>21.666666666666668</ele><time>2026-04-06T15:25:24Z</time></trkpt><trkpt lat="44.17336003477464" lon="9.612266015449253"><ele>23.333333333333336</ele><time>2026-04-06T15:25:26Z</time></trkpt><trkpt lat="44.173288735903924" lon="9.61233073105701"><ele>25.0</ele><time>2026-04-06T15:25:29Z</time></trkpt><trkpt lat="44.17321353789975" lon="9.612236926923313"><ele>23.0</ele><time>2026-04-06T15:25:31Z</time></trkpt><trkpt lat="44.173129358543676" lon="9.612117023962275"><ele>21.0</ele><time>2026-04-06T15:25:33Z</time></trkpt><trkpt lat="44.17307735402821" lon="9.612050509044158"><ele>19.0</ele><time>2026-04-06T15:25:34Z</time></trkpt><trkpt lat="44.17302729964001" lon="9.611989944675878"><ele>17.0</ele><time>2026-04-06T15:25:35Z</time></trkpt><trkpt lat="44.17295332955904" lon="9.611876650892631"><ele>15.0</ele><time>2026-04-06T15:25:37Z</time></trkpt><trkpt lat="44.17287188167428" lon="9.611768629071623"><ele>15.0</ele><time>2026-04-06T15:25:39Z</time></trkpt><trkpt lat="44.172825216708496" lon="9.61170817817413"><ele>15.0</ele><time>2026-04-06T15:25:40Z</time></trkpt><trkpt lat="44.17277689393695" lon="9.611649228660118"><ele>15.0</ele><time>2026-04-06T15:25:41Z</time></trkpt><trkpt lat="44.17268733842648" lon="9.611532675902309"><ele>15.0</ele><time>2026-04-06T15:25:43Z</time></trkpt><trkpt lat="44.17261817342841" lon="9.611434606937872"><ele>15.0</ele><time>2026-04-06T15:25:45Z</time></trkpt><trkpt lat="44.17256883242223" lon="9.611376514350674"><ele>15.0</ele><time>2026-04-06T15:25:46Z</time></trkpt><trkpt lat="44.172494275306924" lon="9.611287937933412"><ele>15.0</ele><time>2026-04-06T15:25:48Z</time></trkpt><trkpt lat="44.172411412617436" lon="9.611182019989798"><ele>15.0</ele><time>2026-04-06T15:25:50Z</time></trkpt><trkpt lat="44.17235225217477" lon="9.611049221352946"><ele>15.0</ele><time>2026-04-06T15:25:52Z</time></trkpt><trkpt lat="44.172314668623756" lon="9.610893339790069"><ele>15.0</ele><time>2026-04-06T15:25:54Z</time></trkpt><trkpt lat="44.17230924225239" lon="9.61080302233142"><ele>15.0</ele><time>2026-04-06T15:25:55Z</time></trkpt><trkpt lat="44.172320800965544" lon="9.610712645352352"><ele>15.428571428571429</ele><time>2026-04-06T15:25:55.999Z</time></trkpt><trkpt lat="44.17234824318692" lon="9.61063114835687"><ele>15.857142857142858</ele><time>2026-04-06T15:25:56.999Z</time></trkpt><trkpt lat="44.17238701655137" lon="9.610554964015074"><ele>16.285714285714285</ele><time>2026-04-06T15:25:57.999Z</time></trkpt><trkpt lat="44.17242090082076" lon="9.610475540773187"><ele>16.714285714285715</ele><time>2026-04-06T15:25:58.999Z</time></trkpt><trkpt lat="44.17244555509944" lon="9.610377357687998"><ele>17.142857142857142</ele><time>2026-04-06T15:25:59.999Z</time></trkpt><trkpt lat="44.17245776249743" lon="9.610272180162564"><ele>17.571428571428573</ele><time>2026-04-06T15:26:00.999Z</time></trkpt><trkpt lat="44.17245688133423" lon="9.610173637409735"><ele>18.0</ele><time>2026-04-06T15:26:01.999Z</time></trkpt><trkpt lat="44.17246974936707" lon="9.610064494709196"><ele>18.333333333333332</ele><time>2026-04-06T15:26:02.999Z</time></trkpt><trkpt lat="44.17247823498135" lon="9.609951906793519"><ele>18.666666666666668</ele><time>2026-04-06T15:26:03.999Z</time></trkpt><trkpt lat="44.172490829202175" lon="9.609845261428424"><ele>19.0</ele><time>2026-04-06T15:26:04.999Z</time></trkpt><trkpt lat="44.172488108148826" lon="9.609747108296727"><ele>19.333333333333336</ele><time>2026-04-06T15:26:05.999Z</time></trkpt><trkpt lat="44.1724920990563" lon="9.609637447428364"><ele>19.666666666666668</ele><time>2026-04-06T15:26:06.999Z</time></trkpt><trkpt lat="44.17247370732903" lon="9.609523115564237"><ele>20.0</ele><time>2026-04-06T15:26:07.999Z</time></trkpt><trkpt lat="44.17245643226369" lon="9.609419321780223"><ele>20.333333333333336</ele><time>2026-04-06T15:26:08.999Z</time></trkpt><trkpt lat="44.17244298915289" lon="9.60932512841555"><ele>20.666666666666668</ele><time>2026-04-06T15:26:09.999Z</time></trkpt><trkpt lat="44.17242541069131" lon="9.609222889460783"><ele>21.0</ele><time>2026-04-06T15:26:10.999Z</time></trkpt><trkpt lat="44.17237922939407" lon="9.609055295005431"><ele>21.333333333333332</ele><time>2026-04-06T15:26:12.999Z</time></trkpt><trkpt lat="44.172341976424285" lon="9.608969871249819"><ele>21.666666666666664</ele><time>2026-04-06T15:26:13.999Z</time></trkpt><trkpt lat="44.17227402798971" lon="9.608885585433196"><ele>22.0</ele><time>2026-04-06T15:26:14.999Z</time></trkpt><trkpt lat="44.17221758139398" lon="9.608806819098646"><ele>19.666666666666664</ele><time>2026-04-06T15:26:15.999Z</time></trkpt><trkpt lat="44.17215649897793" lon="9.608739610617572"><ele>17.333333333333332</ele><time>2026-04-06T15:26:16.999Z</time></trkpt><trkpt lat="44.17209342388038" lon="9.608671223338538"><ele>15.0</ele><time>2026-04-06T15:26:17.999Z</time></trkpt><trkpt lat="44.17202493917711" lon="9.608631495855876"><ele>12.666666666666666</ele><time>2026-04-06T15:26:18.999Z</time></trkpt><trkpt lat="44.1719577496699" lon="9.60858534905691"><ele>10.333333333333332</ele><time>2026-04-06T15:26:19.999Z</time></trkpt><trkpt lat="44.171881111323685" lon="9.60855331795831"><ele>8.0</ele><time>2026-04-06T15:26:20.999Z</time></trkpt><trkpt lat="44.17179867443899" lon="9.608554551323724"><ele>7.999999999999999</ele><time>2026-04-06T15:26:21.999Z</time></trkpt><trkpt lat="44.17171944685364" lon="9.608569756503245"><ele>8.0</ele><time>2026-04-06T15:26:22.999Z</time></trkpt><trkpt lat="44.17165204977981" lon="9.608603097908857"><ele>8.0</ele><time>2026-04-06T15:26:23.999Z</time></trkpt><trkpt lat="44.17158934634581" lon="9.608642717706578"><ele>8.0</ele><time>2026-04-06T15:26:24.999Z</time></trkpt><trkpt lat="44.17148459838499" lon="9.608699671174065"><ele>7.999999999999999</ele><time>2026-04-06T15:26:26.999Z</time></trkpt><trkpt lat="44.17140724117438" lon="9.60874663262614"><ele>8.0</ele><time>2026-04-06T15:26:28.999Z</time></trkpt><trkpt lat="44.17133680623382" lon="9.608794467568492"><ele>7.833333333333333</ele><time>2026-04-06T15:26:30.999Z</time></trkpt><trkpt lat="44.17127003568462" lon="9.608840395226833"><ele>7.666666666666666</ele><time>2026-04-06T15:26:32.999Z</time></trkpt><trkpt lat="44.17118989255485" lon="9.6088823677482"><ele>7.5</ele><time>2026-04-06T15:26:34.999Z</time></trkpt><trkpt lat="44.17109692799645" lon="9.608936581908095"><ele>7.333333333333334</ele><time>2026-04-06T15:26:36.999Z</time></trkpt><trkpt lat="44.17103497053266" lon="9.608975161485953"><ele>7.166666666666667</ele><time>2026-04-06T15:26:37.999Z</time></trkpt><trkpt lat="44.17094692377809" lon="9.60902569190148"><ele>7.0</ele><time>2026-04-06T15:26:39.999Z</time></trkpt><trkpt lat="44.17088067700585" lon="9.609063782593545"><ele>7.0</ele><time>2026-04-06T15:26:45.999Z</time></trkpt><trkpt lat="44.17081443569965" lon="9.60891490904353"><ele>6.999999999999999</ele><time>2026-04-06T15:26:50.999Z</time></trkpt><trkpt lat="44.17077847433014" lon="9.608835296891257"><ele>6.999999999999999</ele><time>2026-04-06T15:26:51.999Z</time></trkpt><trkpt lat="44.1707389522311" lon="9.608681302113256"><ele>7.0</ele><time>2026-04-06T15:26:53.999Z</time></trkpt><trkpt lat="44.17068912430078" lon="9.608550763552321"><ele>7.0</ele><time>2026-04-06T15:26:55.999Z</time></trkpt><trkpt lat="44.170570346565356" lon="9.608525745676378"><ele>6.333333333333334</ele><time>2026-04-06T15:26:57.999Z</time></trkpt><trkpt lat="44.1704882630504" lon="9.60861286890281"><ele>5.666666666666667</ele><time>2026-04-06T15:26:59.998Z</time></trkpt><trkpt lat="44.17040831886305" lon="9.608627437306293"><ele>5.0</ele><time>2026-04-06T15:27:01.998Z</time></trkpt><trkpt lat="44.17033699091473" lon="9.608629117225174"><ele>4.333333333333334</ele><time>2026-04-06T15:27:03.998Z</time></trkpt><trkpt lat="44.17027485723597" lon="9.608543054309122"><ele>3.666666666666667</ele><time>2026-04-06T15:27:05.998Z</time></trkpt><trkpt lat="44.170193046953166" lon="9.608564309169546"><ele>3.0</ele><time>2026-04-06T15:27:07.998Z</time></trkpt><trkpt lat="44.170113209291756" lon="9.608577088338329"><ele>3.0</ele><time>2026-04-06T15:27:09.998Z</time></trkpt><trkpt lat="44.17006730833151" lon="9.60863883329306"><ele>3.0</ele><time>2026-04-06T15:27:10.998Z</time></trkpt><trkpt lat="44.169999107005815" lon="9.608709233388266"><ele>3.0</ele><time>2026-04-06T15:27:11.998Z</time></trkpt><trkpt lat="44.16991426036865" lon="9.608792626471432"><ele>3.0</ele><time>2026-04-06T15:27:12.998Z</time></trkpt><trkpt lat="44.16982088964706" lon="9.608886488539369"><ele>3.0</ele><time>2026-04-06T15:27:13.998Z</time></trkpt><trkpt lat="44.16972437568498" lon="9.608995193720906"><ele>3.5</ele><time>2026-04-06T15:27:15Z</time></trkpt><trkpt lat="44.16962169443329" lon="9.609101515738145"><ele>4.0</ele><time>2026-04-06T15:27:16Z</time></trkpt><trkpt lat="44.169526576776875" lon="9.609193197582176"><ele>4.5</ele><time>2026-04-06T15:27:17Z</time></trkpt><trkpt lat="44.16944048435806" lon="9.6092794285607"><ele>5.0</ele><time>2026-04-06T15:27:18Z</time></trkpt><trkpt lat="44.169351328182" lon="9.60937215192313"><ele>5.0</ele><time>2026-04-06T15:27:19Z</time></trkpt><trkpt lat="44.16925762202678" lon="9.609470052974768"><ele>5.0</ele><time>2026-04-06T15:27:20Z</time></trkpt><trkpt lat="44.16915908558792" lon="9.609579078129064"><ele>5.0</ele><time>2026-04-06T15:27:21Z</time></trkpt><trkpt lat="44.16905248501783" lon="9.60969826500949"><ele>5.0</ele><time>2026-04-06T15:27:22Z</time></trkpt><trkpt lat="44.1689420098218" lon="9.609825977967242"><ele>4.666666666666667</ele><time>2026-04-06T15:27:23Z</time></trkpt><trkpt lat="44.168824089879706" lon="9.60995743166819"><ele>4.333333333333333</ele><time>2026-04-06T15:27:24Z</time></trkpt><trkpt lat="44.168714594530755" lon="9.6101039914412"><ele>4.0</ele><time>2026-04-06T15:27:25Z</time></trkpt><trkpt lat="44.16860659554132" lon="9.61026748838996"><ele>4.0</ele><time>2026-04-06T15:27:26Z</time></trkpt><trkpt lat="44.16849992677912" lon="9.610437454630736"><ele>4.0</ele><time>2026-04-06T15:27:27Z</time></trkpt><trkpt lat="44.168390633747514" lon="9.610588376735341"><ele>4.0</ele><time>2026-04-06T15:27:28Z</time></trkpt><trkpt lat="44.168304892426114" lon="9.610731223964404"><ele>4.0</ele><time>2026-04-06T15:27:29Z</time></trkpt><trkpt lat="44.16824616793807" lon="9.610872787224084"><ele>4.333333333333333</ele><time>2026-04-06T15:27:30Z</time></trkpt><trkpt lat="44.168176808401974" lon="9.610966345155695"><ele>4.666666666666666</ele><time>2026-04-06T15:27:31Z</time></trkpt><trkpt lat="44.16814371945094" lon="9.61105477697122"><ele>5.0</ele><time>2026-04-06T15:27:32Z</time></trkpt><trkpt lat="44.16807680316981" lon="9.6111541397433"><ele>5.333333333333333</ele><time>2026-04-06T15:27:34Z</time></trkpt><trkpt lat="44.168034611448995" lon="9.611239394310523"><ele>5.666666666666667</ele><time>2026-04-06T15:27:35Z</time></trkpt><trkpt lat="44.16798007052538" lon="9.611351883097598"><ele>6.0</ele><time>2026-04-06T15:27:37Z</time></trkpt><trkpt lat="44.16793606639694" lon="9.611445286075751"><ele>6.199999999999999</ele><time>2026-04-06T15:27:39Z</time></trkpt><trkpt lat="44.16790093484683" lon="9.611539689099931"><ele>6.3999999999999995</ele><time>2026-04-06T15:27:41Z</time></trkpt><trkpt lat="44.167862732822584" lon="9.611670339639955"><ele>6.6</ele><time>2026-04-06T15:27:43Z</time></trkpt><trkpt lat="44.16780484849608" lon="9.611800180175543"><ele>6.8</ele><time>2026-04-06T15:27:45Z</time></trkpt><trkpt lat="44.167745971807136" lon="9.611952378200533"><ele>7.0</ele><time>2026-04-06T15:27:47Z</time></trkpt><trkpt lat="44.16768183817297" lon="9.61204759386345"><ele>7.166666666666667</ele><time>2026-04-06T15:27:49Z</time></trkpt><trkpt lat="44.16765034685751" lon="9.612137109884543"><ele>7.333333333333334</ele><time>2026-04-06T15:27:51Z</time></trkpt><trkpt lat="44.16760169648141" lon="9.612268263381301"><ele>7.5</ele><time>2026-04-06T15:27:53Z</time></trkpt><trkpt lat="44.16754253536099" lon="9.61238405497928"><ele>7.666666666666666</ele><time>2026-04-06T15:27:57Z</time></trkpt><trkpt lat="44.16751712580585" lon="9.612473538723"><ele>7.833333333333333</ele><time>2026-04-06T15:27:58.999Z</time></trkpt><trkpt lat="44.16748509512697" lon="9.612585715744515"><ele>8.0</ele><time>2026-04-06T15:28:00.999Z</time></trkpt><trkpt lat="44.16745535976883" lon="9.612753493483194"><ele>8.4</ele><time>2026-04-06T15:28:02.999Z</time></trkpt><trkpt lat="44.16744305346481" lon="9.612893080055134"><ele>8.8</ele><time>2026-04-06T15:28:04.999Z</time></trkpt><trkpt lat="44.167408478811296" lon="9.613037724864418"><ele>9.2</ele><time>2026-04-06T15:28:06.999Z</time></trkpt><trkpt lat="44.1673198518349" lon="9.61316083934695"><ele>9.6</ele><time>2026-04-06T15:28:08.999Z</time></trkpt><trkpt lat="44.16725815820617" lon="9.61320437559285"><ele>10.0</ele><time>2026-04-06T15:28:09.999Z</time></trkpt><trkpt lat="44.16714667008307" lon="9.613296386577597"><ele>10.0</ele><time>2026-04-06T15:28:11.999Z</time></trkpt><trkpt lat="44.16710134563459" lon="9.613372585797567"><ele>10.0</ele><time>2026-04-06T15:28:12.999Z</time></trkpt><trkpt lat="44.167073472681324" lon="9.613510451676305"><ele>10.0</ele><time>2026-04-06T15:28:14.999Z</time></trkpt><trkpt lat="44.16699710927133" lon="9.613554579130902"><ele>10.0</ele><time>2026-04-06T15:28:16.999Z</time></trkpt><trkpt lat="44.166926182842396" lon="9.613496667721185"><ele>10.0</ele><time>2026-04-06T15:28:17.999Z</time></trkpt><trkpt lat="44.16687942264623" lon="9.613415912148296"><ele>10.0</ele><time>2026-04-06T15:28:18.999Z</time></trkpt><trkpt lat="44.16680964873032" lon="9.613353189709851"><ele>10.0</ele><time>2026-04-06T15:28:19.999Z</time></trkpt><trkpt lat="44.166721333488866" lon="9.613373243071829"><ele>10.0</ele><time>2026-04-06T15:28:21.999Z</time></trkpt><trkpt lat="44.16662385191911" lon="9.61328033870405"><ele>10.0</ele><time>2026-04-06T15:28:23.999Z</time></trkpt><trkpt lat="44.166564568037955" lon="9.613183607655943"><ele>10.0</ele><time>2026-04-06T15:28:24.999Z</time></trkpt><trkpt lat="44.166550527975446" lon="9.613073118167714"><ele>10.0</ele><time>2026-04-06T15:28:25.999Z</time></trkpt><trkpt lat="44.166513779769794" lon="9.61297499709129"><ele>11.6</ele><time>2026-04-06T15:28:27.999Z</time></trkpt><trkpt lat="44.16646885982737" lon="9.612884013208957"><ele>13.2</ele><time>2026-04-06T15:28:29.999Z</time></trkpt><trkpt lat="44.16644786469571" lon="9.612786124764346"><ele>14.8</ele><time>2026-04-06T15:28:30.999Z</time></trkpt><trkpt lat="44.16642302143775" lon="9.612704352540566"><ele>16.4</ele><time>2026-04-06T15:28:31.999Z</time></trkpt><trkpt lat="44.166383789706806" lon="9.612556787751062"><ele>18.0</ele><time>2026-04-06T15:28:33.999Z</time></trkpt><trkpt lat="44.16622225769543" lon="9.612600324712297"><ele>18.6</ele><time>2026-04-06T15:28:35.999Z</time></trkpt><trkpt lat="44.16613465465487" lon="9.612646761552478"><ele>19.200000000000003</ele><time>2026-04-06T15:28:36.999Z</time></trkpt><trkpt lat="44.16603592830159" lon="9.612693793073484"><ele>19.8</ele><time>2026-04-06T15:28:37.999Z</time></trkpt><trkpt lat="44.16593786533383" lon="9.612732605005018"><ele>20.400000000000002</ele><time>2026-04-06T15:28:38.999Z</time></trkpt><trkpt lat="44.16583492846066" lon="9.612763659990467"><ele>21.0</ele><time>2026-04-06T15:28:39.999Z</time></trkpt><trkpt lat="44.16574391338121" lon="9.612802881641697"><ele>20.400000000000002</ele><time>2026-04-06T15:28:40.999Z</time></trkpt><trkpt lat="44.16569022352257" lon="9.612900090144434"><ele>19.8</ele><time>2026-04-06T15:28:41.999Z</time></trkpt><trkpt lat="44.16566656194732" lon="9.613013866402333"><ele>19.200000000000003</ele><time>2026-04-06T15:28:42.999Z</time></trkpt><trkpt lat="44.16569068592558" lon="9.613141298162578"><ele>18.6</ele><time>2026-04-06T15:28:43.999Z</time></trkpt><trkpt lat="44.16571278256155" lon="9.613247844674321"><ele>18.0</ele><time>2026-04-06T15:28:44.999Z</time></trkpt><trkpt lat="44.16563589321769" lon="9.613349536917879"><ele>21.166666666666668</ele><time>2026-04-06T15:28:46.999Z</time></trkpt><trkpt lat="44.165573591882506" lon="9.613336664579666"><ele>24.333333333333336</ele><time>2026-04-06T15:28:47.999Z</time></trkpt><trkpt lat="44.16550014783887" lon="9.613300057412829"><ele>27.5</ele><time>2026-04-06T15:28:48.999Z</time></trkpt><trkpt lat="44.16541180202785" lon="9.613263068270077"><ele>30.666666666666668</ele><time>2026-04-06T15:28:49.999Z</time></trkpt><trkpt lat="44.165323512701505" lon="9.613188867435685"><ele>33.833333333333336</ele><time>2026-04-06T15:28:50.999Z</time></trkpt><trkpt lat="44.16527734808261" lon="9.613082701222678"><ele>37.0</ele><time>2026-04-06T15:28:51.999Z</time></trkpt><trkpt lat="44.165304011699455" lon="9.612955795800383"><ele>37.0</ele><time>2026-04-06T15:28:52.999Z</time></trkpt><trkpt lat="44.16532845079624" lon="9.612828529333791"><ele>37.0</ele><time>2026-04-06T15:28:53.999Z</time></trkpt><trkpt lat="44.16534673487401" lon="9.612711439578879"><ele>37.0</ele><time>2026-04-06T15:28:54.999Z</time></trkpt><trkpt lat="44.16537016907297" lon="9.612588698264672"><ele>37.0</ele><time>2026-04-06T15:28:55.999Z</time></trkpt><trkpt lat="44.1654040863447" lon="9.612472243815057"><ele>37.0</ele><time>2026-04-06T15:28:56.999Z</time></trkpt><trkpt lat="44.165475998237156" lon="9.61226898985269"><ele>37.66666666666667</ele><time>2026-04-06T15:28:57.999Z</time></trkpt><trkpt lat="44.165523463231914" lon="9.612117920103904"><ele>38.333333333333336</ele><time>2026-04-06T15:28:58.999Z</time></trkpt><trkpt lat="44.16558040598739" lon="9.611996327543501"><ele>39.0</ele><time>2026-04-06T15:28:59.999Z</time></trkpt><trkpt lat="44.16559958906291" lon="9.611881655382636"><ele>39.666666666666664</ele><time>2026-04-06T15:29:00.999Z</time></trkpt><trkpt lat="44.165625206271706" lon="9.61179400471845"><ele>40.33333333333333</ele><time>2026-04-06T15:29:01.999Z</time></trkpt><trkpt lat="44.165666512528304" lon="9.61170947179517"><ele>41.0</ele><time>2026-04-06T15:29:02.998Z</time></trkpt><trkpt lat="44.165691673660525" lon="9.611619734225707"><ele>42.33333333333333</ele><time>2026-04-06T15:29:03.998Z</time></trkpt><trkpt lat="44.165651866383165" lon="9.611513018883848"><ele>43.666666666666664</ele><time>2026-04-06T15:29:05.998Z</time></trkpt><trkpt lat="44.16558157953905" lon="9.611519345165481"><ele>45.0</ele><time>2026-04-06T15:29:06.998Z</time></trkpt><trkpt lat="44.16551613992415" lon="9.611578129815024"><ele>46.33333333333333</ele><time>2026-04-06T15:29:07.998Z</time></trkpt><trkpt lat="44.16545745212538" lon="9.611645512285406"><ele>47.666666666666664</ele><time>2026-04-06T15:29:08.998Z</time></trkpt><trkpt lat="44.16538615751681" lon="9.611725323725363"><ele>49.0</ele><time>2026-04-06T15:29:09.998Z</time></trkpt><trkpt lat="44.16530852603614" lon="9.611796442133048"><ele>49.0</ele><time>2026-04-06T15:29:10.998Z</time></trkpt><trkpt lat="44.165228374135154" lon="9.611879158421653"><ele>49.0</ele><time>2026-04-06T15:29:11.998Z</time></trkpt><trkpt lat="44.16514243088119" lon="9.611962796172255"><ele>49.0</ele><time>2026-04-06T15:29:12.998Z</time></trkpt><trkpt lat="44.16504322250195" lon="9.61204170519791"><ele>49.0</ele><time>2026-04-06T15:29:13.998Z</time></trkpt><trkpt lat="44.164956149870044" lon="9.612155360333482"><ele>49.0</ele><time>2026-04-06T15:29:14.998Z</time></trkpt><trkpt lat="44.16486071778575" lon="9.612271061170006"><ele>52.5</ele><time>2026-04-06T15:29:15.998Z</time></trkpt><trkpt lat="44.164756093669496" lon="9.612385023403144"><ele>56.0</ele><time>2026-04-06T15:29:16.998Z</time></trkpt><trkpt lat="44.16465225576906" lon="9.612510699060094"><ele>59.5</ele><time>2026-04-06T15:29:17.998Z</time></trkpt><trkpt lat="44.16455989537002" lon="9.612641017749452"><ele>63.0</ele><time>2026-04-06T15:29:18.998Z</time></trkpt><trkpt lat="44.16446394850312" lon="9.612723524489681"><ele>63.0</ele><time>2026-04-06T15:29:19.998Z</time></trkpt><trkpt lat="44.164380820295015" lon="9.612816469395183"><ele>63.0</ele><time>2026-04-06T15:29:21Z</time></trkpt><trkpt lat="44.16433092483937" lon="9.612922981684585"><ele>63.0</ele><time>2026-04-06T15:29:22Z</time></trkpt><trkpt lat="44.1643099540439" lon="9.61307206597533"><ele>63.0</ele><time>2026-04-06T15:29:23Z</time></trkpt><trkpt lat="44.164326214786094" lon="9.613237771648812"><ele>63.0</ele><time>2026-04-06T15:29:24Z</time></trkpt><trkpt lat="44.16431915092655" lon="9.613398690666903"><ele>62.5</ele><time>2026-04-06T15:29:25Z</time></trkpt><trkpt lat="44.16428119083332" lon="9.613557035499346"><ele>62.0</ele><time>2026-04-06T15:29:26Z</time></trkpt><trkpt lat="44.16425402580259" lon="9.61371810769643"><ele>61.5</ele><time>2026-04-06T15:29:27Z</time></trkpt><trkpt lat="44.16422069914618" lon="9.613876789125603"><ele>61.0</ele><time>2026-04-06T15:29:28Z</time></trkpt><trkpt lat="44.16420031392611" lon="9.614037182786507"><ele>60.75</ele><time>2026-04-06T15:29:29Z</time></trkpt><trkpt lat="44.16418200735592" lon="9.614207573333099"><ele>60.5</ele><time>2026-04-06T15:29:30Z</time></trkpt><trkpt lat="44.16411719716605" lon="9.614365381202264"><ele>60.25</ele><time>2026-04-06T15:29:31Z</time></trkpt><trkpt lat="44.16408236983253" lon="9.61454985095676"><ele>60.0</ele><time>2026-04-06T15:29:32Z</time></trkpt><trkpt lat="44.16399254025458" lon="9.614691570771118"><ele>68.0</ele><time>2026-04-06T15:29:33Z</time></trkpt><trkpt lat="44.163915760599956" lon="9.614835262016967"><ele>76.0</ele><time>2026-04-06T15:29:34Z</time></trkpt><trkpt lat="44.163868510931216" lon="9.614983960124631"><ele>84.0</ele><time>2026-04-06T15:29:35Z</time></trkpt><trkpt lat="44.163840660278055" lon="9.615124700778203"><ele>92.0</ele><time>2026-04-06T15:29:36Z</time></trkpt><trkpt lat="44.16383358289813" lon="9.615270225940094"><ele>92.19999999999999</ele><time>2026-04-06T15:29:37Z</time></trkpt><trkpt lat="44.16388066103202" lon="9.61538577481283"><ele>92.4</ele><time>2026-04-06T15:29:38Z</time></trkpt><trkpt lat="44.16394935014304" lon="9.615458639622258"><ele>92.6</ele><time>2026-04-06T15:29:39Z</time></trkpt><trkpt lat="44.16402573334052" lon="9.615503307167918"><ele>92.80000000000001</ele><time>2026-04-06T15:29:40Z</time></trkpt><trkpt lat="44.16415014926911" lon="9.615407278623561"><ele>93.0</ele><time>2026-04-06T15:29:41Z</time></trkpt><trkpt lat="44.16424669672513" lon="9.61533364620214"><ele>90.0</ele><time>2026-04-06T15:29:42Z</time></trkpt><trkpt lat="44.16434429319078" lon="9.615326282027635"><ele>87.0</ele><time>2026-04-06T15:29:43Z</time></trkpt><trkpt lat="44.16445292591857" lon="9.61532496759412"><ele>84.0</ele><time>2026-04-06T15:29:44Z</time></trkpt><trkpt lat="44.16456199790102" lon="9.615328164068128"><ele>81.0</ele><time>2026-04-06T15:29:45Z</time></trkpt><trkpt lat="44.16469033979142" lon="9.61532802890936"><ele>78.0</ele><time>2026-04-06T15:29:46Z</time></trkpt><trkpt lat="44.16477865157415" lon="9.615382279249996"><ele>78.0</ele><time>2026-04-06T15:29:47Z</time></trkpt><trkpt lat="44.16484532513512" lon="9.615430739083985"><ele>78.0</ele><time>2026-04-06T15:29:48Z</time></trkpt><trkpt lat="44.164885409032756" lon="9.615501647381306"><ele>78.0</ele><time>2026-04-06T15:29:49Z</time></trkpt><trkpt lat="44.16483662076094" lon="9.615643526455878"><ele>78.0</ele><time>2026-04-06T15:29:50Z</time></trkpt><trkpt lat="44.164829161527976" lon="9.615783217569145"><ele>78.0</ele><time>2026-04-06T15:29:51Z</time></trkpt><trkpt lat="44.16480040855665" lon="9.615918205963911"><ele>78.0</ele><time>2026-04-06T15:29:52Z</time></trkpt><trkpt lat="44.164739924451744" lon="9.616017328705178"><ele>78.0</ele><time>2026-04-06T15:29:53Z</time></trkpt><trkpt lat="44.16465827241121" lon="9.616161590818065"><ele>78.0</ele><time>2026-04-06T15:29:54Z</time></trkpt><trkpt lat="44.16459579342459" lon="9.616297083033553"><ele>78.0</ele><time>2026-04-06T15:29:55Z</time></trkpt><trkpt lat="44.16456801364169" lon="9.616469529238502"><ele>80.25</ele><time>2026-04-06T15:29:56Z</time></trkpt><trkpt lat="44.16456026104818" lon="9.616633805505833"><ele>82.5</ele><time>2026-04-06T15:29:57Z</time></trkpt><trkpt lat="44.16452687992205" lon="9.616790919534596"><ele>84.75</ele><time>2026-04-06T15:29:58Z</time></trkpt><trkpt lat="44.16448851753403" lon="9.616946492235748"><ele>87.0</ele><time>2026-04-06T15:29:59Z</time></trkpt><trkpt lat="44.164439513932415" lon="9.61709016265604"><ele>87.8</ele><time>2026-04-06T15:30:00Z</time></trkpt><trkpt lat="44.16438281755821" lon="9.617219286183685"><ele>88.6</ele><time>2026-04-06T15:30:01Z</time></trkpt><trkpt lat="44.164293116028745" lon="9.617313228539446"><ele>89.39999999999999</ele><time>2026-04-06T15:30:02Z</time></trkpt><trkpt lat="44.16419968692906" lon="9.617413322257644"><ele>90.19999999999999</ele><time>2026-04-06T15:30:03Z</time></trkpt><trkpt lat="44.16412371576357" lon="9.61748994664742"><ele>91.0</ele><time>2026-04-06T15:30:04Z</time></trkpt><trkpt lat="44.16407865808588" lon="9.617597808276555"><ele>91.0</ele><time>2026-04-06T15:30:05Z</time></trkpt><trkpt lat="44.16408155052938" lon="9.617741597861231"><ele>91.0</ele><time>2026-04-06T15:30:06Z</time></trkpt><trkpt lat="44.16413040460722" lon="9.617863250790075"><ele>91.0</ele><time>2026-04-06T15:30:07Z</time></trkpt><trkpt lat="44.16418178366531" lon="9.61795950829855"><ele>91.0</ele><time>2026-04-06T15:30:07.999Z</time></trkpt><trkpt lat="44.16427219937632" lon="9.61803126188787"><ele>91.0</ele><time>2026-04-06T15:30:08.999Z</time></trkpt><trkpt lat="44.164350497903314" lon="9.618156606572958"><ele>92.8</ele><time>2026-04-06T15:30:09.999Z</time></trkpt><trkpt lat="44.164406180455536" lon="9.618269389580552"><ele>94.6</ele><time>2026-04-06T15:30:10.999Z</time></trkpt><trkpt lat="44.164433042482464" lon="9.618372460055458"><ele>96.4</ele><time>2026-04-06T15:30:11.999Z</time></trkpt><trkpt lat="44.164365330392506" lon="9.618520076070537"><ele>98.2</ele><time>2026-04-06T15:30:13.999Z</time></trkpt><trkpt lat="44.164291059966295" lon="9.61853292371319"><ele>100.0</ele><time>2026-04-06T15:30:14.999Z</time></trkpt><trkpt lat="44.16423359772441" lon="9.618464886545716"><ele>100.0</ele><time>2026-04-06T15:30:15.999Z</time></trkpt><trkpt lat="44.16416743230259" lon="9.61843918705818"><ele>100.0</ele><time>2026-04-06T15:30:16.999Z</time></trkpt><trkpt lat="44.164036965369256" lon="9.618396365063022"><ele>100.0</ele><time>2026-04-06T15:30:17.999Z</time></trkpt><trkpt lat="44.163941273813485" lon="9.618347913368192"><ele>100.0</ele><time>2026-04-06T15:30:18.999Z</time></trkpt><trkpt lat="44.16384533378204" lon="9.618322872384159"><ele>100.0</ele><time>2026-04-06T15:30:19.999Z</time></trkpt><trkpt lat="44.163746711435984" lon="9.618289968437358"><ele>102.6</ele><time>2026-04-06T15:30:20.999Z</time></trkpt><trkpt lat="44.16364319344725" lon="9.618258834015771"><ele>105.2</ele><time>2026-04-06T15:30:21.999Z</time></trkpt><trkpt lat="44.16353680612726" lon="9.618240105981789"><ele>107.80000000000001</ele><time>2026-04-06T15:30:22.999Z</time></trkpt><trkpt lat="44.16343849986595" lon="9.618228441170594"><ele>110.4</ele><time>2026-04-06T15:30:23.999Z</time></trkpt><trkpt lat="44.163367152898076" lon="9.618207177516883"><ele>113.0</ele><time>2026-04-06T15:30:24.999Z</time></trkpt><trkpt lat="44.163333528872364" lon="9.618115364159873"><ele>113.0</ele><time>2026-04-06T15:30:25.999Z</time></trkpt><trkpt lat="44.16333583309502" lon="9.617955498945172"><ele>113.00000000000001</ele><time>2026-04-06T15:30:26.999Z</time></trkpt><trkpt lat="44.16337451647372" lon="9.617813381802854"><ele>113.00000000000001</ele><time>2026-04-06T15:30:27.999Z</time></trkpt><trkpt lat="44.16339681053565" lon="9.617681448258416"><ele>113.0</ele><time>2026-04-06T15:30:28.999Z</time></trkpt><trkpt lat="44.163375099172065" lon="9.617543159442395"><ele>113.0</ele><time>2026-04-06T15:30:29.999Z</time></trkpt><trkpt lat="44.16330027166469" lon="9.617421416264614"><ele>112.25</ele><time>2026-04-06T15:30:30.999Z</time></trkpt><trkpt lat="44.16321900861036" lon="9.617309644490476"><ele>111.5</ele><time>2026-04-06T15:30:31.999Z</time></trkpt><trkpt lat="44.16312613146726" lon="9.617196025401443"><ele>110.75</ele><time>2026-04-06T15:30:32.999Z</time></trkpt><trkpt lat="44.16304827795162" lon="9.617065383775074"><ele>110.0</ele><time>2026-04-06T15:30:33.999Z</time></trkpt><trkpt lat="44.16296937685404" lon="9.616937761671236"><ele>114.25</ele><time>2026-04-06T15:30:34.999Z</time></trkpt><trkpt lat="44.16287320565381" lon="9.61683690239162"><ele>118.5</ele><time>2026-04-06T15:30:35.999Z</time></trkpt><trkpt lat="44.16276774335679" lon="9.616749332102765"><ele>122.75</ele><time>2026-04-06T15:30:36.999Z</time></trkpt><trkpt lat="44.16265484135791" lon="9.616633753628049"><ele>127.0</ele><time>2026-04-06T15:30:37.999Z</time></trkpt><trkpt lat="44.16256748614032" lon="9.61652020173213"><ele>127.0</ele><time>2026-04-06T15:30:38.999Z</time></trkpt><trkpt lat="44.16252165571675" lon="9.61639066069243"><ele>127.0</ele><time>2026-04-06T15:30:39.999Z</time></trkpt><trkpt lat="44.16251065921862" lon="9.616233993936872"><ele>127.0</ele><time>2026-04-06T15:30:40.999Z</time></trkpt><trkpt lat="44.162572961437455" lon="9.61608457263363"><ele>127.0</ele><time>2026-04-06T15:30:41.999Z</time></trkpt><trkpt lat="44.16260147420174" lon="9.615876111146559"><ele>126.5</ele><time>2026-04-06T15:30:42.999Z</time></trkpt><trkpt lat="44.16268330194578" lon="9.615727183951657"><ele>126.0</ele><time>2026-04-06T15:30:43.999Z</time></trkpt><trkpt lat="44.16272530782765" lon="9.615559094998916"><ele>125.5</ele><time>2026-04-06T15:30:44.999Z</time></trkpt><trkpt lat="44.16272906214681" lon="9.615385334828316"><ele>125.0</ele><time>2026-04-06T15:30:45.999Z</time></trkpt><trkpt lat="44.16271006561707" lon="9.615234761245409"><ele>125.0</ele><time>2026-04-06T15:30:46.999Z</time></trkpt><trkpt lat="44.16264441328404" lon="9.615122257387632"><ele>125.0</ele><time>2026-04-06T15:30:47.999Z</time></trkpt><trkpt lat="44.16254086852826" lon="9.615039959402225"><ele>125.0</ele><time>2026-04-06T15:30:48.999Z</time></trkpt><trkpt lat="44.16242642410063" lon="9.614979919723924"><ele>125.0</ele><time>2026-04-06T15:30:49.999Z</time></trkpt><trkpt lat="44.16233089261024" lon="9.614888195325346"><ele>133.75</ele><time>2026-04-06T15:30:50.999Z</time></trkpt><trkpt lat="44.16226069094507" lon="9.61477157933507"><ele>142.5</ele><time>2026-04-06T15:30:51.999Z</time></trkpt><trkpt lat="44.162225564489574" lon="9.614621400246731"><ele>151.25</ele><time>2026-04-06T15:30:52.999Z</time></trkpt><trkpt lat="44.16218617310789" lon="9.614463860439185"><ele>160.0</ele><time>2026-04-06T15:30:53.999Z</time></trkpt><trkpt lat="44.1621573403107" lon="9.614301848997908"><ele>160.0</ele><time>2026-04-06T15:30:54.999Z</time></trkpt><trkpt lat="44.162120533840074" lon="9.61412956544669"><ele>160.0</ele><time>2026-04-06T15:30:55.999Z</time></trkpt><trkpt lat="44.1620968089698" lon="9.614001693240928"><ele>160.0</ele><time>2026-04-06T15:30:56.999Z</time></trkpt><trkpt lat="44.162108706882975" lon="9.613857374697025"><ele>160.0</ele><time>2026-04-06T15:30:57.999Z</time></trkpt><trkpt lat="44.16220546181487" lon="9.613747757103107"><ele>161.5</ele><time>2026-04-06T15:30:58.999Z</time></trkpt><trkpt lat="44.16226678129062" lon="9.613612661581168"><ele>163.0</ele><time>2026-04-06T15:30:59.999Z</time></trkpt><trkpt lat="44.16231594338022" lon="9.613457490215856"><ele>164.5</ele><time>2026-04-06T15:31:00.999Z</time></trkpt><trkpt lat="44.16235345781051" lon="9.613305530189043"><ele>166.0</ele><time>2026-04-06T15:31:01.999Z</time></trkpt><trkpt lat="44.16238408061168" lon="9.613139023025267"><ele>159.0</ele><time>2026-04-06T15:31:02.999Z</time></trkpt><trkpt lat="44.16241968661485" lon="9.612970537756416"><ele>152.0</ele><time>2026-04-06T15:31:03.999Z</time></trkpt><trkpt lat="44.162451809163656" lon="9.612810102734235"><ele>145.0</ele><time>2026-04-06T15:31:04.999Z</time></trkpt><trkpt lat="44.16246767721727" lon="9.61267947466551"><ele>138.0</ele><time>2026-04-06T15:31:05.999Z</time></trkpt><trkpt lat="44.16245253573745" lon="9.612540713443801"><ele>131.0</ele><time>2026-04-06T15:31:06.999Z</time></trkpt><trkpt lat="44.1623932432963" lon="9.612413145808864"><ele>136.0</ele><time>2026-04-06T15:31:07.999Z</time></trkpt><trkpt lat="44.162320646272214" lon="9.612283885672614"><ele>141.0</ele><time>2026-04-06T15:31:08.999Z</time></trkpt><trkpt lat="44.16224882847444" lon="9.61216344458003"><ele>146.0</ele><time>2026-04-06T15:31:09.999Z</time></trkpt><trkpt lat="44.16216216924564" lon="9.612052631821085"><ele>151.0</ele><time>2026-04-06T15:31:10.999Z</time></trkpt><trkpt lat="44.16206412592879" lon="9.611939948994886"><ele>151.0</ele><time>2026-04-06T15:31:11.998Z</time></trkpt><trkpt lat="44.16196848299528" lon="9.611838295983041"><ele>151.0</ele><time>2026-04-06T15:31:12.998Z</time></trkpt><trkpt lat="44.161875945360066" lon="9.611723407598209"><ele>151.0</ele><time>2026-04-06T15:31:13.998Z</time></trkpt><trkpt lat="44.16175761415144" lon="9.611645110456488"><ele>151.0</ele><time>2026-04-06T15:31:14.998Z</time></trkpt><trkpt lat="44.16163171553251" lon="9.611588954772895"><ele>158.6</ele><time>2026-04-06T15:31:15.998Z</time></trkpt><trkpt lat="44.16152888329887" lon="9.611516831776775"><ele>166.2</ele><time>2026-04-06T15:31:16.998Z</time></trkpt><trkpt lat="44.16146497545022" lon="9.611415080489454"><ele>173.79999999999998</ele><time>2026-04-06T15:31:17.998Z</time></trkpt><trkpt lat="44.16146818177" lon="9.611260773835205"><ele>181.39999999999998</ele><time>2026-04-06T15:31:18.998Z</time></trkpt><trkpt lat="44.16149532961793" lon="9.611165289827117"><ele>189.0</ele><time>2026-04-06T15:31:19.998Z</time></trkpt><trkpt lat="44.161520454084936" lon="9.61101433627877"><ele>189.0</ele><time>2026-04-06T15:31:20.998Z</time></trkpt><trkpt lat="44.16154478013863" lon="9.61089035816036"><ele>189.0</ele><time>2026-04-06T15:31:21.998Z</time></trkpt><trkpt lat="44.16157113624915" lon="9.61078258941605"><ele>189.0</ele><time>2026-04-06T15:31:22.998Z</time></trkpt><trkpt lat="44.16149440684283" lon="9.61058193722702"><ele>189.0</ele><time>2026-04-06T15:31:23.998Z</time></trkpt><trkpt lat="44.16167506443497" lon="9.610398043365265"><ele>185.6</ele><time>2026-04-06T15:31:24.998Z</time></trkpt><trkpt lat="44.16172038462972" lon="9.610250093385908"><ele>182.2</ele><time>2026-04-06T15:31:25.998Z</time></trkpt><trkpt lat="44.16174462316471" lon="9.610113404720472"><ele>178.79999999999998</ele><time>2026-04-06T15:31:27Z</time></trkpt><trkpt lat="44.16173369589624" lon="9.609995755663894"><ele>175.39999999999998</ele><time>2026-04-06T15:31:28Z</time></trkpt><trkpt lat="44.161663484101624" lon="9.609876465838306"><ele>172.0</ele><time>2026-04-06T15:31:29Z</time></trkpt><trkpt lat="44.16151023439975" lon="9.609816226249118"><ele>172.0</ele><time>2026-04-06T15:31:30Z</time></trkpt><trkpt lat="44.161370709011585" lon="9.609796781032204"><ele>172.0</ele><time>2026-04-06T15:31:31Z</time></trkpt><trkpt lat="44.161241311542135" lon="9.609794855395295"><ele>172.0</ele><time>2026-04-06T15:31:32Z</time></trkpt><trkpt lat="44.16112777209249" lon="9.609719593201573"><ele>172.0</ele><time>2026-04-06T15:31:33Z</time></trkpt><trkpt lat="44.16103348593688" lon="9.60958218690972"><ele>168.0</ele><time>2026-04-06T15:31:34Z</time></trkpt><trkpt lat="44.160936887535186" lon="9.609456230575825"><ele>164.0</ele><time>2026-04-06T15:31:35Z</time></trkpt><trkpt lat="44.16082669039338" lon="9.609380469330702"><ele>160.0</ele><time>2026-04-06T15:31:36Z</time></trkpt><trkpt lat="44.160705062270985" lon="9.609325181684124"><ele>156.0</ele><time>2026-04-06T15:31:37Z</time></trkpt><trkpt lat="44.16058326411469" lon="9.609310650737715"><ele>156.0</ele><time>2026-04-06T15:31:38Z</time></trkpt><trkpt lat="44.16046319722684" lon="9.609348460333564"><ele>156.0</ele><time>2026-04-06T15:31:39Z</time></trkpt><trkpt lat="44.160340241578226" lon="9.609387330399835"><ele>156.0</ele><time>2026-04-06T15:31:40Z</time></trkpt><trkpt lat="44.16022595113481" lon="9.609441151933309"><ele>156.0</ele><time>2026-04-06T15:31:41Z</time></trkpt><trkpt lat="44.1601195277469" lon="9.609507883745763"><ele>160.25</ele><time>2026-04-06T15:31:42Z</time></trkpt><trkpt lat="44.16001518776025" lon="9.609583427171618"><ele>164.5</ele><time>2026-04-06T15:31:43Z</time></trkpt><trkpt lat="44.15991751132033" lon="9.609649683688966"><ele>168.75</ele><time>2026-04-06T15:31:44Z</time></trkpt><trkpt lat="44.15981633785662" lon="9.609713551063441"><ele>173.0</ele><time>2026-04-06T15:31:45Z</time></trkpt><trkpt lat="44.15971681332246" lon="9.609786313052751"><ele>173.0</ele><time>2026-04-06T15:31:46Z</time></trkpt><trkpt lat="44.159626612477574" lon="9.609858131109691"><ele>173.0</ele><time>2026-04-06T15:31:47Z</time></trkpt><trkpt lat="44.159533109916026" lon="9.609936541400913"><ele>173.0</ele><time>2026-04-06T15:31:48Z</time></trkpt><trkpt lat="44.15943224292733" lon="9.610013104502004"><ele>173.0</ele><time>2026-04-06T15:31:49Z</time></trkpt><trkpt lat="44.15933029129025" lon="9.610063781333839"><ele>173.0</ele><time>2026-04-06T15:31:50Z</time></trkpt><trkpt lat="44.15922927289489" lon="9.61008835508311"><ele>173.0</ele><time>2026-04-06T15:31:51Z</time></trkpt><trkpt lat="44.159123597152366" lon="9.61008692528269"><ele>173.0</ele><time>2026-04-06T15:31:52Z</time></trkpt><trkpt lat="44.158997332406585" lon="9.610129766267745"><ele>173.0</ele><time>2026-04-06T15:31:53Z</time></trkpt><trkpt lat="44.15889721168966" lon="9.610184945174026"><ele>173.0</ele><time>2026-04-06T15:31:54Z</time></trkpt><trkpt lat="44.158808321281555" lon="9.610262863210902"><ele>173.0</ele><time>2026-04-06T15:31:55Z</time></trkpt><trkpt lat="44.15873102827543" lon="9.610381088930462"><ele>175.75</ele><time>2026-04-06T15:31:56Z</time></trkpt><trkpt lat="44.15867667891646" lon="9.610541783738274"><ele>178.5</ele><time>2026-04-06T15:31:57Z</time></trkpt><trkpt lat="44.15858160973596" lon="9.6106339013754"><ele>181.25</ele><time>2026-04-06T15:31:58Z</time></trkpt><trkpt lat="44.15847983154981" lon="9.610720730104266"><ele>184.0</ele><time>2026-04-06T15:31:59Z</time></trkpt><trkpt lat="44.158376132859225" lon="9.61082422479717"><ele>184.0</ele><time>2026-04-06T15:32:00Z</time></trkpt><trkpt lat="44.15828447585027" lon="9.610924479683415"><ele>184.0</ele><time>2026-04-06T15:32:01Z</time></trkpt><trkpt lat="44.15818421670954" lon="9.611015375270625"><ele>184.0</ele><time>2026-04-06T15:32:02Z</time></trkpt><trkpt lat="44.158090520978476" lon="9.611110015855706"><ele>184.0</ele><time>2026-04-06T15:32:03Z</time></trkpt><trkpt lat="44.15799496875037" lon="9.611232404724104"><ele>186.0</ele><time>2026-04-06T15:32:04Z</time></trkpt><trkpt lat="44.157891531061736" lon="9.611335912463254"><ele>188.0</ele><time>2026-04-06T15:32:05Z</time></trkpt><trkpt lat="44.157794736549995" lon="9.611441743396798"><ele>190.0</ele><time>2026-04-06T15:32:06Z</time></trkpt><trkpt lat="44.15769261596851" lon="9.611548250819435"><ele>192.0</ele><time>2026-04-06T15:32:07Z</time></trkpt><trkpt lat="44.15760052723406" lon="9.611674223617303"><ele>192.0</ele><time>2026-04-06T15:32:08Z</time></trkpt><trkpt lat="44.15753092567939" lon="9.611792894217748"><ele>192.0</ele><time>2026-04-06T15:32:09Z</time></trkpt><trkpt lat="44.157468489874425" lon="9.611860713133243"><ele>192.0</ele><time>2026-04-06T15:32:10Z</time></trkpt><trkpt lat="44.157389440842906" lon="9.611883690627097"><ele>192.0</ele><time>2026-04-06T15:32:11Z</time></trkpt><trkpt lat="44.15730139517726" lon="9.611928577074131"><ele>192.0</ele><time>2026-04-06T15:32:12Z</time></trkpt><trkpt lat="44.15720588087493" lon="9.61192615534238"><ele>192.0</ele><time>2026-04-06T15:32:13Z</time></trkpt><trkpt lat="44.157108160654765" lon="9.611969653472773"><ele>192.0</ele><time>2026-04-06T15:32:13.999Z</time></trkpt><trkpt lat="44.15700755937304" lon="9.612038043902938"><ele>192.0</ele><time>2026-04-06T15:32:14.999Z</time></trkpt><trkpt lat="44.1569136836519" lon="9.612116262655814"><ele>192.0</ele><time>2026-04-06T15:32:15.999Z</time></trkpt><trkpt lat="44.156824846031384" lon="9.612195539146699"><ele>192.0</ele><time>2026-04-06T15:32:16.999Z</time></trkpt><trkpt lat="44.15674873393085" lon="9.612281438299041"><ele>192.0</ele><time>2026-04-06T15:32:17.999Z</time></trkpt><trkpt lat="44.1566943059338" lon="9.612380813193077"><ele>192.0</ele><time>2026-04-06T15:32:18.999Z</time></trkpt><trkpt lat="44.15664827152883" lon="9.612492617973441"><ele>192.0</ele><time>2026-04-06T15:32:19.999Z</time></trkpt><trkpt lat="44.15660000214592" lon="9.612602893553172"><ele>192.0</ele><time>2026-04-06T15:32:20.999Z</time></trkpt><trkpt lat="44.15655053633836" lon="9.612729900737914"><ele>192.0</ele><time>2026-04-06T15:32:21.999Z</time></trkpt><trkpt lat="44.15649036404827" lon="9.612857227854928"><ele>188.2</ele><time>2026-04-06T15:32:22.999Z</time></trkpt><trkpt lat="44.156432141425945" lon="9.61298647845661"><ele>184.39999999999998</ele><time>2026-04-06T15:32:23.999Z</time></trkpt><trkpt lat="44.15636073074209" lon="9.613101305565449"><ele>180.60000000000002</ele><time>2026-04-06T15:32:24.999Z</time></trkpt><trkpt lat="44.1562839027177" lon="9.613214505740409"><ele>176.8</ele><time>2026-04-06T15:32:25.999Z</time></trkpt><trkpt lat="44.1562088497289" lon="9.6133221391369"><ele>173.0</ele><time>2026-04-06T15:32:26.999Z</time></trkpt><trkpt lat="44.156145016976" lon="9.613446351733225"><ele>173.0</ele><time>2026-04-06T15:32:27.999Z</time></trkpt><trkpt lat="44.15608718258004" lon="9.613528995944849"><ele>173.0</ele><time>2026-04-06T15:32:28.999Z</time></trkpt><trkpt lat="44.15604091204467" lon="9.613659072417702"><ele>173.0</ele><time>2026-04-06T15:32:30.999Z</time></trkpt><trkpt lat="44.15599610824144" lon="9.613792747267603"><ele>173.0</ele><time>2026-04-06T15:32:32.999Z</time></trkpt><trkpt lat="44.15599500038296" lon="9.61389718989852"><ele>173.0</ele><time>2026-04-06T15:32:34.999Z</time></trkpt><trkpt lat="44.15613680738597" lon="9.61355155803156"><ele>173.0</ele><time>2026-04-06T15:36:51.999Z</time></trkpt><trkpt lat="44.15618135878412" lon="9.613471544093615"><ele>173.0</ele><time>2026-04-06T15:37:13.999Z</time></trkpt><trkpt lat="44.15626614090285" lon="9.613330720261603"><ele>173.0</ele><time>2026-04-06T15:37:15.999Z</time></trkpt><trkpt lat="44.15634402727762" lon="9.613181338255943"><ele>173.0</ele><time>2026-04-06T15:37:17.999Z</time></trkpt><trkpt lat="44.156395677244404" lon="9.613097313705339"><ele>173.0</ele><time>2026-04-06T15:37:18.999Z</time></trkpt><trkpt lat="44.1564553893226" lon="9.613007773457236"><ele>173.0</ele><time>2026-04-06T15:37:19.999Z</time></trkpt><trkpt lat="44.15651878982812" lon="9.612916562714663"><ele>173.0</ele><time>2026-04-06T15:37:20.999Z</time></trkpt><trkpt lat="44.156567880372066" lon="9.612804864405996"><ele>173.0</ele><time>2026-04-06T15:37:21.999Z</time></trkpt><trkpt lat="44.15661746721049" lon="9.612692672171022"><ele>173.0</ele><time>2026-04-06T15:37:22.999Z</time></trkpt><trkpt lat="44.15665698341374" lon="9.61257252490896"><ele>173.0</ele><time>2026-04-06T15:37:23.999Z</time></trkpt><trkpt lat="44.15670091509315" lon="9.612479140004162"><ele>176.16666666666666</ele><time>2026-04-06T15:37:24.999Z</time></trkpt><trkpt lat="44.15674978870192" lon="9.612384213077782"><ele>179.33333333333331</ele><time>2026-04-06T15:37:25.999Z</time></trkpt><trkpt lat="44.15680270449879" lon="9.612308833217728"><ele>182.5</ele><time>2026-04-06T15:37:26.999Z</time></trkpt><trkpt lat="44.15688365637419" lon="9.612200861054717"><ele>185.66666666666666</ele><time>2026-04-06T15:37:28.999Z</time></trkpt><trkpt lat="44.156952632069206" lon="9.612157615256287"><ele>188.83333333333334</ele><time>2026-04-06T15:37:29.999Z</time></trkpt><trkpt lat="44.15704261585005" lon="9.6120903528626"><ele>192.0</ele><time>2026-04-06T15:37:30.999Z</time></trkpt><trkpt lat="44.157101327677886" lon="9.612044303106963"><ele>192.0</ele><time>2026-04-06T15:37:31.999Z</time></trkpt><trkpt lat="44.15719366614578" lon="9.611984672812902"><ele>192.0</ele><time>2026-04-06T15:37:32.999Z</time></trkpt><trkpt lat="44.15729261410973" lon="9.611961720208432"><ele>192.0</ele><time>2026-04-06T15:37:33.999Z</time></trkpt><trkpt lat="44.15739171892751" lon="9.61192565025382"><ele>192.0</ele><time>2026-04-06T15:37:34.999Z</time></trkpt><trkpt lat="44.15748685776257" lon="9.61187627259655"><ele>192.0</ele><time>2026-04-06T15:37:35.998Z</time></trkpt><trkpt lat="44.15759454749578" lon="9.611782969982663"><ele>192.0</ele><time>2026-04-06T15:37:36.998Z</time></trkpt><trkpt lat="44.15766230226159" lon="9.61163442869703"><ele>192.0</ele><time>2026-04-06T15:37:37.998Z</time></trkpt><trkpt lat="44.157755398546506" lon="9.611517715179517"><ele>192.0</ele><time>2026-04-06T15:37:38.998Z</time></trkpt><trkpt lat="44.15787101016616" lon="9.611416084764066"><ele>192.0</ele><time>2026-04-06T15:37:39.998Z</time></trkpt><trkpt lat="44.15800246632809" lon="9.61126576316039"><ele>189.33333333333334</ele><time>2026-04-06T15:37:40.998Z</time></trkpt><trkpt lat="44.158124441024206" lon="9.61112308213433"><ele>186.66666666666669</ele><time>2026-04-06T15:37:41.998Z</time></trkpt><trkpt lat="44.15826424452061" lon="9.610994906252914"><ele>184.0</ele><time>2026-04-06T15:37:42.998Z</time></trkpt><trkpt lat="44.158392111227485" lon="9.610865287931128"><ele>184.0</ele><time>2026-04-06T15:37:43.998Z</time></trkpt><trkpt lat="44.15851850078142" lon="9.610739234077249"><ele>184.0</ele><time>2026-04-06T15:37:44.998Z</time></trkpt><trkpt lat="44.158651076597984" lon="9.61061387576035"><ele>184.0</ele><time>2026-04-06T15:37:45.998Z</time></trkpt><trkpt lat="44.15874746234906" lon="9.610467869381152"><ele>184.0</ele><time>2026-04-06T15:37:46.998Z</time></trkpt><trkpt lat="44.158823543757926" lon="9.610342418516053"><ele>184.0</ele><time>2026-04-06T15:37:47.998Z</time></trkpt><trkpt lat="44.15890244625994" lon="9.610236001274071"><ele>184.0</ele><time>2026-04-06T15:37:48.998Z</time></trkpt><trkpt lat="44.15899311620683" lon="9.610163823914936"><ele>184.0</ele><time>2026-04-06T15:37:50Z</time></trkpt><trkpt lat="44.15911458196197" lon="9.610137281437611"><ele>180.33333333333334</ele><time>2026-04-06T15:37:51Z</time></trkpt><trkpt lat="44.159252859632666" lon="9.610129765740833"><ele>176.66666666666666</ele><time>2026-04-06T15:37:52Z</time></trkpt><trkpt lat="44.15940505839167" lon="9.610084070479724"><ele>173.0</ele><time>2026-04-06T15:37:53Z</time></trkpt><trkpt lat="44.15955020974656" lon="9.609978201677798"><ele>173.0</ele><time>2026-04-06T15:37:54Z</time></trkpt><trkpt lat="44.15971856579637" lon="9.609871743410615"><ele>173.0</ele><time>2026-04-06T15:37:55Z</time></trkpt><trkpt lat="44.159876380862265" lon="9.609750440734546"><ele>173.0</ele><time>2026-04-06T15:37:56Z</time></trkpt><trkpt lat="44.16002867501408" lon="9.609636091815918"><ele>173.75</ele><time>2026-04-06T15:37:57Z</time></trkpt><trkpt lat="44.16017199573261" lon="9.609524427869138"><ele>174.5</ele><time>2026-04-06T15:37:58Z</time></trkpt><trkpt lat="44.16027922293906" lon="9.609452295595451"><ele>175.25</ele><time>2026-04-06T15:37:59Z</time></trkpt><trkpt lat="44.160404518778016" lon="9.609425994528973"><ele>176.0</ele><time>2026-04-06T15:38:00Z</time></trkpt><trkpt lat="44.16052760567035" lon="9.609398867362346"><ele>175.0</ele><time>2026-04-06T15:38:01Z</time></trkpt><trkpt lat="44.16064033507813" lon="9.609378380116064"><ele>174.0</ele><time>2026-04-06T15:38:02Z</time></trkpt><trkpt lat="44.160764112322966" lon="9.609403498374164"><ele>173.0</ele><time>2026-04-06T15:38:03Z</time></trkpt><trkpt lat="44.16088277776933" lon="9.609474147426447"><ele>172.0</ele><time>2026-04-06T15:38:04Z</time></trkpt><trkpt lat="44.16101573844904" lon="9.60957577443319"><ele>172.0</ele><time>2026-04-06T15:38:05Z</time></trkpt><trkpt lat="44.16114602091717" lon="9.60970214705776"><ele>172.0</ele><time>2026-04-06T15:38:06Z</time></trkpt><trkpt lat="44.161276037507655" lon="9.609832038163837"><ele>172.0</ele><time>2026-04-06T15:38:07Z</time></trkpt><trkpt lat="44.16140362533694" lon="9.609874289654936"><ele>172.0</ele><time>2026-04-06T15:38:08Z</time></trkpt><trkpt lat="44.16150782075891" lon="9.609903314009978"><ele>172.0</ele><time>2026-04-06T15:38:09Z</time></trkpt><trkpt lat="44.161614095790554" lon="9.60992625383322"><ele>172.0</ele><time>2026-04-06T15:38:10Z</time></trkpt><trkpt lat="44.161705487248774" lon="9.610043050040854"><ele>172.0</ele><time>2026-04-06T15:38:11Z</time></trkpt><trkpt lat="44.16173191416442" lon="9.610147689677824"><ele>172.0</ele><time>2026-04-06T15:38:12Z</time></trkpt><trkpt lat="44.161708354169726" lon="9.610274618195124"><ele>176.25</ele><time>2026-04-06T15:38:13Z</time></trkpt><trkpt lat="44.16167283663" lon="9.610392918945282"><ele>180.5</ele><time>2026-04-06T15:38:14Z</time></trkpt><trkpt lat="44.16162062302505" lon="9.610554988421537"><ele>184.75</ele><time>2026-04-06T15:38:15Z</time></trkpt><trkpt lat="44.16157246166143" lon="9.610737068122368"><ele>189.0</ele><time>2026-04-06T15:38:16Z</time></trkpt><trkpt lat="44.16150761035217" lon="9.610930251395985"><ele>189.0</ele><time>2026-04-06T15:38:17Z</time></trkpt><trkpt lat="44.16147059412514" lon="9.611132314360503"><ele>189.0</ele><time>2026-04-06T15:38:18Z</time></trkpt><trkpt lat="44.161452508124626" lon="9.611310794715385"><ele>189.0</ele><time>2026-04-06T15:38:19Z</time></trkpt><trkpt lat="44.161458618156274" lon="9.611443337578217"><ele>189.0</ele><time>2026-04-06T15:38:20Z</time></trkpt><trkpt lat="44.16149471617147" lon="9.611549854694088"><ele>179.5</ele><time>2026-04-06T15:38:21Z</time></trkpt><trkpt lat="44.16155000047037" lon="9.611659018732084"><ele>170.0</ele><time>2026-04-06T15:38:22Z</time></trkpt><trkpt lat="44.161624409551926" lon="9.611768638818388"><ele>160.5</ele><time>2026-04-06T15:38:23Z</time></trkpt><trkpt lat="44.16181939012546" lon="9.611729976789775"><ele>151.0</ele><time>2026-04-06T15:38:24Z</time></trkpt><trkpt lat="44.161913175625735" lon="9.611822397963206"><ele>151.0</ele><time>2026-04-06T15:38:25Z</time></trkpt><trkpt lat="44.162012564464575" lon="9.611933135247046"><ele>151.0</ele><time>2026-04-06T15:38:26Z</time></trkpt><trkpt lat="44.162125421230385" lon="9.612044500823412"><ele>151.0</ele><time>2026-04-06T15:38:27Z</time></trkpt><trkpt lat="44.16222505862423" lon="9.612181461500272"><ele>151.0</ele><time>2026-04-06T15:38:28Z</time></trkpt><trkpt lat="44.16231163026151" lon="9.612318933875313"><ele>146.0</ele><time>2026-04-06T15:38:29Z</time></trkpt><trkpt lat="44.16236940222679" lon="9.61248522105815"><ele>141.0</ele><time>2026-04-06T15:38:30Z</time></trkpt><trkpt lat="44.16241350543534" lon="9.612610797012993"><ele>136.0</ele><time>2026-04-06T15:38:31Z</time></trkpt><trkpt lat="44.16243210348584" lon="9.612794480089608"><ele>131.0</ele><time>2026-04-06T15:38:32Z</time></trkpt><trkpt lat="44.1623862196524" lon="9.612941948214754"><ele>138.25</ele><time>2026-04-06T15:38:33Z</time></trkpt><trkpt lat="44.16235139278544" lon="9.613132304834366"><ele>145.5</ele><time>2026-04-06T15:38:34Z</time></trkpt><trkpt lat="44.162313851605816" lon="9.6133148005657"><ele>152.75</ele><time>2026-04-06T15:38:35Z</time></trkpt><trkpt lat="44.16226325267587" lon="9.613515184462557"><ele>160.0</ele><time>2026-04-06T15:38:36Z</time></trkpt><trkpt lat="44.16219843303483" lon="9.613680348816237"><ele>160.0</ele><time>2026-04-06T15:38:36.999Z</time></trkpt><trkpt lat="44.1621429022222" lon="9.613825286754283"><ele>160.0</ele><time>2026-04-06T15:38:37.999Z</time></trkpt><trkpt lat="44.16208219142597" lon="9.613942868990673"><ele>160.0</ele><time>2026-04-06T15:38:38.999Z</time></trkpt><trkpt lat="44.162031925882474" lon="9.614042042825993"><ele>160.0</ele><time>2026-04-06T15:38:39.999Z</time></trkpt><trkpt lat="44.16207041319699" lon="9.614198461548762"><ele>160.0</ele><time>2026-04-06T15:38:40.999Z</time></trkpt><trkpt lat="44.1621050995177" lon="9.614368222193136"><ele>161.0</ele><time>2026-04-06T15:38:41.999Z</time></trkpt><trkpt lat="44.16216623436615" lon="9.614537743939811"><ele>162.0</ele><time>2026-04-06T15:38:42.999Z</time></trkpt><trkpt lat="44.16222809335214" lon="9.614719074499874"><ele>163.0</ele><time>2026-04-06T15:38:43.999Z</time></trkpt><trkpt lat="44.16228816464419" lon="9.61487565722818"><ele>164.0</ele><time>2026-04-06T15:38:44.999Z</time></trkpt><trkpt lat="44.16239034295272" lon="9.615004894814637"><ele>154.25</ele><time>2026-04-06T15:38:45.999Z</time></trkpt><trkpt lat="44.16252155805928" lon="9.615106268329313"><ele>144.5</ele><time>2026-04-06T15:38:46.999Z</time></trkpt><trkpt lat="44.16261775042654" lon="9.61521386722882"><ele>134.75</ele><time>2026-04-06T15:38:47.999Z</time></trkpt><trkpt lat="44.16269516369412" lon="9.615311685415081"><ele>125.0</ele><time>2026-04-06T15:38:48.999Z</time></trkpt><trkpt lat="44.16271554322874" lon="9.615455738835866"><ele>125.0</ele><time>2026-04-06T15:38:49.999Z</time></trkpt><trkpt lat="44.1626801565542" lon="9.615621075774095"><ele>125.0</ele><time>2026-04-06T15:38:50.999Z</time></trkpt><trkpt lat="44.16261366646978" lon="9.615786811905377"><ele>125.0</ele><time>2026-04-06T15:38:51.999Z</time></trkpt><trkpt lat="44.16255450462472" lon="9.615972374907988"><ele>125.0</ele><time>2026-04-06T15:38:52.999Z</time></trkpt><trkpt lat="44.16250544459318" lon="9.616159379477038"><ele>125.5</ele><time>2026-04-06T15:38:53.999Z</time></trkpt><trkpt lat="44.16247988334042" lon="9.616324829987608"><ele>126.0</ele><time>2026-04-06T15:38:54.999Z</time></trkpt><trkpt lat="44.162496729504994" lon="9.61649955260625"><ele>126.5</ele><time>2026-04-06T15:38:55.999Z</time></trkpt><trkpt lat="44.16256759578641" lon="9.616644010526551"><ele>127.0</ele><time>2026-04-06T15:38:56.999Z</time></trkpt><trkpt lat="44.16267737647923" lon="9.616739218939799"><ele>127.0</ele><time>2026-04-06T15:38:57.999Z</time></trkpt><trkpt lat="44.16279496142578" lon="9.616832172521184"><ele>127.0</ele><time>2026-04-06T15:38:58.999Z</time></trkpt><trkpt lat="44.162930460877284" lon="9.616953003331743"><ele>127.0</ele><time>2026-04-06T15:38:59.999Z</time></trkpt><trkpt lat="44.163049061128994" lon="9.617116733103165"><ele>130.25</ele><time>2026-04-06T15:39:00.999Z</time></trkpt><trkpt lat="44.16316224880308" lon="9.617273613401938"><ele>133.5</ele><time>2026-04-06T15:39:01.999Z</time></trkpt><trkpt lat="44.163243635893245" lon="9.617436439733742"><ele>136.75</ele><time>2026-04-06T15:39:02.999Z</time></trkpt><trkpt lat="44.16332462472714" lon="9.617549796186797"><ele>140.0</ele><time>2026-04-06T15:39:03.999Z</time></trkpt><trkpt lat="44.16338020062314" lon="9.617665212302084"><ele>133.25</ele><time>2026-04-06T15:39:04.999Z</time></trkpt><trkpt lat="44.163399834777465" lon="9.61782631352865"><ele>126.5</ele><time>2026-04-06T15:39:05.999Z</time></trkpt><trkpt lat="44.163333919547746" lon="9.6179718766831"><ele>119.75</ele><time>2026-04-06T15:39:06.999Z</time></trkpt><trkpt lat="44.163325902635044" lon="9.618142234784399"><ele>113.0</ele><time>2026-04-06T15:39:07.999Z</time></trkpt><trkpt lat="44.163358817668254" lon="9.618262674272094"><ele>113.0</ele><time>2026-04-06T15:39:08.999Z</time></trkpt><trkpt lat="44.16345186957662" lon="9.618336356604996"><ele>113.0</ele><time>2026-04-06T15:39:09.999Z</time></trkpt><trkpt lat="44.16356872863819" lon="9.618332665062184"><ele>113.0</ele><time>2026-04-06T15:39:10.999Z</time></trkpt><trkpt lat="44.16369417865418" lon="9.618342524210279"><ele>113.0</ele><time>2026-04-06T15:39:11.999Z</time></trkpt><trkpt lat="44.16384319533098" lon="9.618370675020698"><ele>113.0</ele><time>2026-04-06T15:39:12.999Z</time></trkpt><trkpt lat="44.163993188276265" lon="9.618409586483025"><ele>113.0</ele><time>2026-04-06T15:39:13.999Z</time></trkpt><trkpt lat="44.16413400180781" lon="9.618479823155397"><ele>113.0</ele><time>2026-04-06T15:39:14.999Z</time></trkpt><trkpt lat="44.164253672798985" lon="9.618516411960385"><ele>113.0</ele><time>2026-04-06T15:39:15.999Z</time></trkpt><trkpt lat="44.164341248058" lon="9.61854555347086"><ele>110.83333333333333</ele><time>2026-04-06T15:39:16.999Z</time></trkpt><trkpt lat="44.16442513651037" lon="9.618538244365887"><ele>108.66666666666666</ele><time>2026-04-06T15:39:17.999Z</time></trkpt><trkpt lat="44.16449286628082" lon="9.618481831779873"><ele>106.5</ele><time>2026-04-06T15:39:18.999Z</time></trkpt><trkpt lat="44.16452630488074" lon="9.618383956741251"><ele>104.33333333333334</ele><time>2026-04-06T15:39:19.999Z</time></trkpt><trkpt lat="44.1644850543647" lon="9.61828860261"><ele>102.16666666666667</ele><time>2026-04-06T15:39:20.999Z</time></trkpt><trkpt lat="44.16444342795985" lon="9.61821933638643"><ele>100.0</ele><time>2026-04-06T15:39:21.999Z</time></trkpt><trkpt lat="44.16439870290144" lon="9.618143453763079"><ele>100.0</ele><time>2026-04-06T15:39:22.999Z</time></trkpt><trkpt lat="44.16434454398511" lon="9.618052399816463"><ele>100.0</ele><time>2026-04-06T15:39:23.999Z</time></trkpt><trkpt lat="44.16427943496197" lon="9.617962937965222"><ele>100.0</ele><time>2026-04-06T15:39:24.999Z</time></trkpt><trkpt lat="44.164191352859895" lon="9.617825003738314"><ele>100.0</ele><time>2026-04-06T15:39:25.999Z</time></trkpt><trkpt lat="44.16412621610266" lon="9.617728250956713"><ele>100.0</ele><time>2026-04-06T15:39:26.999Z</time></trkpt><trkpt lat="44.16411447468103" lon="9.617609670553042"><ele>98.2</ele><time>2026-04-06T15:39:27.999Z</time></trkpt><trkpt lat="44.16412127429931" lon="9.617520114403018"><ele>96.4</ele><time>2026-04-06T15:39:28.999Z</time></trkpt><trkpt lat="44.16417264573292" lon="9.61743034242756"><ele>94.6</ele><time>2026-04-06T15:39:29.999Z</time></trkpt><trkpt lat="44.16427645480792" lon="9.617362418781928"><ele>92.8</ele><time>2026-04-06T15:39:30.999Z</time></trkpt><trkpt lat="44.16437259208945" lon="9.617272161111773"><ele>91.0</ele><time>2026-04-06T15:39:31.999Z</time></trkpt><trkpt lat="44.16446535328092" lon="9.61715243101022"><ele>90.0</ele><time>2026-04-06T15:39:32.999Z</time></trkpt><trkpt lat="44.16453592998197" lon="9.616966033861555"><ele>89.0</ele><time>2026-04-06T15:39:33.999Z</time></trkpt><trkpt lat="44.164585698635626" lon="9.616761406911605"><ele>88.0</ele><time>2026-04-06T15:39:34.999Z</time></trkpt><trkpt lat="44.16459618708205" lon="9.616573659512587"><ele>87.0</ele><time>2026-04-06T15:39:35.999Z</time></trkpt><trkpt lat="44.164609197635876" lon="9.616411077263253"><ele>87.0</ele><time>2026-04-06T15:39:36.999Z</time></trkpt><trkpt lat="44.164645306652695" lon="9.616288920926355"><ele>87.0</ele><time>2026-04-06T15:39:37.999Z</time></trkpt><trkpt lat="44.16467662135817" lon="9.616199940329517"><ele>87.0</ele><time>2026-04-06T15:39:38.999Z</time></trkpt><trkpt lat="44.16474885016989" lon="9.616070953799438"><ele>87.0</ele><time>2026-04-06T15:39:40.998Z</time></trkpt><trkpt lat="44.16482068355541" lon="9.61593780712431"><ele>87.0</ele><time>2026-04-06T15:39:42.998Z</time></trkpt><trkpt lat="44.16484386065123" lon="9.615851619896105"><ele>85.19999999999999</ele><time>2026-04-06T15:39:43.998Z</time></trkpt><trkpt lat="44.164857132763494" lon="9.615691567326795"><ele>83.39999999999999</ele><time>2026-04-06T15:39:45.998Z</time></trkpt><trkpt lat="44.16487405324103" lon="9.615546867304657"><ele>81.6</ele><time>2026-04-06T15:39:47.998Z</time></trkpt><trkpt lat="44.16485281851573" lon="9.615416724001"><ele>79.8</ele><time>2026-04-06T15:39:49.998Z</time></trkpt><trkpt lat="44.16478645428279" lon="9.61532416466813"><ele>78.0</ele><time>2026-04-06T15:39:51.998Z</time></trkpt><trkpt lat="44.16467705137208" lon="9.61529223135894"><ele>78.0</ele><time>2026-04-06T15:39:53.998Z</time></trkpt><trkpt lat="44.164605423828135" lon="9.615284650946666"><ele>78.0</ele><time>2026-04-06T15:39:54.998Z</time></trkpt><trkpt lat="44.164497001984735" lon="9.615280953176375"><ele>78.0</ele><time>2026-04-06T15:39:57Z</time></trkpt><trkpt lat="44.16438241385274" lon="9.615284663629723"><ele>78.0</ele><time>2026-04-06T15:39:59Z</time></trkpt><trkpt lat="44.16427876412016" lon="9.615289099129669"><ele>78.0</ele><time>2026-04-06T15:40:01Z</time></trkpt><trkpt lat="44.16417969968661" lon="9.615344561148477"><ele>78.0</ele><time>2026-04-06T15:40:03Z</time></trkpt><trkpt lat="44.16407328221709" lon="9.615393403419679"><ele>78.0</ele><time>2026-04-06T15:40:05Z</time></trkpt><trkpt lat="44.16398710397782" lon="9.615432758177885"><ele>78.0</ele><time>2026-04-06T15:40:07Z</time></trkpt><trkpt lat="44.16390157506204" lon="9.615360647728995"><ele>78.0</ele><time>2026-04-06T15:40:09Z</time></trkpt><trkpt lat="44.163892678332715" lon="9.615272081627353"><ele>78.0</ele><time>2026-04-06T15:40:10Z</time></trkpt><trkpt lat="44.16388954919133" lon="9.61511067822927"><ele>80.8</ele><time>2026-04-06T15:40:12Z</time></trkpt><trkpt lat="44.163911776364614" lon="9.615000235607063"><ele>83.6</ele><time>2026-04-06T15:40:13Z</time></trkpt><trkpt lat="44.16393841326553" lon="9.614875262930054"><ele>86.39999999999999</ele><time>2026-04-06T15:40:15Z</time></trkpt><trkpt lat="44.16400631958117" lon="9.614763507511688"><ele>89.19999999999999</ele><time>2026-04-06T15:40:17Z</time></trkpt><trkpt lat="44.164074247630005" lon="9.614624503928455"><ele>92.0</ele><time>2026-04-06T15:40:19Z</time></trkpt><trkpt lat="44.16412230694845" lon="9.614530454606308"><ele>85.6</ele><time>2026-04-06T15:40:20Z</time></trkpt><trkpt lat="44.16419190044631" lon="9.614402754103574"><ele>79.19999999999999</ele><time>2026-04-06T15:40:22Z</time></trkpt><trkpt lat="44.16421065846853" lon="9.614279134420087"><ele>72.8</ele><time>2026-04-06T15:40:23Z</time></trkpt><trkpt lat="44.1642433553542" lon="9.614136018624128"><ele>66.4</ele><time>2026-04-06T15:40:24Z</time></trkpt><trkpt lat="44.16428640643127" lon="9.613978988220914"><ele>60.0</ele><time>2026-04-06T15:40:25Z</time></trkpt><trkpt lat="44.16431204426725" lon="9.613801012282535"><ele>60.25</ele><time>2026-04-06T15:40:26Z</time></trkpt><trkpt lat="44.164315585733824" lon="9.613585467293893"><ele>60.5</ele><time>2026-04-06T15:40:27Z</time></trkpt><trkpt lat="44.16435584545425" lon="9.613385450549671"><ele>60.75</ele><time>2026-04-06T15:40:28Z</time></trkpt><trkpt lat="44.16437919871101" lon="9.613215646318785"><ele>61.0</ele><time>2026-04-06T15:40:29Z</time></trkpt><trkpt lat="44.16438457859853" lon="9.613072458810295"><ele>61.0</ele><time>2026-04-06T15:40:30Z</time></trkpt><trkpt lat="44.16438974405637" lon="9.612951223498591"><ele>61.0</ele><time>2026-04-06T15:40:31Z</time></trkpt><trkpt lat="44.16445488787982" lon="9.612790450997553"><ele>61.0</ele><time>2026-04-06T15:40:32Z</time></trkpt><trkpt lat="44.164580611539066" lon="9.612703172179007"><ele>61.0</ele><time>2026-04-06T15:40:33Z</time></trkpt><trkpt lat="44.164690375811716" lon="9.612580127342191"><ele>61.666666666666664</ele><time>2026-04-06T15:40:34Z</time></trkpt><trkpt lat="44.16478827024124" lon="9.612461133510005"><ele>62.33333333333333</ele><time>2026-04-06T15:40:35Z</time></trkpt><trkpt lat="44.164935140139136" lon="9.61229194905898"><ele>63.0</ele><time>2026-04-06T15:40:36Z</time></trkpt><trkpt lat="44.16506178418794" lon="9.612126032383442"><ele>58.33333333333333</ele><time>2026-04-06T15:40:37Z</time></trkpt><trkpt lat="44.165206382822895" lon="9.611959775962227"><ele>53.666666666666664</ele><time>2026-04-06T15:40:38Z</time></trkpt><trkpt lat="44.16531848835399" lon="9.611829482363351"><ele>49.0</ele><time>2026-04-06T15:40:39Z</time></trkpt><trkpt lat="44.165412643285045" lon="9.61172732869588"><ele>48.99999999999999</ele><time>2026-04-06T15:40:40Z</time></trkpt><trkpt lat="44.16549819728465" lon="9.611646780183456"><ele>49.0</ele><time>2026-04-06T15:40:41Z</time></trkpt><trkpt lat="44.16556766637106" lon="9.611608867881841"><ele>49.0</ele><time>2026-04-06T15:40:41.999Z</time></trkpt><trkpt lat="44.16563873009731" lon="9.611544139276518"><ele>49.0</ele><time>2026-04-06T15:40:43.999Z</time></trkpt><trkpt lat="44.16567571061413" lon="9.61166635289391"><ele>48.99999999999999</ele><time>2026-04-06T15:40:45.999Z</time></trkpt><trkpt lat="44.165618778670364" lon="9.61175226183621"><ele>49.0</ele><time>2026-04-06T15:40:46.999Z</time></trkpt><trkpt lat="44.16558117524841" lon="9.611892817503424"><ele>47.0</ele><time>2026-04-06T15:40:47.999Z</time></trkpt><trkpt lat="44.16552572416341" lon="9.612047966014114"><ele>45.0</ele><time>2026-04-06T15:40:48.999Z</time></trkpt><trkpt lat="44.165464685016495" lon="9.612223462707686"><ele>43.0</ele><time>2026-04-06T15:40:49.999Z</time></trkpt><trkpt lat="44.16539346698919" lon="9.612402810298997"><ele>41.0</ele><time>2026-04-06T15:40:50.999Z</time></trkpt><trkpt lat="44.165339103856674" lon="9.612586643766734"><ele>41.0</ele><time>2026-04-06T15:40:51.999Z</time></trkpt><trkpt lat="44.16530936979521" lon="9.612764291172244"><ele>41.0</ele><time>2026-04-06T15:40:52.999Z</time></trkpt><trkpt lat="44.16528043507709" lon="9.612911143734017"><ele>41.0</ele><time>2026-04-06T15:40:53.999Z</time></trkpt><trkpt lat="44.165269625115016" lon="9.613055593774886"><ele>41.0</ele><time>2026-04-06T15:40:54.999Z</time></trkpt><trkpt lat="44.16528257489136" lon="9.613174521612768"><ele>41.0</ele><time>2026-04-06T15:40:55.999Z</time></trkpt><trkpt lat="44.16531628869881" lon="9.613263037921152"><ele>40.199999999999996</ele><time>2026-04-06T15:40:56.999Z</time></trkpt><trkpt lat="44.165414356607194" lon="9.613318418940406"><ele>39.4</ele><time>2026-04-06T15:40:57.999Z</time></trkpt><trkpt lat="44.16551916683806" lon="9.613351336272896"><ele>38.6</ele><time>2026-04-06T15:40:58.999Z</time></trkpt><trkpt lat="44.16562575389035" lon="9.613363990157984"><ele>37.8</ele><time>2026-04-06T15:40:59.999Z</time></trkpt><trkpt lat="44.165697614212775" lon="9.613357608330832"><ele>37.0</ele><time>2026-04-06T15:41:00.999Z</time></trkpt><trkpt lat="44.165774268780744" lon="9.613238094472962"><ele>33.800000000000004</ele><time>2026-04-06T15:41:02.999Z</time></trkpt><trkpt lat="44.1657231958465" lon="9.613083449785444"><ele>30.6</ele><time>2026-04-06T15:41:03.999Z</time></trkpt><trkpt lat="44.16572445364878" lon="9.612954086715796"><ele>27.400000000000002</ele><time>2026-04-06T15:41:04.999Z</time></trkpt><trkpt lat="44.16574612352188" lon="9.61285267078965"><ele>24.200000000000003</ele><time>2026-04-06T15:41:05.999Z</time></trkpt><trkpt lat="44.165823126449645" lon="9.612828593269906"><ele>21.0</ele><time>2026-04-06T15:41:06.999Z</time></trkpt><trkpt lat="44.1659132998446" lon="9.612795824702841"><ele>21.0</ele><time>2026-04-06T15:41:07.999Z</time></trkpt><trkpt lat="44.16603053364047" lon="9.612724593484364"><ele>21.0</ele><time>2026-04-06T15:41:08.999Z</time></trkpt><trkpt lat="44.16615308998037" lon="9.612685037880793"><ele>21.0</ele><time>2026-04-06T15:41:09.999Z</time></trkpt><trkpt lat="44.16624491247664" lon="9.612626646124184"><ele>21.0</ele><time>2026-04-06T15:41:10.999Z</time></trkpt><trkpt lat="44.16635970650633" lon="9.612623815918658"><ele>21.0</ele><time>2026-04-06T15:41:12.999Z</time></trkpt><trkpt lat="44.16640955965938" lon="9.612752309011983"><ele>21.0</ele><time>2026-04-06T15:41:14.999Z</time></trkpt><trkpt lat="44.166421171659664" lon="9.612867382067654"><ele>21.0</ele><time>2026-04-06T15:41:15.999Z</time></trkpt><trkpt lat="44.166426456656225" lon="9.612991139931964"><ele>21.0</ele><time>2026-04-06T15:41:16.999Z</time></trkpt><trkpt lat="44.16645194097388" lon="9.613078157906044"><ele>21.0</ele><time>2026-04-06T15:41:17.999Z</time></trkpt><trkpt lat="44.16653981329471" lon="9.613144314581378"><ele>21.0</ele><time>2026-04-06T15:41:18.999Z</time></trkpt><trkpt lat="44.16662489779209" lon="9.613238447467115"><ele>19.166666666666668</ele><time>2026-04-06T15:41:19.999Z</time></trkpt><trkpt lat="44.166682520687324" lon="9.613350174226005"><ele>17.333333333333332</ele><time>2026-04-06T15:41:20.999Z</time></trkpt><trkpt lat="44.16672493524858" lon="9.613418459039348"><ele>15.5</ele><time>2026-04-06T15:41:21.999Z</time></trkpt><trkpt lat="44.16679953203246" lon="9.613448695276446"><ele>13.666666666666668</ele><time>2026-04-06T15:41:22.999Z</time></trkpt><trkpt lat="44.16689008735568" lon="9.613466487468658"><ele>11.833333333333334</ele><time>2026-04-06T15:41:23.999Z</time></trkpt><trkpt lat="44.16695845290343" lon="9.6135352558834"><ele>10.0</ele><time>2026-04-06T15:41:24.999Z</time></trkpt><trkpt lat="44.16707096032893" lon="9.613553223880311"><ele>10.0</ele><time>2026-04-06T15:41:26.999Z</time></trkpt><trkpt lat="44.16713752779224" lon="9.613465523964418"><ele>10.0</ele><time>2026-04-06T15:41:27.999Z</time></trkpt><trkpt lat="44.167186585888004" lon="9.613352046252636"><ele>10.0</ele><time>2026-04-06T15:41:28.999Z</time></trkpt><trkpt lat="44.167273594450876" lon="9.613253775373193"><ele>10.0</ele><time>2026-04-06T15:41:29.999Z</time></trkpt><trkpt lat="44.167353290331526" lon="9.613178419040427"><ele>10.0</ele><time>2026-04-06T15:41:30.999Z</time></trkpt><trkpt lat="44.167432323661856" lon="9.613122881787266"><ele>9.6</ele><time>2026-04-06T15:41:31.999Z</time></trkpt><trkpt lat="44.16754968293283" lon="9.612976133556895"><ele>9.2</ele><time>2026-04-06T15:41:33.999Z</time></trkpt><trkpt lat="44.16754396251646" lon="9.612829528587383"><ele>8.8</ele><time>2026-04-06T15:41:35.999Z</time></trkpt><trkpt lat="44.16758167395899" lon="9.61272602924363"><ele>8.4</ele><time>2026-04-06T15:41:38.999Z</time></trkpt><trkpt lat="44.16761446152467" lon="9.612645320071964"><ele>8.0</ele><time>2026-04-06T15:41:42.999Z</time></trkpt><trkpt lat="44.16762673720287" lon="9.612543409963529"><ele>7.999999999999999</ele><time>2026-04-06T15:41:45.998Z</time></trkpt><trkpt lat="44.167652297692825" lon="9.612455021877052"><ele>8.0</ele><time>2026-04-06T15:41:51.998Z</time></trkpt><trkpt lat="44.167686097236036" lon="9.612338712964068"><ele>8.0</ele><time>2026-04-06T15:41:57.998Z</time></trkpt><trkpt lat="44.167727973488724" lon="9.612236624906615"><ele>8.0</ele><time>2026-04-06T15:42:02Z</time></trkpt><trkpt lat="44.167753327002885" lon="9.612114991150857"><ele>7.999999999999999</ele><time>2026-04-06T15:42:08Z</time></trkpt><trkpt lat="44.16776699342581" lon="9.612015668884657"><ele>8.0</ele><time>2026-04-06T15:42:14Z</time></trkpt><trkpt lat="44.167838244634225" lon="9.61197713845804"><ele>7.999999999999999</ele><time>2026-04-06T15:42:25Z</time></trkpt><trkpt lat="44.16792659981751" lon="9.611954760339188"><ele>8.0</ele><time>2026-04-06T15:42:28Z</time></trkpt><trkpt lat="44.16784880464033" lon="9.61201168162015"><ele>8.0</ele><time>2026-04-06T15:42:32Z</time></trkpt><trkpt lat="44.167782846057285" lon="9.612014251063743"><ele>8.0</ele><time>2026-04-06T15:42:34Z</time></trkpt><trkpt lat="44.1677545766778" lon="9.611915238759822"><ele>7.999999999999999</ele><time>2026-04-06T15:43:19.999Z</time></trkpt><trkpt lat="44.167787890666006" lon="9.61180751908516"><ele>8.0</ele><time>2026-04-06T15:43:20.999Z</time></trkpt><trkpt lat="44.1678407824719" lon="9.61168511305304"><ele>7.800000000000001</ele><time>2026-04-06T15:43:21.999Z</time></trkpt><trkpt lat="44.167902477716886" lon="9.61156408325042"><ele>7.6000000000000005</ele><time>2026-04-06T15:43:22.999Z</time></trkpt><trkpt lat="44.167987650239255" lon="9.611455967411159"><ele>7.3999999999999995</ele><time>2026-04-06T15:43:23.999Z</time></trkpt><trkpt lat="44.16804216537356" lon="9.611331816814973"><ele>7.199999999999999</ele><time>2026-04-06T15:43:24.999Z</time></trkpt><trkpt lat="44.1680990111394" lon="9.611206284884641"><ele>7.0</ele><time>2026-04-06T15:43:25.999Z</time></trkpt><trkpt lat="44.16816295061586" lon="9.611074114610727"><ele>6.25</ele><time>2026-04-06T15:43:26.999Z</time></trkpt><trkpt lat="44.16823222421889" lon="9.610938780216816"><ele>5.5</ele><time>2026-04-06T15:43:27.999Z</time></trkpt><trkpt lat="44.16830975605172" lon="9.610797189661781"><ele>4.75</ele><time>2026-04-06T15:43:28.999Z</time></trkpt><trkpt lat="44.1683913828331" lon="9.610659363705262"><ele>4.0</ele><time>2026-04-06T15:43:29.999Z</time></trkpt><trkpt lat="44.16847520645107" lon="9.61052441089569"><ele>4.0</ele><time>2026-04-06T15:43:30.999Z</time></trkpt><trkpt lat="44.16855009908077" lon="9.610374404212754"><ele>4.0</ele><time>2026-04-06T15:43:31.999Z</time></trkpt><trkpt lat="44.168637744990214" lon="9.610251600302023"><ele>4.0</ele><time>2026-04-06T15:43:32.999Z</time></trkpt><trkpt lat="44.168720852252065" lon="9.610138332125054"><ele>4.0</ele><time>2026-04-06T15:43:33.999Z</time></trkpt><trkpt lat="44.16879954299927" lon="9.610033265865717"><ele>4.0</ele><time>2026-04-06T15:43:34.999Z</time></trkpt><trkpt lat="44.168874342811954" lon="9.609934270323958"><ele>4.0</ele><time>2026-04-06T15:43:35.999Z</time></trkpt><trkpt lat="44.16894085296339" lon="9.609853722766577"><ele>4.0</ele><time>2026-04-06T15:43:36.999Z</time></trkpt><trkpt lat="44.16902164266897" lon="9.609768520284169"><ele>4.0</ele><time>2026-04-06T15:43:37.999Z</time></trkpt><trkpt lat="44.169124261113026" lon="9.609694029143487"><ele>4.0</ele><time>2026-04-06T15:43:38.999Z</time></trkpt><trkpt lat="44.16921711548612" lon="9.609628428039201"><ele>4.2</ele><time>2026-04-06T15:43:39.999Z</time></trkpt><trkpt lat="44.169298827972916" lon="9.609573048710624"><ele>4.4</ele><time>2026-04-06T15:43:40.999Z</time></trkpt><trkpt lat="44.16937539052676" lon="9.60952409526005"><ele>4.6</ele><time>2026-04-06T15:43:41.999Z</time></trkpt><trkpt lat="44.16947125416239" lon="9.609433051716652"><ele>4.8</ele><time>2026-04-06T15:43:42.999Z</time></trkpt><trkpt lat="44.169567381094595" lon="9.609316340920461"><ele>5.0</ele><time>2026-04-06T15:43:43.999Z</time></trkpt><trkpt lat="44.1696790055109" lon="9.609197121723096"><ele>5.0</ele><time>2026-04-06T15:43:44.999Z</time></trkpt><trkpt lat="44.169797857805634" lon="9.609073221901777"><ele>5.0</ele><time>2026-04-06T15:43:45.999Z</time></trkpt><trkpt lat="44.16991785878249" lon="9.608949638700997"><ele>5.0</ele><time>2026-04-06T15:43:46.999Z</time></trkpt><trkpt lat="44.17001961748752" lon="9.60884264657552"><ele>5.0</ele><time>2026-04-06T15:43:47.999Z</time></trkpt><trkpt lat="44.17010365156398" lon="9.608751500622375"><ele>4.6</ele><time>2026-04-06T15:43:48.999Z</time></trkpt><trkpt lat="44.17017552574922" lon="9.608679979169866"><ele>4.2</ele><time>2026-04-06T15:43:49.999Z</time></trkpt><trkpt lat="44.17022793350226" lon="9.608626762398556"><ele>3.8</ele><time>2026-04-06T15:43:50.999Z</time></trkpt><trkpt lat="44.17032171819928" lon="9.608621628283311"><ele>3.4</ele><time>2026-04-06T15:43:52.998Z</time></trkpt><trkpt lat="44.170415448331035" lon="9.608644212959899"><ele>3.0</ele><time>2026-04-06T15:43:54.998Z</time></trkpt><trkpt lat="44.17038531129864" lon="9.608805999204163"><ele>4.0</ele><time>2026-04-06T15:43:58.998Z</time></trkpt><trkpt lat="44.17030823448123" lon="9.608872570194999"><ele>5.0</ele><time>2026-04-06T15:43:59.998Z</time></trkpt><trkpt lat="44.17024358728425" lon="9.608957810819302"><ele>6.000000000000001</ele><time>2026-04-06T15:44:00.998Z</time></trkpt><trkpt lat="44.170175193730024" lon="9.609044138072285"><ele>7.0</ele><time>2026-04-06T15:44:01.998Z</time></trkpt><trkpt lat="44.17010271899878" lon="9.609138761448914"><ele>8.0</ele><time>2026-04-06T15:44:02.998Z</time></trkpt><trkpt lat="44.17002324119375" lon="9.60923826356049"><ele>8.0</ele><time>2026-04-06T15:44:03.998Z</time></trkpt><trkpt lat="44.16993298789338" lon="9.609346147394165"><ele>8.0</ele><time>2026-04-06T15:44:04.998Z</time></trkpt><trkpt lat="44.16984730850125" lon="9.609442323501073"><ele>8.0</ele><time>2026-04-06T15:44:05.998Z</time></trkpt><trkpt lat="44.16978129250089" lon="9.60952620370083"><ele>8.0</ele><time>2026-04-06T15:44:06.998Z</time></trkpt><trkpt lat="44.16972940614432" lon="9.609596810568105"><ele>8.0</ele><time>2026-04-06T15:44:08Z</time></trkpt><trkpt lat="44.169669929794786" lon="9.609729085135909"><ele>6.0</ele><time>2026-04-06T15:44:10Z</time></trkpt><trkpt lat="44.169696321915026" lon="9.609812240729966"><ele>6.0</ele><time>2026-04-06T15:44:12Z</time></trkpt></trkseg></trk></gpx>